<?xml version="1.0" encoding="UTF-8" standalone="no" ?>
<gpx xmlns="http://www.topografix.com/GPX/1/1" xmlns:xsi="http://www.w3.org/2001/XMLSchema-instance" xsi:schemaLocation="http://www.topografix.com/GPX/1/1 http://www.topografix.com/GPX/1/1/gpx.xsd" version="1.1" creator="VisuGPX - https://www.visugpx.com">
  <metadata>
    <name>2021-06-21 Thoraise</name>
  </metadata>
  <trk>
    <name><![CDATA[2021-06-21 Thoraise_1]]></name>
    <trkseg>
      <trkpt lat="47.17837" lon="5.90301">
        <ele>229.2</ele>
        <time>2021-06-21T09:45:52Z</time>
      </trkpt>
      <trkpt lat="47.17837" lon="5.90301">
        <ele>233.8</ele>
        <time>2021-06-21T09:45:53Z</time>
      </trkpt>
      <trkpt lat="47.17837" lon="5.90302">
        <ele>235.2</ele>
        <time>2021-06-21T09:45:54Z</time>
      </trkpt>
      <trkpt lat="47.17837" lon="5.90302">
        <ele>236.2</ele>
        <time>2021-06-21T09:45:55Z</time>
      </trkpt>
      <trkpt lat="47.1784" lon="5.90302">
        <ele>235.8</ele>
        <time>2021-06-21T09:46:06Z</time>
      </trkpt>
      <trkpt lat="47.1784" lon="5.90303">
        <ele>235.8</ele>
        <time>2021-06-21T09:46:07Z</time>
      </trkpt>
      <trkpt lat="47.17839" lon="5.90303">
        <ele>235.8</ele>
        <time>2021-06-21T09:46:08Z</time>
      </trkpt>
      <trkpt lat="47.17838" lon="5.90305">
        <ele>235.8</ele>
        <time>2021-06-21T09:46:09Z</time>
      </trkpt>
      <trkpt lat="47.17837" lon="5.90305">
        <ele>235.8</ele>
        <time>2021-06-21T09:46:10Z</time>
      </trkpt>
      <trkpt lat="47.17836" lon="5.90306">
        <ele>235.8</ele>
        <time>2021-06-21T09:46:11Z</time>
      </trkpt>
      <trkpt lat="47.17835" lon="5.90308">
        <ele>235.8</ele>
        <time>2021-06-21T09:46:12Z</time>
      </trkpt>
      <trkpt lat="47.17834" lon="5.9031">
        <ele>235.8</ele>
        <time>2021-06-21T09:46:13Z</time>
      </trkpt>
      <trkpt lat="47.17832" lon="5.90311">
        <ele>235.8</ele>
        <time>2021-06-21T09:46:14Z</time>
      </trkpt>
      <trkpt lat="47.1783" lon="5.90313">
        <ele>235.8</ele>
        <time>2021-06-21T09:46:15Z</time>
      </trkpt>
      <trkpt lat="47.17828" lon="5.90315">
        <ele>235.8</ele>
        <time>2021-06-21T09:46:16Z</time>
      </trkpt>
      <trkpt lat="47.17826" lon="5.90316">
        <ele>235.8</ele>
        <time>2021-06-21T09:46:17Z</time>
      </trkpt>
      <trkpt lat="47.17824" lon="5.90318">
        <ele>235.8</ele>
        <time>2021-06-21T09:46:18Z</time>
      </trkpt>
      <trkpt lat="47.17813" lon="5.90328">
        <ele>235.8</ele>
        <time>2021-06-21T09:46:23Z</time>
      </trkpt>
      <trkpt lat="47.17794" lon="5.90344">
        <ele>236</ele>
        <time>2021-06-21T09:46:31Z</time>
      </trkpt>
      <trkpt lat="47.17777" lon="5.90364">
        <ele>236</ele>
        <time>2021-06-21T09:46:38Z</time>
      </trkpt>
      <trkpt lat="47.17753" lon="5.90396">
        <ele>235.8</ele>
        <time>2021-06-21T09:46:47Z</time>
      </trkpt>
      <trkpt lat="47.17734" lon="5.90409">
        <ele>236</ele>
        <time>2021-06-21T09:46:53Z</time>
      </trkpt>
      <trkpt lat="47.1772" lon="5.90414">
        <ele>236</ele>
        <time>2021-06-21T09:46:57Z</time>
      </trkpt>
      <trkpt lat="47.17701" lon="5.90418">
        <ele>236.2</ele>
        <time>2021-06-21T09:47:02Z</time>
      </trkpt>
      <trkpt lat="47.17664" lon="5.90432">
        <ele>236</ele>
        <time>2021-06-21T09:47:11Z</time>
      </trkpt>
      <trkpt lat="47.17627" lon="5.90437">
        <ele>235.6</ele>
        <time>2021-06-21T09:47:19Z</time>
      </trkpt>
      <trkpt lat="47.17614" lon="5.90439">
        <ele>235.4</ele>
        <time>2021-06-21T09:47:22Z</time>
      </trkpt>
      <trkpt lat="47.1761" lon="5.9044">
        <ele>235.4</ele>
        <time>2021-06-21T09:47:23Z</time>
      </trkpt>
      <trkpt lat="47.17606" lon="5.9044">
        <ele>235.4</ele>
        <time>2021-06-21T09:47:24Z</time>
      </trkpt>
      <trkpt lat="47.17602" lon="5.90442">
        <ele>235.4</ele>
        <time>2021-06-21T09:47:25Z</time>
      </trkpt>
      <trkpt lat="47.17598" lon="5.90443">
        <ele>235.2</ele>
        <time>2021-06-21T09:47:26Z</time>
      </trkpt>
      <trkpt lat="47.17594" lon="5.90444">
        <ele>235.2</ele>
        <time>2021-06-21T09:47:27Z</time>
      </trkpt>
      <trkpt lat="47.17591" lon="5.90445">
        <ele>235.4</ele>
        <time>2021-06-21T09:47:28Z</time>
      </trkpt>
      <trkpt lat="47.17587" lon="5.90446">
        <ele>235.4</ele>
        <time>2021-06-21T09:47:29Z</time>
      </trkpt>
      <trkpt lat="47.17584" lon="5.90448">
        <ele>235.4</ele>
        <time>2021-06-21T09:47:30Z</time>
      </trkpt>
      <trkpt lat="47.17581" lon="5.9045">
        <ele>235.4</ele>
        <time>2021-06-21T09:47:31Z</time>
      </trkpt>
      <trkpt lat="47.17577" lon="5.90452">
        <ele>235.8</ele>
        <time>2021-06-21T09:47:32Z</time>
      </trkpt>
      <trkpt lat="47.17575" lon="5.90454">
        <ele>235.8</ele>
        <time>2021-06-21T09:47:33Z</time>
      </trkpt>
      <trkpt lat="47.17571" lon="5.90456">
        <ele>235.8</ele>
        <time>2021-06-21T09:47:34Z</time>
      </trkpt>
      <trkpt lat="47.17568" lon="5.90458">
        <ele>236</ele>
        <time>2021-06-21T09:47:35Z</time>
      </trkpt>
      <trkpt lat="47.17547" lon="5.90471">
        <ele>235.8</ele>
        <time>2021-06-21T09:47:40Z</time>
      </trkpt>
      <trkpt lat="47.17533" lon="5.90476">
        <ele>235.6</ele>
        <time>2021-06-21T09:47:43Z</time>
      </trkpt>
      <trkpt lat="47.17529" lon="5.90478">
        <ele>235.2</ele>
        <time>2021-06-21T09:47:44Z</time>
      </trkpt>
      <trkpt lat="47.17525" lon="5.90479">
        <ele>235.2</ele>
        <time>2021-06-21T09:47:45Z</time>
      </trkpt>
      <trkpt lat="47.17522" lon="5.90481">
        <ele>235.2</ele>
        <time>2021-06-21T09:47:46Z</time>
      </trkpt>
      <trkpt lat="47.17519" lon="5.90482">
        <ele>235.2</ele>
        <time>2021-06-21T09:47:47Z</time>
      </trkpt>
      <trkpt lat="47.17516" lon="5.90483">
        <ele>235.2</ele>
        <time>2021-06-21T09:47:48Z</time>
      </trkpt>
      <trkpt lat="47.17513" lon="5.90484">
        <ele>235.2</ele>
        <time>2021-06-21T09:47:49Z</time>
      </trkpt>
      <trkpt lat="47.1751" lon="5.90485">
        <ele>235.2</ele>
        <time>2021-06-21T09:47:50Z</time>
      </trkpt>
      <trkpt lat="47.17507" lon="5.90485">
        <ele>235.2</ele>
        <time>2021-06-21T09:47:51Z</time>
      </trkpt>
      <trkpt lat="47.17502" lon="5.90483">
        <ele>235.2</ele>
        <time>2021-06-21T09:47:53Z</time>
      </trkpt>
      <trkpt lat="47.17499" lon="5.9048">
        <ele>235.2</ele>
        <time>2021-06-21T09:47:54Z</time>
      </trkpt>
      <trkpt lat="47.17496" lon="5.90477">
        <ele>235.2</ele>
        <time>2021-06-21T09:47:55Z</time>
      </trkpt>
      <trkpt lat="47.17494" lon="5.90474">
        <ele>235.4</ele>
        <time>2021-06-21T09:47:56Z</time>
      </trkpt>
      <trkpt lat="47.17492" lon="5.90471">
        <ele>235.4</ele>
        <time>2021-06-21T09:47:57Z</time>
      </trkpt>
      <trkpt lat="47.17481" lon="5.90448">
        <ele>235.4</ele>
        <time>2021-06-21T09:48:03Z</time>
      </trkpt>
      <trkpt lat="47.17473" lon="5.90423">
        <ele>235.8</ele>
        <time>2021-06-21T09:48:09Z</time>
      </trkpt>
      <trkpt lat="47.17474" lon="5.90418">
        <ele>236</ele>
        <time>2021-06-21T09:48:10Z</time>
      </trkpt>
      <trkpt lat="47.17474" lon="5.90414">
        <ele>236</ele>
        <time>2021-06-21T09:48:11Z</time>
      </trkpt>
      <trkpt lat="47.17475" lon="5.90409">
        <ele>236.2</ele>
        <time>2021-06-21T09:48:12Z</time>
      </trkpt>
      <trkpt lat="47.17476" lon="5.90405">
        <ele>236.2</ele>
        <time>2021-06-21T09:48:13Z</time>
      </trkpt>
      <trkpt lat="47.17482" lon="5.90383">
        <ele>236.6</ele>
        <time>2021-06-21T09:48:18Z</time>
      </trkpt>
      <trkpt lat="47.17483" lon="5.90379">
        <ele>236.6</ele>
        <time>2021-06-21T09:48:19Z</time>
      </trkpt>
      <trkpt lat="47.17486" lon="5.90363">
        <ele>237.2</ele>
        <time>2021-06-21T09:48:23Z</time>
      </trkpt>
      <trkpt lat="47.17488" lon="5.90357">
        <ele>237.6</ele>
        <time>2021-06-21T09:48:25Z</time>
      </trkpt>
      <trkpt lat="47.17489" lon="5.90354">
        <ele>237.6</ele>
        <time>2021-06-21T09:48:26Z</time>
      </trkpt>
      <trkpt lat="47.1749" lon="5.90351">
        <ele>237.8</ele>
        <time>2021-06-21T09:48:27Z</time>
      </trkpt>
      <trkpt lat="47.17492" lon="5.90348">
        <ele>238</ele>
        <time>2021-06-21T09:48:28Z</time>
      </trkpt>
      <trkpt lat="47.17493" lon="5.90346">
        <ele>238.2</ele>
        <time>2021-06-21T09:48:29Z</time>
      </trkpt>
      <trkpt lat="47.17495" lon="5.90345">
        <ele>238.4</ele>
        <time>2021-06-21T09:48:30Z</time>
      </trkpt>
      <trkpt lat="47.17497" lon="5.90344">
        <ele>238.8</ele>
        <time>2021-06-21T09:48:31Z</time>
      </trkpt>
      <trkpt lat="47.17499" lon="5.90344">
        <ele>239</ele>
        <time>2021-06-21T09:48:32Z</time>
      </trkpt>
      <trkpt lat="47.17501" lon="5.90346">
        <ele>239.2</ele>
        <time>2021-06-21T09:48:33Z</time>
      </trkpt>
      <trkpt lat="47.17502" lon="5.90349">
        <ele>239.4</ele>
        <time>2021-06-21T09:48:34Z</time>
      </trkpt>
      <trkpt lat="47.17504" lon="5.90352">
        <ele>239.6</ele>
        <time>2021-06-21T09:48:35Z</time>
      </trkpt>
      <trkpt lat="47.17505" lon="5.90354">
        <ele>239.8</ele>
        <time>2021-06-21T09:48:36Z</time>
      </trkpt>
      <trkpt lat="47.17507" lon="5.90358">
        <ele>239.8</ele>
        <time>2021-06-21T09:48:37Z</time>
      </trkpt>
      <trkpt lat="47.17508" lon="5.90362">
        <ele>240</ele>
        <time>2021-06-21T09:48:38Z</time>
      </trkpt>
      <trkpt lat="47.17509" lon="5.90366">
        <ele>240.2</ele>
        <time>2021-06-21T09:48:39Z</time>
      </trkpt>
      <trkpt lat="47.17509" lon="5.9037">
        <ele>240.2</ele>
        <time>2021-06-21T09:48:40Z</time>
      </trkpt>
      <trkpt lat="47.1751" lon="5.90373">
        <ele>240.2</ele>
        <time>2021-06-21T09:48:41Z</time>
      </trkpt>
      <trkpt lat="47.17511" lon="5.90377">
        <ele>240.2</ele>
        <time>2021-06-21T09:48:42Z</time>
      </trkpt>
      <trkpt lat="47.17512" lon="5.90383">
        <ele>240.4</ele>
        <time>2021-06-21T09:48:43Z</time>
      </trkpt>
      <trkpt lat="47.17514" lon="5.90387">
        <ele>240.4</ele>
        <time>2021-06-21T09:48:44Z</time>
      </trkpt>
      <trkpt lat="47.17515" lon="5.90391">
        <ele>240.4</ele>
        <time>2021-06-21T09:48:45Z</time>
      </trkpt>
      <trkpt lat="47.17516" lon="5.90396">
        <ele>240.4</ele>
        <time>2021-06-21T09:48:46Z</time>
      </trkpt>
      <trkpt lat="47.17517" lon="5.90401">
        <ele>240.4</ele>
        <time>2021-06-21T09:48:47Z</time>
      </trkpt>
      <trkpt lat="47.17518" lon="5.90404">
        <ele>240.4</ele>
        <time>2021-06-21T09:48:48Z</time>
      </trkpt>
      <trkpt lat="47.1752" lon="5.9041">
        <ele>240.4</ele>
        <time>2021-06-21T09:48:49Z</time>
      </trkpt>
      <trkpt lat="47.17521" lon="5.90415">
        <ele>240.4</ele>
        <time>2021-06-21T09:48:50Z</time>
      </trkpt>
      <trkpt lat="47.17523" lon="5.9042">
        <ele>240.4</ele>
        <time>2021-06-21T09:48:51Z</time>
      </trkpt>
      <trkpt lat="47.17524" lon="5.90426">
        <ele>240.4</ele>
        <time>2021-06-21T09:48:52Z</time>
      </trkpt>
      <trkpt lat="47.17525" lon="5.90431">
        <ele>240.4</ele>
        <time>2021-06-21T09:48:53Z</time>
      </trkpt>
      <trkpt lat="47.17527" lon="5.90436">
        <ele>240.4</ele>
        <time>2021-06-21T09:48:54Z</time>
      </trkpt>
      <trkpt lat="47.17538" lon="5.90482">
        <ele>240.2</ele>
        <time>2021-06-21T09:49:02Z</time>
      </trkpt>
      <trkpt lat="47.1755" lon="5.90528">
        <ele>240.2</ele>
        <time>2021-06-21T09:49:10Z</time>
      </trkpt>
      <trkpt lat="47.17551" lon="5.90534">
        <ele>240.4</ele>
        <time>2021-06-21T09:49:11Z</time>
      </trkpt>
      <trkpt lat="47.17561" lon="5.90571">
        <ele>240.6</ele>
        <time>2021-06-21T09:49:17Z</time>
      </trkpt>
      <trkpt lat="47.17568" lon="5.90597">
        <ele>240.4</ele>
        <time>2021-06-21T09:49:21Z</time>
      </trkpt>
      <trkpt lat="47.17577" lon="5.90633">
        <ele>240.4</ele>
        <time>2021-06-21T09:49:26Z</time>
      </trkpt>
      <trkpt lat="47.176" lon="5.90698">
        <ele>239.6</ele>
        <time>2021-06-21T09:49:35Z</time>
      </trkpt>
      <trkpt lat="47.17603" lon="5.90706">
        <ele>239.4</ele>
        <time>2021-06-21T09:49:36Z</time>
      </trkpt>
      <trkpt lat="47.17612" lon="5.90722">
        <ele>239.2</ele>
        <time>2021-06-21T09:49:38Z</time>
      </trkpt>
      <trkpt lat="47.17622" lon="5.9074">
        <ele>239</ele>
        <time>2021-06-21T09:49:41Z</time>
      </trkpt>
      <trkpt lat="47.17633" lon="5.90762">
        <ele>238.2</ele>
        <time>2021-06-21T09:49:44Z</time>
      </trkpt>
      <trkpt lat="47.17635" lon="5.90767">
        <ele>238</ele>
        <time>2021-06-21T09:49:45Z</time>
      </trkpt>
      <trkpt lat="47.17638" lon="5.90773">
        <ele>237.8</ele>
        <time>2021-06-21T09:49:46Z</time>
      </trkpt>
      <trkpt lat="47.17641" lon="5.90779">
        <ele>237.8</ele>
        <time>2021-06-21T09:49:47Z</time>
      </trkpt>
      <trkpt lat="47.17645" lon="5.90786">
        <ele>237.6</ele>
        <time>2021-06-21T09:49:48Z</time>
      </trkpt>
      <trkpt lat="47.17648" lon="5.90792">
        <ele>237.6</ele>
        <time>2021-06-21T09:49:49Z</time>
      </trkpt>
      <trkpt lat="47.1765" lon="5.90797">
        <ele>237.6</ele>
        <time>2021-06-21T09:49:50Z</time>
      </trkpt>
      <trkpt lat="47.17653" lon="5.90802">
        <ele>237.6</ele>
        <time>2021-06-21T09:49:51Z</time>
      </trkpt>
      <trkpt lat="47.17657" lon="5.90809">
        <ele>237.8</ele>
        <time>2021-06-21T09:49:52Z</time>
      </trkpt>
      <trkpt lat="47.1766" lon="5.90816">
        <ele>237.6</ele>
        <time>2021-06-21T09:49:53Z</time>
      </trkpt>
      <trkpt lat="47.17667" lon="5.90828">
        <ele>237.8</ele>
        <time>2021-06-21T09:49:55Z</time>
      </trkpt>
      <trkpt lat="47.17682" lon="5.90858">
        <ele>237.6</ele>
        <time>2021-06-21T09:50:00Z</time>
      </trkpt>
      <trkpt lat="47.17701" lon="5.90893">
        <ele>237.4</ele>
        <time>2021-06-21T09:50:06Z</time>
      </trkpt>
      <trkpt lat="47.17712" lon="5.90911">
        <ele>237.4</ele>
        <time>2021-06-21T09:50:09Z</time>
      </trkpt>
      <trkpt lat="47.17728" lon="5.90928">
        <ele>237.2</ele>
        <time>2021-06-21T09:50:13Z</time>
      </trkpt>
      <trkpt lat="47.17729" lon="5.90932">
        <ele>237.2</ele>
        <time>2021-06-21T09:50:14Z</time>
      </trkpt>
      <trkpt lat="47.17729" lon="5.90936">
        <ele>237.2</ele>
        <time>2021-06-21T09:50:15Z</time>
      </trkpt>
      <trkpt lat="47.17728" lon="5.90938">
        <ele>237.2</ele>
        <time>2021-06-21T09:50:16Z</time>
      </trkpt>
      <trkpt lat="47.17726" lon="5.9094">
        <ele>237.2</ele>
        <time>2021-06-21T09:50:17Z</time>
      </trkpt>
      <trkpt lat="47.17723" lon="5.90944">
        <ele>237.2</ele>
        <time>2021-06-21T09:50:18Z</time>
      </trkpt>
      <trkpt lat="47.17721" lon="5.90946">
        <ele>237.2</ele>
        <time>2021-06-21T09:50:19Z</time>
      </trkpt>
      <trkpt lat="47.17718" lon="5.9095">
        <ele>237</ele>
        <time>2021-06-21T09:50:20Z</time>
      </trkpt>
      <trkpt lat="47.17716" lon="5.90958">
        <ele>237</ele>
        <time>2021-06-21T09:50:22Z</time>
      </trkpt>
      <trkpt lat="47.17714" lon="5.90964">
        <ele>237</ele>
        <time>2021-06-21T09:50:23Z</time>
      </trkpt>
      <trkpt lat="47.17713" lon="5.90968">
        <ele>236.8</ele>
        <time>2021-06-21T09:50:24Z</time>
      </trkpt>
      <trkpt lat="47.17707" lon="5.90988">
        <ele>236.6</ele>
        <time>2021-06-21T09:50:29Z</time>
      </trkpt>
      <trkpt lat="47.17702" lon="5.91016">
        <ele>236.4</ele>
        <time>2021-06-21T09:50:35Z</time>
      </trkpt>
      <trkpt lat="47.177" lon="5.91024">
        <ele>236.4</ele>
        <time>2021-06-21T09:50:37Z</time>
      </trkpt>
      <trkpt lat="47.17697" lon="5.91028">
        <ele>236.6</ele>
        <time>2021-06-21T09:50:38Z</time>
      </trkpt>
      <trkpt lat="47.17695" lon="5.9103">
        <ele>236.6</ele>
        <time>2021-06-21T09:50:39Z</time>
      </trkpt>
      <trkpt lat="47.17692" lon="5.91034">
        <ele>236.6</ele>
        <time>2021-06-21T09:50:40Z</time>
      </trkpt>
      <trkpt lat="47.1769" lon="5.91037">
        <ele>236.8</ele>
        <time>2021-06-21T09:50:41Z</time>
      </trkpt>
      <trkpt lat="47.1767" lon="5.91057">
        <ele>237</ele>
        <time>2021-06-21T09:50:47Z</time>
      </trkpt>
      <trkpt lat="47.17642" lon="5.91085">
        <ele>237.2</ele>
        <time>2021-06-21T09:50:55Z</time>
      </trkpt>
      <trkpt lat="47.17603" lon="5.91125">
        <ele>237.6</ele>
        <time>2021-06-21T09:51:06Z</time>
      </trkpt>
      <trkpt lat="47.17576" lon="5.91149">
        <ele>238</ele>
        <time>2021-06-21T09:51:13Z</time>
      </trkpt>
      <trkpt lat="47.17572" lon="5.91153">
        <ele>238</ele>
        <time>2021-06-21T09:51:14Z</time>
      </trkpt>
      <trkpt lat="47.17565" lon="5.91161">
        <ele>238.2</ele>
        <time>2021-06-21T09:51:16Z</time>
      </trkpt>
      <trkpt lat="47.17561" lon="5.91165">
        <ele>238.4</ele>
        <time>2021-06-21T09:51:17Z</time>
      </trkpt>
      <trkpt lat="47.17558" lon="5.91169">
        <ele>238.4</ele>
        <time>2021-06-21T09:51:18Z</time>
      </trkpt>
      <trkpt lat="47.17556" lon="5.91173">
        <ele>238.6</ele>
        <time>2021-06-21T09:51:19Z</time>
      </trkpt>
      <trkpt lat="47.17554" lon="5.91176">
        <ele>238.6</ele>
        <time>2021-06-21T09:51:20Z</time>
      </trkpt>
      <trkpt lat="47.1755" lon="5.91181">
        <ele>238.8</ele>
        <time>2021-06-21T09:51:21Z</time>
      </trkpt>
      <trkpt lat="47.17547" lon="5.91185">
        <ele>238.8</ele>
        <time>2021-06-21T09:51:22Z</time>
      </trkpt>
      <trkpt lat="47.17544" lon="5.91189">
        <ele>239</ele>
        <time>2021-06-21T09:51:23Z</time>
      </trkpt>
      <trkpt lat="47.17542" lon="5.91192">
        <ele>239</ele>
        <time>2021-06-21T09:51:24Z</time>
      </trkpt>
      <trkpt lat="47.17538" lon="5.91196">
        <ele>239.2</ele>
        <time>2021-06-21T09:51:25Z</time>
      </trkpt>
      <trkpt lat="47.17531" lon="5.91204">
        <ele>239.2</ele>
        <time>2021-06-21T09:51:27Z</time>
      </trkpt>
      <trkpt lat="47.17504" lon="5.91226">
        <ele>239.4</ele>
        <time>2021-06-21T09:51:34Z</time>
      </trkpt>
      <trkpt lat="47.17499" lon="5.91227">
        <ele>239.4</ele>
        <time>2021-06-21T09:51:35Z</time>
      </trkpt>
      <trkpt lat="47.17467" lon="5.91236">
        <ele>239.2</ele>
        <time>2021-06-21T09:51:41Z</time>
      </trkpt>
      <trkpt lat="47.17422" lon="5.91238">
        <ele>238.2</ele>
        <time>2021-06-21T09:51:49Z</time>
      </trkpt>
      <trkpt lat="47.17394" lon="5.91243">
        <ele>237.6</ele>
        <time>2021-06-21T09:51:54Z</time>
      </trkpt>
      <trkpt lat="47.17383" lon="5.9125">
        <ele>237.6</ele>
        <time>2021-06-21T09:51:56Z</time>
      </trkpt>
      <trkpt lat="47.17343" lon="5.91278">
        <ele>238</ele>
        <time>2021-06-21T09:52:04Z</time>
      </trkpt>
      <trkpt lat="47.17307" lon="5.91304">
        <ele>238</ele>
        <time>2021-06-21T09:52:11Z</time>
      </trkpt>
      <trkpt lat="47.17255" lon="5.91346">
        <ele>237.8</ele>
        <time>2021-06-21T09:52:21Z</time>
      </trkpt>
      <trkpt lat="47.17242" lon="5.91365">
        <ele>237.6</ele>
        <time>2021-06-21T09:52:24Z</time>
      </trkpt>
      <trkpt lat="47.17231" lon="5.91386">
        <ele>237.6</ele>
        <time>2021-06-21T09:52:27Z</time>
      </trkpt>
      <trkpt lat="47.17228" lon="5.91392">
        <ele>237.6</ele>
        <time>2021-06-21T09:52:28Z</time>
      </trkpt>
      <trkpt lat="47.17225" lon="5.91399">
        <ele>237.6</ele>
        <time>2021-06-21T09:52:29Z</time>
      </trkpt>
      <trkpt lat="47.17222" lon="5.91406">
        <ele>237.4</ele>
        <time>2021-06-21T09:52:30Z</time>
      </trkpt>
      <trkpt lat="47.17219" lon="5.91413">
        <ele>237.4</ele>
        <time>2021-06-21T09:52:31Z</time>
      </trkpt>
      <trkpt lat="47.17218" lon="5.9142">
        <ele>237.4</ele>
        <time>2021-06-21T09:52:32Z</time>
      </trkpt>
      <trkpt lat="47.17217" lon="5.91428">
        <ele>237.4</ele>
        <time>2021-06-21T09:52:33Z</time>
      </trkpt>
      <trkpt lat="47.17217" lon="5.91435">
        <ele>237.4</ele>
        <time>2021-06-21T09:52:34Z</time>
      </trkpt>
      <trkpt lat="47.17216" lon="5.91442">
        <ele>237.4</ele>
        <time>2021-06-21T09:52:35Z</time>
      </trkpt>
      <trkpt lat="47.17215" lon="5.9145">
        <ele>237.6</ele>
        <time>2021-06-21T09:52:36Z</time>
      </trkpt>
      <trkpt lat="47.17214" lon="5.91457">
        <ele>237.6</ele>
        <time>2021-06-21T09:52:37Z</time>
      </trkpt>
      <trkpt lat="47.17213" lon="5.91464">
        <ele>237.8</ele>
        <time>2021-06-21T09:52:38Z</time>
      </trkpt>
      <trkpt lat="47.17212" lon="5.91471">
        <ele>237.8</ele>
        <time>2021-06-21T09:52:39Z</time>
      </trkpt>
      <trkpt lat="47.1721" lon="5.91478">
        <ele>237.8</ele>
        <time>2021-06-21T09:52:40Z</time>
      </trkpt>
      <trkpt lat="47.17209" lon="5.91485">
        <ele>238</ele>
        <time>2021-06-21T09:52:41Z</time>
      </trkpt>
      <trkpt lat="47.17208" lon="5.91492">
        <ele>238</ele>
        <time>2021-06-21T09:52:42Z</time>
      </trkpt>
      <trkpt lat="47.17206" lon="5.91499">
        <ele>238</ele>
        <time>2021-06-21T09:52:43Z</time>
      </trkpt>
      <trkpt lat="47.17204" lon="5.91506">
        <ele>238</ele>
        <time>2021-06-21T09:52:44Z</time>
      </trkpt>
      <trkpt lat="47.17202" lon="5.91513">
        <ele>238</ele>
        <time>2021-06-21T09:52:45Z</time>
      </trkpt>
      <trkpt lat="47.172" lon="5.91521">
        <ele>238</ele>
        <time>2021-06-21T09:52:46Z</time>
      </trkpt>
      <trkpt lat="47.17196" lon="5.91551">
        <ele>237.8</ele>
        <time>2021-06-21T09:52:50Z</time>
      </trkpt>
      <trkpt lat="47.17188" lon="5.91597">
        <ele>237.6</ele>
        <time>2021-06-21T09:52:56Z</time>
      </trkpt>
      <trkpt lat="47.17187" lon="5.91604">
        <ele>237.6</ele>
        <time>2021-06-21T09:52:57Z</time>
      </trkpt>
      <trkpt lat="47.17179" lon="5.91651">
        <ele>237.8</ele>
        <time>2021-06-21T09:53:03Z</time>
      </trkpt>
      <trkpt lat="47.17178" lon="5.91669">
        <ele>237.8</ele>
        <time>2021-06-21T09:53:05Z</time>
      </trkpt>
      <trkpt lat="47.17178" lon="5.91677">
        <ele>237.8</ele>
        <time>2021-06-21T09:53:06Z</time>
      </trkpt>
      <trkpt lat="47.17179" lon="5.91711">
        <ele>237.8</ele>
        <time>2021-06-21T09:53:10Z</time>
      </trkpt>
      <trkpt lat="47.17184" lon="5.9178">
        <ele>238.2</ele>
        <time>2021-06-21T09:53:18Z</time>
      </trkpt>
      <trkpt lat="47.17182" lon="5.91806">
        <ele>238.2</ele>
        <time>2021-06-21T09:53:21Z</time>
      </trkpt>
      <trkpt lat="47.1718" lon="5.91823">
        <ele>238.2</ele>
        <time>2021-06-21T09:53:23Z</time>
      </trkpt>
      <trkpt lat="47.17176" lon="5.9188">
        <ele>237.2</ele>
        <time>2021-06-21T09:53:29Z</time>
      </trkpt>
      <trkpt lat="47.17175" lon="5.91889">
        <ele>237</ele>
        <time>2021-06-21T09:53:30Z</time>
      </trkpt>
      <trkpt lat="47.17175" lon="5.91914">
        <ele>236.8</ele>
        <time>2021-06-21T09:53:33Z</time>
      </trkpt>
      <trkpt lat="47.17175" lon="5.91923">
        <ele>236.8</ele>
        <time>2021-06-21T09:53:34Z</time>
      </trkpt>
      <trkpt lat="47.17175" lon="5.91932">
        <ele>236.8</ele>
        <time>2021-06-21T09:53:35Z</time>
      </trkpt>
      <trkpt lat="47.17175" lon="5.9194">
        <ele>236.8</ele>
        <time>2021-06-21T09:53:36Z</time>
      </trkpt>
      <trkpt lat="47.17174" lon="5.91984">
        <ele>236.6</ele>
        <time>2021-06-21T09:53:41Z</time>
      </trkpt>
      <trkpt lat="47.17174" lon="5.91993">
        <ele>236.4</ele>
        <time>2021-06-21T09:53:42Z</time>
      </trkpt>
      <trkpt lat="47.17173" lon="5.92003">
        <ele>236.4</ele>
        <time>2021-06-21T09:53:43Z</time>
      </trkpt>
      <trkpt lat="47.17173" lon="5.92021">
        <ele>236.4</ele>
        <time>2021-06-21T09:53:45Z</time>
      </trkpt>
      <trkpt lat="47.17175" lon="5.92064">
        <ele>236.4</ele>
        <time>2021-06-21T09:53:50Z</time>
      </trkpt>
      <trkpt lat="47.17181" lon="5.9213">
        <ele>236.4</ele>
        <time>2021-06-21T09:53:58Z</time>
      </trkpt>
      <trkpt lat="47.17181" lon="5.92139">
        <ele>236.4</ele>
        <time>2021-06-21T09:53:59Z</time>
      </trkpt>
      <trkpt lat="47.17183" lon="5.92149">
        <ele>236.4</ele>
        <time>2021-06-21T09:54:00Z</time>
      </trkpt>
      <trkpt lat="47.17183" lon="5.92155">
        <ele>236.4</ele>
        <time>2021-06-21T09:54:01Z</time>
      </trkpt>
      <trkpt lat="47.17184" lon="5.92163">
        <ele>236.4</ele>
        <time>2021-06-21T09:54:02Z</time>
      </trkpt>
      <trkpt lat="47.17185" lon="5.92171">
        <ele>236.4</ele>
        <time>2021-06-21T09:54:03Z</time>
      </trkpt>
      <trkpt lat="47.17186" lon="5.92179">
        <ele>236.4</ele>
        <time>2021-06-21T09:54:04Z</time>
      </trkpt>
      <trkpt lat="47.17187" lon="5.92189">
        <ele>236.4</ele>
        <time>2021-06-21T09:54:05Z</time>
      </trkpt>
      <trkpt lat="47.17188" lon="5.92195">
        <ele>236.4</ele>
        <time>2021-06-21T09:54:06Z</time>
      </trkpt>
      <trkpt lat="47.17189" lon="5.92203">
        <ele>236.4</ele>
        <time>2021-06-21T09:54:07Z</time>
      </trkpt>
      <trkpt lat="47.1719" lon="5.92211">
        <ele>236.4</ele>
        <time>2021-06-21T09:54:08Z</time>
      </trkpt>
      <trkpt lat="47.17191" lon="5.92219">
        <ele>236.4</ele>
        <time>2021-06-21T09:54:09Z</time>
      </trkpt>
      <trkpt lat="47.17194" lon="5.92234">
        <ele>236.2</ele>
        <time>2021-06-21T09:54:11Z</time>
      </trkpt>
      <trkpt lat="47.17195" lon="5.92242">
        <ele>236.6</ele>
        <time>2021-06-21T09:54:12Z</time>
      </trkpt>
      <trkpt lat="47.17206" lon="5.92295">
        <ele>236.4</ele>
        <time>2021-06-21T09:54:19Z</time>
      </trkpt>
      <trkpt lat="47.17207" lon="5.92303">
        <ele>236.4</ele>
        <time>2021-06-21T09:54:20Z</time>
      </trkpt>
      <trkpt lat="47.17209" lon="5.9231">
        <ele>236.4</ele>
        <time>2021-06-21T09:54:21Z</time>
      </trkpt>
      <trkpt lat="47.17211" lon="5.92317">
        <ele>236.6</ele>
        <time>2021-06-21T09:54:22Z</time>
      </trkpt>
      <trkpt lat="47.17213" lon="5.92324">
        <ele>236.6</ele>
        <time>2021-06-21T09:54:23Z</time>
      </trkpt>
      <trkpt lat="47.17219" lon="5.92355">
        <ele>236.8</ele>
        <time>2021-06-21T09:54:27Z</time>
      </trkpt>
      <trkpt lat="47.17228" lon="5.92418">
        <ele>236.8</ele>
        <time>2021-06-21T09:54:35Z</time>
      </trkpt>
      <trkpt lat="47.1723" lon="5.92432">
        <ele>236.8</ele>
        <time>2021-06-21T09:54:37Z</time>
      </trkpt>
      <trkpt lat="47.17231" lon="5.92439">
        <ele>237</ele>
        <time>2021-06-21T09:54:38Z</time>
      </trkpt>
      <trkpt lat="47.17234" lon="5.92446">
        <ele>237</ele>
        <time>2021-06-21T09:54:39Z</time>
      </trkpt>
      <trkpt lat="47.17236" lon="5.92452">
        <ele>237</ele>
        <time>2021-06-21T09:54:40Z</time>
      </trkpt>
      <trkpt lat="47.17239" lon="5.92458">
        <ele>237</ele>
        <time>2021-06-21T09:54:41Z</time>
      </trkpt>
      <trkpt lat="47.17242" lon="5.92463">
        <ele>237.2</ele>
        <time>2021-06-21T09:54:42Z</time>
      </trkpt>
      <trkpt lat="47.17245" lon="5.92469">
        <ele>237.2</ele>
        <time>2021-06-21T09:54:43Z</time>
      </trkpt>
      <trkpt lat="47.17248" lon="5.92474">
        <ele>237.4</ele>
        <time>2021-06-21T09:54:44Z</time>
      </trkpt>
      <trkpt lat="47.17252" lon="5.92479">
        <ele>237.6</ele>
        <time>2021-06-21T09:54:45Z</time>
      </trkpt>
      <trkpt lat="47.17255" lon="5.92485">
        <ele>237.6</ele>
        <time>2021-06-21T09:54:46Z</time>
      </trkpt>
      <trkpt lat="47.17258" lon="5.9249">
        <ele>237.8</ele>
        <time>2021-06-21T09:54:47Z</time>
      </trkpt>
      <trkpt lat="47.17262" lon="5.92502">
        <ele>238.2</ele>
        <time>2021-06-21T09:54:49Z</time>
      </trkpt>
      <trkpt lat="47.17273" lon="5.92538">
        <ele>238.8</ele>
        <time>2021-06-21T09:54:54Z</time>
      </trkpt>
      <trkpt lat="47.17289" lon="5.92603">
        <ele>238.2</ele>
        <time>2021-06-21T09:55:02Z</time>
      </trkpt>
      <trkpt lat="47.17308" lon="5.92676">
        <ele>237.6</ele>
        <time>2021-06-21T09:55:11Z</time>
      </trkpt>
      <trkpt lat="47.17312" lon="5.92693">
        <ele>237.6</ele>
        <time>2021-06-21T09:55:13Z</time>
      </trkpt>
      <trkpt lat="47.17314" lon="5.92701">
        <ele>237.6</ele>
        <time>2021-06-21T09:55:14Z</time>
      </trkpt>
      <trkpt lat="47.17317" lon="5.92708">
        <ele>237.6</ele>
        <time>2021-06-21T09:55:15Z</time>
      </trkpt>
      <trkpt lat="47.17319" lon="5.92716">
        <ele>237.8</ele>
        <time>2021-06-21T09:55:16Z</time>
      </trkpt>
      <trkpt lat="47.17321" lon="5.92723">
        <ele>237.8</ele>
        <time>2021-06-21T09:55:17Z</time>
      </trkpt>
      <trkpt lat="47.17323" lon="5.9273">
        <ele>237.8</ele>
        <time>2021-06-21T09:55:18Z</time>
      </trkpt>
      <trkpt lat="47.17325" lon="5.92737">
        <ele>237.8</ele>
        <time>2021-06-21T09:55:19Z</time>
      </trkpt>
      <trkpt lat="47.17327" lon="5.92745">
        <ele>238</ele>
        <time>2021-06-21T09:55:20Z</time>
      </trkpt>
      <trkpt lat="47.17329" lon="5.92752">
        <ele>238</ele>
        <time>2021-06-21T09:55:21Z</time>
      </trkpt>
      <trkpt lat="47.1733" lon="5.92758">
        <ele>238</ele>
        <time>2021-06-21T09:55:22Z</time>
      </trkpt>
      <trkpt lat="47.17336" lon="5.92788">
        <ele>238.4</ele>
        <time>2021-06-21T09:55:26Z</time>
      </trkpt>
      <trkpt lat="47.17337" lon="5.92797">
        <ele>238.6</ele>
        <time>2021-06-21T09:55:27Z</time>
      </trkpt>
      <trkpt lat="47.1734" lon="5.92818">
        <ele>239</ele>
        <time>2021-06-21T09:55:30Z</time>
      </trkpt>
      <trkpt lat="47.17341" lon="5.92825">
        <ele>239.2</ele>
        <time>2021-06-21T09:55:31Z</time>
      </trkpt>
      <trkpt lat="47.17342" lon="5.9283">
        <ele>239.2</ele>
        <time>2021-06-21T09:55:32Z</time>
      </trkpt>
      <trkpt lat="47.17344" lon="5.92838">
        <ele>239.2</ele>
        <time>2021-06-21T09:55:33Z</time>
      </trkpt>
      <trkpt lat="47.17346" lon="5.92845">
        <ele>239.2</ele>
        <time>2021-06-21T09:55:34Z</time>
      </trkpt>
      <trkpt lat="47.17348" lon="5.92851">
        <ele>239.2</ele>
        <time>2021-06-21T09:55:35Z</time>
      </trkpt>
      <trkpt lat="47.1735" lon="5.92857">
        <ele>239.4</ele>
        <time>2021-06-21T09:55:36Z</time>
      </trkpt>
      <trkpt lat="47.17351" lon="5.92863">
        <ele>239.8</ele>
        <time>2021-06-21T09:55:37Z</time>
      </trkpt>
      <trkpt lat="47.17354" lon="5.92869">
        <ele>239.8</ele>
        <time>2021-06-21T09:55:38Z</time>
      </trkpt>
      <trkpt lat="47.17358" lon="5.92881">
        <ele>240</ele>
        <time>2021-06-21T09:55:40Z</time>
      </trkpt>
      <trkpt lat="47.1736" lon="5.92887">
        <ele>240</ele>
        <time>2021-06-21T09:55:41Z</time>
      </trkpt>
      <trkpt lat="47.17362" lon="5.92893">
        <ele>240.2</ele>
        <time>2021-06-21T09:55:42Z</time>
      </trkpt>
      <trkpt lat="47.17364" lon="5.92898">
        <ele>240.4</ele>
        <time>2021-06-21T09:55:43Z</time>
      </trkpt>
      <trkpt lat="47.17365" lon="5.92904">
        <ele>240.6</ele>
        <time>2021-06-21T09:55:44Z</time>
      </trkpt>
      <trkpt lat="47.17369" lon="5.92915">
        <ele>240.8</ele>
        <time>2021-06-21T09:55:46Z</time>
      </trkpt>
      <trkpt lat="47.17371" lon="5.92921">
        <ele>240.8</ele>
        <time>2021-06-21T09:55:47Z</time>
      </trkpt>
      <trkpt lat="47.17373" lon="5.92927">
        <ele>241</ele>
        <time>2021-06-21T09:55:48Z</time>
      </trkpt>
      <trkpt lat="47.17375" lon="5.92932">
        <ele>241.2</ele>
        <time>2021-06-21T09:55:49Z</time>
      </trkpt>
      <trkpt lat="47.17379" lon="5.92944">
        <ele>241.2</ele>
        <time>2021-06-21T09:55:51Z</time>
      </trkpt>
      <trkpt lat="47.17381" lon="5.9295">
        <ele>241.4</ele>
        <time>2021-06-21T09:55:52Z</time>
      </trkpt>
      <trkpt lat="47.17383" lon="5.92956">
        <ele>241.4</ele>
        <time>2021-06-21T09:55:53Z</time>
      </trkpt>
      <trkpt lat="47.17385" lon="5.92962">
        <ele>241.4</ele>
        <time>2021-06-21T09:55:54Z</time>
      </trkpt>
      <trkpt lat="47.17387" lon="5.92968">
        <ele>241.4</ele>
        <time>2021-06-21T09:55:55Z</time>
      </trkpt>
      <trkpt lat="47.17389" lon="5.92974">
        <ele>241.6</ele>
        <time>2021-06-21T09:55:56Z</time>
      </trkpt>
      <trkpt lat="47.17391" lon="5.92979">
        <ele>241.6</ele>
        <time>2021-06-21T09:55:57Z</time>
      </trkpt>
      <trkpt lat="47.17393" lon="5.92986">
        <ele>241.8</ele>
        <time>2021-06-21T09:55:58Z</time>
      </trkpt>
      <trkpt lat="47.17396" lon="5.92993">
        <ele>241.8</ele>
        <time>2021-06-21T09:55:59Z</time>
      </trkpt>
      <trkpt lat="47.17398" lon="5.92999">
        <ele>241.8</ele>
        <time>2021-06-21T09:56:00Z</time>
      </trkpt>
      <trkpt lat="47.17421" lon="5.93062">
        <ele>241.6</ele>
        <time>2021-06-21T09:56:10Z</time>
      </trkpt>
      <trkpt lat="47.17444" lon="5.93109">
        <ele>241.8</ele>
        <time>2021-06-21T09:56:18Z</time>
      </trkpt>
      <trkpt lat="47.17471" lon="5.93163">
        <ele>242</ele>
        <time>2021-06-21T09:56:27Z</time>
      </trkpt>
      <trkpt lat="47.17479" lon="5.93182">
        <ele>242.2</ele>
        <time>2021-06-21T09:56:30Z</time>
      </trkpt>
      <trkpt lat="47.17498" lon="5.9323">
        <ele>242.6</ele>
        <time>2021-06-21T09:56:37Z</time>
      </trkpt>
      <trkpt lat="47.17508" lon="5.93258">
        <ele>242.6</ele>
        <time>2021-06-21T09:56:41Z</time>
      </trkpt>
      <trkpt lat="47.1751" lon="5.93265">
        <ele>242.6</ele>
        <time>2021-06-21T09:56:42Z</time>
      </trkpt>
      <trkpt lat="47.17514" lon="5.93281">
        <ele>242.6</ele>
        <time>2021-06-21T09:56:44Z</time>
      </trkpt>
      <trkpt lat="47.17524" lon="5.93335">
        <ele>242.4</ele>
        <time>2021-06-21T09:56:51Z</time>
      </trkpt>
      <trkpt lat="47.17526" lon="5.93343">
        <ele>242.4</ele>
        <time>2021-06-21T09:56:52Z</time>
      </trkpt>
      <trkpt lat="47.17535" lon="5.93382">
        <ele>242.2</ele>
        <time>2021-06-21T09:56:57Z</time>
      </trkpt>
      <trkpt lat="47.1755" lon="5.93436">
        <ele>242.2</ele>
        <time>2021-06-21T09:57:04Z</time>
      </trkpt>
      <trkpt lat="47.1756" lon="5.93473">
        <ele>242</ele>
        <time>2021-06-21T09:57:09Z</time>
      </trkpt>
      <trkpt lat="47.17567" lon="5.93495">
        <ele>242</ele>
        <time>2021-06-21T09:57:12Z</time>
      </trkpt>
      <trkpt lat="47.17591" lon="5.93569">
        <ele>242</ele>
        <time>2021-06-21T09:57:22Z</time>
      </trkpt>
      <trkpt lat="47.17597" lon="5.93583">
        <ele>242</ele>
        <time>2021-06-21T09:57:24Z</time>
      </trkpt>
      <trkpt lat="47.17605" lon="5.93602">
        <ele>242</ele>
        <time>2021-06-21T09:57:27Z</time>
      </trkpt>
      <trkpt lat="47.17608" lon="5.93608">
        <ele>242</ele>
        <time>2021-06-21T09:57:28Z</time>
      </trkpt>
      <trkpt lat="47.17611" lon="5.93616">
        <ele>242</ele>
        <time>2021-06-21T09:57:29Z</time>
      </trkpt>
      <trkpt lat="47.17613" lon="5.93621">
        <ele>242</ele>
        <time>2021-06-21T09:57:30Z</time>
      </trkpt>
      <trkpt lat="47.17615" lon="5.93627">
        <ele>242</ele>
        <time>2021-06-21T09:57:31Z</time>
      </trkpt>
      <trkpt lat="47.17618" lon="5.93634">
        <ele>242.2</ele>
        <time>2021-06-21T09:57:32Z</time>
      </trkpt>
      <trkpt lat="47.1762" lon="5.93641">
        <ele>242.2</ele>
        <time>2021-06-21T09:57:33Z</time>
      </trkpt>
      <trkpt lat="47.17623" lon="5.93648">
        <ele>242.2</ele>
        <time>2021-06-21T09:57:34Z</time>
      </trkpt>
      <trkpt lat="47.1764" lon="5.93695">
        <ele>242.4</ele>
        <time>2021-06-21T09:57:41Z</time>
      </trkpt>
      <trkpt lat="47.17665" lon="5.93758">
        <ele>242</ele>
        <time>2021-06-21T09:57:50Z</time>
      </trkpt>
      <trkpt lat="47.17667" lon="5.93764">
        <ele>242</ele>
        <time>2021-06-21T09:57:51Z</time>
      </trkpt>
      <trkpt lat="47.17691" lon="5.93818">
        <ele>242</ele>
        <time>2021-06-21T09:57:59Z</time>
      </trkpt>
      <trkpt lat="47.17712" lon="5.93877">
        <ele>242</ele>
        <time>2021-06-21T09:58:07Z</time>
      </trkpt>
      <trkpt lat="47.17729" lon="5.93919">
        <ele>242</ele>
        <time>2021-06-21T09:58:13Z</time>
      </trkpt>
      <trkpt lat="47.17739" lon="5.93938">
        <ele>241.8</ele>
        <time>2021-06-21T09:58:16Z</time>
      </trkpt>
      <trkpt lat="47.17769" lon="5.93999">
        <ele>241.8</ele>
        <time>2021-06-21T09:58:25Z</time>
      </trkpt>
      <trkpt lat="47.17793" lon="5.94054">
        <ele>241.6</ele>
        <time>2021-06-21T09:58:33Z</time>
      </trkpt>
      <trkpt lat="47.178" lon="5.94071">
        <ele>241.4</ele>
        <time>2021-06-21T09:58:35Z</time>
      </trkpt>
      <trkpt lat="47.17824" lon="5.94126">
        <ele>240.2</ele>
        <time>2021-06-21T09:58:43Z</time>
      </trkpt>
      <trkpt lat="47.17827" lon="5.94133">
        <ele>240.2</ele>
        <time>2021-06-21T09:58:44Z</time>
      </trkpt>
      <trkpt lat="47.17847" lon="5.94176">
        <ele>240.4</ele>
        <time>2021-06-21T09:58:50Z</time>
      </trkpt>
      <trkpt lat="47.17877" lon="5.94236">
        <ele>240.6</ele>
        <time>2021-06-21T09:58:59Z</time>
      </trkpt>
      <trkpt lat="47.17889" lon="5.94254">
        <ele>240.6</ele>
        <time>2021-06-21T09:59:02Z</time>
      </trkpt>
      <trkpt lat="47.17907" lon="5.94274">
        <ele>241</ele>
        <time>2021-06-21T09:59:06Z</time>
      </trkpt>
      <trkpt lat="47.1791" lon="5.94278">
        <ele>240.8</ele>
        <time>2021-06-21T09:59:07Z</time>
      </trkpt>
      <trkpt lat="47.17915" lon="5.94284">
        <ele>240.8</ele>
        <time>2021-06-21T09:59:08Z</time>
      </trkpt>
      <trkpt lat="47.17919" lon="5.9429">
        <ele>240.8</ele>
        <time>2021-06-21T09:59:09Z</time>
      </trkpt>
      <trkpt lat="47.1794" lon="5.94317">
        <ele>241</ele>
        <time>2021-06-21T09:59:14Z</time>
      </trkpt>
      <trkpt lat="47.17964" lon="5.94346">
        <ele>241</ele>
        <time>2021-06-21T09:59:19Z</time>
      </trkpt>
      <trkpt lat="47.17973" lon="5.9436">
        <ele>241</ele>
        <time>2021-06-21T09:59:21Z</time>
      </trkpt>
      <trkpt lat="47.1798" lon="5.94373">
        <ele>241</ele>
        <time>2021-06-21T09:59:23Z</time>
      </trkpt>
      <trkpt lat="47.17984" lon="5.94379">
        <ele>241</ele>
        <time>2021-06-21T09:59:24Z</time>
      </trkpt>
      <trkpt lat="47.17991" lon="5.94392">
        <ele>241</ele>
        <time>2021-06-21T09:59:26Z</time>
      </trkpt>
      <trkpt lat="47.17995" lon="5.94398">
        <ele>241</ele>
        <time>2021-06-21T09:59:27Z</time>
      </trkpt>
      <trkpt lat="47.17999" lon="5.94404">
        <ele>241</ele>
        <time>2021-06-21T09:59:28Z</time>
      </trkpt>
      <trkpt lat="47.18002" lon="5.9441">
        <ele>241</ele>
        <time>2021-06-21T09:59:29Z</time>
      </trkpt>
      <trkpt lat="47.18006" lon="5.94416">
        <ele>241</ele>
        <time>2021-06-21T09:59:30Z</time>
      </trkpt>
      <trkpt lat="47.1801" lon="5.94422">
        <ele>241</ele>
        <time>2021-06-21T09:59:31Z</time>
      </trkpt>
      <trkpt lat="47.18014" lon="5.94428">
        <ele>241</ele>
        <time>2021-06-21T09:59:32Z</time>
      </trkpt>
      <trkpt lat="47.18018" lon="5.94432">
        <ele>241</ele>
        <time>2021-06-21T09:59:33Z</time>
      </trkpt>
      <trkpt lat="47.18023" lon="5.94439">
        <ele>241</ele>
        <time>2021-06-21T09:59:34Z</time>
      </trkpt>
      <trkpt lat="47.18027" lon="5.94444">
        <ele>241</ele>
        <time>2021-06-21T09:59:35Z</time>
      </trkpt>
      <trkpt lat="47.18032" lon="5.94449">
        <ele>241</ele>
        <time>2021-06-21T09:59:36Z</time>
      </trkpt>
      <trkpt lat="47.18057" lon="5.94478">
        <ele>241</ele>
        <time>2021-06-21T09:59:42Z</time>
      </trkpt>
      <trkpt lat="47.18061" lon="5.94482">
        <ele>241</ele>
        <time>2021-06-21T09:59:43Z</time>
      </trkpt>
      <trkpt lat="47.18065" lon="5.94487">
        <ele>241.2</ele>
        <time>2021-06-21T09:59:44Z</time>
      </trkpt>
      <trkpt lat="47.18069" lon="5.94491">
        <ele>241.2</ele>
        <time>2021-06-21T09:59:45Z</time>
      </trkpt>
      <trkpt lat="47.18074" lon="5.94496">
        <ele>241.4</ele>
        <time>2021-06-21T09:59:46Z</time>
      </trkpt>
      <trkpt lat="47.18078" lon="5.945">
        <ele>241.4</ele>
        <time>2021-06-21T09:59:47Z</time>
      </trkpt>
      <trkpt lat="47.18081" lon="5.94504">
        <ele>241.6</ele>
        <time>2021-06-21T09:59:48Z</time>
      </trkpt>
      <trkpt lat="47.18125" lon="5.94556">
        <ele>241.8</ele>
        <time>2021-06-21T09:59:58Z</time>
      </trkpt>
      <trkpt lat="47.18145" lon="5.94579">
        <ele>241.4</ele>
        <time>2021-06-21T10:00:02Z</time>
      </trkpt>
      <trkpt lat="47.1815" lon="5.94584">
        <ele>241.2</ele>
        <time>2021-06-21T10:00:03Z</time>
      </trkpt>
      <trkpt lat="47.18155" lon="5.94589">
        <ele>241</ele>
        <time>2021-06-21T10:00:04Z</time>
      </trkpt>
      <trkpt lat="47.1816" lon="5.94594">
        <ele>240.8</ele>
        <time>2021-06-21T10:00:05Z</time>
      </trkpt>
      <trkpt lat="47.18197" lon="5.94629">
        <ele>240.2</ele>
        <time>2021-06-21T10:00:12Z</time>
      </trkpt>
      <trkpt lat="47.18202" lon="5.94633">
        <ele>240.2</ele>
        <time>2021-06-21T10:00:13Z</time>
      </trkpt>
      <trkpt lat="47.18207" lon="5.94638">
        <ele>240</ele>
        <time>2021-06-21T10:00:14Z</time>
      </trkpt>
      <trkpt lat="47.18218" lon="5.94647">
        <ele>239.8</ele>
        <time>2021-06-21T10:00:16Z</time>
      </trkpt>
      <trkpt lat="47.18265" lon="5.94686">
        <ele>239.4</ele>
        <time>2021-06-21T10:00:25Z</time>
      </trkpt>
      <trkpt lat="47.1827" lon="5.94691">
        <ele>239.4</ele>
        <time>2021-06-21T10:00:26Z</time>
      </trkpt>
      <trkpt lat="47.18294" lon="5.94711">
        <ele>239.8</ele>
        <time>2021-06-21T10:00:31Z</time>
      </trkpt>
      <trkpt lat="47.18298" lon="5.94716">
        <ele>239.8</ele>
        <time>2021-06-21T10:00:32Z</time>
      </trkpt>
      <trkpt lat="47.18303" lon="5.9472">
        <ele>239.8</ele>
        <time>2021-06-21T10:00:33Z</time>
      </trkpt>
      <trkpt lat="47.18307" lon="5.94724">
        <ele>239.8</ele>
        <time>2021-06-21T10:00:34Z</time>
      </trkpt>
      <trkpt lat="47.18311" lon="5.94729">
        <ele>239.8</ele>
        <time>2021-06-21T10:00:35Z</time>
      </trkpt>
      <trkpt lat="47.18316" lon="5.94733">
        <ele>240</ele>
        <time>2021-06-21T10:00:36Z</time>
      </trkpt>
      <trkpt lat="47.1832" lon="5.94737">
        <ele>240</ele>
        <time>2021-06-21T10:00:37Z</time>
      </trkpt>
      <trkpt lat="47.18325" lon="5.94742">
        <ele>240</ele>
        <time>2021-06-21T10:00:38Z</time>
      </trkpt>
      <trkpt lat="47.18329" lon="5.94746">
        <ele>240</ele>
        <time>2021-06-21T10:00:39Z</time>
      </trkpt>
      <trkpt lat="47.18334" lon="5.94751">
        <ele>240.2</ele>
        <time>2021-06-21T10:00:40Z</time>
      </trkpt>
      <trkpt lat="47.18364" lon="5.94783">
        <ele>240.4</ele>
        <time>2021-06-21T10:00:47Z</time>
      </trkpt>
      <trkpt lat="47.18372" lon="5.94793">
        <ele>240.2</ele>
        <time>2021-06-21T10:00:49Z</time>
      </trkpt>
      <trkpt lat="47.1839" lon="5.94811">
        <ele>240</ele>
        <time>2021-06-21T10:00:53Z</time>
      </trkpt>
      <trkpt lat="47.18397" lon="5.9482">
        <ele>240</ele>
        <time>2021-06-21T10:00:55Z</time>
      </trkpt>
      <trkpt lat="47.18401" lon="5.94825">
        <ele>240</ele>
        <time>2021-06-21T10:00:56Z</time>
      </trkpt>
      <trkpt lat="47.18405" lon="5.94829">
        <ele>240.2</ele>
        <time>2021-06-21T10:00:57Z</time>
      </trkpt>
      <trkpt lat="47.18409" lon="5.94833">
        <ele>240.2</ele>
        <time>2021-06-21T10:00:58Z</time>
      </trkpt>
      <trkpt lat="47.18413" lon="5.94838">
        <ele>240.4</ele>
        <time>2021-06-21T10:00:59Z</time>
      </trkpt>
      <trkpt lat="47.18417" lon="5.94842">
        <ele>240.4</ele>
        <time>2021-06-21T10:01:00Z</time>
      </trkpt>
      <trkpt lat="47.1842" lon="5.94846">
        <ele>240.4</ele>
        <time>2021-06-21T10:01:01Z</time>
      </trkpt>
      <trkpt lat="47.18424" lon="5.94851">
        <ele>240.4</ele>
        <time>2021-06-21T10:01:02Z</time>
      </trkpt>
      <trkpt lat="47.18427" lon="5.94855">
        <ele>240.6</ele>
        <time>2021-06-21T10:01:03Z</time>
      </trkpt>
      <trkpt lat="47.18431" lon="5.94858">
        <ele>240.6</ele>
        <time>2021-06-21T10:01:04Z</time>
      </trkpt>
      <trkpt lat="47.18434" lon="5.94862">
        <ele>240.6</ele>
        <time>2021-06-21T10:01:05Z</time>
      </trkpt>
      <trkpt lat="47.18438" lon="5.94866">
        <ele>240.8</ele>
        <time>2021-06-21T10:01:06Z</time>
      </trkpt>
      <trkpt lat="47.18441" lon="5.9487">
        <ele>241</ele>
        <time>2021-06-21T10:01:07Z</time>
      </trkpt>
      <trkpt lat="47.18444" lon="5.94874">
        <ele>241</ele>
        <time>2021-06-21T10:01:08Z</time>
      </trkpt>
      <trkpt lat="47.18446" lon="5.94877">
        <ele>241.2</ele>
        <time>2021-06-21T10:01:09Z</time>
      </trkpt>
      <trkpt lat="47.18449" lon="5.94881">
        <ele>241.2</ele>
        <time>2021-06-21T10:01:10Z</time>
      </trkpt>
      <trkpt lat="47.18451" lon="5.94884">
        <ele>241.6</ele>
        <time>2021-06-21T10:01:11Z</time>
      </trkpt>
      <trkpt lat="47.18456" lon="5.94892">
        <ele>242</ele>
        <time>2021-06-21T10:01:13Z</time>
      </trkpt>
      <trkpt lat="47.18459" lon="5.94895">
        <ele>242.4</ele>
        <time>2021-06-21T10:01:14Z</time>
      </trkpt>
      <trkpt lat="47.18461" lon="5.94898">
        <ele>242.4</ele>
        <time>2021-06-21T10:01:15Z</time>
      </trkpt>
      <trkpt lat="47.18464" lon="5.94902">
        <ele>242.6</ele>
        <time>2021-06-21T10:01:16Z</time>
      </trkpt>
      <trkpt lat="47.18466" lon="5.94905">
        <ele>242.8</ele>
        <time>2021-06-21T10:01:17Z</time>
      </trkpt>
      <trkpt lat="47.18469" lon="5.94908">
        <ele>243</ele>
        <time>2021-06-21T10:01:18Z</time>
      </trkpt>
      <trkpt lat="47.18471" lon="5.94911">
        <ele>243</ele>
        <time>2021-06-21T10:01:19Z</time>
      </trkpt>
      <trkpt lat="47.18473" lon="5.94914">
        <ele>243.4</ele>
        <time>2021-06-21T10:01:20Z</time>
      </trkpt>
      <trkpt lat="47.18475" lon="5.94917">
        <ele>243.4</ele>
        <time>2021-06-21T10:01:21Z</time>
      </trkpt>
      <trkpt lat="47.18477" lon="5.9492">
        <ele>243.4</ele>
        <time>2021-06-21T10:01:22Z</time>
      </trkpt>
      <trkpt lat="47.18479" lon="5.94923">
        <ele>243.6</ele>
        <time>2021-06-21T10:01:23Z</time>
      </trkpt>
      <trkpt lat="47.18481" lon="5.94926">
        <ele>243.8</ele>
        <time>2021-06-21T10:01:24Z</time>
      </trkpt>
      <trkpt lat="47.18483" lon="5.94928">
        <ele>244</ele>
        <time>2021-06-21T10:01:25Z</time>
      </trkpt>
      <trkpt lat="47.18485" lon="5.94931">
        <ele>244.2</ele>
        <time>2021-06-21T10:01:26Z</time>
      </trkpt>
      <trkpt lat="47.18487" lon="5.94933">
        <ele>244.4</ele>
        <time>2021-06-21T10:01:27Z</time>
      </trkpt>
      <trkpt lat="47.18489" lon="5.94936">
        <ele>244.6</ele>
        <time>2021-06-21T10:01:28Z</time>
      </trkpt>
      <trkpt lat="47.18491" lon="5.94938">
        <ele>244.8</ele>
        <time>2021-06-21T10:01:29Z</time>
      </trkpt>
      <trkpt lat="47.18492" lon="5.9494">
        <ele>245</ele>
        <time>2021-06-21T10:01:30Z</time>
      </trkpt>
      <trkpt lat="47.18494" lon="5.94943">
        <ele>245</ele>
        <time>2021-06-21T10:01:31Z</time>
      </trkpt>
      <trkpt lat="47.18495" lon="5.94945">
        <ele>245.2</ele>
        <time>2021-06-21T10:01:32Z</time>
      </trkpt>
      <trkpt lat="47.18497" lon="5.94946">
        <ele>245.4</ele>
        <time>2021-06-21T10:01:33Z</time>
      </trkpt>
      <trkpt lat="47.18499" lon="5.94947">
        <ele>245.4</ele>
        <time>2021-06-21T10:01:34Z</time>
      </trkpt>
      <trkpt lat="47.18501" lon="5.9495">
        <ele>246</ele>
        <time>2021-06-21T10:01:35Z</time>
      </trkpt>
      <trkpt lat="47.18502" lon="5.94952">
        <ele>246.2</ele>
        <time>2021-06-21T10:01:36Z</time>
      </trkpt>
      <trkpt lat="47.18504" lon="5.94954">
        <ele>246.4</ele>
        <time>2021-06-21T10:01:37Z</time>
      </trkpt>
      <trkpt lat="47.18506" lon="5.94956">
        <ele>246.6</ele>
        <time>2021-06-21T10:01:38Z</time>
      </trkpt>
      <trkpt lat="47.18507" lon="5.94958">
        <ele>247</ele>
        <time>2021-06-21T10:01:39Z</time>
      </trkpt>
      <trkpt lat="47.18509" lon="5.9496">
        <ele>247.2</ele>
        <time>2021-06-21T10:01:40Z</time>
      </trkpt>
      <trkpt lat="47.1851" lon="5.94962">
        <ele>247.4</ele>
        <time>2021-06-21T10:01:41Z</time>
      </trkpt>
      <trkpt lat="47.18511" lon="5.94964">
        <ele>247.6</ele>
        <time>2021-06-21T10:01:42Z</time>
      </trkpt>
      <trkpt lat="47.18512" lon="5.94966">
        <ele>247.8</ele>
        <time>2021-06-21T10:01:43Z</time>
      </trkpt>
      <trkpt lat="47.18514" lon="5.94968">
        <ele>248</ele>
        <time>2021-06-21T10:01:44Z</time>
      </trkpt>
      <trkpt lat="47.18516" lon="5.9497">
        <ele>248.2</ele>
        <time>2021-06-21T10:01:45Z</time>
      </trkpt>
      <trkpt lat="47.18517" lon="5.94972">
        <ele>248.4</ele>
        <time>2021-06-21T10:01:46Z</time>
      </trkpt>
      <trkpt lat="47.18519" lon="5.94974">
        <ele>249</ele>
        <time>2021-06-21T10:01:47Z</time>
      </trkpt>
      <trkpt lat="47.1852" lon="5.94975">
        <ele>249</ele>
        <time>2021-06-21T10:01:48Z</time>
      </trkpt>
      <trkpt lat="47.18521" lon="5.94977">
        <ele>249.2</ele>
        <time>2021-06-21T10:01:49Z</time>
      </trkpt>
      <trkpt lat="47.18522" lon="5.9498">
        <ele>249.4</ele>
        <time>2021-06-21T10:01:50Z</time>
      </trkpt>
      <trkpt lat="47.18524" lon="5.94982">
        <ele>249.8</ele>
        <time>2021-06-21T10:01:51Z</time>
      </trkpt>
      <trkpt lat="47.18525" lon="5.94984">
        <ele>250</ele>
        <time>2021-06-21T10:01:52Z</time>
      </trkpt>
      <trkpt lat="47.18527" lon="5.94986">
        <ele>250.4</ele>
        <time>2021-06-21T10:01:53Z</time>
      </trkpt>
      <trkpt lat="47.18528" lon="5.94987">
        <ele>250.6</ele>
        <time>2021-06-21T10:01:54Z</time>
      </trkpt>
      <trkpt lat="47.18529" lon="5.94989">
        <ele>250.8</ele>
        <time>2021-06-21T10:01:55Z</time>
      </trkpt>
      <trkpt lat="47.1853" lon="5.9499">
        <ele>251</ele>
        <time>2021-06-21T10:01:56Z</time>
      </trkpt>
      <trkpt lat="47.18531" lon="5.94991">
        <ele>251.2</ele>
        <time>2021-06-21T10:01:57Z</time>
      </trkpt>
      <trkpt lat="47.18533" lon="5.94993">
        <ele>251.4</ele>
        <time>2021-06-21T10:01:58Z</time>
      </trkpt>
      <trkpt lat="47.18534" lon="5.94994">
        <ele>252</ele>
        <time>2021-06-21T10:01:59Z</time>
      </trkpt>
      <trkpt lat="47.18536" lon="5.94996">
        <ele>252.2</ele>
        <time>2021-06-21T10:02:00Z</time>
      </trkpt>
      <trkpt lat="47.18537" lon="5.94998">
        <ele>252.2</ele>
        <time>2021-06-21T10:02:01Z</time>
      </trkpt>
      <trkpt lat="47.18538" lon="5.95">
        <ele>252.4</ele>
        <time>2021-06-21T10:02:02Z</time>
      </trkpt>
      <trkpt lat="47.1854" lon="5.95001">
        <ele>252.6</ele>
        <time>2021-06-21T10:02:03Z</time>
      </trkpt>
      <trkpt lat="47.18542" lon="5.95003">
        <ele>252.6</ele>
        <time>2021-06-21T10:02:04Z</time>
      </trkpt>
      <trkpt lat="47.18543" lon="5.95005">
        <ele>252.8</ele>
        <time>2021-06-21T10:02:05Z</time>
      </trkpt>
      <trkpt lat="47.18545" lon="5.95006">
        <ele>253</ele>
        <time>2021-06-21T10:02:06Z</time>
      </trkpt>
      <trkpt lat="47.18547" lon="5.95008">
        <ele>253.2</ele>
        <time>2021-06-21T10:02:07Z</time>
      </trkpt>
      <trkpt lat="47.18548" lon="5.95009">
        <ele>253.4</ele>
        <time>2021-06-21T10:02:08Z</time>
      </trkpt>
      <trkpt lat="47.1855" lon="5.9501">
        <ele>253.4</ele>
        <time>2021-06-21T10:02:09Z</time>
      </trkpt>
      <trkpt lat="47.18552" lon="5.95011">
        <ele>253.6</ele>
        <time>2021-06-21T10:02:10Z</time>
      </trkpt>
      <trkpt lat="47.18553" lon="5.95012">
        <ele>253.6</ele>
        <time>2021-06-21T10:02:11Z</time>
      </trkpt>
      <trkpt lat="47.18555" lon="5.95014">
        <ele>254</ele>
        <time>2021-06-21T10:02:12Z</time>
      </trkpt>
      <trkpt lat="47.18557" lon="5.95015">
        <ele>254.4</ele>
        <time>2021-06-21T10:02:13Z</time>
      </trkpt>
      <trkpt lat="47.18558" lon="5.95016">
        <ele>254.4</ele>
        <time>2021-06-21T10:02:14Z</time>
      </trkpt>
      <trkpt lat="47.1856" lon="5.95016">
        <ele>254.8</ele>
        <time>2021-06-21T10:02:15Z</time>
      </trkpt>
      <trkpt lat="47.18562" lon="5.95017">
        <ele>254.8</ele>
        <time>2021-06-21T10:02:16Z</time>
      </trkpt>
      <trkpt lat="47.18563" lon="5.95017">
        <ele>255.2</ele>
        <time>2021-06-21T10:02:17Z</time>
      </trkpt>
      <trkpt lat="47.18565" lon="5.95017">
        <ele>255.4</ele>
        <time>2021-06-21T10:02:18Z</time>
      </trkpt>
      <trkpt lat="47.18566" lon="5.95017">
        <ele>255.6</ele>
        <time>2021-06-21T10:02:19Z</time>
      </trkpt>
      <trkpt lat="47.18568" lon="5.95017">
        <ele>255.8</ele>
        <time>2021-06-21T10:02:20Z</time>
      </trkpt>
      <trkpt lat="47.18569" lon="5.95017">
        <ele>256</ele>
        <time>2021-06-21T10:02:21Z</time>
      </trkpt>
      <trkpt lat="47.18571" lon="5.95016">
        <ele>256.2</ele>
        <time>2021-06-21T10:02:22Z</time>
      </trkpt>
      <trkpt lat="47.18572" lon="5.95016">
        <ele>256.4</ele>
        <time>2021-06-21T10:02:23Z</time>
      </trkpt>
      <trkpt lat="47.18573" lon="5.95016">
        <ele>256.6</ele>
        <time>2021-06-21T10:02:24Z</time>
      </trkpt>
      <trkpt lat="47.18575" lon="5.95015">
        <ele>256.8</ele>
        <time>2021-06-21T10:02:25Z</time>
      </trkpt>
      <trkpt lat="47.18577" lon="5.95015">
        <ele>256.8</ele>
        <time>2021-06-21T10:02:26Z</time>
      </trkpt>
      <trkpt lat="47.18578" lon="5.95014">
        <ele>257</ele>
        <time>2021-06-21T10:02:27Z</time>
      </trkpt>
      <trkpt lat="47.1858" lon="5.95014">
        <ele>257</ele>
        <time>2021-06-21T10:02:28Z</time>
      </trkpt>
      <trkpt lat="47.18581" lon="5.95013">
        <ele>257.2</ele>
        <time>2021-06-21T10:02:29Z</time>
      </trkpt>
      <trkpt lat="47.18582" lon="5.95013">
        <ele>257.4</ele>
        <time>2021-06-21T10:02:30Z</time>
      </trkpt>
      <trkpt lat="47.18583" lon="5.95013">
        <ele>257.6</ele>
        <time>2021-06-21T10:02:31Z</time>
      </trkpt>
      <trkpt lat="47.18585" lon="5.95012">
        <ele>257.8</ele>
        <time>2021-06-21T10:02:32Z</time>
      </trkpt>
      <trkpt lat="47.18586" lon="5.95012">
        <ele>258</ele>
        <time>2021-06-21T10:02:33Z</time>
      </trkpt>
      <trkpt lat="47.18587" lon="5.95012">
        <ele>258.4</ele>
        <time>2021-06-21T10:02:34Z</time>
      </trkpt>
      <trkpt lat="47.18588" lon="5.95012">
        <ele>258.6</ele>
        <time>2021-06-21T10:02:35Z</time>
      </trkpt>
      <trkpt lat="47.1859" lon="5.95012">
        <ele>258.8</ele>
        <time>2021-06-21T10:02:36Z</time>
      </trkpt>
      <trkpt lat="47.18591" lon="5.95012">
        <ele>258.8</ele>
        <time>2021-06-21T10:02:37Z</time>
      </trkpt>
      <trkpt lat="47.18592" lon="5.95012">
        <ele>259</ele>
        <time>2021-06-21T10:02:38Z</time>
      </trkpt>
      <trkpt lat="47.18594" lon="5.95012">
        <ele>259.4</ele>
        <time>2021-06-21T10:02:39Z</time>
      </trkpt>
      <trkpt lat="47.18595" lon="5.95012">
        <ele>259.4</ele>
        <time>2021-06-21T10:02:40Z</time>
      </trkpt>
      <trkpt lat="47.18596" lon="5.95011">
        <ele>259.8</ele>
        <time>2021-06-21T10:02:41Z</time>
      </trkpt>
      <trkpt lat="47.18597" lon="5.9501">
        <ele>259.8</ele>
        <time>2021-06-21T10:02:42Z</time>
      </trkpt>
      <trkpt lat="47.18599" lon="5.95009">
        <ele>260.2</ele>
        <time>2021-06-21T10:02:43Z</time>
      </trkpt>
      <trkpt lat="47.186" lon="5.95008">
        <ele>260.4</ele>
        <time>2021-06-21T10:02:44Z</time>
      </trkpt>
      <trkpt lat="47.18602" lon="5.95007">
        <ele>260.6</ele>
        <time>2021-06-21T10:02:45Z</time>
      </trkpt>
      <trkpt lat="47.18603" lon="5.95006">
        <ele>261</ele>
        <time>2021-06-21T10:02:46Z</time>
      </trkpt>
      <trkpt lat="47.18604" lon="5.95005">
        <ele>261.2</ele>
        <time>2021-06-21T10:02:47Z</time>
      </trkpt>
      <trkpt lat="47.18606" lon="5.95003">
        <ele>261.4</ele>
        <time>2021-06-21T10:02:48Z</time>
      </trkpt>
      <trkpt lat="47.18607" lon="5.95002">
        <ele>261.6</ele>
        <time>2021-06-21T10:02:49Z</time>
      </trkpt>
      <trkpt lat="47.18608" lon="5.95001">
        <ele>261.8</ele>
        <time>2021-06-21T10:02:50Z</time>
      </trkpt>
      <trkpt lat="47.18609" lon="5.95">
        <ele>262.2</ele>
        <time>2021-06-21T10:02:51Z</time>
      </trkpt>
      <trkpt lat="47.1861" lon="5.94998">
        <ele>262.2</ele>
        <time>2021-06-21T10:02:52Z</time>
      </trkpt>
      <trkpt lat="47.18611" lon="5.94996">
        <ele>262.4</ele>
        <time>2021-06-21T10:02:53Z</time>
      </trkpt>
      <trkpt lat="47.18612" lon="5.94995">
        <ele>262.4</ele>
        <time>2021-06-21T10:02:54Z</time>
      </trkpt>
      <trkpt lat="47.18614" lon="5.94993">
        <ele>262.8</ele>
        <time>2021-06-21T10:02:55Z</time>
      </trkpt>
      <trkpt lat="47.18615" lon="5.94992">
        <ele>263</ele>
        <time>2021-06-21T10:02:56Z</time>
      </trkpt>
      <trkpt lat="47.18616" lon="5.9499">
        <ele>263</ele>
        <time>2021-06-21T10:02:57Z</time>
      </trkpt>
      <trkpt lat="47.18618" lon="5.9499">
        <ele>263.2</ele>
        <time>2021-06-21T10:02:58Z</time>
      </trkpt>
      <trkpt lat="47.18619" lon="5.94989">
        <ele>263.4</ele>
        <time>2021-06-21T10:02:59Z</time>
      </trkpt>
      <trkpt lat="47.1862" lon="5.94987">
        <ele>263.6</ele>
        <time>2021-06-21T10:03:00Z</time>
      </trkpt>
      <trkpt lat="47.18622" lon="5.94986">
        <ele>263.8</ele>
        <time>2021-06-21T10:03:01Z</time>
      </trkpt>
      <trkpt lat="47.18623" lon="5.94985">
        <ele>263.8</ele>
        <time>2021-06-21T10:03:02Z</time>
      </trkpt>
      <trkpt lat="47.18624" lon="5.94984">
        <ele>264</ele>
        <time>2021-06-21T10:03:03Z</time>
      </trkpt>
      <trkpt lat="47.18625" lon="5.94983">
        <ele>264.2</ele>
        <time>2021-06-21T10:03:04Z</time>
      </trkpt>
      <trkpt lat="47.18627" lon="5.94982">
        <ele>264.4</ele>
        <time>2021-06-21T10:03:05Z</time>
      </trkpt>
      <trkpt lat="47.18629" lon="5.94981">
        <ele>264.4</ele>
        <time>2021-06-21T10:03:06Z</time>
      </trkpt>
      <trkpt lat="47.18631" lon="5.9498">
        <ele>264.6</ele>
        <time>2021-06-21T10:03:07Z</time>
      </trkpt>
      <trkpt lat="47.18632" lon="5.9498">
        <ele>264.8</ele>
        <time>2021-06-21T10:03:08Z</time>
      </trkpt>
      <trkpt lat="47.18634" lon="5.94979">
        <ele>265</ele>
        <time>2021-06-21T10:03:09Z</time>
      </trkpt>
      <trkpt lat="47.18635" lon="5.94979">
        <ele>265.2</ele>
        <time>2021-06-21T10:03:10Z</time>
      </trkpt>
      <trkpt lat="47.18637" lon="5.94979">
        <ele>265.4</ele>
        <time>2021-06-21T10:03:11Z</time>
      </trkpt>
      <trkpt lat="47.18639" lon="5.94978">
        <ele>265.6</ele>
        <time>2021-06-21T10:03:12Z</time>
      </trkpt>
      <trkpt lat="47.1864" lon="5.94977">
        <ele>265.8</ele>
        <time>2021-06-21T10:03:13Z</time>
      </trkpt>
      <trkpt lat="47.18642" lon="5.94977">
        <ele>266</ele>
        <time>2021-06-21T10:03:14Z</time>
      </trkpt>
      <trkpt lat="47.18644" lon="5.94977">
        <ele>266.2</ele>
        <time>2021-06-21T10:03:15Z</time>
      </trkpt>
      <trkpt lat="47.18645" lon="5.94976">
        <ele>266.6</ele>
        <time>2021-06-21T10:03:16Z</time>
      </trkpt>
      <trkpt lat="47.18647" lon="5.94976">
        <ele>266.8</ele>
        <time>2021-06-21T10:03:17Z</time>
      </trkpt>
      <trkpt lat="47.18649" lon="5.94976">
        <ele>266.8</ele>
        <time>2021-06-21T10:03:18Z</time>
      </trkpt>
      <trkpt lat="47.1865" lon="5.94977">
        <ele>267.2</ele>
        <time>2021-06-21T10:03:19Z</time>
      </trkpt>
      <trkpt lat="47.18652" lon="5.94976">
        <ele>267.2</ele>
        <time>2021-06-21T10:03:20Z</time>
      </trkpt>
      <trkpt lat="47.18654" lon="5.94976">
        <ele>267.6</ele>
        <time>2021-06-21T10:03:21Z</time>
      </trkpt>
      <trkpt lat="47.18655" lon="5.94976">
        <ele>267.6</ele>
        <time>2021-06-21T10:03:22Z</time>
      </trkpt>
      <trkpt lat="47.18657" lon="5.94975">
        <ele>268</ele>
        <time>2021-06-21T10:03:23Z</time>
      </trkpt>
      <trkpt lat="47.18659" lon="5.94976">
        <ele>268.2</ele>
        <time>2021-06-21T10:03:24Z</time>
      </trkpt>
      <trkpt lat="47.1866" lon="5.94976">
        <ele>268.2</ele>
        <time>2021-06-21T10:03:25Z</time>
      </trkpt>
      <trkpt lat="47.18662" lon="5.94976">
        <ele>268.4</ele>
        <time>2021-06-21T10:03:26Z</time>
      </trkpt>
      <trkpt lat="47.18664" lon="5.94976">
        <ele>268.6</ele>
        <time>2021-06-21T10:03:27Z</time>
      </trkpt>
      <trkpt lat="47.18665" lon="5.94976">
        <ele>268.8</ele>
        <time>2021-06-21T10:03:28Z</time>
      </trkpt>
      <trkpt lat="47.18667" lon="5.94975">
        <ele>269</ele>
        <time>2021-06-21T10:03:29Z</time>
      </trkpt>
      <trkpt lat="47.18669" lon="5.94975">
        <ele>269.2</ele>
        <time>2021-06-21T10:03:30Z</time>
      </trkpt>
      <trkpt lat="47.1867" lon="5.94975">
        <ele>269.6</ele>
        <time>2021-06-21T10:03:31Z</time>
      </trkpt>
      <trkpt lat="47.18672" lon="5.94975">
        <ele>269.6</ele>
        <time>2021-06-21T10:03:32Z</time>
      </trkpt>
      <trkpt lat="47.18674" lon="5.94975">
        <ele>269.6</ele>
        <time>2021-06-21T10:03:33Z</time>
      </trkpt>
      <trkpt lat="47.18675" lon="5.94975">
        <ele>269.8</ele>
        <time>2021-06-21T10:03:34Z</time>
      </trkpt>
      <trkpt lat="47.18677" lon="5.94975">
        <ele>270.2</ele>
        <time>2021-06-21T10:03:35Z</time>
      </trkpt>
      <trkpt lat="47.18679" lon="5.94975">
        <ele>270.4</ele>
        <time>2021-06-21T10:03:36Z</time>
      </trkpt>
      <trkpt lat="47.18681" lon="5.94975">
        <ele>270.6</ele>
        <time>2021-06-21T10:03:37Z</time>
      </trkpt>
      <trkpt lat="47.18682" lon="5.94975">
        <ele>270.6</ele>
        <time>2021-06-21T10:03:38Z</time>
      </trkpt>
      <trkpt lat="47.18683" lon="5.94974">
        <ele>270.8</ele>
        <time>2021-06-21T10:03:39Z</time>
      </trkpt>
      <trkpt lat="47.18685" lon="5.94973">
        <ele>271</ele>
        <time>2021-06-21T10:03:40Z</time>
      </trkpt>
      <trkpt lat="47.18687" lon="5.94972">
        <ele>271</ele>
        <time>2021-06-21T10:03:41Z</time>
      </trkpt>
      <trkpt lat="47.18688" lon="5.94972">
        <ele>271.2</ele>
        <time>2021-06-21T10:03:42Z</time>
      </trkpt>
      <trkpt lat="47.18689" lon="5.94971">
        <ele>271.6</ele>
        <time>2021-06-21T10:03:43Z</time>
      </trkpt>
      <trkpt lat="47.1869" lon="5.9497">
        <ele>271.8</ele>
        <time>2021-06-21T10:03:44Z</time>
      </trkpt>
      <trkpt lat="47.18692" lon="5.94969">
        <ele>272</ele>
        <time>2021-06-21T10:03:45Z</time>
      </trkpt>
      <trkpt lat="47.18693" lon="5.94969">
        <ele>272</ele>
        <time>2021-06-21T10:03:46Z</time>
      </trkpt>
      <trkpt lat="47.18695" lon="5.94969">
        <ele>272.2</ele>
        <time>2021-06-21T10:03:47Z</time>
      </trkpt>
      <trkpt lat="47.18697" lon="5.94968">
        <ele>272.2</ele>
        <time>2021-06-21T10:03:48Z</time>
      </trkpt>
      <trkpt lat="47.18698" lon="5.94968">
        <ele>272.6</ele>
        <time>2021-06-21T10:03:49Z</time>
      </trkpt>
      <trkpt lat="47.18699" lon="5.94966">
        <ele>272.8</ele>
        <time>2021-06-21T10:03:50Z</time>
      </trkpt>
      <trkpt lat="47.187" lon="5.94964">
        <ele>272.8</ele>
        <time>2021-06-21T10:03:51Z</time>
      </trkpt>
      <trkpt lat="47.187" lon="5.94962">
        <ele>273</ele>
        <time>2021-06-21T10:03:52Z</time>
      </trkpt>
      <trkpt lat="47.18701" lon="5.9496">
        <ele>273</ele>
        <time>2021-06-21T10:03:53Z</time>
      </trkpt>
      <trkpt lat="47.18701" lon="5.94957">
        <ele>273.2</ele>
        <time>2021-06-21T10:03:54Z</time>
      </trkpt>
      <trkpt lat="47.18701" lon="5.94955">
        <ele>273.4</ele>
        <time>2021-06-21T10:03:55Z</time>
      </trkpt>
      <trkpt lat="47.18701" lon="5.94953">
        <ele>273.6</ele>
        <time>2021-06-21T10:03:56Z</time>
      </trkpt>
      <trkpt lat="47.18701" lon="5.94951">
        <ele>273.8</ele>
        <time>2021-06-21T10:03:57Z</time>
      </trkpt>
      <trkpt lat="47.18701" lon="5.94949">
        <ele>273.8</ele>
        <time>2021-06-21T10:03:58Z</time>
      </trkpt>
      <trkpt lat="47.187" lon="5.94946">
        <ele>274</ele>
        <time>2021-06-21T10:03:59Z</time>
      </trkpt>
      <trkpt lat="47.187" lon="5.94944">
        <ele>274.2</ele>
        <time>2021-06-21T10:04:00Z</time>
      </trkpt>
      <trkpt lat="47.18699" lon="5.94942">
        <ele>274.4</ele>
        <time>2021-06-21T10:04:01Z</time>
      </trkpt>
      <trkpt lat="47.18699" lon="5.9494">
        <ele>274.6</ele>
        <time>2021-06-21T10:04:02Z</time>
      </trkpt>
      <trkpt lat="47.18698" lon="5.94939">
        <ele>274.6</ele>
        <time>2021-06-21T10:04:03Z</time>
      </trkpt>
      <trkpt lat="47.18697" lon="5.94937">
        <ele>274.8</ele>
        <time>2021-06-21T10:04:04Z</time>
      </trkpt>
      <trkpt lat="47.18696" lon="5.94936">
        <ele>275</ele>
        <time>2021-06-21T10:04:05Z</time>
      </trkpt>
      <trkpt lat="47.18695" lon="5.94935">
        <ele>275.2</ele>
        <time>2021-06-21T10:04:06Z</time>
      </trkpt>
      <trkpt lat="47.18694" lon="5.94934">
        <ele>275.4</ele>
        <time>2021-06-21T10:04:07Z</time>
      </trkpt>
      <trkpt lat="47.18693" lon="5.94932">
        <ele>275.8</ele>
        <time>2021-06-21T10:04:08Z</time>
      </trkpt>
      <trkpt lat="47.18692" lon="5.94931">
        <ele>276.2</ele>
        <time>2021-06-21T10:04:09Z</time>
      </trkpt>
      <trkpt lat="47.18691" lon="5.94929">
        <ele>276.2</ele>
        <time>2021-06-21T10:04:10Z</time>
      </trkpt>
      <trkpt lat="47.1869" lon="5.94928">
        <ele>276.4</ele>
        <time>2021-06-21T10:04:11Z</time>
      </trkpt>
      <trkpt lat="47.18689" lon="5.94927">
        <ele>276.6</ele>
        <time>2021-06-21T10:04:12Z</time>
      </trkpt>
      <trkpt lat="47.18688" lon="5.94926">
        <ele>277</ele>
        <time>2021-06-21T10:04:13Z</time>
      </trkpt>
      <trkpt lat="47.18687" lon="5.94924">
        <ele>277.2</ele>
        <time>2021-06-21T10:04:14Z</time>
      </trkpt>
      <trkpt lat="47.18687" lon="5.94922">
        <ele>277.4</ele>
        <time>2021-06-21T10:04:15Z</time>
      </trkpt>
      <trkpt lat="47.18686" lon="5.94921">
        <ele>277.8</ele>
        <time>2021-06-21T10:04:16Z</time>
      </trkpt>
      <trkpt lat="47.18685" lon="5.94919">
        <ele>278</ele>
        <time>2021-06-21T10:04:17Z</time>
      </trkpt>
      <trkpt lat="47.18684" lon="5.94917">
        <ele>278.4</ele>
        <time>2021-06-21T10:04:18Z</time>
      </trkpt>
      <trkpt lat="47.18682" lon="5.94916">
        <ele>278.4</ele>
        <time>2021-06-21T10:04:19Z</time>
      </trkpt>
      <trkpt lat="47.18681" lon="5.94914">
        <ele>278.6</ele>
        <time>2021-06-21T10:04:20Z</time>
      </trkpt>
      <trkpt lat="47.18681" lon="5.94912">
        <ele>279</ele>
        <time>2021-06-21T10:04:21Z</time>
      </trkpt>
      <trkpt lat="47.1868" lon="5.9491">
        <ele>279</ele>
        <time>2021-06-21T10:04:22Z</time>
      </trkpt>
      <trkpt lat="47.18679" lon="5.94908">
        <ele>279.4</ele>
        <time>2021-06-21T10:04:23Z</time>
      </trkpt>
      <trkpt lat="47.18678" lon="5.94906">
        <ele>279.6</ele>
        <time>2021-06-21T10:04:24Z</time>
      </trkpt>
      <trkpt lat="47.18676" lon="5.94905">
        <ele>280.2</ele>
        <time>2021-06-21T10:04:25Z</time>
      </trkpt>
      <trkpt lat="47.18675" lon="5.94903">
        <ele>280.2</ele>
        <time>2021-06-21T10:04:26Z</time>
      </trkpt>
      <trkpt lat="47.18674" lon="5.94901">
        <ele>280.6</ele>
        <time>2021-06-21T10:04:27Z</time>
      </trkpt>
      <trkpt lat="47.18673" lon="5.94899">
        <ele>281</ele>
        <time>2021-06-21T10:04:28Z</time>
      </trkpt>
      <trkpt lat="47.18672" lon="5.94897">
        <ele>281.2</ele>
        <time>2021-06-21T10:04:29Z</time>
      </trkpt>
      <trkpt lat="47.1867" lon="5.94896">
        <ele>281.4</ele>
        <time>2021-06-21T10:04:30Z</time>
      </trkpt>
      <trkpt lat="47.18669" lon="5.94894">
        <ele>281.4</ele>
        <time>2021-06-21T10:04:31Z</time>
      </trkpt>
      <trkpt lat="47.18668" lon="5.94893">
        <ele>281.8</ele>
        <time>2021-06-21T10:04:32Z</time>
      </trkpt>
      <trkpt lat="47.18667" lon="5.94892">
        <ele>282</ele>
        <time>2021-06-21T10:04:33Z</time>
      </trkpt>
      <trkpt lat="47.18666" lon="5.94891">
        <ele>282.2</ele>
        <time>2021-06-21T10:04:34Z</time>
      </trkpt>
      <trkpt lat="47.18664" lon="5.94889">
        <ele>282.6</ele>
        <time>2021-06-21T10:04:35Z</time>
      </trkpt>
      <trkpt lat="47.18663" lon="5.94888">
        <ele>282.6</ele>
        <time>2021-06-21T10:04:36Z</time>
      </trkpt>
      <trkpt lat="47.18662" lon="5.94887">
        <ele>283</ele>
        <time>2021-06-21T10:04:37Z</time>
      </trkpt>
      <trkpt lat="47.18661" lon="5.94887">
        <ele>283</ele>
        <time>2021-06-21T10:04:38Z</time>
      </trkpt>
      <trkpt lat="47.18659" lon="5.94886">
        <ele>283.4</ele>
        <time>2021-06-21T10:04:39Z</time>
      </trkpt>
      <trkpt lat="47.18657" lon="5.94886">
        <ele>283.6</ele>
        <time>2021-06-21T10:04:40Z</time>
      </trkpt>
      <trkpt lat="47.18656" lon="5.94886">
        <ele>284</ele>
        <time>2021-06-21T10:04:41Z</time>
      </trkpt>
      <trkpt lat="47.18654" lon="5.94886">
        <ele>284.2</ele>
        <time>2021-06-21T10:04:42Z</time>
      </trkpt>
      <trkpt lat="47.18653" lon="5.94886">
        <ele>284.4</ele>
        <time>2021-06-21T10:04:43Z</time>
      </trkpt>
      <trkpt lat="47.18651" lon="5.94887">
        <ele>284.4</ele>
        <time>2021-06-21T10:04:44Z</time>
      </trkpt>
      <trkpt lat="47.1865" lon="5.94887">
        <ele>284.4</ele>
        <time>2021-06-21T10:04:45Z</time>
      </trkpt>
      <trkpt lat="47.18649" lon="5.94888">
        <ele>284.6</ele>
        <time>2021-06-21T10:04:46Z</time>
      </trkpt>
      <trkpt lat="47.18647" lon="5.94889">
        <ele>284.8</ele>
        <time>2021-06-21T10:04:47Z</time>
      </trkpt>
      <trkpt lat="47.18646" lon="5.94889">
        <ele>285</ele>
        <time>2021-06-21T10:04:48Z</time>
      </trkpt>
      <trkpt lat="47.18645" lon="5.94889">
        <ele>285.2</ele>
        <time>2021-06-21T10:04:49Z</time>
      </trkpt>
      <trkpt lat="47.18644" lon="5.94889">
        <ele>285.2</ele>
        <time>2021-06-21T10:04:50Z</time>
      </trkpt>
      <trkpt lat="47.18642" lon="5.94888">
        <ele>285.4</ele>
        <time>2021-06-21T10:04:51Z</time>
      </trkpt>
      <trkpt lat="47.18641" lon="5.94887">
        <ele>285.6</ele>
        <time>2021-06-21T10:04:52Z</time>
      </trkpt>
      <trkpt lat="47.1864" lon="5.94886">
        <ele>285.8</ele>
        <time>2021-06-21T10:04:53Z</time>
      </trkpt>
      <trkpt lat="47.18639" lon="5.94885">
        <ele>286</ele>
        <time>2021-06-21T10:04:54Z</time>
      </trkpt>
      <trkpt lat="47.18637" lon="5.94884">
        <ele>286.2</ele>
        <time>2021-06-21T10:04:55Z</time>
      </trkpt>
      <trkpt lat="47.18636" lon="5.94884">
        <ele>287</ele>
        <time>2021-06-21T10:04:56Z</time>
      </trkpt>
      <trkpt lat="47.18635" lon="5.94884">
        <ele>287.2</ele>
        <time>2021-06-21T10:04:57Z</time>
      </trkpt>
      <trkpt lat="47.18634" lon="5.94885">
        <ele>287.6</ele>
        <time>2021-06-21T10:04:58Z</time>
      </trkpt>
      <trkpt lat="47.18632" lon="5.94885">
        <ele>287.8</ele>
        <time>2021-06-21T10:04:59Z</time>
      </trkpt>
      <trkpt lat="47.1863" lon="5.94884">
        <ele>288</ele>
        <time>2021-06-21T10:05:00Z</time>
      </trkpt>
      <trkpt lat="47.18629" lon="5.94884">
        <ele>288.2</ele>
        <time>2021-06-21T10:05:01Z</time>
      </trkpt>
      <trkpt lat="47.18627" lon="5.94884">
        <ele>288.4</ele>
        <time>2021-06-21T10:05:02Z</time>
      </trkpt>
      <trkpt lat="47.18625" lon="5.94885">
        <ele>288.6</ele>
        <time>2021-06-21T10:05:03Z</time>
      </trkpt>
      <trkpt lat="47.18624" lon="5.94886">
        <ele>288.8</ele>
        <time>2021-06-21T10:05:04Z</time>
      </trkpt>
      <trkpt lat="47.18622" lon="5.94886">
        <ele>289</ele>
        <time>2021-06-21T10:05:05Z</time>
      </trkpt>
      <trkpt lat="47.18621" lon="5.94887">
        <ele>289.2</ele>
        <time>2021-06-21T10:05:06Z</time>
      </trkpt>
      <trkpt lat="47.1862" lon="5.94887">
        <ele>289.2</ele>
        <time>2021-06-21T10:05:07Z</time>
      </trkpt>
      <trkpt lat="47.18619" lon="5.94887">
        <ele>289.6</ele>
        <time>2021-06-21T10:05:08Z</time>
      </trkpt>
      <trkpt lat="47.18618" lon="5.94886">
        <ele>289.8</ele>
        <time>2021-06-21T10:05:09Z</time>
      </trkpt>
      <trkpt lat="47.18618" lon="5.94885">
        <ele>290.2</ele>
        <time>2021-06-21T10:05:10Z</time>
      </trkpt>
      <trkpt lat="47.18618" lon="5.94885">
        <ele>290.2</ele>
        <time>2021-06-21T10:05:11Z</time>
      </trkpt>
      <trkpt lat="47.18618" lon="5.94885">
        <ele>290.6</ele>
        <time>2021-06-21T10:05:14Z</time>
      </trkpt>
      <trkpt lat="47.18617" lon="5.94886">
        <ele>290.6</ele>
        <time>2021-06-21T10:05:16Z</time>
      </trkpt>
      <trkpt lat="47.18617" lon="5.94885">
        <ele>290.8</ele>
        <time>2021-06-21T10:05:21Z</time>
      </trkpt>
      <trkpt lat="47.18617" lon="5.94885">
        <ele>291.6</ele>
        <time>2021-06-21T10:07:14Z</time>
      </trkpt>
      <trkpt lat="47.18617" lon="5.94884">
        <ele>291.4</ele>
        <time>2021-06-21T10:07:34Z</time>
      </trkpt>
      <trkpt lat="47.18618" lon="5.94881">
        <ele>291.4</ele>
        <time>2021-06-21T10:07:36Z</time>
      </trkpt>
      <trkpt lat="47.18619" lon="5.94877">
        <ele>291.6</ele>
        <time>2021-06-21T10:07:38Z</time>
      </trkpt>
      <trkpt lat="47.1862" lon="5.94875">
        <ele>291.6</ele>
        <time>2021-06-21T10:07:39Z</time>
      </trkpt>
      <trkpt lat="47.1862" lon="5.94874">
        <ele>291.8</ele>
        <time>2021-06-21T10:07:40Z</time>
      </trkpt>
      <trkpt lat="47.18622" lon="5.94872">
        <ele>292</ele>
        <time>2021-06-21T10:07:42Z</time>
      </trkpt>
      <trkpt lat="47.18623" lon="5.94871">
        <ele>292</ele>
        <time>2021-06-21T10:07:43Z</time>
      </trkpt>
      <trkpt lat="47.18624" lon="5.9487">
        <ele>292.2</ele>
        <time>2021-06-21T10:07:45Z</time>
      </trkpt>
      <trkpt lat="47.18625" lon="5.94868">
        <ele>292.2</ele>
        <time>2021-06-21T10:07:46Z</time>
      </trkpt>
      <trkpt lat="47.18625" lon="5.94866">
        <ele>292.4</ele>
        <time>2021-06-21T10:07:47Z</time>
      </trkpt>
      <trkpt lat="47.18626" lon="5.94865">
        <ele>292.4</ele>
        <time>2021-06-21T10:07:48Z</time>
      </trkpt>
      <trkpt lat="47.1863" lon="5.94861">
        <ele>293.2</ele>
        <time>2021-06-21T10:07:51Z</time>
      </trkpt>
      <trkpt lat="47.18631" lon="5.94859">
        <ele>293.2</ele>
        <time>2021-06-21T10:07:52Z</time>
      </trkpt>
      <trkpt lat="47.18632" lon="5.94857">
        <ele>293.4</ele>
        <time>2021-06-21T10:07:53Z</time>
      </trkpt>
      <trkpt lat="47.18633" lon="5.94855">
        <ele>293.6</ele>
        <time>2021-06-21T10:07:54Z</time>
      </trkpt>
      <trkpt lat="47.18635" lon="5.94851">
        <ele>293.8</ele>
        <time>2021-06-21T10:07:56Z</time>
      </trkpt>
      <trkpt lat="47.18637" lon="5.94847">
        <ele>294.4</ele>
        <time>2021-06-21T10:07:58Z</time>
      </trkpt>
      <trkpt lat="47.18638" lon="5.94845">
        <ele>294.8</ele>
        <time>2021-06-21T10:07:59Z</time>
      </trkpt>
      <trkpt lat="47.18639" lon="5.9484">
        <ele>295.2</ele>
        <time>2021-06-21T10:08:01Z</time>
      </trkpt>
      <trkpt lat="47.18639" lon="5.94838">
        <ele>295.4</ele>
        <time>2021-06-21T10:08:02Z</time>
      </trkpt>
      <trkpt lat="47.18639" lon="5.94836">
        <ele>295.6</ele>
        <time>2021-06-21T10:08:03Z</time>
      </trkpt>
      <trkpt lat="47.18637" lon="5.94835">
        <ele>295.8</ele>
        <time>2021-06-21T10:08:04Z</time>
      </trkpt>
      <trkpt lat="47.18637" lon="5.94834">
        <ele>296</ele>
        <time>2021-06-21T10:08:05Z</time>
      </trkpt>
      <trkpt lat="47.18636" lon="5.94833">
        <ele>296</ele>
        <time>2021-06-21T10:08:06Z</time>
      </trkpt>
      <trkpt lat="47.18635" lon="5.94831">
        <ele>296.2</ele>
        <time>2021-06-21T10:08:07Z</time>
      </trkpt>
      <trkpt lat="47.18634" lon="5.9483">
        <ele>296.4</ele>
        <time>2021-06-21T10:08:08Z</time>
      </trkpt>
      <trkpt lat="47.18634" lon="5.94828">
        <ele>296.4</ele>
        <time>2021-06-21T10:08:09Z</time>
      </trkpt>
      <trkpt lat="47.18634" lon="5.94827">
        <ele>296.6</ele>
        <time>2021-06-21T10:08:10Z</time>
      </trkpt>
      <trkpt lat="47.18633" lon="5.94825">
        <ele>296.6</ele>
        <time>2021-06-21T10:08:11Z</time>
      </trkpt>
      <trkpt lat="47.18632" lon="5.94824">
        <ele>297</ele>
        <time>2021-06-21T10:08:12Z</time>
      </trkpt>
      <trkpt lat="47.18631" lon="5.94822">
        <ele>297.4</ele>
        <time>2021-06-21T10:08:13Z</time>
      </trkpt>
      <trkpt lat="47.18631" lon="5.94821">
        <ele>297.4</ele>
        <time>2021-06-21T10:08:14Z</time>
      </trkpt>
      <trkpt lat="47.1863" lon="5.9482">
        <ele>297.6</ele>
        <time>2021-06-21T10:08:15Z</time>
      </trkpt>
      <trkpt lat="47.18629" lon="5.94818">
        <ele>298</ele>
        <time>2021-06-21T10:08:16Z</time>
      </trkpt>
      <trkpt lat="47.18628" lon="5.94817">
        <ele>298.2</ele>
        <time>2021-06-21T10:08:17Z</time>
      </trkpt>
      <trkpt lat="47.18628" lon="5.94815">
        <ele>298.4</ele>
        <time>2021-06-21T10:08:18Z</time>
      </trkpt>
      <trkpt lat="47.18627" lon="5.94814">
        <ele>298.4</ele>
        <time>2021-06-21T10:08:19Z</time>
      </trkpt>
      <trkpt lat="47.18625" lon="5.94812">
        <ele>298.8</ele>
        <time>2021-06-21T10:08:20Z</time>
      </trkpt>
      <trkpt lat="47.18624" lon="5.94811">
        <ele>298.8</ele>
        <time>2021-06-21T10:08:21Z</time>
      </trkpt>
      <trkpt lat="47.18623" lon="5.9481">
        <ele>299</ele>
        <time>2021-06-21T10:08:22Z</time>
      </trkpt>
      <trkpt lat="47.18622" lon="5.94809">
        <ele>299</ele>
        <time>2021-06-21T10:08:23Z</time>
      </trkpt>
      <trkpt lat="47.18621" lon="5.94807">
        <ele>299.4</ele>
        <time>2021-06-21T10:08:24Z</time>
      </trkpt>
      <trkpt lat="47.1862" lon="5.94805">
        <ele>299.8</ele>
        <time>2021-06-21T10:08:25Z</time>
      </trkpt>
      <trkpt lat="47.18619" lon="5.94803">
        <ele>300</ele>
        <time>2021-06-21T10:08:26Z</time>
      </trkpt>
      <trkpt lat="47.18618" lon="5.94802">
        <ele>300.2</ele>
        <time>2021-06-21T10:08:27Z</time>
      </trkpt>
      <trkpt lat="47.18617" lon="5.948">
        <ele>300.2</ele>
        <time>2021-06-21T10:08:28Z</time>
      </trkpt>
      <trkpt lat="47.18617" lon="5.94798">
        <ele>300.4</ele>
        <time>2021-06-21T10:08:29Z</time>
      </trkpt>
      <trkpt lat="47.18616" lon="5.94796">
        <ele>300.4</ele>
        <time>2021-06-21T10:08:30Z</time>
      </trkpt>
      <trkpt lat="47.18616" lon="5.94794">
        <ele>300.4</ele>
        <time>2021-06-21T10:08:31Z</time>
      </trkpt>
      <trkpt lat="47.18616" lon="5.94792">
        <ele>300.6</ele>
        <time>2021-06-21T10:08:32Z</time>
      </trkpt>
      <trkpt lat="47.18616" lon="5.9479">
        <ele>300.8</ele>
        <time>2021-06-21T10:08:33Z</time>
      </trkpt>
      <trkpt lat="47.18615" lon="5.94788">
        <ele>300.8</ele>
        <time>2021-06-21T10:08:34Z</time>
      </trkpt>
      <trkpt lat="47.18615" lon="5.94787">
        <ele>300.8</ele>
        <time>2021-06-21T10:08:35Z</time>
      </trkpt>
      <trkpt lat="47.18614" lon="5.94785">
        <ele>301</ele>
        <time>2021-06-21T10:08:36Z</time>
      </trkpt>
      <trkpt lat="47.18613" lon="5.94783">
        <ele>301</ele>
        <time>2021-06-21T10:08:37Z</time>
      </trkpt>
      <trkpt lat="47.18612" lon="5.94781">
        <ele>301</ele>
        <time>2021-06-21T10:08:38Z</time>
      </trkpt>
      <trkpt lat="47.18612" lon="5.94779">
        <ele>301.4</ele>
        <time>2021-06-21T10:08:39Z</time>
      </trkpt>
      <trkpt lat="47.1861" lon="5.94776">
        <ele>301.4</ele>
        <time>2021-06-21T10:08:40Z</time>
      </trkpt>
      <trkpt lat="47.18609" lon="5.94773">
        <ele>301.4</ele>
        <time>2021-06-21T10:08:41Z</time>
      </trkpt>
      <trkpt lat="47.18607" lon="5.94769">
        <ele>301.6</ele>
        <time>2021-06-21T10:08:42Z</time>
      </trkpt>
      <trkpt lat="47.18606" lon="5.94765">
        <ele>301.8</ele>
        <time>2021-06-21T10:08:43Z</time>
      </trkpt>
      <trkpt lat="47.18604" lon="5.94762">
        <ele>302</ele>
        <time>2021-06-21T10:08:44Z</time>
      </trkpt>
      <trkpt lat="47.18603" lon="5.94761">
        <ele>302</ele>
        <time>2021-06-21T10:08:45Z</time>
      </trkpt>
      <trkpt lat="47.18602" lon="5.94759">
        <ele>302</ele>
        <time>2021-06-21T10:08:46Z</time>
      </trkpt>
      <trkpt lat="47.186" lon="5.94756">
        <ele>302.2</ele>
        <time>2021-06-21T10:08:47Z</time>
      </trkpt>
      <trkpt lat="47.18598" lon="5.94754">
        <ele>302.2</ele>
        <time>2021-06-21T10:08:48Z</time>
      </trkpt>
      <trkpt lat="47.18595" lon="5.9475">
        <ele>302.2</ele>
        <time>2021-06-21T10:08:49Z</time>
      </trkpt>
      <trkpt lat="47.18593" lon="5.94748">
        <ele>302.4</ele>
        <time>2021-06-21T10:08:50Z</time>
      </trkpt>
      <trkpt lat="47.18592" lon="5.94746">
        <ele>302.4</ele>
        <time>2021-06-21T10:08:51Z</time>
      </trkpt>
      <trkpt lat="47.1859" lon="5.94744">
        <ele>302.4</ele>
        <time>2021-06-21T10:08:52Z</time>
      </trkpt>
      <trkpt lat="47.18589" lon="5.94743">
        <ele>302.6</ele>
        <time>2021-06-21T10:08:53Z</time>
      </trkpt>
      <trkpt lat="47.18588" lon="5.94741">
        <ele>302.6</ele>
        <time>2021-06-21T10:08:54Z</time>
      </trkpt>
      <trkpt lat="47.18588" lon="5.94739">
        <ele>302.8</ele>
        <time>2021-06-21T10:08:55Z</time>
      </trkpt>
      <trkpt lat="47.18587" lon="5.94737">
        <ele>303</ele>
        <time>2021-06-21T10:08:56Z</time>
      </trkpt>
      <trkpt lat="47.18586" lon="5.94736">
        <ele>303.2</ele>
        <time>2021-06-21T10:08:57Z</time>
      </trkpt>
      <trkpt lat="47.18585" lon="5.94735">
        <ele>303.2</ele>
        <time>2021-06-21T10:08:58Z</time>
      </trkpt>
      <trkpt lat="47.18584" lon="5.94733">
        <ele>303.2</ele>
        <time>2021-06-21T10:08:59Z</time>
      </trkpt>
      <trkpt lat="47.18583" lon="5.94731">
        <ele>303.4</ele>
        <time>2021-06-21T10:09:00Z</time>
      </trkpt>
      <trkpt lat="47.18581" lon="5.94729">
        <ele>303.4</ele>
        <time>2021-06-21T10:09:01Z</time>
      </trkpt>
      <trkpt lat="47.1858" lon="5.94727">
        <ele>303.6</ele>
        <time>2021-06-21T10:09:02Z</time>
      </trkpt>
      <trkpt lat="47.18579" lon="5.94725">
        <ele>303.8</ele>
        <time>2021-06-21T10:09:03Z</time>
      </trkpt>
      <trkpt lat="47.18577" lon="5.94723">
        <ele>304</ele>
        <time>2021-06-21T10:09:04Z</time>
      </trkpt>
      <trkpt lat="47.18576" lon="5.94722">
        <ele>304</ele>
        <time>2021-06-21T10:09:05Z</time>
      </trkpt>
      <trkpt lat="47.18574" lon="5.94721">
        <ele>304.2</ele>
        <time>2021-06-21T10:09:06Z</time>
      </trkpt>
      <trkpt lat="47.18574" lon="5.94719">
        <ele>304.6</ele>
        <time>2021-06-21T10:09:07Z</time>
      </trkpt>
      <trkpt lat="47.18573" lon="5.94717">
        <ele>304.6</ele>
        <time>2021-06-21T10:09:08Z</time>
      </trkpt>
      <trkpt lat="47.18571" lon="5.94715">
        <ele>304.8</ele>
        <time>2021-06-21T10:09:09Z</time>
      </trkpt>
      <trkpt lat="47.1857" lon="5.94714">
        <ele>305</ele>
        <time>2021-06-21T10:09:10Z</time>
      </trkpt>
      <trkpt lat="47.18569" lon="5.94713">
        <ele>305.2</ele>
        <time>2021-06-21T10:09:11Z</time>
      </trkpt>
      <trkpt lat="47.18568" lon="5.94711">
        <ele>305.4</ele>
        <time>2021-06-21T10:09:12Z</time>
      </trkpt>
      <trkpt lat="47.18567" lon="5.94709">
        <ele>305.4</ele>
        <time>2021-06-21T10:09:13Z</time>
      </trkpt>
      <trkpt lat="47.18566" lon="5.94705">
        <ele>305.6</ele>
        <time>2021-06-21T10:09:14Z</time>
      </trkpt>
      <trkpt lat="47.18565" lon="5.94704">
        <ele>305.6</ele>
        <time>2021-06-21T10:09:15Z</time>
      </trkpt>
      <trkpt lat="47.18562" lon="5.94701">
        <ele>305.8</ele>
        <time>2021-06-21T10:09:16Z</time>
      </trkpt>
      <trkpt lat="47.1856" lon="5.947">
        <ele>305.8</ele>
        <time>2021-06-21T10:09:17Z</time>
      </trkpt>
      <trkpt lat="47.18559" lon="5.94699">
        <ele>306</ele>
        <time>2021-06-21T10:09:18Z</time>
      </trkpt>
      <trkpt lat="47.18558" lon="5.94697">
        <ele>306.2</ele>
        <time>2021-06-21T10:09:19Z</time>
      </trkpt>
      <trkpt lat="47.18556" lon="5.94695">
        <ele>306.2</ele>
        <time>2021-06-21T10:09:20Z</time>
      </trkpt>
      <trkpt lat="47.18553" lon="5.94692">
        <ele>306.2</ele>
        <time>2021-06-21T10:09:21Z</time>
      </trkpt>
      <trkpt lat="47.1855" lon="5.94689">
        <ele>306.4</ele>
        <time>2021-06-21T10:09:22Z</time>
      </trkpt>
      <trkpt lat="47.18548" lon="5.94688">
        <ele>306.4</ele>
        <time>2021-06-21T10:09:23Z</time>
      </trkpt>
      <trkpt lat="47.18546" lon="5.94685">
        <ele>306.6</ele>
        <time>2021-06-21T10:09:24Z</time>
      </trkpt>
      <trkpt lat="47.18544" lon="5.94682">
        <ele>306.6</ele>
        <time>2021-06-21T10:09:25Z</time>
      </trkpt>
      <trkpt lat="47.18544" lon="5.9468">
        <ele>306.8</ele>
        <time>2021-06-21T10:09:26Z</time>
      </trkpt>
      <trkpt lat="47.18542" lon="5.94677">
        <ele>306.8</ele>
        <time>2021-06-21T10:09:27Z</time>
      </trkpt>
      <trkpt lat="47.18541" lon="5.94674">
        <ele>306.8</ele>
        <time>2021-06-21T10:09:28Z</time>
      </trkpt>
      <trkpt lat="47.18539" lon="5.9467">
        <ele>307</ele>
        <time>2021-06-21T10:09:29Z</time>
      </trkpt>
      <trkpt lat="47.18538" lon="5.94666">
        <ele>307</ele>
        <time>2021-06-21T10:09:30Z</time>
      </trkpt>
      <trkpt lat="47.18536" lon="5.94663">
        <ele>307</ele>
        <time>2021-06-21T10:09:31Z</time>
      </trkpt>
      <trkpt lat="47.18536" lon="5.94661">
        <ele>307.2</ele>
        <time>2021-06-21T10:09:32Z</time>
      </trkpt>
      <trkpt lat="47.18536" lon="5.94659">
        <ele>307.2</ele>
        <time>2021-06-21T10:09:33Z</time>
      </trkpt>
      <trkpt lat="47.18534" lon="5.94657">
        <ele>307.2</ele>
        <time>2021-06-21T10:09:34Z</time>
      </trkpt>
      <trkpt lat="47.18531" lon="5.94653">
        <ele>307.4</ele>
        <time>2021-06-21T10:09:35Z</time>
      </trkpt>
      <trkpt lat="47.18529" lon="5.9465">
        <ele>307.4</ele>
        <time>2021-06-21T10:09:36Z</time>
      </trkpt>
      <trkpt lat="47.18527" lon="5.94647">
        <ele>307.6</ele>
        <time>2021-06-21T10:09:37Z</time>
      </trkpt>
      <trkpt lat="47.18525" lon="5.94644">
        <ele>307.8</ele>
        <time>2021-06-21T10:09:38Z</time>
      </trkpt>
      <trkpt lat="47.18524" lon="5.94641">
        <ele>307.8</ele>
        <time>2021-06-21T10:09:39Z</time>
      </trkpt>
      <trkpt lat="47.18524" lon="5.94638">
        <ele>308</ele>
        <time>2021-06-21T10:09:40Z</time>
      </trkpt>
      <trkpt lat="47.18523" lon="5.94636">
        <ele>308</ele>
        <time>2021-06-21T10:09:41Z</time>
      </trkpt>
      <trkpt lat="47.1852" lon="5.94633">
        <ele>308.2</ele>
        <time>2021-06-21T10:09:42Z</time>
      </trkpt>
      <trkpt lat="47.1852" lon="5.94631">
        <ele>308.4</ele>
        <time>2021-06-21T10:09:43Z</time>
      </trkpt>
      <trkpt lat="47.18518" lon="5.94628">
        <ele>308.6</ele>
        <time>2021-06-21T10:09:44Z</time>
      </trkpt>
      <trkpt lat="47.18516" lon="5.94625">
        <ele>308.6</ele>
        <time>2021-06-21T10:09:45Z</time>
      </trkpt>
      <trkpt lat="47.18513" lon="5.94622">
        <ele>308.6</ele>
        <time>2021-06-21T10:09:46Z</time>
      </trkpt>
      <trkpt lat="47.18512" lon="5.94619">
        <ele>308.8</ele>
        <time>2021-06-21T10:09:47Z</time>
      </trkpt>
      <trkpt lat="47.1851" lon="5.94617">
        <ele>308.8</ele>
        <time>2021-06-21T10:09:48Z</time>
      </trkpt>
      <trkpt lat="47.18509" lon="5.94614">
        <ele>308.8</ele>
        <time>2021-06-21T10:09:49Z</time>
      </trkpt>
      <trkpt lat="47.1851" lon="5.94611">
        <ele>308.8</ele>
        <time>2021-06-21T10:09:50Z</time>
      </trkpt>
      <trkpt lat="47.18509" lon="5.94608">
        <ele>309</ele>
        <time>2021-06-21T10:09:51Z</time>
      </trkpt>
      <trkpt lat="47.18508" lon="5.94605">
        <ele>309</ele>
        <time>2021-06-21T10:09:52Z</time>
      </trkpt>
      <trkpt lat="47.18506" lon="5.94601">
        <ele>309</ele>
        <time>2021-06-21T10:09:53Z</time>
      </trkpt>
      <trkpt lat="47.18504" lon="5.94598">
        <ele>309</ele>
        <time>2021-06-21T10:09:54Z</time>
      </trkpt>
      <trkpt lat="47.18502" lon="5.94596">
        <ele>309</ele>
        <time>2021-06-21T10:09:55Z</time>
      </trkpt>
      <trkpt lat="47.18503" lon="5.94594">
        <ele>309.2</ele>
        <time>2021-06-21T10:09:56Z</time>
      </trkpt>
      <trkpt lat="47.18501" lon="5.94591">
        <ele>309.2</ele>
        <time>2021-06-21T10:09:57Z</time>
      </trkpt>
      <trkpt lat="47.18499" lon="5.94589">
        <ele>309.4</ele>
        <time>2021-06-21T10:09:58Z</time>
      </trkpt>
      <trkpt lat="47.18496" lon="5.94587">
        <ele>309.4</ele>
        <time>2021-06-21T10:09:59Z</time>
      </trkpt>
      <trkpt lat="47.18494" lon="5.94585">
        <ele>309.4</ele>
        <time>2021-06-21T10:10:00Z</time>
      </trkpt>
      <trkpt lat="47.18493" lon="5.94581">
        <ele>309.6</ele>
        <time>2021-06-21T10:10:01Z</time>
      </trkpt>
      <trkpt lat="47.18492" lon="5.94578">
        <ele>309.6</ele>
        <time>2021-06-21T10:10:02Z</time>
      </trkpt>
      <trkpt lat="47.18492" lon="5.94576">
        <ele>309.8</ele>
        <time>2021-06-21T10:10:03Z</time>
      </trkpt>
      <trkpt lat="47.18491" lon="5.94569">
        <ele>310</ele>
        <time>2021-06-21T10:10:06Z</time>
      </trkpt>
      <trkpt lat="47.1849" lon="5.94567">
        <ele>310.2</ele>
        <time>2021-06-21T10:10:07Z</time>
      </trkpt>
      <trkpt lat="47.18486" lon="5.94565">
        <ele>310.4</ele>
        <time>2021-06-21T10:10:08Z</time>
      </trkpt>
      <trkpt lat="47.18485" lon="5.94562">
        <ele>310.4</ele>
        <time>2021-06-21T10:10:09Z</time>
      </trkpt>
      <trkpt lat="47.18483" lon="5.94558">
        <ele>311</ele>
        <time>2021-06-21T10:10:11Z</time>
      </trkpt>
      <trkpt lat="47.18483" lon="5.94555">
        <ele>311.2</ele>
        <time>2021-06-21T10:10:12Z</time>
      </trkpt>
      <trkpt lat="47.18482" lon="5.94553">
        <ele>311.4</ele>
        <time>2021-06-21T10:10:13Z</time>
      </trkpt>
      <trkpt lat="47.18481" lon="5.94552">
        <ele>311.6</ele>
        <time>2021-06-21T10:10:14Z</time>
      </trkpt>
      <trkpt lat="47.1848" lon="5.9455">
        <ele>311.6</ele>
        <time>2021-06-21T10:10:15Z</time>
      </trkpt>
      <trkpt lat="47.1848" lon="5.94549">
        <ele>311.8</ele>
        <time>2021-06-21T10:10:16Z</time>
      </trkpt>
      <trkpt lat="47.18478" lon="5.94546">
        <ele>311.8</ele>
        <time>2021-06-21T10:10:17Z</time>
      </trkpt>
      <trkpt lat="47.18477" lon="5.94544">
        <ele>311.8</ele>
        <time>2021-06-21T10:10:18Z</time>
      </trkpt>
      <trkpt lat="47.18475" lon="5.94541">
        <ele>312</ele>
        <time>2021-06-21T10:10:19Z</time>
      </trkpt>
      <trkpt lat="47.18474" lon="5.94537">
        <ele>312</ele>
        <time>2021-06-21T10:10:20Z</time>
      </trkpt>
      <trkpt lat="47.18472" lon="5.94533">
        <ele>312</ele>
        <time>2021-06-21T10:10:21Z</time>
      </trkpt>
      <trkpt lat="47.18471" lon="5.94529">
        <ele>312</ele>
        <time>2021-06-21T10:10:22Z</time>
      </trkpt>
      <trkpt lat="47.18468" lon="5.94522">
        <ele>312</ele>
        <time>2021-06-21T10:10:23Z</time>
      </trkpt>
      <trkpt lat="47.18466" lon="5.94516">
        <ele>311.8</ele>
        <time>2021-06-21T10:10:24Z</time>
      </trkpt>
      <trkpt lat="47.18464" lon="5.94511">
        <ele>311.8</ele>
        <time>2021-06-21T10:10:25Z</time>
      </trkpt>
      <trkpt lat="47.18461" lon="5.94506">
        <ele>311.8</ele>
        <time>2021-06-21T10:10:26Z</time>
      </trkpt>
      <trkpt lat="47.18459" lon="5.945">
        <ele>311.6</ele>
        <time>2021-06-21T10:10:27Z</time>
      </trkpt>
      <trkpt lat="47.18457" lon="5.94495">
        <ele>311.6</ele>
        <time>2021-06-21T10:10:28Z</time>
      </trkpt>
      <trkpt lat="47.18455" lon="5.94491">
        <ele>311.4</ele>
        <time>2021-06-21T10:10:29Z</time>
      </trkpt>
      <trkpt lat="47.18454" lon="5.94487">
        <ele>311.2</ele>
        <time>2021-06-21T10:10:30Z</time>
      </trkpt>
      <trkpt lat="47.18454" lon="5.94483">
        <ele>311.2</ele>
        <time>2021-06-21T10:10:31Z</time>
      </trkpt>
      <trkpt lat="47.18454" lon="5.9448">
        <ele>311</ele>
        <time>2021-06-21T10:10:32Z</time>
      </trkpt>
      <trkpt lat="47.18454" lon="5.94476">
        <ele>311</ele>
        <time>2021-06-21T10:10:33Z</time>
      </trkpt>
      <trkpt lat="47.18454" lon="5.94472">
        <ele>311.2</ele>
        <time>2021-06-21T10:10:34Z</time>
      </trkpt>
      <trkpt lat="47.18453" lon="5.94468">
        <ele>311</ele>
        <time>2021-06-21T10:10:35Z</time>
      </trkpt>
      <trkpt lat="47.18453" lon="5.94465">
        <ele>311</ele>
        <time>2021-06-21T10:10:36Z</time>
      </trkpt>
      <trkpt lat="47.18453" lon="5.94462">
        <ele>311.4</ele>
        <time>2021-06-21T10:10:37Z</time>
      </trkpt>
      <trkpt lat="47.18452" lon="5.94459">
        <ele>311.4</ele>
        <time>2021-06-21T10:10:38Z</time>
      </trkpt>
      <trkpt lat="47.18452" lon="5.94456">
        <ele>311.2</ele>
        <time>2021-06-21T10:10:39Z</time>
      </trkpt>
      <trkpt lat="47.18452" lon="5.94455">
        <ele>311.4</ele>
        <time>2021-06-21T10:10:40Z</time>
      </trkpt>
      <trkpt lat="47.18452" lon="5.94452">
        <ele>311.4</ele>
        <time>2021-06-21T10:10:41Z</time>
      </trkpt>
      <trkpt lat="47.18452" lon="5.94451">
        <ele>311.6</ele>
        <time>2021-06-21T10:10:42Z</time>
      </trkpt>
      <trkpt lat="47.18451" lon="5.94449">
        <ele>312</ele>
        <time>2021-06-21T10:10:43Z</time>
      </trkpt>
      <trkpt lat="47.18451" lon="5.94445">
        <ele>312.6</ele>
        <time>2021-06-21T10:10:44Z</time>
      </trkpt>
      <trkpt lat="47.18451" lon="5.94442">
        <ele>312.8</ele>
        <time>2021-06-21T10:10:45Z</time>
      </trkpt>
      <trkpt lat="47.1845" lon="5.94439">
        <ele>313.2</ele>
        <time>2021-06-21T10:10:46Z</time>
      </trkpt>
      <trkpt lat="47.18449" lon="5.94436">
        <ele>313.2</ele>
        <time>2021-06-21T10:10:47Z</time>
      </trkpt>
      <trkpt lat="47.18449" lon="5.94434">
        <ele>313.6</ele>
        <time>2021-06-21T10:10:48Z</time>
      </trkpt>
      <trkpt lat="47.18449" lon="5.94432">
        <ele>313.6</ele>
        <time>2021-06-21T10:10:49Z</time>
      </trkpt>
      <trkpt lat="47.18449" lon="5.94429">
        <ele>314.2</ele>
        <time>2021-06-21T10:10:50Z</time>
      </trkpt>
      <trkpt lat="47.18447" lon="5.94424">
        <ele>315</ele>
        <time>2021-06-21T10:10:52Z</time>
      </trkpt>
      <trkpt lat="47.18446" lon="5.94421">
        <ele>315.4</ele>
        <time>2021-06-21T10:10:53Z</time>
      </trkpt>
      <trkpt lat="47.18445" lon="5.94419">
        <ele>315.4</ele>
        <time>2021-06-21T10:10:54Z</time>
      </trkpt>
      <trkpt lat="47.18444" lon="5.94417">
        <ele>315.8</ele>
        <time>2021-06-21T10:10:55Z</time>
      </trkpt>
      <trkpt lat="47.18443" lon="5.94415">
        <ele>316</ele>
        <time>2021-06-21T10:10:56Z</time>
      </trkpt>
      <trkpt lat="47.18442" lon="5.94413">
        <ele>316.2</ele>
        <time>2021-06-21T10:10:57Z</time>
      </trkpt>
      <trkpt lat="47.18442" lon="5.94411">
        <ele>316.4</ele>
        <time>2021-06-21T10:10:58Z</time>
      </trkpt>
      <trkpt lat="47.18441" lon="5.94408">
        <ele>316.6</ele>
        <time>2021-06-21T10:10:59Z</time>
      </trkpt>
      <trkpt lat="47.1844" lon="5.94405">
        <ele>317</ele>
        <time>2021-06-21T10:11:00Z</time>
      </trkpt>
      <trkpt lat="47.18439" lon="5.94402">
        <ele>317</ele>
        <time>2021-06-21T10:11:01Z</time>
      </trkpt>
      <trkpt lat="47.18438" lon="5.94399">
        <ele>317.2</ele>
        <time>2021-06-21T10:11:02Z</time>
      </trkpt>
      <trkpt lat="47.18437" lon="5.94397">
        <ele>317.2</ele>
        <time>2021-06-21T10:11:03Z</time>
      </trkpt>
      <trkpt lat="47.18436" lon="5.94395">
        <ele>317.4</ele>
        <time>2021-06-21T10:11:04Z</time>
      </trkpt>
      <trkpt lat="47.18435" lon="5.94393">
        <ele>317.6</ele>
        <time>2021-06-21T10:11:05Z</time>
      </trkpt>
      <trkpt lat="47.18434" lon="5.9439">
        <ele>317.8</ele>
        <time>2021-06-21T10:11:06Z</time>
      </trkpt>
      <trkpt lat="47.18433" lon="5.94388">
        <ele>318.2</ele>
        <time>2021-06-21T10:11:07Z</time>
      </trkpt>
      <trkpt lat="47.18433" lon="5.94386">
        <ele>318.2</ele>
        <time>2021-06-21T10:11:08Z</time>
      </trkpt>
      <trkpt lat="47.18432" lon="5.94383">
        <ele>318.4</ele>
        <time>2021-06-21T10:11:09Z</time>
      </trkpt>
      <trkpt lat="47.18432" lon="5.94381">
        <ele>318.6</ele>
        <time>2021-06-21T10:11:10Z</time>
      </trkpt>
      <trkpt lat="47.18431" lon="5.94379">
        <ele>318.6</ele>
        <time>2021-06-21T10:11:11Z</time>
      </trkpt>
      <trkpt lat="47.18431" lon="5.94377">
        <ele>318.6</ele>
        <time>2021-06-21T10:11:12Z</time>
      </trkpt>
      <trkpt lat="47.1843" lon="5.94375">
        <ele>318.8</ele>
        <time>2021-06-21T10:11:13Z</time>
      </trkpt>
      <trkpt lat="47.1843" lon="5.94373">
        <ele>318.8</ele>
        <time>2021-06-21T10:11:14Z</time>
      </trkpt>
      <trkpt lat="47.18429" lon="5.94371">
        <ele>319</ele>
        <time>2021-06-21T10:11:15Z</time>
      </trkpt>
      <trkpt lat="47.18429" lon="5.94369">
        <ele>319</ele>
        <time>2021-06-21T10:11:16Z</time>
      </trkpt>
      <trkpt lat="47.18429" lon="5.94367">
        <ele>319.2</ele>
        <time>2021-06-21T10:11:17Z</time>
      </trkpt>
      <trkpt lat="47.18428" lon="5.94365">
        <ele>319.4</ele>
        <time>2021-06-21T10:11:18Z</time>
      </trkpt>
      <trkpt lat="47.18427" lon="5.94363">
        <ele>319.4</ele>
        <time>2021-06-21T10:11:19Z</time>
      </trkpt>
      <trkpt lat="47.18427" lon="5.94361">
        <ele>319.6</ele>
        <time>2021-06-21T10:11:20Z</time>
      </trkpt>
      <trkpt lat="47.18426" lon="5.9436">
        <ele>319.8</ele>
        <time>2021-06-21T10:11:21Z</time>
      </trkpt>
      <trkpt lat="47.18425" lon="5.94358">
        <ele>319.8</ele>
        <time>2021-06-21T10:11:22Z</time>
      </trkpt>
      <trkpt lat="47.18424" lon="5.94355">
        <ele>320</ele>
        <time>2021-06-21T10:11:23Z</time>
      </trkpt>
      <trkpt lat="47.18424" lon="5.94353">
        <ele>320</ele>
        <time>2021-06-21T10:11:24Z</time>
      </trkpt>
      <trkpt lat="47.18423" lon="5.94351">
        <ele>320</ele>
        <time>2021-06-21T10:11:25Z</time>
      </trkpt>
      <trkpt lat="47.18422" lon="5.9435">
        <ele>320.2</ele>
        <time>2021-06-21T10:11:26Z</time>
      </trkpt>
      <trkpt lat="47.18422" lon="5.94348">
        <ele>320.2</ele>
        <time>2021-06-21T10:11:27Z</time>
      </trkpt>
      <trkpt lat="47.18421" lon="5.94344">
        <ele>320.2</ele>
        <time>2021-06-21T10:11:28Z</time>
      </trkpt>
      <trkpt lat="47.18421" lon="5.94341">
        <ele>320.2</ele>
        <time>2021-06-21T10:11:29Z</time>
      </trkpt>
      <trkpt lat="47.1842" lon="5.94339">
        <ele>320.4</ele>
        <time>2021-06-21T10:11:30Z</time>
      </trkpt>
      <trkpt lat="47.18419" lon="5.94337">
        <ele>320.4</ele>
        <time>2021-06-21T10:11:31Z</time>
      </trkpt>
      <trkpt lat="47.18418" lon="5.94334">
        <ele>320.4</ele>
        <time>2021-06-21T10:11:32Z</time>
      </trkpt>
      <trkpt lat="47.18417" lon="5.94332">
        <ele>320.6</ele>
        <time>2021-06-21T10:11:33Z</time>
      </trkpt>
      <trkpt lat="47.18415" lon="5.94329">
        <ele>320.6</ele>
        <time>2021-06-21T10:11:34Z</time>
      </trkpt>
      <trkpt lat="47.18412" lon="5.94327">
        <ele>320.6</ele>
        <time>2021-06-21T10:11:35Z</time>
      </trkpt>
      <trkpt lat="47.1841" lon="5.94324">
        <ele>320.6</ele>
        <time>2021-06-21T10:11:36Z</time>
      </trkpt>
      <trkpt lat="47.18408" lon="5.94322">
        <ele>320.6</ele>
        <time>2021-06-21T10:11:37Z</time>
      </trkpt>
      <trkpt lat="47.18406" lon="5.9432">
        <ele>320.8</ele>
        <time>2021-06-21T10:11:38Z</time>
      </trkpt>
      <trkpt lat="47.18402" lon="5.94316">
        <ele>320.8</ele>
        <time>2021-06-21T10:11:41Z</time>
      </trkpt>
      <trkpt lat="47.18399" lon="5.9431">
        <ele>321</ele>
        <time>2021-06-21T10:11:43Z</time>
      </trkpt>
      <trkpt lat="47.18398" lon="5.94307">
        <ele>321</ele>
        <time>2021-06-21T10:11:44Z</time>
      </trkpt>
      <trkpt lat="47.18393" lon="5.94303">
        <ele>321</ele>
        <time>2021-06-21T10:11:46Z</time>
      </trkpt>
      <trkpt lat="47.18392" lon="5.94301">
        <ele>321</ele>
        <time>2021-06-21T10:11:47Z</time>
      </trkpt>
      <trkpt lat="47.18392" lon="5.94298">
        <ele>321</ele>
        <time>2021-06-21T10:11:48Z</time>
      </trkpt>
      <trkpt lat="47.18391" lon="5.94296">
        <ele>321</ele>
        <time>2021-06-21T10:11:49Z</time>
      </trkpt>
      <trkpt lat="47.1839" lon="5.94294">
        <ele>321.2</ele>
        <time>2021-06-21T10:11:50Z</time>
      </trkpt>
      <trkpt lat="47.1839" lon="5.94293">
        <ele>321.2</ele>
        <time>2021-06-21T10:11:51Z</time>
      </trkpt>
      <trkpt lat="47.1839" lon="5.94291">
        <ele>321.2</ele>
        <time>2021-06-21T10:11:52Z</time>
      </trkpt>
      <trkpt lat="47.18388" lon="5.94289">
        <ele>321.2</ele>
        <time>2021-06-21T10:11:53Z</time>
      </trkpt>
      <trkpt lat="47.18388" lon="5.94287">
        <ele>321.2</ele>
        <time>2021-06-21T10:11:54Z</time>
      </trkpt>
      <trkpt lat="47.18387" lon="5.94284">
        <ele>321.2</ele>
        <time>2021-06-21T10:11:55Z</time>
      </trkpt>
      <trkpt lat="47.18387" lon="5.94283">
        <ele>321.4</ele>
        <time>2021-06-21T10:11:56Z</time>
      </trkpt>
      <trkpt lat="47.18386" lon="5.94281">
        <ele>321.4</ele>
        <time>2021-06-21T10:11:57Z</time>
      </trkpt>
      <trkpt lat="47.18384" lon="5.94279">
        <ele>321.6</ele>
        <time>2021-06-21T10:11:58Z</time>
      </trkpt>
      <trkpt lat="47.18384" lon="5.94278">
        <ele>321.6</ele>
        <time>2021-06-21T10:11:59Z</time>
      </trkpt>
      <trkpt lat="47.18382" lon="5.94277">
        <ele>321.6</ele>
        <time>2021-06-21T10:12:00Z</time>
      </trkpt>
      <trkpt lat="47.18381" lon="5.94275">
        <ele>321.8</ele>
        <time>2021-06-21T10:12:01Z</time>
      </trkpt>
      <trkpt lat="47.18378" lon="5.94271">
        <ele>321.8</ele>
        <time>2021-06-21T10:12:03Z</time>
      </trkpt>
      <trkpt lat="47.18376" lon="5.94269">
        <ele>321.8</ele>
        <time>2021-06-21T10:12:04Z</time>
      </trkpt>
      <trkpt lat="47.18375" lon="5.94266">
        <ele>322</ele>
        <time>2021-06-21T10:12:05Z</time>
      </trkpt>
      <trkpt lat="47.18374" lon="5.94262">
        <ele>322</ele>
        <time>2021-06-21T10:12:06Z</time>
      </trkpt>
      <trkpt lat="47.18373" lon="5.94256">
        <ele>322</ele>
        <time>2021-06-21T10:12:08Z</time>
      </trkpt>
      <trkpt lat="47.18373" lon="5.94253">
        <ele>322</ele>
        <time>2021-06-21T10:12:09Z</time>
      </trkpt>
      <trkpt lat="47.18373" lon="5.94251">
        <ele>322.2</ele>
        <time>2021-06-21T10:12:10Z</time>
      </trkpt>
      <trkpt lat="47.18372" lon="5.94248">
        <ele>322.2</ele>
        <time>2021-06-21T10:12:11Z</time>
      </trkpt>
      <trkpt lat="47.18371" lon="5.94242">
        <ele>322.2</ele>
        <time>2021-06-21T10:12:13Z</time>
      </trkpt>
      <trkpt lat="47.1837" lon="5.94239">
        <ele>322.2</ele>
        <time>2021-06-21T10:12:14Z</time>
      </trkpt>
      <trkpt lat="47.18369" lon="5.94236">
        <ele>322.4</ele>
        <time>2021-06-21T10:12:15Z</time>
      </trkpt>
      <trkpt lat="47.18364" lon="5.94223">
        <ele>322.6</ele>
        <time>2021-06-21T10:12:18Z</time>
      </trkpt>
      <trkpt lat="47.18363" lon="5.94222">
        <ele>322.8</ele>
        <time>2021-06-21T10:12:19Z</time>
      </trkpt>
      <trkpt lat="47.18363" lon="5.94219">
        <ele>322.8</ele>
        <time>2021-06-21T10:12:20Z</time>
      </trkpt>
      <trkpt lat="47.18362" lon="5.94218">
        <ele>322.8</ele>
        <time>2021-06-21T10:12:21Z</time>
      </trkpt>
      <trkpt lat="47.18359" lon="5.94215">
        <ele>322.8</ele>
        <time>2021-06-21T10:12:22Z</time>
      </trkpt>
      <trkpt lat="47.18356" lon="5.94212">
        <ele>322.8</ele>
        <time>2021-06-21T10:12:23Z</time>
      </trkpt>
      <trkpt lat="47.18354" lon="5.94209">
        <ele>323</ele>
        <time>2021-06-21T10:12:24Z</time>
      </trkpt>
      <trkpt lat="47.18352" lon="5.94209">
        <ele>323</ele>
        <time>2021-06-21T10:12:25Z</time>
      </trkpt>
      <trkpt lat="47.18348" lon="5.942">
        <ele>323.2</ele>
        <time>2021-06-21T10:12:29Z</time>
      </trkpt>
      <trkpt lat="47.18345" lon="5.94197">
        <ele>323.4</ele>
        <time>2021-06-21T10:12:30Z</time>
      </trkpt>
      <trkpt lat="47.18343" lon="5.94194">
        <ele>323.4</ele>
        <time>2021-06-21T10:12:31Z</time>
      </trkpt>
      <trkpt lat="47.18342" lon="5.94192">
        <ele>323.6</ele>
        <time>2021-06-21T10:12:32Z</time>
      </trkpt>
      <trkpt lat="47.18341" lon="5.9419">
        <ele>323.6</ele>
        <time>2021-06-21T10:12:33Z</time>
      </trkpt>
      <trkpt lat="47.18341" lon="5.94189">
        <ele>323.6</ele>
        <time>2021-06-21T10:12:34Z</time>
      </trkpt>
      <trkpt lat="47.1834" lon="5.94188">
        <ele>323.6</ele>
        <time>2021-06-21T10:12:35Z</time>
      </trkpt>
      <trkpt lat="47.18339" lon="5.94187">
        <ele>323.8</ele>
        <time>2021-06-21T10:12:36Z</time>
      </trkpt>
      <trkpt lat="47.18336" lon="5.94184">
        <ele>323.8</ele>
        <time>2021-06-21T10:12:38Z</time>
      </trkpt>
      <trkpt lat="47.18325" lon="5.94166">
        <ele>323.8</ele>
        <time>2021-06-21T10:12:46Z</time>
      </trkpt>
      <trkpt lat="47.18323" lon="5.94164">
        <ele>323.8</ele>
        <time>2021-06-21T10:12:47Z</time>
      </trkpt>
      <trkpt lat="47.18322" lon="5.94161">
        <ele>323.8</ele>
        <time>2021-06-21T10:12:49Z</time>
      </trkpt>
      <trkpt lat="47.18321" lon="5.94159">
        <ele>323.8</ele>
        <time>2021-06-21T10:12:50Z</time>
      </trkpt>
      <trkpt lat="47.18317" lon="5.94158">
        <ele>323.8</ele>
        <time>2021-06-21T10:12:51Z</time>
      </trkpt>
      <trkpt lat="47.18313" lon="5.94157">
        <ele>324</ele>
        <time>2021-06-21T10:12:52Z</time>
      </trkpt>
      <trkpt lat="47.18311" lon="5.94157">
        <ele>324.2</ele>
        <time>2021-06-21T10:12:53Z</time>
      </trkpt>
      <trkpt lat="47.1831" lon="5.94155">
        <ele>324.4</ele>
        <time>2021-06-21T10:12:54Z</time>
      </trkpt>
      <trkpt lat="47.18308" lon="5.94154">
        <ele>324.4</ele>
        <time>2021-06-21T10:12:55Z</time>
      </trkpt>
      <trkpt lat="47.18307" lon="5.94152">
        <ele>324.6</ele>
        <time>2021-06-21T10:12:56Z</time>
      </trkpt>
      <trkpt lat="47.18303" lon="5.9415">
        <ele>324.6</ele>
        <time>2021-06-21T10:12:57Z</time>
      </trkpt>
      <trkpt lat="47.18301" lon="5.94149">
        <ele>324.6</ele>
        <time>2021-06-21T10:12:58Z</time>
      </trkpt>
      <trkpt lat="47.18298" lon="5.94147">
        <ele>324.8</ele>
        <time>2021-06-21T10:12:59Z</time>
      </trkpt>
      <trkpt lat="47.18295" lon="5.94147">
        <ele>324.8</ele>
        <time>2021-06-21T10:13:00Z</time>
      </trkpt>
      <trkpt lat="47.18293" lon="5.94146">
        <ele>324.8</ele>
        <time>2021-06-21T10:13:01Z</time>
      </trkpt>
      <trkpt lat="47.18291" lon="5.94147">
        <ele>325.2</ele>
        <time>2021-06-21T10:13:02Z</time>
      </trkpt>
      <trkpt lat="47.1829" lon="5.94147">
        <ele>325.2</ele>
        <time>2021-06-21T10:13:03Z</time>
      </trkpt>
      <trkpt lat="47.18288" lon="5.94144">
        <ele>325.4</ele>
        <time>2021-06-21T10:13:04Z</time>
      </trkpt>
      <trkpt lat="47.18283" lon="5.94141">
        <ele>325.4</ele>
        <time>2021-06-21T10:13:05Z</time>
      </trkpt>
      <trkpt lat="47.18278" lon="5.9414">
        <ele>325.8</ele>
        <time>2021-06-21T10:13:07Z</time>
      </trkpt>
      <trkpt lat="47.18276" lon="5.9414">
        <ele>325.8</ele>
        <time>2021-06-21T10:13:08Z</time>
      </trkpt>
      <trkpt lat="47.18274" lon="5.94139">
        <ele>326</ele>
        <time>2021-06-21T10:13:09Z</time>
      </trkpt>
      <trkpt lat="47.18271" lon="5.94139">
        <ele>326</ele>
        <time>2021-06-21T10:13:11Z</time>
      </trkpt>
      <trkpt lat="47.18269" lon="5.94138">
        <ele>326</ele>
        <time>2021-06-21T10:13:12Z</time>
      </trkpt>
      <trkpt lat="47.18267" lon="5.94136">
        <ele>326.2</ele>
        <time>2021-06-21T10:13:13Z</time>
      </trkpt>
      <trkpt lat="47.18263" lon="5.94135">
        <ele>326.2</ele>
        <time>2021-06-21T10:13:15Z</time>
      </trkpt>
      <trkpt lat="47.18263" lon="5.94133">
        <ele>326.4</ele>
        <time>2021-06-21T10:13:16Z</time>
      </trkpt>
      <trkpt lat="47.18262" lon="5.94132">
        <ele>326.4</ele>
        <time>2021-06-21T10:13:17Z</time>
      </trkpt>
      <trkpt lat="47.18261" lon="5.94131">
        <ele>326.8</ele>
        <time>2021-06-21T10:13:18Z</time>
      </trkpt>
      <trkpt lat="47.1826" lon="5.94129">
        <ele>327</ele>
        <time>2021-06-21T10:13:19Z</time>
      </trkpt>
      <trkpt lat="47.18259" lon="5.94128">
        <ele>327.2</ele>
        <time>2021-06-21T10:13:20Z</time>
      </trkpt>
      <trkpt lat="47.18257" lon="5.94127">
        <ele>327.2</ele>
        <time>2021-06-21T10:13:21Z</time>
      </trkpt>
      <trkpt lat="47.18252" lon="5.94119">
        <ele>327.4</ele>
        <time>2021-06-21T10:13:25Z</time>
      </trkpt>
      <trkpt lat="47.18251" lon="5.94118">
        <ele>327.4</ele>
        <time>2021-06-21T10:13:26Z</time>
      </trkpt>
      <trkpt lat="47.1825" lon="5.94113">
        <ele>327.8</ele>
        <time>2021-06-21T10:13:29Z</time>
      </trkpt>
      <trkpt lat="47.18249" lon="5.94112">
        <ele>328</ele>
        <time>2021-06-21T10:13:30Z</time>
      </trkpt>
      <trkpt lat="47.18249" lon="5.9411">
        <ele>328</ele>
        <time>2021-06-21T10:13:31Z</time>
      </trkpt>
      <trkpt lat="47.18248" lon="5.94108">
        <ele>328.2</ele>
        <time>2021-06-21T10:13:32Z</time>
      </trkpt>
      <trkpt lat="47.18247" lon="5.94107">
        <ele>328.4</ele>
        <time>2021-06-21T10:13:33Z</time>
      </trkpt>
      <trkpt lat="47.18246" lon="5.94105">
        <ele>328.6</ele>
        <time>2021-06-21T10:13:34Z</time>
      </trkpt>
      <trkpt lat="47.18246" lon="5.94103">
        <ele>328.6</ele>
        <time>2021-06-21T10:13:35Z</time>
      </trkpt>
      <trkpt lat="47.18245" lon="5.94101">
        <ele>328.6</ele>
        <time>2021-06-21T10:13:36Z</time>
      </trkpt>
      <trkpt lat="47.18245" lon="5.94099">
        <ele>328.8</ele>
        <time>2021-06-21T10:13:37Z</time>
      </trkpt>
      <trkpt lat="47.18244" lon="5.94097">
        <ele>328.8</ele>
        <time>2021-06-21T10:13:38Z</time>
      </trkpt>
      <trkpt lat="47.18243" lon="5.94095">
        <ele>329</ele>
        <time>2021-06-21T10:13:39Z</time>
      </trkpt>
      <trkpt lat="47.18243" lon="5.94092">
        <ele>329</ele>
        <time>2021-06-21T10:13:40Z</time>
      </trkpt>
      <trkpt lat="47.18242" lon="5.94089">
        <ele>329.2</ele>
        <time>2021-06-21T10:13:41Z</time>
      </trkpt>
      <trkpt lat="47.18241" lon="5.94086">
        <ele>329.4</ele>
        <time>2021-06-21T10:13:42Z</time>
      </trkpt>
      <trkpt lat="47.1824" lon="5.94084">
        <ele>329.4</ele>
        <time>2021-06-21T10:13:43Z</time>
      </trkpt>
      <trkpt lat="47.18239" lon="5.94082">
        <ele>329.6</ele>
        <time>2021-06-21T10:13:44Z</time>
      </trkpt>
      <trkpt lat="47.18237" lon="5.94079">
        <ele>329.6</ele>
        <time>2021-06-21T10:13:45Z</time>
      </trkpt>
      <trkpt lat="47.18236" lon="5.94078">
        <ele>329.6</ele>
        <time>2021-06-21T10:13:46Z</time>
      </trkpt>
      <trkpt lat="47.18235" lon="5.94077">
        <ele>329.6</ele>
        <time>2021-06-21T10:13:47Z</time>
      </trkpt>
      <trkpt lat="47.18233" lon="5.94077">
        <ele>330</ele>
        <time>2021-06-21T10:13:48Z</time>
      </trkpt>
      <trkpt lat="47.18232" lon="5.94076">
        <ele>330.2</ele>
        <time>2021-06-21T10:13:49Z</time>
      </trkpt>
      <trkpt lat="47.18231" lon="5.94073">
        <ele>330.2</ele>
        <time>2021-06-21T10:13:50Z</time>
      </trkpt>
      <trkpt lat="47.1823" lon="5.94071">
        <ele>330.2</ele>
        <time>2021-06-21T10:13:51Z</time>
      </trkpt>
      <trkpt lat="47.18228" lon="5.94068">
        <ele>330.4</ele>
        <time>2021-06-21T10:13:52Z</time>
      </trkpt>
      <trkpt lat="47.18227" lon="5.94065">
        <ele>330.4</ele>
        <time>2021-06-21T10:13:53Z</time>
      </trkpt>
      <trkpt lat="47.18225" lon="5.94062">
        <ele>330.6</ele>
        <time>2021-06-21T10:13:54Z</time>
      </trkpt>
      <trkpt lat="47.18221" lon="5.94057">
        <ele>330.8</ele>
        <time>2021-06-21T10:13:55Z</time>
      </trkpt>
      <trkpt lat="47.18219" lon="5.94054">
        <ele>330.8</ele>
        <time>2021-06-21T10:13:56Z</time>
      </trkpt>
      <trkpt lat="47.18219" lon="5.94052">
        <ele>330.8</ele>
        <time>2021-06-21T10:13:57Z</time>
      </trkpt>
      <trkpt lat="47.18218" lon="5.9405">
        <ele>330.8</ele>
        <time>2021-06-21T10:13:58Z</time>
      </trkpt>
      <trkpt lat="47.18216" lon="5.94048">
        <ele>330.8</ele>
        <time>2021-06-21T10:13:59Z</time>
      </trkpt>
      <trkpt lat="47.18216" lon="5.94048">
        <ele>331</ele>
        <time>2021-06-21T10:14:00Z</time>
      </trkpt>
      <trkpt lat="47.18216" lon="5.94047">
        <ele>331.2</ele>
        <time>2021-06-21T10:14:01Z</time>
      </trkpt>
      <trkpt lat="47.18215" lon="5.94045">
        <ele>331.4</ele>
        <time>2021-06-21T10:14:02Z</time>
      </trkpt>
      <trkpt lat="47.18213" lon="5.94043">
        <ele>331.8</ele>
        <time>2021-06-21T10:14:03Z</time>
      </trkpt>
      <trkpt lat="47.18212" lon="5.9404">
        <ele>331.8</ele>
        <time>2021-06-21T10:14:04Z</time>
      </trkpt>
      <trkpt lat="47.18209" lon="5.94038">
        <ele>332</ele>
        <time>2021-06-21T10:14:05Z</time>
      </trkpt>
      <trkpt lat="47.18205" lon="5.94035">
        <ele>332</ele>
        <time>2021-06-21T10:14:06Z</time>
      </trkpt>
      <trkpt lat="47.18202" lon="5.94031">
        <ele>332.2</ele>
        <time>2021-06-21T10:14:07Z</time>
      </trkpt>
      <trkpt lat="47.18198" lon="5.94028">
        <ele>332.2</ele>
        <time>2021-06-21T10:14:08Z</time>
      </trkpt>
      <trkpt lat="47.18197" lon="5.94027">
        <ele>332.2</ele>
        <time>2021-06-21T10:14:09Z</time>
      </trkpt>
      <trkpt lat="47.18196" lon="5.94025">
        <ele>332.2</ele>
        <time>2021-06-21T10:14:10Z</time>
      </trkpt>
      <trkpt lat="47.18195" lon="5.94022">
        <ele>332.2</ele>
        <time>2021-06-21T10:14:11Z</time>
      </trkpt>
      <trkpt lat="47.18195" lon="5.94019">
        <ele>332.2</ele>
        <time>2021-06-21T10:14:12Z</time>
      </trkpt>
      <trkpt lat="47.18193" lon="5.94018">
        <ele>332.4</ele>
        <time>2021-06-21T10:14:13Z</time>
      </trkpt>
      <trkpt lat="47.18192" lon="5.94015">
        <ele>332.4</ele>
        <time>2021-06-21T10:14:14Z</time>
      </trkpt>
      <trkpt lat="47.18191" lon="5.94014">
        <ele>332.4</ele>
        <time>2021-06-21T10:14:15Z</time>
      </trkpt>
      <trkpt lat="47.1819" lon="5.94012">
        <ele>332.8</ele>
        <time>2021-06-21T10:14:16Z</time>
      </trkpt>
      <trkpt lat="47.18187" lon="5.94011">
        <ele>333</ele>
        <time>2021-06-21T10:14:17Z</time>
      </trkpt>
      <trkpt lat="47.18185" lon="5.94007">
        <ele>333</ele>
        <time>2021-06-21T10:14:18Z</time>
      </trkpt>
      <trkpt lat="47.18184" lon="5.94005">
        <ele>333.2</ele>
        <time>2021-06-21T10:14:19Z</time>
      </trkpt>
      <trkpt lat="47.18183" lon="5.94001">
        <ele>333.4</ele>
        <time>2021-06-21T10:14:21Z</time>
      </trkpt>
      <trkpt lat="47.18183" lon="5.93999">
        <ele>333.4</ele>
        <time>2021-06-21T10:14:22Z</time>
      </trkpt>
      <trkpt lat="47.18182" lon="5.93997">
        <ele>333.4</ele>
        <time>2021-06-21T10:14:23Z</time>
      </trkpt>
      <trkpt lat="47.18181" lon="5.93995">
        <ele>333.4</ele>
        <time>2021-06-21T10:14:24Z</time>
      </trkpt>
      <trkpt lat="47.1818" lon="5.93994">
        <ele>333.6</ele>
        <time>2021-06-21T10:14:25Z</time>
      </trkpt>
      <trkpt lat="47.18178" lon="5.93993">
        <ele>333.8</ele>
        <time>2021-06-21T10:14:26Z</time>
      </trkpt>
      <trkpt lat="47.18177" lon="5.93991">
        <ele>333.8</ele>
        <time>2021-06-21T10:14:27Z</time>
      </trkpt>
      <trkpt lat="47.18176" lon="5.9399">
        <ele>334</ele>
        <time>2021-06-21T10:14:28Z</time>
      </trkpt>
      <trkpt lat="47.18175" lon="5.93989">
        <ele>334.2</ele>
        <time>2021-06-21T10:14:29Z</time>
      </trkpt>
      <trkpt lat="47.18174" lon="5.93988">
        <ele>334.2</ele>
        <time>2021-06-21T10:14:30Z</time>
      </trkpt>
      <trkpt lat="47.18173" lon="5.93987">
        <ele>334.4</ele>
        <time>2021-06-21T10:14:31Z</time>
      </trkpt>
      <trkpt lat="47.18172" lon="5.93985">
        <ele>334.6</ele>
        <time>2021-06-21T10:14:32Z</time>
      </trkpt>
      <trkpt lat="47.1817" lon="5.93984">
        <ele>334.6</ele>
        <time>2021-06-21T10:14:33Z</time>
      </trkpt>
      <trkpt lat="47.18168" lon="5.93982">
        <ele>334.6</ele>
        <time>2021-06-21T10:14:34Z</time>
      </trkpt>
      <trkpt lat="47.18167" lon="5.93982">
        <ele>334.6</ele>
        <time>2021-06-21T10:14:35Z</time>
      </trkpt>
      <trkpt lat="47.18167" lon="5.93982">
        <ele>334.8</ele>
        <time>2021-06-21T10:14:36Z</time>
      </trkpt>
      <trkpt lat="47.18166" lon="5.9398">
        <ele>334.8</ele>
        <time>2021-06-21T10:14:37Z</time>
      </trkpt>
      <trkpt lat="47.18165" lon="5.93978">
        <ele>334.8</ele>
        <time>2021-06-21T10:14:38Z</time>
      </trkpt>
      <trkpt lat="47.18163" lon="5.93976">
        <ele>335</ele>
        <time>2021-06-21T10:14:39Z</time>
      </trkpt>
      <trkpt lat="47.18158" lon="5.93971">
        <ele>335.2</ele>
        <time>2021-06-21T10:14:41Z</time>
      </trkpt>
      <trkpt lat="47.18156" lon="5.93968">
        <ele>335.4</ele>
        <time>2021-06-21T10:14:42Z</time>
      </trkpt>
      <trkpt lat="47.18155" lon="5.93966">
        <ele>335.4</ele>
        <time>2021-06-21T10:14:43Z</time>
      </trkpt>
      <trkpt lat="47.18154" lon="5.93965">
        <ele>335.6</ele>
        <time>2021-06-21T10:14:44Z</time>
      </trkpt>
      <trkpt lat="47.18153" lon="5.93962">
        <ele>335.8</ele>
        <time>2021-06-21T10:14:45Z</time>
      </trkpt>
      <trkpt lat="47.18153" lon="5.9396">
        <ele>336</ele>
        <time>2021-06-21T10:14:46Z</time>
      </trkpt>
      <trkpt lat="47.18151" lon="5.93957">
        <ele>336.2</ele>
        <time>2021-06-21T10:14:47Z</time>
      </trkpt>
      <trkpt lat="47.18149" lon="5.93954">
        <ele>336.2</ele>
        <time>2021-06-21T10:14:48Z</time>
      </trkpt>
      <trkpt lat="47.18148" lon="5.93951">
        <ele>336.4</ele>
        <time>2021-06-21T10:14:49Z</time>
      </trkpt>
      <trkpt lat="47.18146" lon="5.93949">
        <ele>336.6</ele>
        <time>2021-06-21T10:14:50Z</time>
      </trkpt>
      <trkpt lat="47.18145" lon="5.93946">
        <ele>336.8</ele>
        <time>2021-06-21T10:14:51Z</time>
      </trkpt>
      <trkpt lat="47.18144" lon="5.93942">
        <ele>336.8</ele>
        <time>2021-06-21T10:14:52Z</time>
      </trkpt>
      <trkpt lat="47.18143" lon="5.93939">
        <ele>336.8</ele>
        <time>2021-06-21T10:14:53Z</time>
      </trkpt>
      <trkpt lat="47.18141" lon="5.93938">
        <ele>336.8</ele>
        <time>2021-06-21T10:14:54Z</time>
      </trkpt>
      <trkpt lat="47.18138" lon="5.93936">
        <ele>337</ele>
        <time>2021-06-21T10:14:55Z</time>
      </trkpt>
      <trkpt lat="47.18136" lon="5.93934">
        <ele>337</ele>
        <time>2021-06-21T10:14:56Z</time>
      </trkpt>
      <trkpt lat="47.18135" lon="5.93931">
        <ele>337</ele>
        <time>2021-06-21T10:14:57Z</time>
      </trkpt>
      <trkpt lat="47.18135" lon="5.93927">
        <ele>337.2</ele>
        <time>2021-06-21T10:14:58Z</time>
      </trkpt>
      <trkpt lat="47.18134" lon="5.93924">
        <ele>337.2</ele>
        <time>2021-06-21T10:14:59Z</time>
      </trkpt>
      <trkpt lat="47.18133" lon="5.93921">
        <ele>337.2</ele>
        <time>2021-06-21T10:15:00Z</time>
      </trkpt>
      <trkpt lat="47.18132" lon="5.93918">
        <ele>336.8</ele>
        <time>2021-06-21T10:15:01Z</time>
      </trkpt>
      <trkpt lat="47.18131" lon="5.93915">
        <ele>336.8</ele>
        <time>2021-06-21T10:15:02Z</time>
      </trkpt>
      <trkpt lat="47.1813" lon="5.9391">
        <ele>336.8</ele>
        <time>2021-06-21T10:15:03Z</time>
      </trkpt>
      <trkpt lat="47.18125" lon="5.93895">
        <ele>335.6</ele>
        <time>2021-06-21T10:15:06Z</time>
      </trkpt>
      <trkpt lat="47.18124" lon="5.93889">
        <ele>335.4</ele>
        <time>2021-06-21T10:15:07Z</time>
      </trkpt>
      <trkpt lat="47.18124" lon="5.93884">
        <ele>334.6</ele>
        <time>2021-06-21T10:15:08Z</time>
      </trkpt>
      <trkpt lat="47.18125" lon="5.93879">
        <ele>334</ele>
        <time>2021-06-21T10:15:09Z</time>
      </trkpt>
      <trkpt lat="47.18125" lon="5.93875">
        <ele>333.6</ele>
        <time>2021-06-21T10:15:10Z</time>
      </trkpt>
      <trkpt lat="47.18123" lon="5.9387">
        <ele>333.4</ele>
        <time>2021-06-21T10:15:11Z</time>
      </trkpt>
      <trkpt lat="47.1812" lon="5.93863">
        <ele>333</ele>
        <time>2021-06-21T10:15:12Z</time>
      </trkpt>
      <trkpt lat="47.18119" lon="5.93855">
        <ele>332.6</ele>
        <time>2021-06-21T10:15:13Z</time>
      </trkpt>
      <trkpt lat="47.18118" lon="5.93847">
        <ele>332</ele>
        <time>2021-06-21T10:15:15Z</time>
      </trkpt>
      <trkpt lat="47.18118" lon="5.93841">
        <ele>331.2</ele>
        <time>2021-06-21T10:15:16Z</time>
      </trkpt>
      <trkpt lat="47.18116" lon="5.93835">
        <ele>330.2</ele>
        <time>2021-06-21T10:15:17Z</time>
      </trkpt>
      <trkpt lat="47.18112" lon="5.93819">
        <ele>329.2</ele>
        <time>2021-06-21T10:15:19Z</time>
      </trkpt>
      <trkpt lat="47.18111" lon="5.93812">
        <ele>328.4</ele>
        <time>2021-06-21T10:15:20Z</time>
      </trkpt>
      <trkpt lat="47.18108" lon="5.938">
        <ele>328</ele>
        <time>2021-06-21T10:15:21Z</time>
      </trkpt>
      <trkpt lat="47.18106" lon="5.93791">
        <ele>327</ele>
        <time>2021-06-21T10:15:22Z</time>
      </trkpt>
      <trkpt lat="47.18103" lon="5.93782">
        <ele>326.6</ele>
        <time>2021-06-21T10:15:23Z</time>
      </trkpt>
      <trkpt lat="47.181" lon="5.93771">
        <ele>325</ele>
        <time>2021-06-21T10:15:24Z</time>
      </trkpt>
      <trkpt lat="47.18097" lon="5.93762">
        <ele>324.6</ele>
        <time>2021-06-21T10:15:25Z</time>
      </trkpt>
      <trkpt lat="47.18094" lon="5.93752">
        <ele>323.6</ele>
        <time>2021-06-21T10:15:26Z</time>
      </trkpt>
      <trkpt lat="47.18091" lon="5.93743">
        <ele>322.6</ele>
        <time>2021-06-21T10:15:27Z</time>
      </trkpt>
      <trkpt lat="47.18087" lon="5.93732">
        <ele>322</ele>
        <time>2021-06-21T10:15:28Z</time>
      </trkpt>
      <trkpt lat="47.18083" lon="5.93724">
        <ele>321.2</ele>
        <time>2021-06-21T10:15:29Z</time>
      </trkpt>
      <trkpt lat="47.18081" lon="5.93718">
        <ele>320.8</ele>
        <time>2021-06-21T10:15:30Z</time>
      </trkpt>
      <trkpt lat="47.18075" lon="5.93707">
        <ele>320.4</ele>
        <time>2021-06-21T10:15:31Z</time>
      </trkpt>
      <trkpt lat="47.18068" lon="5.93693">
        <ele>320</ele>
        <time>2021-06-21T10:15:33Z</time>
      </trkpt>
      <trkpt lat="47.18065" lon="5.93688">
        <ele>320</ele>
        <time>2021-06-21T10:15:34Z</time>
      </trkpt>
      <trkpt lat="47.18062" lon="5.93684">
        <ele>319.8</ele>
        <time>2021-06-21T10:15:35Z</time>
      </trkpt>
      <trkpt lat="47.18059" lon="5.93681">
        <ele>319.8</ele>
        <time>2021-06-21T10:15:36Z</time>
      </trkpt>
      <trkpt lat="47.18057" lon="5.93678">
        <ele>319.8</ele>
        <time>2021-06-21T10:15:37Z</time>
      </trkpt>
      <trkpt lat="47.18055" lon="5.93675">
        <ele>319.8</ele>
        <time>2021-06-21T10:15:38Z</time>
      </trkpt>
      <trkpt lat="47.18053" lon="5.93674">
        <ele>319.8</ele>
        <time>2021-06-21T10:15:39Z</time>
      </trkpt>
      <trkpt lat="47.18052" lon="5.93672">
        <ele>319.8</ele>
        <time>2021-06-21T10:15:40Z</time>
      </trkpt>
      <trkpt lat="47.1805" lon="5.9367">
        <ele>319.8</ele>
        <time>2021-06-21T10:15:41Z</time>
      </trkpt>
      <trkpt lat="47.18049" lon="5.93668">
        <ele>320</ele>
        <time>2021-06-21T10:15:42Z</time>
      </trkpt>
      <trkpt lat="47.18048" lon="5.93667">
        <ele>320.2</ele>
        <time>2021-06-21T10:15:43Z</time>
      </trkpt>
      <trkpt lat="47.18046" lon="5.93663">
        <ele>320.4</ele>
        <time>2021-06-21T10:15:45Z</time>
      </trkpt>
      <trkpt lat="47.18046" lon="5.93661">
        <ele>320.4</ele>
        <time>2021-06-21T10:15:46Z</time>
      </trkpt>
      <trkpt lat="47.18045" lon="5.9366">
        <ele>320.6</ele>
        <time>2021-06-21T10:15:47Z</time>
      </trkpt>
      <trkpt lat="47.18044" lon="5.93658">
        <ele>320.6</ele>
        <time>2021-06-21T10:15:48Z</time>
      </trkpt>
      <trkpt lat="47.18043" lon="5.93657">
        <ele>320.8</ele>
        <time>2021-06-21T10:15:49Z</time>
      </trkpt>
      <trkpt lat="47.18041" lon="5.93655">
        <ele>320.8</ele>
        <time>2021-06-21T10:15:50Z</time>
      </trkpt>
      <trkpt lat="47.18036" lon="5.93645">
        <ele>320.4</ele>
        <time>2021-06-21T10:15:54Z</time>
      </trkpt>
      <trkpt lat="47.18026" lon="5.93626">
        <ele>320.8</ele>
        <time>2021-06-21T10:16:00Z</time>
      </trkpt>
      <trkpt lat="47.18025" lon="5.93623">
        <ele>320.8</ele>
        <time>2021-06-21T10:16:01Z</time>
      </trkpt>
      <trkpt lat="47.18016" lon="5.93608">
        <ele>320.6</ele>
        <time>2021-06-21T10:16:06Z</time>
      </trkpt>
      <trkpt lat="47.18008" lon="5.93594">
        <ele>320.4</ele>
        <time>2021-06-21T10:16:10Z</time>
      </trkpt>
      <trkpt lat="47.18006" lon="5.93587">
        <ele>320.4</ele>
        <time>2021-06-21T10:16:12Z</time>
      </trkpt>
      <trkpt lat="47.18002" lon="5.9358">
        <ele>320.6</ele>
        <time>2021-06-21T10:16:14Z</time>
      </trkpt>
      <trkpt lat="47.18001" lon="5.93576">
        <ele>320.8</ele>
        <time>2021-06-21T10:16:15Z</time>
      </trkpt>
      <trkpt lat="47.17999" lon="5.93572">
        <ele>320.8</ele>
        <time>2021-06-21T10:16:16Z</time>
      </trkpt>
      <trkpt lat="47.17996" lon="5.93563">
        <ele>321.2</ele>
        <time>2021-06-21T10:16:18Z</time>
      </trkpt>
      <trkpt lat="47.17987" lon="5.93543">
        <ele>321.8</ele>
        <time>2021-06-21T10:16:23Z</time>
      </trkpt>
      <trkpt lat="47.17985" lon="5.93535">
        <ele>321.8</ele>
        <time>2021-06-21T10:16:25Z</time>
      </trkpt>
      <trkpt lat="47.17984" lon="5.93532">
        <ele>321.8</ele>
        <time>2021-06-21T10:16:26Z</time>
      </trkpt>
      <trkpt lat="47.17978" lon="5.93515">
        <ele>321.6</ele>
        <time>2021-06-21T10:16:30Z</time>
      </trkpt>
      <trkpt lat="47.17976" lon="5.93512">
        <ele>321.6</ele>
        <time>2021-06-21T10:16:31Z</time>
      </trkpt>
      <trkpt lat="47.17974" lon="5.93508">
        <ele>321.6</ele>
        <time>2021-06-21T10:16:32Z</time>
      </trkpt>
      <trkpt lat="47.17973" lon="5.93506">
        <ele>321.6</ele>
        <time>2021-06-21T10:16:33Z</time>
      </trkpt>
      <trkpt lat="47.17971" lon="5.93504">
        <ele>321.4</ele>
        <time>2021-06-21T10:16:34Z</time>
      </trkpt>
      <trkpt lat="47.17968" lon="5.935">
        <ele>321.4</ele>
        <time>2021-06-21T10:16:35Z</time>
      </trkpt>
      <trkpt lat="47.17963" lon="5.93494">
        <ele>321.6</ele>
        <time>2021-06-21T10:16:37Z</time>
      </trkpt>
      <trkpt lat="47.1796" lon="5.93485">
        <ele>321.6</ele>
        <time>2021-06-21T10:16:39Z</time>
      </trkpt>
      <trkpt lat="47.17958" lon="5.93482">
        <ele>321.8</ele>
        <time>2021-06-21T10:16:40Z</time>
      </trkpt>
      <trkpt lat="47.17956" lon="5.93477">
        <ele>321.8</ele>
        <time>2021-06-21T10:16:42Z</time>
      </trkpt>
      <trkpt lat="47.17955" lon="5.93473">
        <ele>322</ele>
        <time>2021-06-21T10:16:43Z</time>
      </trkpt>
      <trkpt lat="47.17954" lon="5.93469">
        <ele>322</ele>
        <time>2021-06-21T10:16:44Z</time>
      </trkpt>
      <trkpt lat="47.17953" lon="5.93466">
        <ele>322.2</ele>
        <time>2021-06-21T10:16:45Z</time>
      </trkpt>
      <trkpt lat="47.17951" lon="5.93462">
        <ele>322.2</ele>
        <time>2021-06-21T10:16:46Z</time>
      </trkpt>
      <trkpt lat="47.1795" lon="5.93458">
        <ele>322.2</ele>
        <time>2021-06-21T10:16:47Z</time>
      </trkpt>
      <trkpt lat="47.17949" lon="5.93455">
        <ele>322.2</ele>
        <time>2021-06-21T10:16:48Z</time>
      </trkpt>
      <trkpt lat="47.17942" lon="5.93441">
        <ele>322.2</ele>
        <time>2021-06-21T10:16:51Z</time>
      </trkpt>
      <trkpt lat="47.17938" lon="5.93427">
        <ele>322.2</ele>
        <time>2021-06-21T10:16:54Z</time>
      </trkpt>
      <trkpt lat="47.17936" lon="5.93423">
        <ele>322.2</ele>
        <time>2021-06-21T10:16:55Z</time>
      </trkpt>
      <trkpt lat="47.17935" lon="5.93418">
        <ele>322.2</ele>
        <time>2021-06-21T10:16:56Z</time>
      </trkpt>
      <trkpt lat="47.17934" lon="5.93413">
        <ele>322</ele>
        <time>2021-06-21T10:16:57Z</time>
      </trkpt>
      <trkpt lat="47.1793" lon="5.93404">
        <ele>322</ele>
        <time>2021-06-21T10:16:59Z</time>
      </trkpt>
      <trkpt lat="47.17927" lon="5.93396">
        <ele>321.6</ele>
        <time>2021-06-21T10:17:01Z</time>
      </trkpt>
      <trkpt lat="47.17925" lon="5.93392">
        <ele>321.6</ele>
        <time>2021-06-21T10:17:02Z</time>
      </trkpt>
      <trkpt lat="47.17923" lon="5.93387">
        <ele>321.8</ele>
        <time>2021-06-21T10:17:03Z</time>
      </trkpt>
      <trkpt lat="47.17922" lon="5.93383">
        <ele>321.8</ele>
        <time>2021-06-21T10:17:04Z</time>
      </trkpt>
      <trkpt lat="47.17911" lon="5.93356">
        <ele>321.6</ele>
        <time>2021-06-21T10:17:09Z</time>
      </trkpt>
      <trkpt lat="47.17905" lon="5.93344">
        <ele>321.6</ele>
        <time>2021-06-21T10:17:11Z</time>
      </trkpt>
      <trkpt lat="47.17899" lon="5.93325">
        <ele>321.2</ele>
        <time>2021-06-21T10:17:14Z</time>
      </trkpt>
      <trkpt lat="47.17896" lon="5.93319">
        <ele>321.2</ele>
        <time>2021-06-21T10:17:15Z</time>
      </trkpt>
      <trkpt lat="47.17892" lon="5.93313">
        <ele>321.2</ele>
        <time>2021-06-21T10:17:16Z</time>
      </trkpt>
      <trkpt lat="47.17884" lon="5.93303">
        <ele>320.8</ele>
        <time>2021-06-21T10:17:18Z</time>
      </trkpt>
      <trkpt lat="47.17881" lon="5.93299">
        <ele>320.6</ele>
        <time>2021-06-21T10:17:19Z</time>
      </trkpt>
      <trkpt lat="47.17879" lon="5.93293">
        <ele>320.4</ele>
        <time>2021-06-21T10:17:20Z</time>
      </trkpt>
      <trkpt lat="47.17878" lon="5.9329">
        <ele>320.4</ele>
        <time>2021-06-21T10:17:21Z</time>
      </trkpt>
      <trkpt lat="47.17875" lon="5.93287">
        <ele>320.2</ele>
        <time>2021-06-21T10:17:22Z</time>
      </trkpt>
      <trkpt lat="47.17872" lon="5.9328">
        <ele>320</ele>
        <time>2021-06-21T10:17:23Z</time>
      </trkpt>
      <trkpt lat="47.17867" lon="5.9327">
        <ele>319.8</ele>
        <time>2021-06-21T10:17:25Z</time>
      </trkpt>
      <trkpt lat="47.17862" lon="5.93253">
        <ele>319.8</ele>
        <time>2021-06-21T10:17:28Z</time>
      </trkpt>
      <trkpt lat="47.1786" lon="5.93247">
        <ele>319.6</ele>
        <time>2021-06-21T10:17:29Z</time>
      </trkpt>
      <trkpt lat="47.17859" lon="5.93241">
        <ele>319.2</ele>
        <time>2021-06-21T10:17:30Z</time>
      </trkpt>
      <trkpt lat="47.17851" lon="5.9322">
        <ele>319</ele>
        <time>2021-06-21T10:17:33Z</time>
      </trkpt>
      <trkpt lat="47.17848" lon="5.93216">
        <ele>318.8</ele>
        <time>2021-06-21T10:17:34Z</time>
      </trkpt>
      <trkpt lat="47.17845" lon="5.93212">
        <ele>318.8</ele>
        <time>2021-06-21T10:17:35Z</time>
      </trkpt>
      <trkpt lat="47.17841" lon="5.93208">
        <ele>318.6</ele>
        <time>2021-06-21T10:17:36Z</time>
      </trkpt>
      <trkpt lat="47.17838" lon="5.93203">
        <ele>318.6</ele>
        <time>2021-06-21T10:17:37Z</time>
      </trkpt>
      <trkpt lat="47.17836" lon="5.93198">
        <ele>318.6</ele>
        <time>2021-06-21T10:17:38Z</time>
      </trkpt>
      <trkpt lat="47.17834" lon="5.93195">
        <ele>318.4</ele>
        <time>2021-06-21T10:17:39Z</time>
      </trkpt>
      <trkpt lat="47.17831" lon="5.93192">
        <ele>318.4</ele>
        <time>2021-06-21T10:17:40Z</time>
      </trkpt>
      <trkpt lat="47.17828" lon="5.93188">
        <ele>318.4</ele>
        <time>2021-06-21T10:17:41Z</time>
      </trkpt>
      <trkpt lat="47.17825" lon="5.93185">
        <ele>318.4</ele>
        <time>2021-06-21T10:17:42Z</time>
      </trkpt>
      <trkpt lat="47.17822" lon="5.93182">
        <ele>318.4</ele>
        <time>2021-06-21T10:17:43Z</time>
      </trkpt>
      <trkpt lat="47.17813" lon="5.93171">
        <ele>318.6</ele>
        <time>2021-06-21T10:17:46Z</time>
      </trkpt>
      <trkpt lat="47.1781" lon="5.93167">
        <ele>318.6</ele>
        <time>2021-06-21T10:17:47Z</time>
      </trkpt>
      <trkpt lat="47.17808" lon="5.93164">
        <ele>318.6</ele>
        <time>2021-06-21T10:17:48Z</time>
      </trkpt>
      <trkpt lat="47.17805" lon="5.93161">
        <ele>318.8</ele>
        <time>2021-06-21T10:17:49Z</time>
      </trkpt>
      <trkpt lat="47.17804" lon="5.93158">
        <ele>318.8</ele>
        <time>2021-06-21T10:17:50Z</time>
      </trkpt>
      <trkpt lat="47.17789" lon="5.93142">
        <ele>319.2</ele>
        <time>2021-06-21T10:17:53Z</time>
      </trkpt>
      <trkpt lat="47.17782" lon="5.9313">
        <ele>319.4</ele>
        <time>2021-06-21T10:17:56Z</time>
      </trkpt>
      <trkpt lat="47.17779" lon="5.93125">
        <ele>319.4</ele>
        <time>2021-06-21T10:17:57Z</time>
      </trkpt>
      <trkpt lat="47.17775" lon="5.9312">
        <ele>319.6</ele>
        <time>2021-06-21T10:17:58Z</time>
      </trkpt>
      <trkpt lat="47.17772" lon="5.93117">
        <ele>319.6</ele>
        <time>2021-06-21T10:17:59Z</time>
      </trkpt>
      <trkpt lat="47.17768" lon="5.93114">
        <ele>319.8</ele>
        <time>2021-06-21T10:18:00Z</time>
      </trkpt>
      <trkpt lat="47.17761" lon="5.93103">
        <ele>319.8</ele>
        <time>2021-06-21T10:18:02Z</time>
      </trkpt>
      <trkpt lat="47.17755" lon="5.93093">
        <ele>320</ele>
        <time>2021-06-21T10:18:04Z</time>
      </trkpt>
      <trkpt lat="47.1775" lon="5.93084">
        <ele>320</ele>
        <time>2021-06-21T10:18:06Z</time>
      </trkpt>
      <trkpt lat="47.17742" lon="5.93074">
        <ele>320</ele>
        <time>2021-06-21T10:18:08Z</time>
      </trkpt>
      <trkpt lat="47.17739" lon="5.93068">
        <ele>320</ele>
        <time>2021-06-21T10:18:09Z</time>
      </trkpt>
      <trkpt lat="47.17738" lon="5.93065">
        <ele>320</ele>
        <time>2021-06-21T10:18:10Z</time>
      </trkpt>
      <trkpt lat="47.17733" lon="5.93056">
        <ele>320</ele>
        <time>2021-06-21T10:18:11Z</time>
      </trkpt>
      <trkpt lat="47.17727" lon="5.93051">
        <ele>320</ele>
        <time>2021-06-21T10:18:12Z</time>
      </trkpt>
      <trkpt lat="47.1772" lon="5.93044">
        <ele>320</ele>
        <time>2021-06-21T10:18:14Z</time>
      </trkpt>
      <trkpt lat="47.17717" lon="5.93041">
        <ele>320</ele>
        <time>2021-06-21T10:18:15Z</time>
      </trkpt>
      <trkpt lat="47.17716" lon="5.93038">
        <ele>319.8</ele>
        <time>2021-06-21T10:18:16Z</time>
      </trkpt>
      <trkpt lat="47.17714" lon="5.93035">
        <ele>319.8</ele>
        <time>2021-06-21T10:18:17Z</time>
      </trkpt>
      <trkpt lat="47.17712" lon="5.93032">
        <ele>319.8</ele>
        <time>2021-06-21T10:18:18Z</time>
      </trkpt>
      <trkpt lat="47.1771" lon="5.9303">
        <ele>319.8</ele>
        <time>2021-06-21T10:18:19Z</time>
      </trkpt>
      <trkpt lat="47.17706" lon="5.93018">
        <ele>319.8</ele>
        <time>2021-06-21T10:18:22Z</time>
      </trkpt>
      <trkpt lat="47.17702" lon="5.93011">
        <ele>319.8</ele>
        <time>2021-06-21T10:18:24Z</time>
      </trkpt>
      <trkpt lat="47.17696" lon="5.92999">
        <ele>319.8</ele>
        <time>2021-06-21T10:18:26Z</time>
      </trkpt>
      <trkpt lat="47.17694" lon="5.92992">
        <ele>319.8</ele>
        <time>2021-06-21T10:18:27Z</time>
      </trkpt>
      <trkpt lat="47.17685" lon="5.92971">
        <ele>319</ele>
        <time>2021-06-21T10:18:30Z</time>
      </trkpt>
      <trkpt lat="47.17679" lon="5.92954">
        <ele>318.6</ele>
        <time>2021-06-21T10:18:32Z</time>
      </trkpt>
      <trkpt lat="47.17674" lon="5.92936">
        <ele>318.2</ele>
        <time>2021-06-21T10:18:34Z</time>
      </trkpt>
      <trkpt lat="47.17672" lon="5.92928">
        <ele>317.8</ele>
        <time>2021-06-21T10:18:35Z</time>
      </trkpt>
      <trkpt lat="47.17666" lon="5.92909">
        <ele>317.2</ele>
        <time>2021-06-21T10:18:37Z</time>
      </trkpt>
      <trkpt lat="47.17664" lon="5.92898">
        <ele>317</ele>
        <time>2021-06-21T10:18:38Z</time>
      </trkpt>
      <trkpt lat="47.17661" lon="5.92883">
        <ele>315.8</ele>
        <time>2021-06-21T10:18:39Z</time>
      </trkpt>
      <trkpt lat="47.1766" lon="5.92873">
        <ele>315.2</ele>
        <time>2021-06-21T10:18:40Z</time>
      </trkpt>
      <trkpt lat="47.17658" lon="5.92856">
        <ele>314.4</ele>
        <time>2021-06-21T10:18:41Z</time>
      </trkpt>
      <trkpt lat="47.17657" lon="5.92843">
        <ele>313.2</ele>
        <time>2021-06-21T10:18:42Z</time>
      </trkpt>
      <trkpt lat="47.17657" lon="5.92831">
        <ele>312.4</ele>
        <time>2021-06-21T10:18:43Z</time>
      </trkpt>
      <trkpt lat="47.17655" lon="5.92819">
        <ele>311.4</ele>
        <time>2021-06-21T10:18:44Z</time>
      </trkpt>
      <trkpt lat="47.17654" lon="5.92806">
        <ele>311</ele>
        <time>2021-06-21T10:18:45Z</time>
      </trkpt>
      <trkpt lat="47.17653" lon="5.92793">
        <ele>310.4</ele>
        <time>2021-06-21T10:18:46Z</time>
      </trkpt>
      <trkpt lat="47.17653" lon="5.92758">
        <ele>309.8</ele>
        <time>2021-06-21T10:18:49Z</time>
      </trkpt>
      <trkpt lat="47.17652" lon="5.92732">
        <ele>309.2</ele>
        <time>2021-06-21T10:18:51Z</time>
      </trkpt>
      <trkpt lat="47.17645" lon="5.92705">
        <ele>308.4</ele>
        <time>2021-06-21T10:18:53Z</time>
      </trkpt>
      <trkpt lat="47.17642" lon="5.92691">
        <ele>308</ele>
        <time>2021-06-21T10:18:54Z</time>
      </trkpt>
      <trkpt lat="47.17636" lon="5.92663">
        <ele>306.6</ele>
        <time>2021-06-21T10:18:56Z</time>
      </trkpt>
      <trkpt lat="47.17634" lon="5.92649">
        <ele>305.2</ele>
        <time>2021-06-21T10:18:57Z</time>
      </trkpt>
      <trkpt lat="47.17631" lon="5.92635">
        <ele>304.2</ele>
        <time>2021-06-21T10:18:58Z</time>
      </trkpt>
      <trkpt lat="47.17624" lon="5.9261">
        <ele>303</ele>
        <time>2021-06-21T10:19:00Z</time>
      </trkpt>
      <trkpt lat="47.1762" lon="5.92599">
        <ele>302.6</ele>
        <time>2021-06-21T10:19:01Z</time>
      </trkpt>
      <trkpt lat="47.17616" lon="5.92588">
        <ele>301.6</ele>
        <time>2021-06-21T10:19:02Z</time>
      </trkpt>
      <trkpt lat="47.17612" lon="5.92578">
        <ele>300.8</ele>
        <time>2021-06-21T10:19:03Z</time>
      </trkpt>
      <trkpt lat="47.17609" lon="5.92569">
        <ele>300</ele>
        <time>2021-06-21T10:19:04Z</time>
      </trkpt>
      <trkpt lat="47.17605" lon="5.92562">
        <ele>299.2</ele>
        <time>2021-06-21T10:19:05Z</time>
      </trkpt>
      <trkpt lat="47.17601" lon="5.92554">
        <ele>299</ele>
        <time>2021-06-21T10:19:06Z</time>
      </trkpt>
      <trkpt lat="47.17598" lon="5.92546">
        <ele>298.4</ele>
        <time>2021-06-21T10:19:07Z</time>
      </trkpt>
      <trkpt lat="47.17594" lon="5.92538">
        <ele>298.4</ele>
        <time>2021-06-21T10:19:08Z</time>
      </trkpt>
      <trkpt lat="47.17591" lon="5.92533">
        <ele>298.2</ele>
        <time>2021-06-21T10:19:09Z</time>
      </trkpt>
      <trkpt lat="47.17588" lon="5.92528">
        <ele>298.4</ele>
        <time>2021-06-21T10:19:10Z</time>
      </trkpt>
      <trkpt lat="47.17585" lon="5.92524">
        <ele>298.6</ele>
        <time>2021-06-21T10:19:11Z</time>
      </trkpt>
      <trkpt lat="47.17583" lon="5.9252">
        <ele>298.8</ele>
        <time>2021-06-21T10:19:12Z</time>
      </trkpt>
      <trkpt lat="47.17582" lon="5.92517">
        <ele>299</ele>
        <time>2021-06-21T10:19:13Z</time>
      </trkpt>
      <trkpt lat="47.1758" lon="5.92515">
        <ele>299.2</ele>
        <time>2021-06-21T10:19:14Z</time>
      </trkpt>
      <trkpt lat="47.17579" lon="5.92513">
        <ele>299.4</ele>
        <time>2021-06-21T10:19:15Z</time>
      </trkpt>
      <trkpt lat="47.17578" lon="5.92511">
        <ele>299.8</ele>
        <time>2021-06-21T10:19:16Z</time>
      </trkpt>
      <trkpt lat="47.17577" lon="5.92509">
        <ele>300</ele>
        <time>2021-06-21T10:19:17Z</time>
      </trkpt>
      <trkpt lat="47.17576" lon="5.92507">
        <ele>300.4</ele>
        <time>2021-06-21T10:19:18Z</time>
      </trkpt>
      <trkpt lat="47.17574" lon="5.92503">
        <ele>301</ele>
        <time>2021-06-21T10:19:19Z</time>
      </trkpt>
      <trkpt lat="47.17572" lon="5.925">
        <ele>301.2</ele>
        <time>2021-06-21T10:19:20Z</time>
      </trkpt>
      <trkpt lat="47.17565" lon="5.92491">
        <ele>301.8</ele>
        <time>2021-06-21T10:19:23Z</time>
      </trkpt>
      <trkpt lat="47.17563" lon="5.92489">
        <ele>302</ele>
        <time>2021-06-21T10:19:24Z</time>
      </trkpt>
      <trkpt lat="47.17561" lon="5.92486">
        <ele>302.2</ele>
        <time>2021-06-21T10:19:25Z</time>
      </trkpt>
      <trkpt lat="47.1756" lon="5.92483">
        <ele>302.6</ele>
        <time>2021-06-21T10:19:26Z</time>
      </trkpt>
      <trkpt lat="47.17558" lon="5.9248">
        <ele>302.8</ele>
        <time>2021-06-21T10:19:27Z</time>
      </trkpt>
      <trkpt lat="47.17557" lon="5.92478">
        <ele>303</ele>
        <time>2021-06-21T10:19:28Z</time>
      </trkpt>
      <trkpt lat="47.1755" lon="5.92473">
        <ele>303.6</ele>
        <time>2021-06-21T10:19:30Z</time>
      </trkpt>
      <trkpt lat="47.17545" lon="5.92468">
        <ele>304</ele>
        <time>2021-06-21T10:19:32Z</time>
      </trkpt>
      <trkpt lat="47.17543" lon="5.92465">
        <ele>304.2</ele>
        <time>2021-06-21T10:19:33Z</time>
      </trkpt>
      <trkpt lat="47.17541" lon="5.92463">
        <ele>304.4</ele>
        <time>2021-06-21T10:19:34Z</time>
      </trkpt>
      <trkpt lat="47.1754" lon="5.92461">
        <ele>304.6</ele>
        <time>2021-06-21T10:19:35Z</time>
      </trkpt>
      <trkpt lat="47.17537" lon="5.92459">
        <ele>304.8</ele>
        <time>2021-06-21T10:19:36Z</time>
      </trkpt>
      <trkpt lat="47.17536" lon="5.92457">
        <ele>305</ele>
        <time>2021-06-21T10:19:37Z</time>
      </trkpt>
      <trkpt lat="47.17534" lon="5.92453">
        <ele>305.2</ele>
        <time>2021-06-21T10:19:38Z</time>
      </trkpt>
      <trkpt lat="47.17532" lon="5.92452">
        <ele>305.6</ele>
        <time>2021-06-21T10:19:39Z</time>
      </trkpt>
      <trkpt lat="47.1753" lon="5.92451">
        <ele>305.8</ele>
        <time>2021-06-21T10:19:40Z</time>
      </trkpt>
      <trkpt lat="47.17526" lon="5.92448">
        <ele>306.4</ele>
        <time>2021-06-21T10:19:41Z</time>
      </trkpt>
      <trkpt lat="47.1752" lon="5.92445">
        <ele>306.8</ele>
        <time>2021-06-21T10:19:42Z</time>
      </trkpt>
      <trkpt lat="47.17517" lon="5.92441">
        <ele>307</ele>
        <time>2021-06-21T10:19:43Z</time>
      </trkpt>
      <trkpt lat="47.17518" lon="5.92438">
        <ele>307.4</ele>
        <time>2021-06-21T10:19:44Z</time>
      </trkpt>
      <trkpt lat="47.17519" lon="5.92436">
        <ele>307.6</ele>
        <time>2021-06-21T10:19:45Z</time>
      </trkpt>
      <trkpt lat="47.17519" lon="5.92435">
        <ele>308</ele>
        <time>2021-06-21T10:19:46Z</time>
      </trkpt>
      <trkpt lat="47.17518" lon="5.92433">
        <ele>308.2</ele>
        <time>2021-06-21T10:19:47Z</time>
      </trkpt>
      <trkpt lat="47.17517" lon="5.92431">
        <ele>308.4</ele>
        <time>2021-06-21T10:19:48Z</time>
      </trkpt>
      <trkpt lat="47.17516" lon="5.9243">
        <ele>308.6</ele>
        <time>2021-06-21T10:19:49Z</time>
      </trkpt>
      <trkpt lat="47.17514" lon="5.92429">
        <ele>308.8</ele>
        <time>2021-06-21T10:19:50Z</time>
      </trkpt>
      <trkpt lat="47.17512" lon="5.92429">
        <ele>308.8</ele>
        <time>2021-06-21T10:19:51Z</time>
      </trkpt>
      <trkpt lat="47.17511" lon="5.92429">
        <ele>309</ele>
        <time>2021-06-21T10:19:52Z</time>
      </trkpt>
      <trkpt lat="47.17511" lon="5.92428">
        <ele>309.2</ele>
        <time>2021-06-21T10:19:53Z</time>
      </trkpt>
      <trkpt lat="47.17511" lon="5.92426">
        <ele>309.4</ele>
        <time>2021-06-21T10:19:54Z</time>
      </trkpt>
      <trkpt lat="47.17509" lon="5.92424">
        <ele>309.4</ele>
        <time>2021-06-21T10:19:55Z</time>
      </trkpt>
      <trkpt lat="47.17507" lon="5.92422">
        <ele>309.6</ele>
        <time>2021-06-21T10:19:56Z</time>
      </trkpt>
      <trkpt lat="47.17506" lon="5.9242">
        <ele>309.6</ele>
        <time>2021-06-21T10:19:57Z</time>
      </trkpt>
      <trkpt lat="47.17504" lon="5.92417">
        <ele>309.6</ele>
        <time>2021-06-21T10:19:58Z</time>
      </trkpt>
      <trkpt lat="47.17504" lon="5.92414">
        <ele>309.6</ele>
        <time>2021-06-21T10:19:59Z</time>
      </trkpt>
      <trkpt lat="47.17503" lon="5.92412">
        <ele>309.8</ele>
        <time>2021-06-21T10:20:00Z</time>
      </trkpt>
      <trkpt lat="47.17502" lon="5.92409">
        <ele>309.8</ele>
        <time>2021-06-21T10:20:01Z</time>
      </trkpt>
      <trkpt lat="47.17501" lon="5.92406">
        <ele>309.8</ele>
        <time>2021-06-21T10:20:02Z</time>
      </trkpt>
      <trkpt lat="47.17499" lon="5.92403">
        <ele>309.6</ele>
        <time>2021-06-21T10:20:03Z</time>
      </trkpt>
      <trkpt lat="47.17498" lon="5.924">
        <ele>309.6</ele>
        <time>2021-06-21T10:20:04Z</time>
      </trkpt>
      <trkpt lat="47.17498" lon="5.92399">
        <ele>309.6</ele>
        <time>2021-06-21T10:20:05Z</time>
      </trkpt>
      <trkpt lat="47.17499" lon="5.92398">
        <ele>309.6</ele>
        <time>2021-06-21T10:20:06Z</time>
      </trkpt>
      <trkpt lat="47.175" lon="5.92398">
        <ele>309.6</ele>
        <time>2021-06-21T10:20:07Z</time>
      </trkpt>
      <trkpt lat="47.17501" lon="5.92398">
        <ele>309.6</ele>
        <time>2021-06-21T10:20:08Z</time>
      </trkpt>
      <trkpt lat="47.17502" lon="5.92398">
        <ele>309.6</ele>
        <time>2021-06-21T10:20:09Z</time>
      </trkpt>
      <trkpt lat="47.17503" lon="5.92398">
        <ele>309.4</ele>
        <time>2021-06-21T10:20:10Z</time>
      </trkpt>
      <trkpt lat="47.17504" lon="5.92398">
        <ele>309.4</ele>
        <time>2021-06-21T10:20:11Z</time>
      </trkpt>
      <trkpt lat="47.17505" lon="5.92398">
        <ele>309.2</ele>
        <time>2021-06-21T10:20:12Z</time>
      </trkpt>
      <trkpt lat="47.17505" lon="5.92398">
        <ele>309.2</ele>
        <time>2021-06-21T10:20:13Z</time>
      </trkpt>
      <trkpt lat="47.17506" lon="5.92398">
        <ele>309</ele>
        <time>2021-06-21T10:20:14Z</time>
      </trkpt>
      <trkpt lat="47.17506" lon="5.92398">
        <ele>308.2</ele>
        <time>2021-06-21T10:20:24Z</time>
      </trkpt>
      <trkpt lat="47.17513" lon="5.92384">
        <ele>308</ele>
        <time>2021-06-21T10:20:27Z</time>
      </trkpt>
      <trkpt lat="47.17517" lon="5.92378">
        <ele>308</ele>
        <time>2021-06-21T10:20:28Z</time>
      </trkpt>
      <trkpt lat="47.1753" lon="5.92354">
        <ele>307.4</ele>
        <time>2021-06-21T10:20:31Z</time>
      </trkpt>
      <trkpt lat="47.17533" lon="5.92347">
        <ele>306.8</ele>
        <time>2021-06-21T10:20:32Z</time>
      </trkpt>
      <trkpt lat="47.17547" lon="5.92324">
        <ele>305</ele>
        <time>2021-06-21T10:20:35Z</time>
      </trkpt>
      <trkpt lat="47.17556" lon="5.92312">
        <ele>303.8</ele>
        <time>2021-06-21T10:20:37Z</time>
      </trkpt>
      <trkpt lat="47.1756" lon="5.92306">
        <ele>303.6</ele>
        <time>2021-06-21T10:20:38Z</time>
      </trkpt>
      <trkpt lat="47.17581" lon="5.92285">
        <ele>302.8</ele>
        <time>2021-06-21T10:20:42Z</time>
      </trkpt>
      <trkpt lat="47.17586" lon="5.92281">
        <ele>302.6</ele>
        <time>2021-06-21T10:20:43Z</time>
      </trkpt>
      <trkpt lat="47.17591" lon="5.92278">
        <ele>302.4</ele>
        <time>2021-06-21T10:20:44Z</time>
      </trkpt>
      <trkpt lat="47.17597" lon="5.92276">
        <ele>302.4</ele>
        <time>2021-06-21T10:20:45Z</time>
      </trkpt>
      <trkpt lat="47.17603" lon="5.92274">
        <ele>302.4</ele>
        <time>2021-06-21T10:20:46Z</time>
      </trkpt>
      <trkpt lat="47.1761" lon="5.92272">
        <ele>302.2</ele>
        <time>2021-06-21T10:20:47Z</time>
      </trkpt>
      <trkpt lat="47.17621" lon="5.92271">
        <ele>301.8</ele>
        <time>2021-06-21T10:20:49Z</time>
      </trkpt>
      <trkpt lat="47.17628" lon="5.9227">
        <ele>301.8</ele>
        <time>2021-06-21T10:20:50Z</time>
      </trkpt>
      <trkpt lat="47.17633" lon="5.9227">
        <ele>301.6</ele>
        <time>2021-06-21T10:20:51Z</time>
      </trkpt>
      <trkpt lat="47.17646" lon="5.92267">
        <ele>301.2</ele>
        <time>2021-06-21T10:20:53Z</time>
      </trkpt>
      <trkpt lat="47.1766" lon="5.92263">
        <ele>300.4</ele>
        <time>2021-06-21T10:20:55Z</time>
      </trkpt>
      <trkpt lat="47.17674" lon="5.92261">
        <ele>299.6</ele>
        <time>2021-06-21T10:20:57Z</time>
      </trkpt>
      <trkpt lat="47.1768" lon="5.92261">
        <ele>299.2</ele>
        <time>2021-06-21T10:20:58Z</time>
      </trkpt>
      <trkpt lat="47.17686" lon="5.92261">
        <ele>299.2</ele>
        <time>2021-06-21T10:20:59Z</time>
      </trkpt>
      <trkpt lat="47.17691" lon="5.92263">
        <ele>298.8</ele>
        <time>2021-06-21T10:21:00Z</time>
      </trkpt>
      <trkpt lat="47.17696" lon="5.92264">
        <ele>298.6</ele>
        <time>2021-06-21T10:21:01Z</time>
      </trkpt>
      <trkpt lat="47.177" lon="5.92266">
        <ele>298.4</ele>
        <time>2021-06-21T10:21:02Z</time>
      </trkpt>
      <trkpt lat="47.17705" lon="5.92268">
        <ele>298</ele>
        <time>2021-06-21T10:21:03Z</time>
      </trkpt>
      <trkpt lat="47.17709" lon="5.92269">
        <ele>297.8</ele>
        <time>2021-06-21T10:21:04Z</time>
      </trkpt>
      <trkpt lat="47.17714" lon="5.92269">
        <ele>297.6</ele>
        <time>2021-06-21T10:21:05Z</time>
      </trkpt>
      <trkpt lat="47.17718" lon="5.92268">
        <ele>297.4</ele>
        <time>2021-06-21T10:21:06Z</time>
      </trkpt>
      <trkpt lat="47.17723" lon="5.92267">
        <ele>297.2</ele>
        <time>2021-06-21T10:21:07Z</time>
      </trkpt>
      <trkpt lat="47.17726" lon="5.92266">
        <ele>297</ele>
        <time>2021-06-21T10:21:08Z</time>
      </trkpt>
      <trkpt lat="47.17736" lon="5.92263">
        <ele>296.4</ele>
        <time>2021-06-21T10:21:10Z</time>
      </trkpt>
      <trkpt lat="47.17739" lon="5.92261">
        <ele>296.2</ele>
        <time>2021-06-21T10:21:11Z</time>
      </trkpt>
      <trkpt lat="47.17744" lon="5.9226">
        <ele>296</ele>
        <time>2021-06-21T10:21:12Z</time>
      </trkpt>
      <trkpt lat="47.17748" lon="5.92259">
        <ele>296</ele>
        <time>2021-06-21T10:21:13Z</time>
      </trkpt>
      <trkpt lat="47.17757" lon="5.92257">
        <ele>295.6</ele>
        <time>2021-06-21T10:21:15Z</time>
      </trkpt>
      <trkpt lat="47.17768" lon="5.92254">
        <ele>295.4</ele>
        <time>2021-06-21T10:21:17Z</time>
      </trkpt>
      <trkpt lat="47.17782" lon="5.92252">
        <ele>295.2</ele>
        <time>2021-06-21T10:21:20Z</time>
      </trkpt>
      <trkpt lat="47.17792" lon="5.9225">
        <ele>294.8</ele>
        <time>2021-06-21T10:21:22Z</time>
      </trkpt>
      <trkpt lat="47.17814" lon="5.92248">
        <ele>294.2</ele>
        <time>2021-06-21T10:21:27Z</time>
      </trkpt>
      <trkpt lat="47.17819" lon="5.92248">
        <ele>294.2</ele>
        <time>2021-06-21T10:21:28Z</time>
      </trkpt>
      <trkpt lat="47.17822" lon="5.92248">
        <ele>294</ele>
        <time>2021-06-21T10:21:29Z</time>
      </trkpt>
      <trkpt lat="47.17826" lon="5.92249">
        <ele>294</ele>
        <time>2021-06-21T10:21:30Z</time>
      </trkpt>
      <trkpt lat="47.1783" lon="5.92251">
        <ele>293.8</ele>
        <time>2021-06-21T10:21:31Z</time>
      </trkpt>
      <trkpt lat="47.17834" lon="5.92254">
        <ele>293.8</ele>
        <time>2021-06-21T10:21:32Z</time>
      </trkpt>
      <trkpt lat="47.17837" lon="5.92256">
        <ele>293.6</ele>
        <time>2021-06-21T10:21:33Z</time>
      </trkpt>
      <trkpt lat="47.1784" lon="5.92259">
        <ele>293.6</ele>
        <time>2021-06-21T10:21:34Z</time>
      </trkpt>
      <trkpt lat="47.17843" lon="5.92262">
        <ele>293.6</ele>
        <time>2021-06-21T10:21:35Z</time>
      </trkpt>
      <trkpt lat="47.17849" lon="5.92269">
        <ele>293.6</ele>
        <time>2021-06-21T10:21:37Z</time>
      </trkpt>
      <trkpt lat="47.17851" lon="5.92271">
        <ele>293.4</ele>
        <time>2021-06-21T10:21:38Z</time>
      </trkpt>
      <trkpt lat="47.17854" lon="5.92274">
        <ele>293.4</ele>
        <time>2021-06-21T10:21:39Z</time>
      </trkpt>
      <trkpt lat="47.17857" lon="5.92276">
        <ele>293.4</ele>
        <time>2021-06-21T10:21:40Z</time>
      </trkpt>
      <trkpt lat="47.1786" lon="5.92279">
        <ele>293.4</ele>
        <time>2021-06-21T10:21:41Z</time>
      </trkpt>
      <trkpt lat="47.17862" lon="5.92281">
        <ele>293.4</ele>
        <time>2021-06-21T10:21:42Z</time>
      </trkpt>
      <trkpt lat="47.17864" lon="5.92282">
        <ele>293.4</ele>
        <time>2021-06-21T10:21:43Z</time>
      </trkpt>
      <trkpt lat="47.17867" lon="5.92282">
        <ele>293.4</ele>
        <time>2021-06-21T10:21:44Z</time>
      </trkpt>
      <trkpt lat="47.17869" lon="5.92281">
        <ele>293.6</ele>
        <time>2021-06-21T10:21:45Z</time>
      </trkpt>
      <trkpt lat="47.1787" lon="5.92279">
        <ele>293.6</ele>
        <time>2021-06-21T10:21:46Z</time>
      </trkpt>
      <trkpt lat="47.17871" lon="5.92277">
        <ele>293.4</ele>
        <time>2021-06-21T10:21:47Z</time>
      </trkpt>
      <trkpt lat="47.17873" lon="5.92275">
        <ele>293.4</ele>
        <time>2021-06-21T10:21:48Z</time>
      </trkpt>
      <trkpt lat="47.17875" lon="5.92271">
        <ele>293.4</ele>
        <time>2021-06-21T10:21:49Z</time>
      </trkpt>
      <trkpt lat="47.17876" lon="5.92268">
        <ele>293.2</ele>
        <time>2021-06-21T10:21:50Z</time>
      </trkpt>
      <trkpt lat="47.1788" lon="5.9226">
        <ele>293</ele>
        <time>2021-06-21T10:21:52Z</time>
      </trkpt>
      <trkpt lat="47.17882" lon="5.92258">
        <ele>292.8</ele>
        <time>2021-06-21T10:21:53Z</time>
      </trkpt>
      <trkpt lat="47.17884" lon="5.92255">
        <ele>292.8</ele>
        <time>2021-06-21T10:21:54Z</time>
      </trkpt>
      <trkpt lat="47.17885" lon="5.92252">
        <ele>292.6</ele>
        <time>2021-06-21T10:21:55Z</time>
      </trkpt>
      <trkpt lat="47.17886" lon="5.92249">
        <ele>292.4</ele>
        <time>2021-06-21T10:21:56Z</time>
      </trkpt>
      <trkpt lat="47.17887" lon="5.92246">
        <ele>292.4</ele>
        <time>2021-06-21T10:21:57Z</time>
      </trkpt>
      <trkpt lat="47.17892" lon="5.92238">
        <ele>292.2</ele>
        <time>2021-06-21T10:22:00Z</time>
      </trkpt>
      <trkpt lat="47.17894" lon="5.92234">
        <ele>292.2</ele>
        <time>2021-06-21T10:22:01Z</time>
      </trkpt>
      <trkpt lat="47.179" lon="5.92228">
        <ele>291.6</ele>
        <time>2021-06-21T10:22:03Z</time>
      </trkpt>
      <trkpt lat="47.17904" lon="5.92222">
        <ele>291.6</ele>
        <time>2021-06-21T10:22:04Z</time>
      </trkpt>
      <trkpt lat="47.17913" lon="5.92208">
        <ele>291.2</ele>
        <time>2021-06-21T10:22:06Z</time>
      </trkpt>
      <trkpt lat="47.17922" lon="5.92191">
        <ele>290.6</ele>
        <time>2021-06-21T10:22:08Z</time>
      </trkpt>
      <trkpt lat="47.17925" lon="5.92181">
        <ele>290.4</ele>
        <time>2021-06-21T10:22:09Z</time>
      </trkpt>
      <trkpt lat="47.17927" lon="5.92171">
        <ele>289.8</ele>
        <time>2021-06-21T10:22:10Z</time>
      </trkpt>
      <trkpt lat="47.17927" lon="5.92161">
        <ele>289.4</ele>
        <time>2021-06-21T10:22:11Z</time>
      </trkpt>
      <trkpt lat="47.17926" lon="5.92152">
        <ele>289</ele>
        <time>2021-06-21T10:22:12Z</time>
      </trkpt>
      <trkpt lat="47.17927" lon="5.92143">
        <ele>288.6</ele>
        <time>2021-06-21T10:22:13Z</time>
      </trkpt>
      <trkpt lat="47.17929" lon="5.92134">
        <ele>288</ele>
        <time>2021-06-21T10:22:14Z</time>
      </trkpt>
      <trkpt lat="47.17929" lon="5.92124">
        <ele>287.8</ele>
        <time>2021-06-21T10:22:15Z</time>
      </trkpt>
      <trkpt lat="47.17926" lon="5.92094">
        <ele>287</ele>
        <time>2021-06-21T10:22:18Z</time>
      </trkpt>
      <trkpt lat="47.17927" lon="5.92088">
        <ele>286.6</ele>
        <time>2021-06-21T10:22:19Z</time>
      </trkpt>
      <trkpt lat="47.17928" lon="5.92081">
        <ele>286.4</ele>
        <time>2021-06-21T10:22:20Z</time>
      </trkpt>
      <trkpt lat="47.17929" lon="5.92076">
        <ele>285.8</ele>
        <time>2021-06-21T10:22:21Z</time>
      </trkpt>
      <trkpt lat="47.1793" lon="5.92072">
        <ele>285.6</ele>
        <time>2021-06-21T10:22:22Z</time>
      </trkpt>
      <trkpt lat="47.17931" lon="5.92071">
        <ele>285.4</ele>
        <time>2021-06-21T10:22:23Z</time>
      </trkpt>
      <trkpt lat="47.17932" lon="5.92068">
        <ele>285.2</ele>
        <time>2021-06-21T10:22:24Z</time>
      </trkpt>
      <trkpt lat="47.17934" lon="5.92067">
        <ele>285</ele>
        <time>2021-06-21T10:22:25Z</time>
      </trkpt>
      <trkpt lat="47.17938" lon="5.92063">
        <ele>284.8</ele>
        <time>2021-06-21T10:22:26Z</time>
      </trkpt>
      <trkpt lat="47.1794" lon="5.9206">
        <ele>284.8</ele>
        <time>2021-06-21T10:22:27Z</time>
      </trkpt>
      <trkpt lat="47.17945" lon="5.92056">
        <ele>284.6</ele>
        <time>2021-06-21T10:22:28Z</time>
      </trkpt>
      <trkpt lat="47.17949" lon="5.92054">
        <ele>284.4</ele>
        <time>2021-06-21T10:22:29Z</time>
      </trkpt>
      <trkpt lat="47.17953" lon="5.92052">
        <ele>283.8</ele>
        <time>2021-06-21T10:22:30Z</time>
      </trkpt>
      <trkpt lat="47.17956" lon="5.92049">
        <ele>283.2</ele>
        <time>2021-06-21T10:22:31Z</time>
      </trkpt>
      <trkpt lat="47.17958" lon="5.92046">
        <ele>282.4</ele>
        <time>2021-06-21T10:22:32Z</time>
      </trkpt>
      <trkpt lat="47.17963" lon="5.92041">
        <ele>281.8</ele>
        <time>2021-06-21T10:22:33Z</time>
      </trkpt>
      <trkpt lat="47.17968" lon="5.92037">
        <ele>281</ele>
        <time>2021-06-21T10:22:34Z</time>
      </trkpt>
      <trkpt lat="47.17972" lon="5.92036">
        <ele>280</ele>
        <time>2021-06-21T10:22:35Z</time>
      </trkpt>
      <trkpt lat="47.17977" lon="5.92036">
        <ele>279.8</ele>
        <time>2021-06-21T10:22:36Z</time>
      </trkpt>
      <trkpt lat="47.17981" lon="5.92036">
        <ele>279.2</ele>
        <time>2021-06-21T10:22:37Z</time>
      </trkpt>
      <trkpt lat="47.17992" lon="5.92036">
        <ele>277.6</ele>
        <time>2021-06-21T10:22:39Z</time>
      </trkpt>
      <trkpt lat="47.18007" lon="5.92035">
        <ele>276.2</ele>
        <time>2021-06-21T10:22:41Z</time>
      </trkpt>
      <trkpt lat="47.18017" lon="5.92034">
        <ele>275.2</ele>
        <time>2021-06-21T10:22:42Z</time>
      </trkpt>
      <trkpt lat="47.18024" lon="5.92032">
        <ele>274.4</ele>
        <time>2021-06-21T10:22:43Z</time>
      </trkpt>
      <trkpt lat="47.18033" lon="5.92031">
        <ele>272.8</ele>
        <time>2021-06-21T10:22:44Z</time>
      </trkpt>
      <trkpt lat="47.1804" lon="5.92032">
        <ele>271.8</ele>
        <time>2021-06-21T10:22:45Z</time>
      </trkpt>
      <trkpt lat="47.18044" lon="5.92031">
        <ele>269.8</ele>
        <time>2021-06-21T10:22:46Z</time>
      </trkpt>
      <trkpt lat="47.18049" lon="5.9203">
        <ele>268.2</ele>
        <time>2021-06-21T10:22:47Z</time>
      </trkpt>
      <trkpt lat="47.18054" lon="5.92029">
        <ele>267.4</ele>
        <time>2021-06-21T10:22:48Z</time>
      </trkpt>
      <trkpt lat="47.18062" lon="5.92025">
        <ele>266.6</ele>
        <time>2021-06-21T10:22:49Z</time>
      </trkpt>
      <trkpt lat="47.18067" lon="5.92023">
        <ele>266.2</ele>
        <time>2021-06-21T10:22:50Z</time>
      </trkpt>
      <trkpt lat="47.18074" lon="5.92022">
        <ele>265.4</ele>
        <time>2021-06-21T10:22:51Z</time>
      </trkpt>
      <trkpt lat="47.1809" lon="5.92021">
        <ele>263.8</ele>
        <time>2021-06-21T10:22:53Z</time>
      </trkpt>
      <trkpt lat="47.18096" lon="5.9202">
        <ele>263.4</ele>
        <time>2021-06-21T10:22:54Z</time>
      </trkpt>
      <trkpt lat="47.18099" lon="5.92019">
        <ele>263</ele>
        <time>2021-06-21T10:22:55Z</time>
      </trkpt>
      <trkpt lat="47.18101" lon="5.92019">
        <ele>262.4</ele>
        <time>2021-06-21T10:22:56Z</time>
      </trkpt>
      <trkpt lat="47.18102" lon="5.92019">
        <ele>261.6</ele>
        <time>2021-06-21T10:22:57Z</time>
      </trkpt>
      <trkpt lat="47.18102" lon="5.92019">
        <ele>259.6</ele>
        <time>2021-06-21T10:22:58Z</time>
      </trkpt>
      <trkpt lat="47.18102" lon="5.92019">
        <ele>258.2</ele>
        <time>2021-06-21T10:23:00Z</time>
      </trkpt>
      <trkpt lat="47.18102" lon="5.92019">
        <ele>257.2</ele>
        <time>2021-06-21T10:23:06Z</time>
      </trkpt>
      <trkpt lat="47.18102" lon="5.92019">
        <ele>256.6</ele>
        <time>2021-06-21T10:23:15Z</time>
      </trkpt>
      <trkpt lat="47.18102" lon="5.92019">
        <ele>255.8</ele>
        <time>2021-06-21T10:23:45Z</time>
      </trkpt>
      <trkpt lat="47.18102" lon="5.92019">
        <ele>255.4</ele>
        <time>2021-06-21T10:24:47Z</time>
      </trkpt>
      <trkpt lat="47.18102" lon="5.92019">
        <ele>255.2</ele>
        <time>2021-06-21T10:25:26Z</time>
      </trkpt>
      <trkpt lat="47.18102" lon="5.92019">
        <ele>255.2</ele>
        <time>2021-06-21T10:25:59Z</time>
      </trkpt>
      <trkpt lat="47.18102" lon="5.92019">
        <ele>255</ele>
        <time>2021-06-21T10:26:29Z</time>
      </trkpt>
      <trkpt lat="47.18102" lon="5.92019">
        <ele>255.2</ele>
        <time>2021-06-21T10:26:59Z</time>
      </trkpt>
      <trkpt lat="47.18103" lon="5.92019">
        <ele>255</ele>
        <time>2021-06-21T10:27:15Z</time>
      </trkpt>
      <trkpt lat="47.18105" lon="5.92021">
        <ele>255.2</ele>
        <time>2021-06-21T10:27:16Z</time>
      </trkpt>
      <trkpt lat="47.18117" lon="5.92022">
        <ele>255.2</ele>
        <time>2021-06-21T10:27:20Z</time>
      </trkpt>
      <trkpt lat="47.18136" lon="5.9203">
        <ele>254.6</ele>
        <time>2021-06-21T10:27:25Z</time>
      </trkpt>
      <trkpt lat="47.18149" lon="5.92037">
        <ele>253.2</ele>
        <time>2021-06-21T10:27:28Z</time>
      </trkpt>
      <trkpt lat="47.18151" lon="5.92038">
        <ele>252.8</ele>
        <time>2021-06-21T10:27:29Z</time>
      </trkpt>
      <trkpt lat="47.18154" lon="5.92041">
        <ele>252.4</ele>
        <time>2021-06-21T10:27:30Z</time>
      </trkpt>
      <trkpt lat="47.18157" lon="5.92046">
        <ele>252.2</ele>
        <time>2021-06-21T10:27:31Z</time>
      </trkpt>
      <trkpt lat="47.18163" lon="5.92051">
        <ele>251.8</ele>
        <time>2021-06-21T10:27:33Z</time>
      </trkpt>
      <trkpt lat="47.18165" lon="5.92053">
        <ele>251.8</ele>
        <time>2021-06-21T10:27:34Z</time>
      </trkpt>
      <trkpt lat="47.18167" lon="5.92055">
        <ele>251.6</ele>
        <time>2021-06-21T10:27:35Z</time>
      </trkpt>
      <trkpt lat="47.1817" lon="5.92058">
        <ele>251.6</ele>
        <time>2021-06-21T10:27:36Z</time>
      </trkpt>
      <trkpt lat="47.18175" lon="5.92063">
        <ele>251.4</ele>
        <time>2021-06-21T10:27:38Z</time>
      </trkpt>
      <trkpt lat="47.18177" lon="5.92065">
        <ele>251.4</ele>
        <time>2021-06-21T10:27:39Z</time>
      </trkpt>
      <trkpt lat="47.18179" lon="5.92068">
        <ele>251.4</ele>
        <time>2021-06-21T10:27:40Z</time>
      </trkpt>
      <trkpt lat="47.1818" lon="5.92071">
        <ele>251.4</ele>
        <time>2021-06-21T10:27:41Z</time>
      </trkpt>
      <trkpt lat="47.18182" lon="5.92074">
        <ele>251.6</ele>
        <time>2021-06-21T10:27:42Z</time>
      </trkpt>
      <trkpt lat="47.18184" lon="5.92076">
        <ele>251.6</ele>
        <time>2021-06-21T10:27:43Z</time>
      </trkpt>
      <trkpt lat="47.18185" lon="5.92079">
        <ele>251.8</ele>
        <time>2021-06-21T10:27:44Z</time>
      </trkpt>
      <trkpt lat="47.18193" lon="5.92086">
        <ele>252</ele>
        <time>2021-06-21T10:27:47Z</time>
      </trkpt>
      <trkpt lat="47.18195" lon="5.92088">
        <ele>252</ele>
        <time>2021-06-21T10:27:48Z</time>
      </trkpt>
      <trkpt lat="47.18198" lon="5.9209">
        <ele>252</ele>
        <time>2021-06-21T10:27:49Z</time>
      </trkpt>
      <trkpt lat="47.18207" lon="5.92102">
        <ele>252</ele>
        <time>2021-06-21T10:27:52Z</time>
      </trkpt>
      <trkpt lat="47.18227" lon="5.92115">
        <ele>251.4</ele>
        <time>2021-06-21T10:27:56Z</time>
      </trkpt>
      <trkpt lat="47.18231" lon="5.92119">
        <ele>251.2</ele>
        <time>2021-06-21T10:27:57Z</time>
      </trkpt>
      <trkpt lat="47.18241" lon="5.92128">
        <ele>250.8</ele>
        <time>2021-06-21T10:27:59Z</time>
      </trkpt>
      <trkpt lat="47.18249" lon="5.92139">
        <ele>249.2</ele>
        <time>2021-06-21T10:28:01Z</time>
      </trkpt>
      <trkpt lat="47.18252" lon="5.92145">
        <ele>249</ele>
        <time>2021-06-21T10:28:02Z</time>
      </trkpt>
      <trkpt lat="47.18254" lon="5.92152">
        <ele>248.6</ele>
        <time>2021-06-21T10:28:03Z</time>
      </trkpt>
      <trkpt lat="47.18257" lon="5.92159">
        <ele>248.4</ele>
        <time>2021-06-21T10:28:04Z</time>
      </trkpt>
      <trkpt lat="47.18259" lon="5.92163">
        <ele>248.4</ele>
        <time>2021-06-21T10:28:05Z</time>
      </trkpt>
      <trkpt lat="47.1826" lon="5.92167">
        <ele>248.2</ele>
        <time>2021-06-21T10:28:06Z</time>
      </trkpt>
      <trkpt lat="47.18261" lon="5.9217">
        <ele>248.2</ele>
        <time>2021-06-21T10:28:07Z</time>
      </trkpt>
      <trkpt lat="47.18262" lon="5.92172">
        <ele>248.4</ele>
        <time>2021-06-21T10:28:08Z</time>
      </trkpt>
      <trkpt lat="47.18263" lon="5.92176">
        <ele>248.4</ele>
        <time>2021-06-21T10:28:09Z</time>
      </trkpt>
      <trkpt lat="47.18264" lon="5.92179">
        <ele>248.4</ele>
        <time>2021-06-21T10:28:10Z</time>
      </trkpt>
      <trkpt lat="47.18268" lon="5.9219">
        <ele>249</ele>
        <time>2021-06-21T10:28:13Z</time>
      </trkpt>
      <trkpt lat="47.1827" lon="5.92194">
        <ele>249</ele>
        <time>2021-06-21T10:28:14Z</time>
      </trkpt>
      <trkpt lat="47.18278" lon="5.92206">
        <ele>249.2</ele>
        <time>2021-06-21T10:28:17Z</time>
      </trkpt>
      <trkpt lat="47.18279" lon="5.9221">
        <ele>249.2</ele>
        <time>2021-06-21T10:28:18Z</time>
      </trkpt>
      <trkpt lat="47.18281" lon="5.92214">
        <ele>249.2</ele>
        <time>2021-06-21T10:28:19Z</time>
      </trkpt>
      <trkpt lat="47.18284" lon="5.92221">
        <ele>249.4</ele>
        <time>2021-06-21T10:28:20Z</time>
      </trkpt>
      <trkpt lat="47.18288" lon="5.92234">
        <ele>249.4</ele>
        <time>2021-06-21T10:28:23Z</time>
      </trkpt>
      <trkpt lat="47.18296" lon="5.92248">
        <ele>249.4</ele>
        <time>2021-06-21T10:28:25Z</time>
      </trkpt>
      <trkpt lat="47.18302" lon="5.92257">
        <ele>249.4</ele>
        <time>2021-06-21T10:28:27Z</time>
      </trkpt>
      <trkpt lat="47.18311" lon="5.9227">
        <ele>249.4</ele>
        <time>2021-06-21T10:28:30Z</time>
      </trkpt>
      <trkpt lat="47.18313" lon="5.92274">
        <ele>249.2</ele>
        <time>2021-06-21T10:28:31Z</time>
      </trkpt>
      <trkpt lat="47.18315" lon="5.92277">
        <ele>249.2</ele>
        <time>2021-06-21T10:28:32Z</time>
      </trkpt>
      <trkpt lat="47.18324" lon="5.9228">
        <ele>249</ele>
        <time>2021-06-21T10:28:34Z</time>
      </trkpt>
      <trkpt lat="47.18327" lon="5.92282">
        <ele>248.8</ele>
        <time>2021-06-21T10:28:35Z</time>
      </trkpt>
      <trkpt lat="47.1833" lon="5.92284">
        <ele>248.6</ele>
        <time>2021-06-21T10:28:36Z</time>
      </trkpt>
      <trkpt lat="47.18334" lon="5.92288">
        <ele>248.4</ele>
        <time>2021-06-21T10:28:37Z</time>
      </trkpt>
      <trkpt lat="47.18336" lon="5.9229">
        <ele>248.4</ele>
        <time>2021-06-21T10:28:38Z</time>
      </trkpt>
      <trkpt lat="47.18338" lon="5.92292">
        <ele>248.2</ele>
        <time>2021-06-21T10:28:39Z</time>
      </trkpt>
      <trkpt lat="47.18357" lon="5.92304">
        <ele>247.6</ele>
        <time>2021-06-21T10:28:44Z</time>
      </trkpt>
      <trkpt lat="47.18363" lon="5.92311">
        <ele>247.6</ele>
        <time>2021-06-21T10:28:46Z</time>
      </trkpt>
      <trkpt lat="47.18365" lon="5.92315">
        <ele>247.6</ele>
        <time>2021-06-21T10:28:47Z</time>
      </trkpt>
      <trkpt lat="47.18366" lon="5.92318">
        <ele>247.6</ele>
        <time>2021-06-21T10:28:48Z</time>
      </trkpt>
      <trkpt lat="47.18368" lon="5.92321">
        <ele>247.6</ele>
        <time>2021-06-21T10:28:49Z</time>
      </trkpt>
      <trkpt lat="47.18369" lon="5.92325">
        <ele>247.6</ele>
        <time>2021-06-21T10:28:50Z</time>
      </trkpt>
      <trkpt lat="47.1837" lon="5.92328">
        <ele>247.6</ele>
        <time>2021-06-21T10:28:51Z</time>
      </trkpt>
      <trkpt lat="47.1837" lon="5.92331">
        <ele>247.6</ele>
        <time>2021-06-21T10:28:52Z</time>
      </trkpt>
      <trkpt lat="47.1837" lon="5.92332">
        <ele>247.6</ele>
        <time>2021-06-21T10:28:53Z</time>
      </trkpt>
      <trkpt lat="47.18369" lon="5.92335">
        <ele>247.6</ele>
        <time>2021-06-21T10:28:54Z</time>
      </trkpt>
      <trkpt lat="47.18375" lon="5.92346">
        <ele>248.2</ele>
        <time>2021-06-21T10:28:57Z</time>
      </trkpt>
      <trkpt lat="47.18374" lon="5.92348">
        <ele>248.4</ele>
        <time>2021-06-21T10:28:58Z</time>
      </trkpt>
      <trkpt lat="47.18375" lon="5.9235">
        <ele>248.4</ele>
        <time>2021-06-21T10:28:59Z</time>
      </trkpt>
      <trkpt lat="47.18376" lon="5.92351">
        <ele>248.4</ele>
        <time>2021-06-21T10:29:00Z</time>
      </trkpt>
      <trkpt lat="47.18378" lon="5.92353">
        <ele>248.6</ele>
        <time>2021-06-21T10:29:01Z</time>
      </trkpt>
      <trkpt lat="47.1838" lon="5.92356">
        <ele>248.6</ele>
        <time>2021-06-21T10:29:02Z</time>
      </trkpt>
      <trkpt lat="47.18381" lon="5.92359">
        <ele>248.6</ele>
        <time>2021-06-21T10:29:03Z</time>
      </trkpt>
      <trkpt lat="47.18385" lon="5.92364">
        <ele>248.6</ele>
        <time>2021-06-21T10:29:05Z</time>
      </trkpt>
      <trkpt lat="47.1839" lon="5.92367">
        <ele>248.6</ele>
        <time>2021-06-21T10:29:07Z</time>
      </trkpt>
      <trkpt lat="47.18393" lon="5.9237">
        <ele>248.6</ele>
        <time>2021-06-21T10:29:08Z</time>
      </trkpt>
      <trkpt lat="47.18396" lon="5.92373">
        <ele>248.6</ele>
        <time>2021-06-21T10:29:09Z</time>
      </trkpt>
      <trkpt lat="47.18398" lon="5.92377">
        <ele>248.6</ele>
        <time>2021-06-21T10:29:10Z</time>
      </trkpt>
      <trkpt lat="47.184" lon="5.9238">
        <ele>248.8</ele>
        <time>2021-06-21T10:29:11Z</time>
      </trkpt>
      <trkpt lat="47.18405" lon="5.92385">
        <ele>248.6</ele>
        <time>2021-06-21T10:29:13Z</time>
      </trkpt>
      <trkpt lat="47.18407" lon="5.92387">
        <ele>248.8</ele>
        <time>2021-06-21T10:29:14Z</time>
      </trkpt>
      <trkpt lat="47.18408" lon="5.92387">
        <ele>248.8</ele>
        <time>2021-06-21T10:29:15Z</time>
      </trkpt>
      <trkpt lat="47.1841" lon="5.9239">
        <ele>248.8</ele>
        <time>2021-06-21T10:29:16Z</time>
      </trkpt>
      <trkpt lat="47.18412" lon="5.92393">
        <ele>248.8</ele>
        <time>2021-06-21T10:29:17Z</time>
      </trkpt>
      <trkpt lat="47.18415" lon="5.92398">
        <ele>248.8</ele>
        <time>2021-06-21T10:29:18Z</time>
      </trkpt>
      <trkpt lat="47.18416" lon="5.92401">
        <ele>248.8</ele>
        <time>2021-06-21T10:29:19Z</time>
      </trkpt>
      <trkpt lat="47.18418" lon="5.92404">
        <ele>248.8</ele>
        <time>2021-06-21T10:29:20Z</time>
      </trkpt>
      <trkpt lat="47.18419" lon="5.92405">
        <ele>248.8</ele>
        <time>2021-06-21T10:29:21Z</time>
      </trkpt>
      <trkpt lat="47.18422" lon="5.92407">
        <ele>248.8</ele>
        <time>2021-06-21T10:29:22Z</time>
      </trkpt>
      <trkpt lat="47.18423" lon="5.9241">
        <ele>249</ele>
        <time>2021-06-21T10:29:23Z</time>
      </trkpt>
      <trkpt lat="47.18426" lon="5.92411">
        <ele>249.2</ele>
        <time>2021-06-21T10:29:24Z</time>
      </trkpt>
      <trkpt lat="47.18429" lon="5.92413">
        <ele>249.2</ele>
        <time>2021-06-21T10:29:25Z</time>
      </trkpt>
      <trkpt lat="47.18435" lon="5.9242">
        <ele>249.2</ele>
        <time>2021-06-21T10:29:27Z</time>
      </trkpt>
      <trkpt lat="47.18438" lon="5.92423">
        <ele>249.4</ele>
        <time>2021-06-21T10:29:28Z</time>
      </trkpt>
      <trkpt lat="47.18439" lon="5.92424">
        <ele>249.4</ele>
        <time>2021-06-21T10:29:29Z</time>
      </trkpt>
      <trkpt lat="47.18441" lon="5.92427">
        <ele>249.4</ele>
        <time>2021-06-21T10:29:30Z</time>
      </trkpt>
      <trkpt lat="47.18443" lon="5.9243">
        <ele>249.4</ele>
        <time>2021-06-21T10:29:31Z</time>
      </trkpt>
      <trkpt lat="47.18446" lon="5.92435">
        <ele>249.2</ele>
        <time>2021-06-21T10:29:33Z</time>
      </trkpt>
      <trkpt lat="47.18448" lon="5.92438">
        <ele>249.2</ele>
        <time>2021-06-21T10:29:34Z</time>
      </trkpt>
      <trkpt lat="47.1845" lon="5.92441">
        <ele>249.2</ele>
        <time>2021-06-21T10:29:35Z</time>
      </trkpt>
      <trkpt lat="47.18453" lon="5.92446">
        <ele>249.2</ele>
        <time>2021-06-21T10:29:36Z</time>
      </trkpt>
      <trkpt lat="47.18454" lon="5.92448">
        <ele>249.2</ele>
        <time>2021-06-21T10:29:37Z</time>
      </trkpt>
      <trkpt lat="47.18455" lon="5.92449">
        <ele>249.4</ele>
        <time>2021-06-21T10:29:38Z</time>
      </trkpt>
      <trkpt lat="47.18459" lon="5.92457">
        <ele>249.4</ele>
        <time>2021-06-21T10:29:41Z</time>
      </trkpt>
      <trkpt lat="47.1846" lon="5.92458">
        <ele>249.4</ele>
        <time>2021-06-21T10:29:42Z</time>
      </trkpt>
      <trkpt lat="47.18461" lon="5.9246">
        <ele>249.4</ele>
        <time>2021-06-21T10:29:43Z</time>
      </trkpt>
      <trkpt lat="47.1846" lon="5.92465">
        <ele>249.4</ele>
        <time>2021-06-21T10:29:44Z</time>
      </trkpt>
      <trkpt lat="47.18462" lon="5.92468">
        <ele>249.4</ele>
        <time>2021-06-21T10:29:45Z</time>
      </trkpt>
      <trkpt lat="47.18462" lon="5.9247">
        <ele>249.6</ele>
        <time>2021-06-21T10:29:46Z</time>
      </trkpt>
      <trkpt lat="47.18461" lon="5.92472">
        <ele>249.6</ele>
        <time>2021-06-21T10:29:47Z</time>
      </trkpt>
      <trkpt lat="47.18461" lon="5.92473">
        <ele>249.8</ele>
        <time>2021-06-21T10:29:48Z</time>
      </trkpt>
      <trkpt lat="47.18463" lon="5.92479">
        <ele>249.8</ele>
        <time>2021-06-21T10:29:50Z</time>
      </trkpt>
      <trkpt lat="47.18464" lon="5.92483">
        <ele>249.8</ele>
        <time>2021-06-21T10:29:51Z</time>
      </trkpt>
      <trkpt lat="47.18464" lon="5.92488">
        <ele>249.8</ele>
        <time>2021-06-21T10:29:53Z</time>
      </trkpt>
      <trkpt lat="47.18463" lon="5.92491">
        <ele>249.6</ele>
        <time>2021-06-21T10:29:54Z</time>
      </trkpt>
      <trkpt lat="47.18464" lon="5.92494">
        <ele>249.8</ele>
        <time>2021-06-21T10:29:55Z</time>
      </trkpt>
      <trkpt lat="47.18465" lon="5.92497">
        <ele>249.8</ele>
        <time>2021-06-21T10:29:56Z</time>
      </trkpt>
      <trkpt lat="47.18466" lon="5.92505">
        <ele>249.6</ele>
        <time>2021-06-21T10:29:58Z</time>
      </trkpt>
      <trkpt lat="47.18468" lon="5.9251">
        <ele>249.6</ele>
        <time>2021-06-21T10:29:59Z</time>
      </trkpt>
      <trkpt lat="47.18469" lon="5.92518">
        <ele>249.6</ele>
        <time>2021-06-21T10:30:01Z</time>
      </trkpt>
      <trkpt lat="47.18469" lon="5.92521">
        <ele>249.6</ele>
        <time>2021-06-21T10:30:02Z</time>
      </trkpt>
      <trkpt lat="47.1847" lon="5.92523">
        <ele>249.6</ele>
        <time>2021-06-21T10:30:03Z</time>
      </trkpt>
      <trkpt lat="47.18471" lon="5.92525">
        <ele>249.6</ele>
        <time>2021-06-21T10:30:04Z</time>
      </trkpt>
      <trkpt lat="47.18471" lon="5.92528">
        <ele>249.6</ele>
        <time>2021-06-21T10:30:05Z</time>
      </trkpt>
      <trkpt lat="47.18472" lon="5.9253">
        <ele>249.4</ele>
        <time>2021-06-21T10:30:06Z</time>
      </trkpt>
      <trkpt lat="47.18472" lon="5.92536">
        <ele>249.4</ele>
        <time>2021-06-21T10:30:08Z</time>
      </trkpt>
      <trkpt lat="47.18471" lon="5.92537">
        <ele>249.4</ele>
        <time>2021-06-21T10:30:09Z</time>
      </trkpt>
      <trkpt lat="47.18471" lon="5.92537">
        <ele>249.4</ele>
        <time>2021-06-21T10:30:10Z</time>
      </trkpt>
      <trkpt lat="47.18469" lon="5.9254">
        <ele>249.4</ele>
        <time>2021-06-21T10:30:11Z</time>
      </trkpt>
      <trkpt lat="47.18468" lon="5.92543">
        <ele>249.6</ele>
        <time>2021-06-21T10:30:12Z</time>
      </trkpt>
      <trkpt lat="47.18467" lon="5.92554">
        <ele>249.6</ele>
        <time>2021-06-21T10:30:14Z</time>
      </trkpt>
      <trkpt lat="47.18465" lon="5.9256">
        <ele>249.6</ele>
        <time>2021-06-21T10:30:15Z</time>
      </trkpt>
      <trkpt lat="47.18463" lon="5.92563">
        <ele>249.6</ele>
        <time>2021-06-21T10:30:16Z</time>
      </trkpt>
      <trkpt lat="47.18462" lon="5.92564">
        <ele>249.8</ele>
        <time>2021-06-21T10:30:17Z</time>
      </trkpt>
      <trkpt lat="47.18456" lon="5.9257">
        <ele>249.8</ele>
        <time>2021-06-21T10:30:19Z</time>
      </trkpt>
      <trkpt lat="47.18454" lon="5.92571">
        <ele>250.2</ele>
        <time>2021-06-21T10:30:20Z</time>
      </trkpt>
      <trkpt lat="47.18452" lon="5.92571">
        <ele>250.2</ele>
        <time>2021-06-21T10:30:21Z</time>
      </trkpt>
      <trkpt lat="47.18449" lon="5.92573">
        <ele>250.6</ele>
        <time>2021-06-21T10:30:23Z</time>
      </trkpt>
      <trkpt lat="47.18447" lon="5.92577">
        <ele>251.2</ele>
        <time>2021-06-21T10:30:24Z</time>
      </trkpt>
      <trkpt lat="47.18442" lon="5.92581">
        <ele>251.2</ele>
        <time>2021-06-21T10:30:25Z</time>
      </trkpt>
      <trkpt lat="47.18438" lon="5.92582">
        <ele>251.6</ele>
        <time>2021-06-21T10:30:26Z</time>
      </trkpt>
      <trkpt lat="47.18436" lon="5.92582">
        <ele>251.6</ele>
        <time>2021-06-21T10:30:27Z</time>
      </trkpt>
      <trkpt lat="47.18435" lon="5.92584">
        <ele>252</ele>
        <time>2021-06-21T10:30:29Z</time>
      </trkpt>
      <trkpt lat="47.18435" lon="5.92584">
        <ele>252.4</ele>
        <time>2021-06-21T10:30:32Z</time>
      </trkpt>
      <trkpt lat="47.18435" lon="5.92584">
        <ele>252.6</ele>
        <time>2021-06-21T10:30:33Z</time>
      </trkpt>
      <trkpt lat="47.18435" lon="5.92584">
        <ele>252.8</ele>
        <time>2021-06-21T10:30:39Z</time>
      </trkpt>
      <trkpt lat="47.18435" lon="5.92584">
        <ele>253</ele>
        <time>2021-06-21T10:30:46Z</time>
      </trkpt>
      <trkpt lat="47.18435" lon="5.92584">
        <ele>253</ele>
        <time>2021-06-21T10:30:47Z</time>
      </trkpt>
      <trkpt lat="47.1843" lon="5.92585">
        <ele>253.2</ele>
        <time>2021-06-21T10:30:50Z</time>
      </trkpt>
      <trkpt lat="47.18426" lon="5.92586">
        <ele>253.6</ele>
        <time>2021-06-21T10:30:53Z</time>
      </trkpt>
      <trkpt lat="47.18424" lon="5.92587">
        <ele>253.6</ele>
        <time>2021-06-21T10:30:54Z</time>
      </trkpt>
      <trkpt lat="47.18423" lon="5.92588">
        <ele>253.6</ele>
        <time>2021-06-21T10:30:55Z</time>
      </trkpt>
      <trkpt lat="47.18421" lon="5.92589">
        <ele>253.8</ele>
        <time>2021-06-21T10:30:57Z</time>
      </trkpt>
      <trkpt lat="47.1842" lon="5.9259">
        <ele>253.8</ele>
        <time>2021-06-21T10:30:58Z</time>
      </trkpt>
      <trkpt lat="47.18419" lon="5.9259">
        <ele>254</ele>
        <time>2021-06-21T10:30:59Z</time>
      </trkpt>
      <trkpt lat="47.18418" lon="5.92592">
        <ele>254</ele>
        <time>2021-06-21T10:31:00Z</time>
      </trkpt>
      <trkpt lat="47.18418" lon="5.92594">
        <ele>254</ele>
        <time>2021-06-21T10:31:01Z</time>
      </trkpt>
      <trkpt lat="47.18417" lon="5.92596">
        <ele>254.2</ele>
        <time>2021-06-21T10:31:02Z</time>
      </trkpt>
      <trkpt lat="47.18415" lon="5.92598">
        <ele>254.2</ele>
        <time>2021-06-21T10:31:03Z</time>
      </trkpt>
      <trkpt lat="47.18413" lon="5.92601">
        <ele>254.6</ele>
        <time>2021-06-21T10:31:06Z</time>
      </trkpt>
      <trkpt lat="47.18412" lon="5.92603">
        <ele>254.6</ele>
        <time>2021-06-21T10:31:07Z</time>
      </trkpt>
      <trkpt lat="47.18412" lon="5.92607">
        <ele>254.8</ele>
        <time>2021-06-21T10:31:08Z</time>
      </trkpt>
      <trkpt lat="47.18409" lon="5.92614">
        <ele>255</ele>
        <time>2021-06-21T10:31:09Z</time>
      </trkpt>
      <trkpt lat="47.18405" lon="5.92621">
        <ele>255</ele>
        <time>2021-06-21T10:31:10Z</time>
      </trkpt>
      <trkpt lat="47.18405" lon="5.92624">
        <ele>255.2</ele>
        <time>2021-06-21T10:31:11Z</time>
      </trkpt>
      <trkpt lat="47.18405" lon="5.92626">
        <ele>255.2</ele>
        <time>2021-06-21T10:31:12Z</time>
      </trkpt>
      <trkpt lat="47.18405" lon="5.92626">
        <ele>255.4</ele>
        <time>2021-06-21T10:31:13Z</time>
      </trkpt>
      <trkpt lat="47.18405" lon="5.92626">
        <ele>255.4</ele>
        <time>2021-06-21T10:31:14Z</time>
      </trkpt>
      <trkpt lat="47.18397" lon="5.92631">
        <ele>255.6</ele>
        <time>2021-06-21T10:31:17Z</time>
      </trkpt>
      <trkpt lat="47.18387" lon="5.92639">
        <ele>256.4</ele>
        <time>2021-06-21T10:31:22Z</time>
      </trkpt>
      <trkpt lat="47.18387" lon="5.92639">
        <ele>256.6</ele>
        <time>2021-06-21T10:31:24Z</time>
      </trkpt>
      <trkpt lat="47.18386" lon="5.9264">
        <ele>256.6</ele>
        <time>2021-06-21T10:31:26Z</time>
      </trkpt>
      <trkpt lat="47.18383" lon="5.92641">
        <ele>256.8</ele>
        <time>2021-06-21T10:31:28Z</time>
      </trkpt>
      <trkpt lat="47.18381" lon="5.92643">
        <ele>257</ele>
        <time>2021-06-21T10:31:29Z</time>
      </trkpt>
      <trkpt lat="47.18377" lon="5.92644">
        <ele>257.2</ele>
        <time>2021-06-21T10:31:30Z</time>
      </trkpt>
      <trkpt lat="47.18374" lon="5.92648">
        <ele>257.4</ele>
        <time>2021-06-21T10:31:31Z</time>
      </trkpt>
      <trkpt lat="47.18373" lon="5.92649">
        <ele>257.4</ele>
        <time>2021-06-21T10:31:32Z</time>
      </trkpt>
      <trkpt lat="47.1837" lon="5.92652">
        <ele>257.6</ele>
        <time>2021-06-21T10:31:33Z</time>
      </trkpt>
      <trkpt lat="47.18367" lon="5.92654">
        <ele>257.8</ele>
        <time>2021-06-21T10:31:34Z</time>
      </trkpt>
      <trkpt lat="47.18365" lon="5.92655">
        <ele>257.8</ele>
        <time>2021-06-21T10:31:35Z</time>
      </trkpt>
      <trkpt lat="47.18364" lon="5.92656">
        <ele>258</ele>
        <time>2021-06-21T10:31:36Z</time>
      </trkpt>
      <trkpt lat="47.18363" lon="5.92657">
        <ele>258</ele>
        <time>2021-06-21T10:31:37Z</time>
      </trkpt>
      <trkpt lat="47.18363" lon="5.92657">
        <ele>258</ele>
        <time>2021-06-21T10:31:38Z</time>
      </trkpt>
      <trkpt lat="47.18364" lon="5.92661">
        <ele>258</ele>
        <time>2021-06-21T10:31:39Z</time>
      </trkpt>
      <trkpt lat="47.18364" lon="5.92663">
        <ele>258.2</ele>
        <time>2021-06-21T10:31:40Z</time>
      </trkpt>
      <trkpt lat="47.18363" lon="5.92664">
        <ele>258.4</ele>
        <time>2021-06-21T10:31:41Z</time>
      </trkpt>
      <trkpt lat="47.18363" lon="5.92665">
        <ele>258.4</ele>
        <time>2021-06-21T10:31:42Z</time>
      </trkpt>
      <trkpt lat="47.18363" lon="5.92666">
        <ele>258.6</ele>
        <time>2021-06-21T10:31:43Z</time>
      </trkpt>
      <trkpt lat="47.18361" lon="5.92667">
        <ele>258.8</ele>
        <time>2021-06-21T10:31:44Z</time>
      </trkpt>
      <trkpt lat="47.18359" lon="5.92669">
        <ele>258.8</ele>
        <time>2021-06-21T10:31:45Z</time>
      </trkpt>
      <trkpt lat="47.18359" lon="5.92671">
        <ele>259</ele>
        <time>2021-06-21T10:31:46Z</time>
      </trkpt>
      <trkpt lat="47.18357" lon="5.92673">
        <ele>259</ele>
        <time>2021-06-21T10:31:47Z</time>
      </trkpt>
      <trkpt lat="47.18357" lon="5.92673">
        <ele>259.2</ele>
        <time>2021-06-21T10:31:48Z</time>
      </trkpt>
      <trkpt lat="47.18357" lon="5.92673">
        <ele>259.4</ele>
        <time>2021-06-21T10:31:49Z</time>
      </trkpt>
      <trkpt lat="47.18356" lon="5.92674">
        <ele>259.8</ele>
        <time>2021-06-21T10:31:50Z</time>
      </trkpt>
      <trkpt lat="47.18355" lon="5.92675">
        <ele>260</ele>
        <time>2021-06-21T10:31:51Z</time>
      </trkpt>
      <trkpt lat="47.18355" lon="5.92675">
        <ele>260</ele>
        <time>2021-06-21T10:31:52Z</time>
      </trkpt>
      <trkpt lat="47.18355" lon="5.92676">
        <ele>260.2</ele>
        <time>2021-06-21T10:31:53Z</time>
      </trkpt>
      <trkpt lat="47.18355" lon="5.92676">
        <ele>260.4</ele>
        <time>2021-06-21T10:31:54Z</time>
      </trkpt>
      <trkpt lat="47.18354" lon="5.92677">
        <ele>260.4</ele>
        <time>2021-06-21T10:31:55Z</time>
      </trkpt>
      <trkpt lat="47.18354" lon="5.92677">
        <ele>260.4</ele>
        <time>2021-06-21T10:31:56Z</time>
      </trkpt>
      <trkpt lat="47.18354" lon="5.92678">
        <ele>260.4</ele>
        <time>2021-06-21T10:31:57Z</time>
      </trkpt>
      <trkpt lat="47.18352" lon="5.92679">
        <ele>260.6</ele>
        <time>2021-06-21T10:31:58Z</time>
      </trkpt>
      <trkpt lat="47.18351" lon="5.92681">
        <ele>260.6</ele>
        <time>2021-06-21T10:31:59Z</time>
      </trkpt>
      <trkpt lat="47.18349" lon="5.92683">
        <ele>260.8</ele>
        <time>2021-06-21T10:32:00Z</time>
      </trkpt>
      <trkpt lat="47.18346" lon="5.92685">
        <ele>260.8</ele>
        <time>2021-06-21T10:32:01Z</time>
      </trkpt>
      <trkpt lat="47.18344" lon="5.92687">
        <ele>261</ele>
        <time>2021-06-21T10:32:02Z</time>
      </trkpt>
      <trkpt lat="47.18342" lon="5.9269">
        <ele>261</ele>
        <time>2021-06-21T10:32:03Z</time>
      </trkpt>
      <trkpt lat="47.18339" lon="5.92694">
        <ele>261.2</ele>
        <time>2021-06-21T10:32:04Z</time>
      </trkpt>
      <trkpt lat="47.18338" lon="5.92696">
        <ele>261.4</ele>
        <time>2021-06-21T10:32:05Z</time>
      </trkpt>
      <trkpt lat="47.18335" lon="5.92698">
        <ele>261.4</ele>
        <time>2021-06-21T10:32:06Z</time>
      </trkpt>
      <trkpt lat="47.18332" lon="5.927">
        <ele>261.4</ele>
        <time>2021-06-21T10:32:07Z</time>
      </trkpt>
      <trkpt lat="47.18329" lon="5.92702">
        <ele>261.6</ele>
        <time>2021-06-21T10:32:08Z</time>
      </trkpt>
      <trkpt lat="47.18327" lon="5.92703">
        <ele>261.8</ele>
        <time>2021-06-21T10:32:09Z</time>
      </trkpt>
      <trkpt lat="47.18325" lon="5.92705">
        <ele>262</ele>
        <time>2021-06-21T10:32:10Z</time>
      </trkpt>
      <trkpt lat="47.18324" lon="5.92708">
        <ele>262.2</ele>
        <time>2021-06-21T10:32:11Z</time>
      </trkpt>
      <trkpt lat="47.18323" lon="5.92711">
        <ele>262.4</ele>
        <time>2021-06-21T10:32:12Z</time>
      </trkpt>
      <trkpt lat="47.18322" lon="5.92714">
        <ele>262.6</ele>
        <time>2021-06-21T10:32:13Z</time>
      </trkpt>
      <trkpt lat="47.18321" lon="5.92716">
        <ele>262.6</ele>
        <time>2021-06-21T10:32:14Z</time>
      </trkpt>
      <trkpt lat="47.1832" lon="5.92718">
        <ele>262.8</ele>
        <time>2021-06-21T10:32:15Z</time>
      </trkpt>
      <trkpt lat="47.18319" lon="5.9272">
        <ele>263</ele>
        <time>2021-06-21T10:32:16Z</time>
      </trkpt>
      <trkpt lat="47.18317" lon="5.92722">
        <ele>263</ele>
        <time>2021-06-21T10:32:17Z</time>
      </trkpt>
      <trkpt lat="47.18315" lon="5.92724">
        <ele>263.2</ele>
        <time>2021-06-21T10:32:18Z</time>
      </trkpt>
      <trkpt lat="47.18313" lon="5.92727">
        <ele>263.4</ele>
        <time>2021-06-21T10:32:19Z</time>
      </trkpt>
      <trkpt lat="47.18313" lon="5.92731">
        <ele>263.4</ele>
        <time>2021-06-21T10:32:20Z</time>
      </trkpt>
      <trkpt lat="47.18313" lon="5.92732">
        <ele>263.6</ele>
        <time>2021-06-21T10:32:21Z</time>
      </trkpt>
      <trkpt lat="47.18311" lon="5.92735">
        <ele>263.6</ele>
        <time>2021-06-21T10:32:22Z</time>
      </trkpt>
      <trkpt lat="47.1831" lon="5.92738">
        <ele>263.6</ele>
        <time>2021-06-21T10:32:23Z</time>
      </trkpt>
      <trkpt lat="47.18309" lon="5.92742">
        <ele>263.8</ele>
        <time>2021-06-21T10:32:24Z</time>
      </trkpt>
      <trkpt lat="47.18308" lon="5.92743">
        <ele>263.8</ele>
        <time>2021-06-21T10:32:25Z</time>
      </trkpt>
      <trkpt lat="47.18308" lon="5.92746">
        <ele>264</ele>
        <time>2021-06-21T10:32:26Z</time>
      </trkpt>
      <trkpt lat="47.18305" lon="5.92752">
        <ele>264.2</ele>
        <time>2021-06-21T10:32:27Z</time>
      </trkpt>
      <trkpt lat="47.18303" lon="5.92755">
        <ele>264.2</ele>
        <time>2021-06-21T10:32:28Z</time>
      </trkpt>
      <trkpt lat="47.18301" lon="5.92759">
        <ele>264.4</ele>
        <time>2021-06-21T10:32:29Z</time>
      </trkpt>
      <trkpt lat="47.18299" lon="5.92763">
        <ele>264.4</ele>
        <time>2021-06-21T10:32:30Z</time>
      </trkpt>
      <trkpt lat="47.18297" lon="5.92764">
        <ele>264.4</ele>
        <time>2021-06-21T10:32:31Z</time>
      </trkpt>
      <trkpt lat="47.18295" lon="5.92765">
        <ele>264.6</ele>
        <time>2021-06-21T10:32:32Z</time>
      </trkpt>
      <trkpt lat="47.18294" lon="5.92765">
        <ele>264.6</ele>
        <time>2021-06-21T10:32:33Z</time>
      </trkpt>
      <trkpt lat="47.18291" lon="5.92765">
        <ele>264.6</ele>
        <time>2021-06-21T10:32:34Z</time>
      </trkpt>
      <trkpt lat="47.18289" lon="5.92766">
        <ele>264.8</ele>
        <time>2021-06-21T10:32:35Z</time>
      </trkpt>
      <trkpt lat="47.18287" lon="5.92765">
        <ele>265</ele>
        <time>2021-06-21T10:32:36Z</time>
      </trkpt>
      <trkpt lat="47.18285" lon="5.92764">
        <ele>265</ele>
        <time>2021-06-21T10:32:37Z</time>
      </trkpt>
      <trkpt lat="47.18285" lon="5.92764">
        <ele>265.2</ele>
        <time>2021-06-21T10:32:38Z</time>
      </trkpt>
      <trkpt lat="47.18283" lon="5.92763">
        <ele>265.2</ele>
        <time>2021-06-21T10:32:39Z</time>
      </trkpt>
      <trkpt lat="47.18282" lon="5.92762">
        <ele>265.2</ele>
        <time>2021-06-21T10:32:40Z</time>
      </trkpt>
      <trkpt lat="47.18281" lon="5.92761">
        <ele>265.4</ele>
        <time>2021-06-21T10:32:41Z</time>
      </trkpt>
      <trkpt lat="47.1828" lon="5.9276">
        <ele>265.4</ele>
        <time>2021-06-21T10:32:42Z</time>
      </trkpt>
      <trkpt lat="47.18279" lon="5.92759">
        <ele>265.6</ele>
        <time>2021-06-21T10:32:43Z</time>
      </trkpt>
      <trkpt lat="47.18277" lon="5.92759">
        <ele>265.6</ele>
        <time>2021-06-21T10:32:44Z</time>
      </trkpt>
      <trkpt lat="47.18276" lon="5.92758">
        <ele>265.6</ele>
        <time>2021-06-21T10:32:45Z</time>
      </trkpt>
      <trkpt lat="47.18274" lon="5.92758">
        <ele>265.8</ele>
        <time>2021-06-21T10:32:46Z</time>
      </trkpt>
      <trkpt lat="47.18272" lon="5.92758">
        <ele>265.8</ele>
        <time>2021-06-21T10:32:47Z</time>
      </trkpt>
      <trkpt lat="47.18269" lon="5.92758">
        <ele>266</ele>
        <time>2021-06-21T10:32:49Z</time>
      </trkpt>
      <trkpt lat="47.18267" lon="5.92758">
        <ele>266.2</ele>
        <time>2021-06-21T10:32:51Z</time>
      </trkpt>
      <trkpt lat="47.18265" lon="5.92757">
        <ele>266.2</ele>
        <time>2021-06-21T10:32:52Z</time>
      </trkpt>
      <trkpt lat="47.18265" lon="5.92757">
        <ele>266.4</ele>
        <time>2021-06-21T10:32:53Z</time>
      </trkpt>
      <trkpt lat="47.18264" lon="5.92758">
        <ele>266.4</ele>
        <time>2021-06-21T10:32:54Z</time>
      </trkpt>
      <trkpt lat="47.18262" lon="5.92758">
        <ele>266.4</ele>
        <time>2021-06-21T10:32:55Z</time>
      </trkpt>
      <trkpt lat="47.18261" lon="5.92757">
        <ele>266.6</ele>
        <time>2021-06-21T10:32:56Z</time>
      </trkpt>
      <trkpt lat="47.18259" lon="5.92758">
        <ele>266.6</ele>
        <time>2021-06-21T10:32:57Z</time>
      </trkpt>
      <trkpt lat="47.18256" lon="5.92758">
        <ele>266.6</ele>
        <time>2021-06-21T10:32:58Z</time>
      </trkpt>
      <trkpt lat="47.18255" lon="5.92757">
        <ele>266.8</ele>
        <time>2021-06-21T10:32:59Z</time>
      </trkpt>
      <trkpt lat="47.18254" lon="5.92757">
        <ele>266.8</ele>
        <time>2021-06-21T10:33:00Z</time>
      </trkpt>
      <trkpt lat="47.18248" lon="5.92757">
        <ele>267.2</ele>
        <time>2021-06-21T10:33:03Z</time>
      </trkpt>
      <trkpt lat="47.18235" lon="5.9276">
        <ele>267.6</ele>
        <time>2021-06-21T10:33:08Z</time>
      </trkpt>
      <trkpt lat="47.18222" lon="5.92761">
        <ele>268.2</ele>
        <time>2021-06-21T10:33:13Z</time>
      </trkpt>
      <trkpt lat="47.18217" lon="5.92764">
        <ele>268.6</ele>
        <time>2021-06-21T10:33:16Z</time>
      </trkpt>
      <trkpt lat="47.18216" lon="5.92765">
        <ele>268.8</ele>
        <time>2021-06-21T10:33:17Z</time>
      </trkpt>
      <trkpt lat="47.18215" lon="5.92765">
        <ele>269</ele>
        <time>2021-06-21T10:33:18Z</time>
      </trkpt>
      <trkpt lat="47.18214" lon="5.92765">
        <ele>269.2</ele>
        <time>2021-06-21T10:33:19Z</time>
      </trkpt>
      <trkpt lat="47.18212" lon="5.92765">
        <ele>269.2</ele>
        <time>2021-06-21T10:33:20Z</time>
      </trkpt>
      <trkpt lat="47.18211" lon="5.92766">
        <ele>269.4</ele>
        <time>2021-06-21T10:33:21Z</time>
      </trkpt>
      <trkpt lat="47.18208" lon="5.92766">
        <ele>269.4</ele>
        <time>2021-06-21T10:33:22Z</time>
      </trkpt>
      <trkpt lat="47.18207" lon="5.92766">
        <ele>269.6</ele>
        <time>2021-06-21T10:33:23Z</time>
      </trkpt>
      <trkpt lat="47.18206" lon="5.92766">
        <ele>269.6</ele>
        <time>2021-06-21T10:33:24Z</time>
      </trkpt>
      <trkpt lat="47.18205" lon="5.92765">
        <ele>269.8</ele>
        <time>2021-06-21T10:33:25Z</time>
      </trkpt>
      <trkpt lat="47.18203" lon="5.92765">
        <ele>270</ele>
        <time>2021-06-21T10:33:26Z</time>
      </trkpt>
      <trkpt lat="47.18201" lon="5.92765">
        <ele>270.2</ele>
        <time>2021-06-21T10:33:27Z</time>
      </trkpt>
      <trkpt lat="47.182" lon="5.92765">
        <ele>270.2</ele>
        <time>2021-06-21T10:33:28Z</time>
      </trkpt>
      <trkpt lat="47.18199" lon="5.92765">
        <ele>270.4</ele>
        <time>2021-06-21T10:33:29Z</time>
      </trkpt>
      <trkpt lat="47.18198" lon="5.92764">
        <ele>270.4</ele>
        <time>2021-06-21T10:33:30Z</time>
      </trkpt>
      <trkpt lat="47.18196" lon="5.92764">
        <ele>270.8</ele>
        <time>2021-06-21T10:33:31Z</time>
      </trkpt>
      <trkpt lat="47.18194" lon="5.92764">
        <ele>271</ele>
        <time>2021-06-21T10:33:32Z</time>
      </trkpt>
      <trkpt lat="47.18192" lon="5.92764">
        <ele>271.2</ele>
        <time>2021-06-21T10:33:33Z</time>
      </trkpt>
      <trkpt lat="47.1819" lon="5.92765">
        <ele>271.2</ele>
        <time>2021-06-21T10:33:34Z</time>
      </trkpt>
      <trkpt lat="47.18189" lon="5.92765">
        <ele>271.4</ele>
        <time>2021-06-21T10:33:35Z</time>
      </trkpt>
      <trkpt lat="47.18187" lon="5.92765">
        <ele>271.6</ele>
        <time>2021-06-21T10:33:36Z</time>
      </trkpt>
      <trkpt lat="47.18185" lon="5.92764">
        <ele>271.8</ele>
        <time>2021-06-21T10:33:37Z</time>
      </trkpt>
      <trkpt lat="47.18183" lon="5.92764">
        <ele>272</ele>
        <time>2021-06-21T10:33:38Z</time>
      </trkpt>
      <trkpt lat="47.18181" lon="5.92763">
        <ele>272.2</ele>
        <time>2021-06-21T10:33:39Z</time>
      </trkpt>
      <trkpt lat="47.18179" lon="5.92763">
        <ele>272.4</ele>
        <time>2021-06-21T10:33:40Z</time>
      </trkpt>
      <trkpt lat="47.18177" lon="5.92762">
        <ele>272.4</ele>
        <time>2021-06-21T10:33:41Z</time>
      </trkpt>
      <trkpt lat="47.18174" lon="5.92761">
        <ele>272.6</ele>
        <time>2021-06-21T10:33:42Z</time>
      </trkpt>
      <trkpt lat="47.18171" lon="5.92762">
        <ele>272.8</ele>
        <time>2021-06-21T10:33:43Z</time>
      </trkpt>
      <trkpt lat="47.18168" lon="5.92761">
        <ele>273</ele>
        <time>2021-06-21T10:33:44Z</time>
      </trkpt>
      <trkpt lat="47.18166" lon="5.92761">
        <ele>273.2</ele>
        <time>2021-06-21T10:33:45Z</time>
      </trkpt>
      <trkpt lat="47.18165" lon="5.92761">
        <ele>273.4</ele>
        <time>2021-06-21T10:33:46Z</time>
      </trkpt>
      <trkpt lat="47.18163" lon="5.92761">
        <ele>273.4</ele>
        <time>2021-06-21T10:33:47Z</time>
      </trkpt>
      <trkpt lat="47.18162" lon="5.92761">
        <ele>273.6</ele>
        <time>2021-06-21T10:33:48Z</time>
      </trkpt>
      <trkpt lat="47.1816" lon="5.9276">
        <ele>273.8</ele>
        <time>2021-06-21T10:33:49Z</time>
      </trkpt>
      <trkpt lat="47.1816" lon="5.92758">
        <ele>274</ele>
        <time>2021-06-21T10:33:50Z</time>
      </trkpt>
      <trkpt lat="47.18158" lon="5.92757">
        <ele>274.2</ele>
        <time>2021-06-21T10:33:51Z</time>
      </trkpt>
      <trkpt lat="47.18158" lon="5.92756">
        <ele>274.6</ele>
        <time>2021-06-21T10:33:52Z</time>
      </trkpt>
      <trkpt lat="47.18158" lon="5.92756">
        <ele>275.2</ele>
        <time>2021-06-21T10:33:55Z</time>
      </trkpt>
      <trkpt lat="47.18158" lon="5.92756">
        <ele>275.6</ele>
        <time>2021-06-21T10:34:16Z</time>
      </trkpt>
      <trkpt lat="47.18158" lon="5.92756">
        <ele>275.4</ele>
        <time>2021-06-21T10:34:43Z</time>
      </trkpt>
      <trkpt lat="47.18159" lon="5.92758">
        <ele>275.4</ele>
        <time>2021-06-21T10:34:44Z</time>
      </trkpt>
      <trkpt lat="47.1816" lon="5.92761">
        <ele>275.4</ele>
        <time>2021-06-21T10:34:46Z</time>
      </trkpt>
      <trkpt lat="47.18164" lon="5.92773">
        <ele>275.2</ele>
        <time>2021-06-21T10:34:50Z</time>
      </trkpt>
      <trkpt lat="47.18166" lon="5.92777">
        <ele>275.2</ele>
        <time>2021-06-21T10:34:51Z</time>
      </trkpt>
      <trkpt lat="47.18172" lon="5.92797">
        <ele>275</ele>
        <time>2021-06-21T10:34:54Z</time>
      </trkpt>
      <trkpt lat="47.18173" lon="5.92806">
        <ele>274.8</ele>
        <time>2021-06-21T10:34:55Z</time>
      </trkpt>
      <trkpt lat="47.18174" lon="5.92815">
        <ele>274.6</ele>
        <time>2021-06-21T10:34:56Z</time>
      </trkpt>
      <trkpt lat="47.18174" lon="5.92824">
        <ele>274.2</ele>
        <time>2021-06-21T10:34:57Z</time>
      </trkpt>
      <trkpt lat="47.1817" lon="5.92841">
        <ele>273.6</ele>
        <time>2021-06-21T10:34:59Z</time>
      </trkpt>
      <trkpt lat="47.18165" lon="5.92851">
        <ele>273.4</ele>
        <time>2021-06-21T10:35:00Z</time>
      </trkpt>
      <trkpt lat="47.1816" lon="5.9286">
        <ele>273</ele>
        <time>2021-06-21T10:35:01Z</time>
      </trkpt>
      <trkpt lat="47.18154" lon="5.92872">
        <ele>272.6</ele>
        <time>2021-06-21T10:35:02Z</time>
      </trkpt>
      <trkpt lat="47.18149" lon="5.92881">
        <ele>272</ele>
        <time>2021-06-21T10:35:03Z</time>
      </trkpt>
      <trkpt lat="47.18145" lon="5.92892">
        <ele>271.6</ele>
        <time>2021-06-21T10:35:04Z</time>
      </trkpt>
      <trkpt lat="47.18138" lon="5.92913">
        <ele>270.4</ele>
        <time>2021-06-21T10:35:06Z</time>
      </trkpt>
      <trkpt lat="47.18137" lon="5.92929">
        <ele>270</ele>
        <time>2021-06-21T10:35:07Z</time>
      </trkpt>
      <trkpt lat="47.18136" lon="5.92945">
        <ele>269.4</ele>
        <time>2021-06-21T10:35:08Z</time>
      </trkpt>
      <trkpt lat="47.18136" lon="5.92961">
        <ele>269.2</ele>
        <time>2021-06-21T10:35:09Z</time>
      </trkpt>
      <trkpt lat="47.18138" lon="5.92979">
        <ele>268.4</ele>
        <time>2021-06-21T10:35:10Z</time>
      </trkpt>
      <trkpt lat="47.18142" lon="5.92991">
        <ele>267.6</ele>
        <time>2021-06-21T10:35:11Z</time>
      </trkpt>
      <trkpt lat="47.18146" lon="5.93004">
        <ele>267</ele>
        <time>2021-06-21T10:35:12Z</time>
      </trkpt>
      <trkpt lat="47.18152" lon="5.93015">
        <ele>266.2</ele>
        <time>2021-06-21T10:35:13Z</time>
      </trkpt>
      <trkpt lat="47.18162" lon="5.93025">
        <ele>265.6</ele>
        <time>2021-06-21T10:35:14Z</time>
      </trkpt>
      <trkpt lat="47.18171" lon="5.93033">
        <ele>264.4</ele>
        <time>2021-06-21T10:35:15Z</time>
      </trkpt>
      <trkpt lat="47.1818" lon="5.93042">
        <ele>263.8</ele>
        <time>2021-06-21T10:35:16Z</time>
      </trkpt>
      <trkpt lat="47.18191" lon="5.93051">
        <ele>263</ele>
        <time>2021-06-21T10:35:17Z</time>
      </trkpt>
      <trkpt lat="47.18209" lon="5.93065">
        <ele>261.8</ele>
        <time>2021-06-21T10:35:19Z</time>
      </trkpt>
      <trkpt lat="47.18238" lon="5.93086">
        <ele>260.2</ele>
        <time>2021-06-21T10:35:22Z</time>
      </trkpt>
      <trkpt lat="47.18246" lon="5.93092">
        <ele>259.8</ele>
        <time>2021-06-21T10:35:23Z</time>
      </trkpt>
      <trkpt lat="47.18255" lon="5.93099">
        <ele>259</ele>
        <time>2021-06-21T10:35:24Z</time>
      </trkpt>
      <trkpt lat="47.18272" lon="5.93112">
        <ele>258</ele>
        <time>2021-06-21T10:35:26Z</time>
      </trkpt>
      <trkpt lat="47.1828" lon="5.93119">
        <ele>257.4</ele>
        <time>2021-06-21T10:35:27Z</time>
      </trkpt>
      <trkpt lat="47.18289" lon="5.93127">
        <ele>257.2</ele>
        <time>2021-06-21T10:35:28Z</time>
      </trkpt>
      <trkpt lat="47.18295" lon="5.93132">
        <ele>257</ele>
        <time>2021-06-21T10:35:29Z</time>
      </trkpt>
      <trkpt lat="47.18302" lon="5.93139">
        <ele>256.8</ele>
        <time>2021-06-21T10:35:30Z</time>
      </trkpt>
      <trkpt lat="47.18308" lon="5.93146">
        <ele>256.8</ele>
        <time>2021-06-21T10:35:31Z</time>
      </trkpt>
      <trkpt lat="47.18315" lon="5.93153">
        <ele>256.6</ele>
        <time>2021-06-21T10:35:32Z</time>
      </trkpt>
      <trkpt lat="47.1832" lon="5.9316">
        <ele>256.4</ele>
        <time>2021-06-21T10:35:33Z</time>
      </trkpt>
      <trkpt lat="47.18326" lon="5.93167">
        <ele>256.2</ele>
        <time>2021-06-21T10:35:34Z</time>
      </trkpt>
      <trkpt lat="47.18331" lon="5.93173">
        <ele>256.2</ele>
        <time>2021-06-21T10:35:35Z</time>
      </trkpt>
      <trkpt lat="47.18335" lon="5.9318">
        <ele>256</ele>
        <time>2021-06-21T10:35:36Z</time>
      </trkpt>
      <trkpt lat="47.1834" lon="5.93187">
        <ele>256</ele>
        <time>2021-06-21T10:35:37Z</time>
      </trkpt>
      <trkpt lat="47.18345" lon="5.93193">
        <ele>255.8</ele>
        <time>2021-06-21T10:35:38Z</time>
      </trkpt>
      <trkpt lat="47.1835" lon="5.932">
        <ele>255.8</ele>
        <time>2021-06-21T10:35:39Z</time>
      </trkpt>
      <trkpt lat="47.18354" lon="5.93206">
        <ele>255.8</ele>
        <time>2021-06-21T10:35:40Z</time>
      </trkpt>
      <trkpt lat="47.18358" lon="5.93213">
        <ele>255.8</ele>
        <time>2021-06-21T10:35:41Z</time>
      </trkpt>
      <trkpt lat="47.18362" lon="5.93219">
        <ele>255.8</ele>
        <time>2021-06-21T10:35:42Z</time>
      </trkpt>
      <trkpt lat="47.1837" lon="5.9323">
        <ele>256</ele>
        <time>2021-06-21T10:35:44Z</time>
      </trkpt>
      <trkpt lat="47.18373" lon="5.93236">
        <ele>256</ele>
        <time>2021-06-21T10:35:45Z</time>
      </trkpt>
      <trkpt lat="47.18377" lon="5.93242">
        <ele>256</ele>
        <time>2021-06-21T10:35:46Z</time>
      </trkpt>
      <trkpt lat="47.18403" lon="5.9328">
        <ele>255.8</ele>
        <time>2021-06-21T10:35:52Z</time>
      </trkpt>
      <trkpt lat="47.18435" lon="5.9333">
        <ele>255</ele>
        <time>2021-06-21T10:36:00Z</time>
      </trkpt>
      <trkpt lat="47.18438" lon="5.93335">
        <ele>255</ele>
        <time>2021-06-21T10:36:01Z</time>
      </trkpt>
      <trkpt lat="47.18442" lon="5.93341">
        <ele>255</ele>
        <time>2021-06-21T10:36:02Z</time>
      </trkpt>
      <trkpt lat="47.18445" lon="5.93347">
        <ele>255</ele>
        <time>2021-06-21T10:36:03Z</time>
      </trkpt>
      <trkpt lat="47.18452" lon="5.93359">
        <ele>255</ele>
        <time>2021-06-21T10:36:05Z</time>
      </trkpt>
      <trkpt lat="47.18455" lon="5.93365">
        <ele>255</ele>
        <time>2021-06-21T10:36:06Z</time>
      </trkpt>
      <trkpt lat="47.18458" lon="5.9337">
        <ele>255.2</ele>
        <time>2021-06-21T10:36:07Z</time>
      </trkpt>
      <trkpt lat="47.1846" lon="5.93374">
        <ele>255.2</ele>
        <time>2021-06-21T10:36:08Z</time>
      </trkpt>
      <trkpt lat="47.18463" lon="5.93379">
        <ele>255.4</ele>
        <time>2021-06-21T10:36:09Z</time>
      </trkpt>
      <trkpt lat="47.18465" lon="5.93383">
        <ele>255.6</ele>
        <time>2021-06-21T10:36:10Z</time>
      </trkpt>
      <trkpt lat="47.18468" lon="5.93388">
        <ele>255.8</ele>
        <time>2021-06-21T10:36:11Z</time>
      </trkpt>
      <trkpt lat="47.18475" lon="5.934">
        <ele>256</ele>
        <time>2021-06-21T10:36:14Z</time>
      </trkpt>
      <trkpt lat="47.18479" lon="5.93406">
        <ele>256</ele>
        <time>2021-06-21T10:36:15Z</time>
      </trkpt>
      <trkpt lat="47.18481" lon="5.9341">
        <ele>256.2</ele>
        <time>2021-06-21T10:36:16Z</time>
      </trkpt>
      <trkpt lat="47.18484" lon="5.93415">
        <ele>256.2</ele>
        <time>2021-06-21T10:36:17Z</time>
      </trkpt>
      <trkpt lat="47.18509" lon="5.93459">
        <ele>256.8</ele>
        <time>2021-06-21T10:36:27Z</time>
      </trkpt>
      <trkpt lat="47.18514" lon="5.93469">
        <ele>257</ele>
        <time>2021-06-21T10:36:29Z</time>
      </trkpt>
      <trkpt lat="47.1852" lon="5.93477">
        <ele>257.2</ele>
        <time>2021-06-21T10:36:31Z</time>
      </trkpt>
      <trkpt lat="47.18522" lon="5.93481">
        <ele>257.2</ele>
        <time>2021-06-21T10:36:32Z</time>
      </trkpt>
      <trkpt lat="47.18524" lon="5.93486">
        <ele>257.2</ele>
        <time>2021-06-21T10:36:33Z</time>
      </trkpt>
      <trkpt lat="47.18532" lon="5.93498">
        <ele>257.4</ele>
        <time>2021-06-21T10:36:36Z</time>
      </trkpt>
      <trkpt lat="47.18537" lon="5.93507">
        <ele>257.6</ele>
        <time>2021-06-21T10:36:38Z</time>
      </trkpt>
      <trkpt lat="47.18542" lon="5.93515">
        <ele>258.2</ele>
        <time>2021-06-21T10:36:40Z</time>
      </trkpt>
      <trkpt lat="47.18552" lon="5.93529">
        <ele>258.4</ele>
        <time>2021-06-21T10:36:44Z</time>
      </trkpt>
      <trkpt lat="47.18562" lon="5.93537">
        <ele>258.6</ele>
        <time>2021-06-21T10:36:47Z</time>
      </trkpt>
      <trkpt lat="47.1857" lon="5.93538">
        <ele>258.8</ele>
        <time>2021-06-21T10:36:49Z</time>
      </trkpt>
      <trkpt lat="47.18575" lon="5.93539">
        <ele>258.8</ele>
        <time>2021-06-21T10:36:50Z</time>
      </trkpt>
      <trkpt lat="47.18587" lon="5.93541">
        <ele>259</ele>
        <time>2021-06-21T10:36:53Z</time>
      </trkpt>
      <trkpt lat="47.18626" lon="5.93557">
        <ele>259</ele>
        <time>2021-06-21T10:37:02Z</time>
      </trkpt>
      <trkpt lat="47.1863" lon="5.9356">
        <ele>259</ele>
        <time>2021-06-21T10:37:03Z</time>
      </trkpt>
      <trkpt lat="47.18641" lon="5.93566">
        <ele>259.2</ele>
        <time>2021-06-21T10:37:06Z</time>
      </trkpt>
      <trkpt lat="47.18644" lon="5.93569">
        <ele>259.2</ele>
        <time>2021-06-21T10:37:07Z</time>
      </trkpt>
      <trkpt lat="47.18648" lon="5.93571">
        <ele>259.2</ele>
        <time>2021-06-21T10:37:08Z</time>
      </trkpt>
      <trkpt lat="47.18652" lon="5.93572">
        <ele>259.4</ele>
        <time>2021-06-21T10:37:09Z</time>
      </trkpt>
      <trkpt lat="47.18656" lon="5.93574">
        <ele>259.6</ele>
        <time>2021-06-21T10:37:10Z</time>
      </trkpt>
      <trkpt lat="47.1866" lon="5.93576">
        <ele>259.6</ele>
        <time>2021-06-21T10:37:11Z</time>
      </trkpt>
      <trkpt lat="47.18663" lon="5.93578">
        <ele>259.8</ele>
        <time>2021-06-21T10:37:12Z</time>
      </trkpt>
      <trkpt lat="47.18666" lon="5.93581">
        <ele>259.8</ele>
        <time>2021-06-21T10:37:13Z</time>
      </trkpt>
      <trkpt lat="47.1867" lon="5.93583">
        <ele>259.8</ele>
        <time>2021-06-21T10:37:14Z</time>
      </trkpt>
      <trkpt lat="47.18673" lon="5.93586">
        <ele>259.8</ele>
        <time>2021-06-21T10:37:15Z</time>
      </trkpt>
      <trkpt lat="47.18676" lon="5.93589">
        <ele>259.8</ele>
        <time>2021-06-21T10:37:16Z</time>
      </trkpt>
      <trkpt lat="47.18678" lon="5.93591">
        <ele>259.8</ele>
        <time>2021-06-21T10:37:17Z</time>
      </trkpt>
      <trkpt lat="47.18681" lon="5.93593">
        <ele>259.8</ele>
        <time>2021-06-21T10:37:18Z</time>
      </trkpt>
      <trkpt lat="47.18684" lon="5.93595">
        <ele>259.8</ele>
        <time>2021-06-21T10:37:19Z</time>
      </trkpt>
      <trkpt lat="47.18687" lon="5.93597">
        <ele>259.8</ele>
        <time>2021-06-21T10:37:20Z</time>
      </trkpt>
      <trkpt lat="47.18689" lon="5.93599">
        <ele>259.8</ele>
        <time>2021-06-21T10:37:21Z</time>
      </trkpt>
      <trkpt lat="47.18692" lon="5.93601">
        <ele>259.8</ele>
        <time>2021-06-21T10:37:22Z</time>
      </trkpt>
      <trkpt lat="47.18696" lon="5.93604">
        <ele>259.8</ele>
        <time>2021-06-21T10:37:23Z</time>
      </trkpt>
      <trkpt lat="47.18698" lon="5.93606">
        <ele>260</ele>
        <time>2021-06-21T10:37:24Z</time>
      </trkpt>
      <trkpt lat="47.18702" lon="5.93608">
        <ele>260</ele>
        <time>2021-06-21T10:37:25Z</time>
      </trkpt>
      <trkpt lat="47.18704" lon="5.9361">
        <ele>260.2</ele>
        <time>2021-06-21T10:37:26Z</time>
      </trkpt>
      <trkpt lat="47.18707" lon="5.93613">
        <ele>260.2</ele>
        <time>2021-06-21T10:37:27Z</time>
      </trkpt>
      <trkpt lat="47.1871" lon="5.93616">
        <ele>260.4</ele>
        <time>2021-06-21T10:37:28Z</time>
      </trkpt>
      <trkpt lat="47.18716" lon="5.93621">
        <ele>260.8</ele>
        <time>2021-06-21T10:37:30Z</time>
      </trkpt>
      <trkpt lat="47.18725" lon="5.93627">
        <ele>261.4</ele>
        <time>2021-06-21T10:37:33Z</time>
      </trkpt>
      <trkpt lat="47.18747" lon="5.93641">
        <ele>261.8</ele>
        <time>2021-06-21T10:37:40Z</time>
      </trkpt>
      <trkpt lat="47.1875" lon="5.93643">
        <ele>261.8</ele>
        <time>2021-06-21T10:37:41Z</time>
      </trkpt>
      <trkpt lat="47.18756" lon="5.93648">
        <ele>262</ele>
        <time>2021-06-21T10:37:43Z</time>
      </trkpt>
      <trkpt lat="47.18766" lon="5.93654">
        <ele>262</ele>
        <time>2021-06-21T10:37:46Z</time>
      </trkpt>
      <trkpt lat="47.18777" lon="5.9366">
        <ele>262.2</ele>
        <time>2021-06-21T10:37:49Z</time>
      </trkpt>
      <trkpt lat="47.18794" lon="5.9367">
        <ele>262.6</ele>
        <time>2021-06-21T10:37:54Z</time>
      </trkpt>
      <trkpt lat="47.18805" lon="5.93675">
        <ele>262.8</ele>
        <time>2021-06-21T10:37:57Z</time>
      </trkpt>
      <trkpt lat="47.18808" lon="5.93676">
        <ele>263</ele>
        <time>2021-06-21T10:37:58Z</time>
      </trkpt>
      <trkpt lat="47.18837" lon="5.93688">
        <ele>263.6</ele>
        <time>2021-06-21T10:38:06Z</time>
      </trkpt>
      <trkpt lat="47.18845" lon="5.93692">
        <ele>263.8</ele>
        <time>2021-06-21T10:38:09Z</time>
      </trkpt>
      <trkpt lat="47.18848" lon="5.93694">
        <ele>263.8</ele>
        <time>2021-06-21T10:38:10Z</time>
      </trkpt>
      <trkpt lat="47.18851" lon="5.93695">
        <ele>264</ele>
        <time>2021-06-21T10:38:11Z</time>
      </trkpt>
      <trkpt lat="47.18854" lon="5.93697">
        <ele>264.2</ele>
        <time>2021-06-21T10:38:12Z</time>
      </trkpt>
      <trkpt lat="47.18858" lon="5.93698">
        <ele>264.4</ele>
        <time>2021-06-21T10:38:13Z</time>
      </trkpt>
      <trkpt lat="47.18867" lon="5.93701">
        <ele>264.6</ele>
        <time>2021-06-21T10:38:16Z</time>
      </trkpt>
      <trkpt lat="47.18871" lon="5.93702">
        <ele>264.8</ele>
        <time>2021-06-21T10:38:17Z</time>
      </trkpt>
      <trkpt lat="47.18881" lon="5.93706">
        <ele>265.4</ele>
        <time>2021-06-21T10:38:20Z</time>
      </trkpt>
      <trkpt lat="47.18884" lon="5.93708">
        <ele>265.4</ele>
        <time>2021-06-21T10:38:21Z</time>
      </trkpt>
      <trkpt lat="47.18895" lon="5.93712">
        <ele>265.6</ele>
        <time>2021-06-21T10:38:24Z</time>
      </trkpt>
      <trkpt lat="47.18898" lon="5.93714">
        <ele>265.6</ele>
        <time>2021-06-21T10:38:25Z</time>
      </trkpt>
      <trkpt lat="47.18902" lon="5.93716">
        <ele>265.8</ele>
        <time>2021-06-21T10:38:26Z</time>
      </trkpt>
      <trkpt lat="47.18905" lon="5.93717">
        <ele>265.8</ele>
        <time>2021-06-21T10:38:27Z</time>
      </trkpt>
      <trkpt lat="47.18908" lon="5.93718">
        <ele>266</ele>
        <time>2021-06-21T10:38:28Z</time>
      </trkpt>
      <trkpt lat="47.18912" lon="5.9372">
        <ele>266</ele>
        <time>2021-06-21T10:38:29Z</time>
      </trkpt>
      <trkpt lat="47.18915" lon="5.93722">
        <ele>266</ele>
        <time>2021-06-21T10:38:30Z</time>
      </trkpt>
      <trkpt lat="47.18919" lon="5.93724">
        <ele>266.4</ele>
        <time>2021-06-21T10:38:31Z</time>
      </trkpt>
      <trkpt lat="47.18922" lon="5.93727">
        <ele>266.6</ele>
        <time>2021-06-21T10:38:32Z</time>
      </trkpt>
      <trkpt lat="47.18925" lon="5.93728">
        <ele>266.8</ele>
        <time>2021-06-21T10:38:33Z</time>
      </trkpt>
      <trkpt lat="47.18928" lon="5.9373">
        <ele>266.8</ele>
        <time>2021-06-21T10:38:34Z</time>
      </trkpt>
      <trkpt lat="47.18931" lon="5.93732">
        <ele>266.8</ele>
        <time>2021-06-21T10:38:35Z</time>
      </trkpt>
      <trkpt lat="47.18934" lon="5.93733">
        <ele>267</ele>
        <time>2021-06-21T10:38:36Z</time>
      </trkpt>
      <trkpt lat="47.18937" lon="5.93735">
        <ele>267</ele>
        <time>2021-06-21T10:38:37Z</time>
      </trkpt>
      <trkpt lat="47.1894" lon="5.93737">
        <ele>267.2</ele>
        <time>2021-06-21T10:38:38Z</time>
      </trkpt>
      <trkpt lat="47.18943" lon="5.9374">
        <ele>267.2</ele>
        <time>2021-06-21T10:38:39Z</time>
      </trkpt>
      <trkpt lat="47.18945" lon="5.93742">
        <ele>267.2</ele>
        <time>2021-06-21T10:38:40Z</time>
      </trkpt>
      <trkpt lat="47.18948" lon="5.93745">
        <ele>267.4</ele>
        <time>2021-06-21T10:38:41Z</time>
      </trkpt>
      <trkpt lat="47.18951" lon="5.93747">
        <ele>267.4</ele>
        <time>2021-06-21T10:38:42Z</time>
      </trkpt>
      <trkpt lat="47.18953" lon="5.9375">
        <ele>267.4</ele>
        <time>2021-06-21T10:38:43Z</time>
      </trkpt>
      <trkpt lat="47.18956" lon="5.93752">
        <ele>267.6</ele>
        <time>2021-06-21T10:38:44Z</time>
      </trkpt>
      <trkpt lat="47.18959" lon="5.93755">
        <ele>267.6</ele>
        <time>2021-06-21T10:38:45Z</time>
      </trkpt>
      <trkpt lat="47.18962" lon="5.93758">
        <ele>267.8</ele>
        <time>2021-06-21T10:38:46Z</time>
      </trkpt>
      <trkpt lat="47.18965" lon="5.9376">
        <ele>268</ele>
        <time>2021-06-21T10:38:47Z</time>
      </trkpt>
      <trkpt lat="47.18969" lon="5.93763">
        <ele>268</ele>
        <time>2021-06-21T10:38:48Z</time>
      </trkpt>
      <trkpt lat="47.18972" lon="5.93765">
        <ele>268.2</ele>
        <time>2021-06-21T10:38:49Z</time>
      </trkpt>
      <trkpt lat="47.18975" lon="5.93768">
        <ele>268.2</ele>
        <time>2021-06-21T10:38:50Z</time>
      </trkpt>
      <trkpt lat="47.18979" lon="5.9377">
        <ele>268.4</ele>
        <time>2021-06-21T10:38:51Z</time>
      </trkpt>
      <trkpt lat="47.18982" lon="5.93773">
        <ele>268.4</ele>
        <time>2021-06-21T10:38:52Z</time>
      </trkpt>
      <trkpt lat="47.18985" lon="5.93775">
        <ele>268.4</ele>
        <time>2021-06-21T10:38:53Z</time>
      </trkpt>
      <trkpt lat="47.18989" lon="5.93779">
        <ele>268.6</ele>
        <time>2021-06-21T10:38:54Z</time>
      </trkpt>
      <trkpt lat="47.18992" lon="5.93782">
        <ele>268.6</ele>
        <time>2021-06-21T10:38:55Z</time>
      </trkpt>
      <trkpt lat="47.19" lon="5.9379">
        <ele>268.8</ele>
        <time>2021-06-21T10:38:58Z</time>
      </trkpt>
      <trkpt lat="47.19002" lon="5.93792">
        <ele>268.8</ele>
        <time>2021-06-21T10:38:59Z</time>
      </trkpt>
      <trkpt lat="47.19005" lon="5.93795">
        <ele>269</ele>
        <time>2021-06-21T10:39:00Z</time>
      </trkpt>
      <trkpt lat="47.1901" lon="5.93798">
        <ele>269</ele>
        <time>2021-06-21T10:39:01Z</time>
      </trkpt>
      <trkpt lat="47.19022" lon="5.93805">
        <ele>269</ele>
        <time>2021-06-21T10:39:05Z</time>
      </trkpt>
      <trkpt lat="47.19025" lon="5.93807">
        <ele>269</ele>
        <time>2021-06-21T10:39:06Z</time>
      </trkpt>
      <trkpt lat="47.19048" lon="5.93824">
        <ele>269.2</ele>
        <time>2021-06-21T10:39:13Z</time>
      </trkpt>
      <trkpt lat="47.19054" lon="5.9383">
        <ele>269.8</ele>
        <time>2021-06-21T10:39:15Z</time>
      </trkpt>
      <trkpt lat="47.1907" lon="5.93844">
        <ele>270.2</ele>
        <time>2021-06-21T10:39:20Z</time>
      </trkpt>
      <trkpt lat="47.19072" lon="5.93847">
        <ele>270</ele>
        <time>2021-06-21T10:39:21Z</time>
      </trkpt>
      <trkpt lat="47.19075" lon="5.9385">
        <ele>270.2</ele>
        <time>2021-06-21T10:39:22Z</time>
      </trkpt>
      <trkpt lat="47.19078" lon="5.93854">
        <ele>270.4</ele>
        <time>2021-06-21T10:39:23Z</time>
      </trkpt>
      <trkpt lat="47.1908" lon="5.93856">
        <ele>270.4</ele>
        <time>2021-06-21T10:39:24Z</time>
      </trkpt>
      <trkpt lat="47.19083" lon="5.9386">
        <ele>270.4</ele>
        <time>2021-06-21T10:39:25Z</time>
      </trkpt>
      <trkpt lat="47.19085" lon="5.93863">
        <ele>270.4</ele>
        <time>2021-06-21T10:39:26Z</time>
      </trkpt>
      <trkpt lat="47.19088" lon="5.93866">
        <ele>270.4</ele>
        <time>2021-06-21T10:39:27Z</time>
      </trkpt>
      <trkpt lat="47.19089" lon="5.93869">
        <ele>270.6</ele>
        <time>2021-06-21T10:39:28Z</time>
      </trkpt>
      <trkpt lat="47.19092" lon="5.93873">
        <ele>270.6</ele>
        <time>2021-06-21T10:39:29Z</time>
      </trkpt>
      <trkpt lat="47.19094" lon="5.93876">
        <ele>270.8</ele>
        <time>2021-06-21T10:39:30Z</time>
      </trkpt>
      <trkpt lat="47.19098" lon="5.93883">
        <ele>271</ele>
        <time>2021-06-21T10:39:32Z</time>
      </trkpt>
      <trkpt lat="47.191" lon="5.93887">
        <ele>271</ele>
        <time>2021-06-21T10:39:33Z</time>
      </trkpt>
      <trkpt lat="47.19102" lon="5.93891">
        <ele>271</ele>
        <time>2021-06-21T10:39:34Z</time>
      </trkpt>
      <trkpt lat="47.19111" lon="5.93905">
        <ele>271</ele>
        <time>2021-06-21T10:39:38Z</time>
      </trkpt>
      <trkpt lat="47.19121" lon="5.93921">
        <ele>270.4</ele>
        <time>2021-06-21T10:39:42Z</time>
      </trkpt>
      <trkpt lat="47.19123" lon="5.93923">
        <ele>270.2</ele>
        <time>2021-06-21T10:39:43Z</time>
      </trkpt>
      <trkpt lat="47.19125" lon="5.93924">
        <ele>270.2</ele>
        <time>2021-06-21T10:39:44Z</time>
      </trkpt>
      <trkpt lat="47.19127" lon="5.93926">
        <ele>270.2</ele>
        <time>2021-06-21T10:39:45Z</time>
      </trkpt>
      <trkpt lat="47.19137" lon="5.93933">
        <ele>269.8</ele>
        <time>2021-06-21T10:39:48Z</time>
      </trkpt>
      <trkpt lat="47.1914" lon="5.93932">
        <ele>269.8</ele>
        <time>2021-06-21T10:39:49Z</time>
      </trkpt>
      <trkpt lat="47.19142" lon="5.93931">
        <ele>269.6</ele>
        <time>2021-06-21T10:39:50Z</time>
      </trkpt>
      <trkpt lat="47.19145" lon="5.93929">
        <ele>269.4</ele>
        <time>2021-06-21T10:39:51Z</time>
      </trkpt>
      <trkpt lat="47.19148" lon="5.93928">
        <ele>269.4</ele>
        <time>2021-06-21T10:39:52Z</time>
      </trkpt>
      <trkpt lat="47.1915" lon="5.93926">
        <ele>269.2</ele>
        <time>2021-06-21T10:39:53Z</time>
      </trkpt>
      <trkpt lat="47.19156" lon="5.93919">
        <ele>269</ele>
        <time>2021-06-21T10:39:55Z</time>
      </trkpt>
      <trkpt lat="47.1917" lon="5.93903">
        <ele>268.8</ele>
        <time>2021-06-21T10:39:59Z</time>
      </trkpt>
      <trkpt lat="47.19174" lon="5.93897">
        <ele>268.8</ele>
        <time>2021-06-21T10:40:00Z</time>
      </trkpt>
      <trkpt lat="47.1918" lon="5.93886">
        <ele>268.6</ele>
        <time>2021-06-21T10:40:02Z</time>
      </trkpt>
      <trkpt lat="47.19205" lon="5.93841">
        <ele>267.8</ele>
        <time>2021-06-21T10:40:09Z</time>
      </trkpt>
      <trkpt lat="47.19208" lon="5.93834">
        <ele>267.8</ele>
        <time>2021-06-21T10:40:10Z</time>
      </trkpt>
      <trkpt lat="47.19216" lon="5.93819">
        <ele>267</ele>
        <time>2021-06-21T10:40:12Z</time>
      </trkpt>
      <trkpt lat="47.19219" lon="5.93812">
        <ele>266.6</ele>
        <time>2021-06-21T10:40:13Z</time>
      </trkpt>
      <trkpt lat="47.1923" lon="5.93789">
        <ele>265.6</ele>
        <time>2021-06-21T10:40:16Z</time>
      </trkpt>
      <trkpt lat="47.19234" lon="5.93782">
        <ele>265.2</ele>
        <time>2021-06-21T10:40:17Z</time>
      </trkpt>
      <trkpt lat="47.19249" lon="5.93752">
        <ele>264.2</ele>
        <time>2021-06-21T10:40:21Z</time>
      </trkpt>
      <trkpt lat="47.19255" lon="5.93738">
        <ele>263.6</ele>
        <time>2021-06-21T10:40:23Z</time>
      </trkpt>
      <trkpt lat="47.19261" lon="5.93725">
        <ele>263.4</ele>
        <time>2021-06-21T10:40:25Z</time>
      </trkpt>
      <trkpt lat="47.19264" lon="5.93717">
        <ele>263.4</ele>
        <time>2021-06-21T10:40:26Z</time>
      </trkpt>
      <trkpt lat="47.19268" lon="5.9371">
        <ele>263.2</ele>
        <time>2021-06-21T10:40:27Z</time>
      </trkpt>
      <trkpt lat="47.19284" lon="5.93672">
        <ele>262.6</ele>
        <time>2021-06-21T10:40:32Z</time>
      </trkpt>
      <trkpt lat="47.193" lon="5.93638">
        <ele>262.2</ele>
        <time>2021-06-21T10:40:36Z</time>
      </trkpt>
      <trkpt lat="47.19308" lon="5.93621">
        <ele>262</ele>
        <time>2021-06-21T10:40:38Z</time>
      </trkpt>
      <trkpt lat="47.19317" lon="5.93605">
        <ele>261.6</ele>
        <time>2021-06-21T10:40:40Z</time>
      </trkpt>
      <trkpt lat="47.19333" lon="5.93585">
        <ele>261.2</ele>
        <time>2021-06-21T10:40:43Z</time>
      </trkpt>
      <trkpt lat="47.19339" lon="5.93579">
        <ele>261.2</ele>
        <time>2021-06-21T10:40:44Z</time>
      </trkpt>
      <trkpt lat="47.19372" lon="5.93556">
        <ele>260.2</ele>
        <time>2021-06-21T10:40:49Z</time>
      </trkpt>
      <trkpt lat="47.19379" lon="5.93553">
        <ele>260</ele>
        <time>2021-06-21T10:40:50Z</time>
      </trkpt>
      <trkpt lat="47.19405" lon="5.93539">
        <ele>259.4</ele>
        <time>2021-06-21T10:40:54Z</time>
      </trkpt>
      <trkpt lat="47.19411" lon="5.93535">
        <ele>259</ele>
        <time>2021-06-21T10:40:55Z</time>
      </trkpt>
      <trkpt lat="47.19416" lon="5.93532">
        <ele>258.8</ele>
        <time>2021-06-21T10:40:56Z</time>
      </trkpt>
      <trkpt lat="47.19421" lon="5.93527">
        <ele>258.4</ele>
        <time>2021-06-21T10:40:57Z</time>
      </trkpt>
      <trkpt lat="47.19425" lon="5.93523">
        <ele>258.2</ele>
        <time>2021-06-21T10:40:58Z</time>
      </trkpt>
      <trkpt lat="47.19429" lon="5.9352">
        <ele>258</ele>
        <time>2021-06-21T10:40:59Z</time>
      </trkpt>
      <trkpt lat="47.19432" lon="5.93516">
        <ele>258</ele>
        <time>2021-06-21T10:41:00Z</time>
      </trkpt>
      <trkpt lat="47.19436" lon="5.93513">
        <ele>258.2</ele>
        <time>2021-06-21T10:41:01Z</time>
      </trkpt>
      <trkpt lat="47.19439" lon="5.9351">
        <ele>258.4</ele>
        <time>2021-06-21T10:41:02Z</time>
      </trkpt>
      <trkpt lat="47.19441" lon="5.93507">
        <ele>258.6</ele>
        <time>2021-06-21T10:41:03Z</time>
      </trkpt>
      <trkpt lat="47.19444" lon="5.93505">
        <ele>258.8</ele>
        <time>2021-06-21T10:41:04Z</time>
      </trkpt>
      <trkpt lat="47.19457" lon="5.93493">
        <ele>259.4</ele>
        <time>2021-06-21T10:41:08Z</time>
      </trkpt>
      <trkpt lat="47.1948" lon="5.93464">
        <ele>259.8</ele>
        <time>2021-06-21T10:41:15Z</time>
      </trkpt>
      <trkpt lat="47.19486" lon="5.93454">
        <ele>259.6</ele>
        <time>2021-06-21T10:41:17Z</time>
      </trkpt>
      <trkpt lat="47.19492" lon="5.93446">
        <ele>259.6</ele>
        <time>2021-06-21T10:41:19Z</time>
      </trkpt>
      <trkpt lat="47.19495" lon="5.93441">
        <ele>259.6</ele>
        <time>2021-06-21T10:41:20Z</time>
      </trkpt>
      <trkpt lat="47.19498" lon="5.93436">
        <ele>259.4</ele>
        <time>2021-06-21T10:41:21Z</time>
      </trkpt>
      <trkpt lat="47.19511" lon="5.93417">
        <ele>259.4</ele>
        <time>2021-06-21T10:41:25Z</time>
      </trkpt>
      <trkpt lat="47.19524" lon="5.93376">
        <ele>259.2</ele>
        <time>2021-06-21T10:41:31Z</time>
      </trkpt>
      <trkpt lat="47.19528" lon="5.93355">
        <ele>258.8</ele>
        <time>2021-06-21T10:41:34Z</time>
      </trkpt>
      <trkpt lat="47.19529" lon="5.93349">
        <ele>258.6</ele>
        <time>2021-06-21T10:41:35Z</time>
      </trkpt>
      <trkpt lat="47.1953" lon="5.93343">
        <ele>258.4</ele>
        <time>2021-06-21T10:41:36Z</time>
      </trkpt>
      <trkpt lat="47.1953" lon="5.93336">
        <ele>258.4</ele>
        <time>2021-06-21T10:41:37Z</time>
      </trkpt>
      <trkpt lat="47.1953" lon="5.93332">
        <ele>258.4</ele>
        <time>2021-06-21T10:41:38Z</time>
      </trkpt>
      <trkpt lat="47.19531" lon="5.93328">
        <ele>258.4</ele>
        <time>2021-06-21T10:41:39Z</time>
      </trkpt>
      <trkpt lat="47.19532" lon="5.93323">
        <ele>258.4</ele>
        <time>2021-06-21T10:41:40Z</time>
      </trkpt>
      <trkpt lat="47.19533" lon="5.93317">
        <ele>258.4</ele>
        <time>2021-06-21T10:41:41Z</time>
      </trkpt>
      <trkpt lat="47.19538" lon="5.93285">
        <ele>259</ele>
        <time>2021-06-21T10:41:46Z</time>
      </trkpt>
      <trkpt lat="47.19542" lon="5.9327">
        <ele>259.2</ele>
        <time>2021-06-21T10:41:49Z</time>
      </trkpt>
      <trkpt lat="47.19544" lon="5.93265">
        <ele>259.2</ele>
        <time>2021-06-21T10:41:50Z</time>
      </trkpt>
      <trkpt lat="47.19544" lon="5.9326">
        <ele>259.2</ele>
        <time>2021-06-21T10:41:51Z</time>
      </trkpt>
      <trkpt lat="47.19546" lon="5.93254">
        <ele>259.2</ele>
        <time>2021-06-21T10:41:52Z</time>
      </trkpt>
      <trkpt lat="47.19546" lon="5.93249">
        <ele>259.2</ele>
        <time>2021-06-21T10:41:53Z</time>
      </trkpt>
      <trkpt lat="47.19548" lon="5.93244">
        <ele>259.2</ele>
        <time>2021-06-21T10:41:54Z</time>
      </trkpt>
      <trkpt lat="47.19549" lon="5.93239">
        <ele>259.4</ele>
        <time>2021-06-21T10:41:55Z</time>
      </trkpt>
      <trkpt lat="47.19551" lon="5.93235">
        <ele>259.4</ele>
        <time>2021-06-21T10:41:56Z</time>
      </trkpt>
      <trkpt lat="47.19552" lon="5.93231">
        <ele>259.4</ele>
        <time>2021-06-21T10:41:57Z</time>
      </trkpt>
      <trkpt lat="47.19553" lon="5.93227">
        <ele>259.6</ele>
        <time>2021-06-21T10:41:58Z</time>
      </trkpt>
      <trkpt lat="47.19554" lon="5.93222">
        <ele>259.8</ele>
        <time>2021-06-21T10:41:59Z</time>
      </trkpt>
      <trkpt lat="47.19555" lon="5.93219">
        <ele>259.8</ele>
        <time>2021-06-21T10:42:00Z</time>
      </trkpt>
      <trkpt lat="47.19557" lon="5.93216">
        <ele>260</ele>
        <time>2021-06-21T10:42:01Z</time>
      </trkpt>
      <trkpt lat="47.19559" lon="5.93213">
        <ele>260.4</ele>
        <time>2021-06-21T10:42:02Z</time>
      </trkpt>
      <trkpt lat="47.1956" lon="5.93208">
        <ele>260.6</ele>
        <time>2021-06-21T10:42:03Z</time>
      </trkpt>
      <trkpt lat="47.19562" lon="5.93204">
        <ele>260.8</ele>
        <time>2021-06-21T10:42:04Z</time>
      </trkpt>
      <trkpt lat="47.19564" lon="5.93202">
        <ele>261.2</ele>
        <time>2021-06-21T10:42:05Z</time>
      </trkpt>
      <trkpt lat="47.19565" lon="5.93198">
        <ele>261.4</ele>
        <time>2021-06-21T10:42:06Z</time>
      </trkpt>
      <trkpt lat="47.19567" lon="5.93195">
        <ele>261.6</ele>
        <time>2021-06-21T10:42:07Z</time>
      </trkpt>
      <trkpt lat="47.19568" lon="5.93193">
        <ele>261.8</ele>
        <time>2021-06-21T10:42:08Z</time>
      </trkpt>
      <trkpt lat="47.1957" lon="5.93189">
        <ele>262</ele>
        <time>2021-06-21T10:42:09Z</time>
      </trkpt>
      <trkpt lat="47.19573" lon="5.93184">
        <ele>262.2</ele>
        <time>2021-06-21T10:42:10Z</time>
      </trkpt>
      <trkpt lat="47.19575" lon="5.9318">
        <ele>262.4</ele>
        <time>2021-06-21T10:42:11Z</time>
      </trkpt>
      <trkpt lat="47.19576" lon="5.93178">
        <ele>262.6</ele>
        <time>2021-06-21T10:42:12Z</time>
      </trkpt>
      <trkpt lat="47.19577" lon="5.93176">
        <ele>262.6</ele>
        <time>2021-06-21T10:42:13Z</time>
      </trkpt>
      <trkpt lat="47.19579" lon="5.93173">
        <ele>262.8</ele>
        <time>2021-06-21T10:42:14Z</time>
      </trkpt>
      <trkpt lat="47.19582" lon="5.9317">
        <ele>263</ele>
        <time>2021-06-21T10:42:15Z</time>
      </trkpt>
      <trkpt lat="47.19584" lon="5.93168">
        <ele>263</ele>
        <time>2021-06-21T10:42:16Z</time>
      </trkpt>
      <trkpt lat="47.19587" lon="5.93167">
        <ele>263</ele>
        <time>2021-06-21T10:42:17Z</time>
      </trkpt>
      <trkpt lat="47.1959" lon="5.93166">
        <ele>263</ele>
        <time>2021-06-21T10:42:18Z</time>
      </trkpt>
      <trkpt lat="47.19594" lon="5.93166">
        <ele>263</ele>
        <time>2021-06-21T10:42:19Z</time>
      </trkpt>
      <trkpt lat="47.19599" lon="5.93164">
        <ele>263</ele>
        <time>2021-06-21T10:42:20Z</time>
      </trkpt>
      <trkpt lat="47.19603" lon="5.93165">
        <ele>263</ele>
        <time>2021-06-21T10:42:21Z</time>
      </trkpt>
      <trkpt lat="47.19607" lon="5.93166">
        <ele>263</ele>
        <time>2021-06-21T10:42:22Z</time>
      </trkpt>
      <trkpt lat="47.19611" lon="5.93169">
        <ele>263</ele>
        <time>2021-06-21T10:42:23Z</time>
      </trkpt>
      <trkpt lat="47.19615" lon="5.93171">
        <ele>263</ele>
        <time>2021-06-21T10:42:24Z</time>
      </trkpt>
      <trkpt lat="47.19619" lon="5.93173">
        <ele>262.8</ele>
        <time>2021-06-21T10:42:25Z</time>
      </trkpt>
      <trkpt lat="47.19626" lon="5.93176">
        <ele>262.4</ele>
        <time>2021-06-21T10:42:26Z</time>
      </trkpt>
      <trkpt lat="47.1963" lon="5.9318">
        <ele>262.2</ele>
        <time>2021-06-21T10:42:27Z</time>
      </trkpt>
      <trkpt lat="47.19635" lon="5.93183">
        <ele>262</ele>
        <time>2021-06-21T10:42:28Z</time>
      </trkpt>
      <trkpt lat="47.19649" lon="5.9319">
        <ele>261.6</ele>
        <time>2021-06-21T10:42:31Z</time>
      </trkpt>
      <trkpt lat="47.19653" lon="5.93193">
        <ele>261</ele>
        <time>2021-06-21T10:42:32Z</time>
      </trkpt>
      <trkpt lat="47.19657" lon="5.93194">
        <ele>261</ele>
        <time>2021-06-21T10:42:33Z</time>
      </trkpt>
      <trkpt lat="47.1966" lon="5.93196">
        <ele>261</ele>
        <time>2021-06-21T10:42:34Z</time>
      </trkpt>
      <trkpt lat="47.19663" lon="5.93197">
        <ele>261</ele>
        <time>2021-06-21T10:42:35Z</time>
      </trkpt>
      <trkpt lat="47.19666" lon="5.93199">
        <ele>261</ele>
        <time>2021-06-21T10:42:36Z</time>
      </trkpt>
      <trkpt lat="47.19669" lon="5.932">
        <ele>261</ele>
        <time>2021-06-21T10:42:37Z</time>
      </trkpt>
      <trkpt lat="47.19673" lon="5.93202">
        <ele>261</ele>
        <time>2021-06-21T10:42:38Z</time>
      </trkpt>
      <trkpt lat="47.19676" lon="5.93203">
        <ele>261</ele>
        <time>2021-06-21T10:42:39Z</time>
      </trkpt>
      <trkpt lat="47.19681" lon="5.93206">
        <ele>261.2</ele>
        <time>2021-06-21T10:42:41Z</time>
      </trkpt>
      <trkpt lat="47.19684" lon="5.93208">
        <ele>261.2</ele>
        <time>2021-06-21T10:42:42Z</time>
      </trkpt>
      <trkpt lat="47.19687" lon="5.9321">
        <ele>261.2</ele>
        <time>2021-06-21T10:42:43Z</time>
      </trkpt>
      <trkpt lat="47.1969" lon="5.93212">
        <ele>261.4</ele>
        <time>2021-06-21T10:42:44Z</time>
      </trkpt>
      <trkpt lat="47.19693" lon="5.93214">
        <ele>261.4</ele>
        <time>2021-06-21T10:42:45Z</time>
      </trkpt>
      <trkpt lat="47.19696" lon="5.93215">
        <ele>261.6</ele>
        <time>2021-06-21T10:42:46Z</time>
      </trkpt>
      <trkpt lat="47.19699" lon="5.93217">
        <ele>261.8</ele>
        <time>2021-06-21T10:42:47Z</time>
      </trkpt>
      <trkpt lat="47.19702" lon="5.93218">
        <ele>262.2</ele>
        <time>2021-06-21T10:42:48Z</time>
      </trkpt>
      <trkpt lat="47.19704" lon="5.9322">
        <ele>262.4</ele>
        <time>2021-06-21T10:42:49Z</time>
      </trkpt>
      <trkpt lat="47.19707" lon="5.93221">
        <ele>262.4</ele>
        <time>2021-06-21T10:42:50Z</time>
      </trkpt>
      <trkpt lat="47.1971" lon="5.93223">
        <ele>262.4</ele>
        <time>2021-06-21T10:42:51Z</time>
      </trkpt>
      <trkpt lat="47.19713" lon="5.93224">
        <ele>262.6</ele>
        <time>2021-06-21T10:42:52Z</time>
      </trkpt>
      <trkpt lat="47.19715" lon="5.93226">
        <ele>262.6</ele>
        <time>2021-06-21T10:42:53Z</time>
      </trkpt>
      <trkpt lat="47.19718" lon="5.93227">
        <ele>262.8</ele>
        <time>2021-06-21T10:42:54Z</time>
      </trkpt>
      <trkpt lat="47.19724" lon="5.93231">
        <ele>263.2</ele>
        <time>2021-06-21T10:42:56Z</time>
      </trkpt>
      <trkpt lat="47.19735" lon="5.93237">
        <ele>264</ele>
        <time>2021-06-21T10:43:00Z</time>
      </trkpt>
      <trkpt lat="47.19744" lon="5.93242">
        <ele>264.2</ele>
        <time>2021-06-21T10:43:03Z</time>
      </trkpt>
      <trkpt lat="47.1975" lon="5.93246">
        <ele>264.6</ele>
        <time>2021-06-21T10:43:05Z</time>
      </trkpt>
      <trkpt lat="47.19753" lon="5.93248">
        <ele>264.8</ele>
        <time>2021-06-21T10:43:06Z</time>
      </trkpt>
      <trkpt lat="47.19756" lon="5.93251">
        <ele>264.8</ele>
        <time>2021-06-21T10:43:07Z</time>
      </trkpt>
      <trkpt lat="47.1976" lon="5.93253">
        <ele>265</ele>
        <time>2021-06-21T10:43:08Z</time>
      </trkpt>
      <trkpt lat="47.19763" lon="5.93255">
        <ele>265</ele>
        <time>2021-06-21T10:43:09Z</time>
      </trkpt>
      <trkpt lat="47.19765" lon="5.93257">
        <ele>265.2</ele>
        <time>2021-06-21T10:43:10Z</time>
      </trkpt>
      <trkpt lat="47.19768" lon="5.93258">
        <ele>265.2</ele>
        <time>2021-06-21T10:43:11Z</time>
      </trkpt>
      <trkpt lat="47.1977" lon="5.93259">
        <ele>265.2</ele>
        <time>2021-06-21T10:43:12Z</time>
      </trkpt>
      <trkpt lat="47.19773" lon="5.93261">
        <ele>265.2</ele>
        <time>2021-06-21T10:43:13Z</time>
      </trkpt>
      <trkpt lat="47.19776" lon="5.93263">
        <ele>265.4</ele>
        <time>2021-06-21T10:43:14Z</time>
      </trkpt>
      <trkpt lat="47.19779" lon="5.93265">
        <ele>265.4</ele>
        <time>2021-06-21T10:43:15Z</time>
      </trkpt>
      <trkpt lat="47.19781" lon="5.93267">
        <ele>265.4</ele>
        <time>2021-06-21T10:43:16Z</time>
      </trkpt>
      <trkpt lat="47.19784" lon="5.93268">
        <ele>265.4</ele>
        <time>2021-06-21T10:43:17Z</time>
      </trkpt>
      <trkpt lat="47.19787" lon="5.9327">
        <ele>265.4</ele>
        <time>2021-06-21T10:43:18Z</time>
      </trkpt>
      <trkpt lat="47.1979" lon="5.93272">
        <ele>265.4</ele>
        <time>2021-06-21T10:43:19Z</time>
      </trkpt>
      <trkpt lat="47.19794" lon="5.93273">
        <ele>265.4</ele>
        <time>2021-06-21T10:43:20Z</time>
      </trkpt>
      <trkpt lat="47.19797" lon="5.93275">
        <ele>265.6</ele>
        <time>2021-06-21T10:43:21Z</time>
      </trkpt>
      <trkpt lat="47.198" lon="5.93276">
        <ele>265.6</ele>
        <time>2021-06-21T10:43:22Z</time>
      </trkpt>
      <trkpt lat="47.19819" lon="5.93287">
        <ele>266.4</ele>
        <time>2021-06-21T10:43:29Z</time>
      </trkpt>
      <trkpt lat="47.19823" lon="5.9329">
        <ele>266.6</ele>
        <time>2021-06-21T10:43:30Z</time>
      </trkpt>
      <trkpt lat="47.19839" lon="5.93299">
        <ele>267</ele>
        <time>2021-06-21T10:43:35Z</time>
      </trkpt>
      <trkpt lat="47.19852" lon="5.93306">
        <ele>267</ele>
        <time>2021-06-21T10:43:39Z</time>
      </trkpt>
      <trkpt lat="47.19886" lon="5.93326">
        <ele>267.4</ele>
        <time>2021-06-21T10:43:49Z</time>
      </trkpt>
      <trkpt lat="47.19915" lon="5.93342">
        <ele>267.8</ele>
        <time>2021-06-21T10:43:57Z</time>
      </trkpt>
      <trkpt lat="47.19952" lon="5.93365">
        <ele>268.4</ele>
        <time>2021-06-21T10:44:08Z</time>
      </trkpt>
      <trkpt lat="47.19962" lon="5.93369">
        <ele>268.6</ele>
        <time>2021-06-21T10:44:11Z</time>
      </trkpt>
      <trkpt lat="47.19964" lon="5.93371">
        <ele>268.8</ele>
        <time>2021-06-21T10:44:12Z</time>
      </trkpt>
      <trkpt lat="47.19969" lon="5.93374">
        <ele>269</ele>
        <time>2021-06-21T10:44:13Z</time>
      </trkpt>
      <trkpt lat="47.19972" lon="5.93376">
        <ele>269</ele>
        <time>2021-06-21T10:44:14Z</time>
      </trkpt>
      <trkpt lat="47.19978" lon="5.93378">
        <ele>269.2</ele>
        <time>2021-06-21T10:44:16Z</time>
      </trkpt>
      <trkpt lat="47.19983" lon="5.93381">
        <ele>269.6</ele>
        <time>2021-06-21T10:44:18Z</time>
      </trkpt>
      <trkpt lat="47.19992" lon="5.93386">
        <ele>270</ele>
        <time>2021-06-21T10:44:21Z</time>
      </trkpt>
      <trkpt lat="47.19995" lon="5.93388">
        <ele>270.2</ele>
        <time>2021-06-21T10:44:22Z</time>
      </trkpt>
      <trkpt lat="47.19999" lon="5.9339">
        <ele>270.2</ele>
        <time>2021-06-21T10:44:23Z</time>
      </trkpt>
      <trkpt lat="47.20002" lon="5.93392">
        <ele>270.2</ele>
        <time>2021-06-21T10:44:24Z</time>
      </trkpt>
      <trkpt lat="47.20005" lon="5.93393">
        <ele>270.4</ele>
        <time>2021-06-21T10:44:25Z</time>
      </trkpt>
      <trkpt lat="47.20019" lon="5.93401">
        <ele>270.6</ele>
        <time>2021-06-21T10:44:29Z</time>
      </trkpt>
      <trkpt lat="47.20033" lon="5.9341">
        <ele>270.6</ele>
        <time>2021-06-21T10:44:33Z</time>
      </trkpt>
      <trkpt lat="47.20057" lon="5.93424">
        <ele>270.8</ele>
        <time>2021-06-21T10:44:40Z</time>
      </trkpt>
      <trkpt lat="47.20061" lon="5.93426">
        <ele>270.8</ele>
        <time>2021-06-21T10:44:41Z</time>
      </trkpt>
      <trkpt lat="47.20068" lon="5.9343">
        <ele>270.8</ele>
        <time>2021-06-21T10:44:43Z</time>
      </trkpt>
      <trkpt lat="47.20096" lon="5.93446">
        <ele>271</ele>
        <time>2021-06-21T10:44:51Z</time>
      </trkpt>
      <trkpt lat="47.20112" lon="5.93457">
        <ele>271.2</ele>
        <time>2021-06-21T10:44:55Z</time>
      </trkpt>
      <trkpt lat="47.20121" lon="5.93463">
        <ele>271.4</ele>
        <time>2021-06-21T10:44:57Z</time>
      </trkpt>
      <trkpt lat="47.20128" lon="5.93468">
        <ele>271.4</ele>
        <time>2021-06-21T10:44:59Z</time>
      </trkpt>
      <trkpt lat="47.20135" lon="5.93471">
        <ele>271.4</ele>
        <time>2021-06-21T10:45:01Z</time>
      </trkpt>
      <trkpt lat="47.20139" lon="5.93473">
        <ele>271.4</ele>
        <time>2021-06-21T10:45:02Z</time>
      </trkpt>
      <trkpt lat="47.20142" lon="5.93475">
        <ele>271.4</ele>
        <time>2021-06-21T10:45:03Z</time>
      </trkpt>
      <trkpt lat="47.20144" lon="5.93476">
        <ele>271.8</ele>
        <time>2021-06-21T10:45:04Z</time>
      </trkpt>
      <trkpt lat="47.20147" lon="5.93478">
        <ele>272</ele>
        <time>2021-06-21T10:45:05Z</time>
      </trkpt>
      <trkpt lat="47.20155" lon="5.93482">
        <ele>272.2</ele>
        <time>2021-06-21T10:45:07Z</time>
      </trkpt>
      <trkpt lat="47.20159" lon="5.93484">
        <ele>272.4</ele>
        <time>2021-06-21T10:45:08Z</time>
      </trkpt>
      <trkpt lat="47.20162" lon="5.93486">
        <ele>272.4</ele>
        <time>2021-06-21T10:45:09Z</time>
      </trkpt>
      <trkpt lat="47.20177" lon="5.93494">
        <ele>273</ele>
        <time>2021-06-21T10:45:13Z</time>
      </trkpt>
      <trkpt lat="47.20187" lon="5.93499">
        <ele>273.4</ele>
        <time>2021-06-21T10:45:16Z</time>
      </trkpt>
      <trkpt lat="47.2019" lon="5.93501">
        <ele>273.4</ele>
        <time>2021-06-21T10:45:17Z</time>
      </trkpt>
      <trkpt lat="47.20202" lon="5.93509">
        <ele>273.6</ele>
        <time>2021-06-21T10:45:21Z</time>
      </trkpt>
      <trkpt lat="47.20226" lon="5.93522">
        <ele>274.2</ele>
        <time>2021-06-21T10:45:27Z</time>
      </trkpt>
      <trkpt lat="47.20233" lon="5.93525">
        <ele>274.2</ele>
        <time>2021-06-21T10:45:29Z</time>
      </trkpt>
      <trkpt lat="47.20256" lon="5.93536">
        <ele>274.4</ele>
        <time>2021-06-21T10:45:35Z</time>
      </trkpt>
      <trkpt lat="47.20273" lon="5.93548">
        <ele>274.6</ele>
        <time>2021-06-21T10:45:39Z</time>
      </trkpt>
      <trkpt lat="47.20276" lon="5.93551">
        <ele>274.6</ele>
        <time>2021-06-21T10:45:40Z</time>
      </trkpt>
      <trkpt lat="47.2028" lon="5.93553">
        <ele>274.8</ele>
        <time>2021-06-21T10:45:41Z</time>
      </trkpt>
      <trkpt lat="47.20284" lon="5.93556">
        <ele>274.8</ele>
        <time>2021-06-21T10:45:42Z</time>
      </trkpt>
      <trkpt lat="47.20287" lon="5.93558">
        <ele>274.8</ele>
        <time>2021-06-21T10:45:43Z</time>
      </trkpt>
      <trkpt lat="47.20295" lon="5.93563">
        <ele>274.8</ele>
        <time>2021-06-21T10:45:45Z</time>
      </trkpt>
      <trkpt lat="47.20297" lon="5.93565">
        <ele>274.8</ele>
        <time>2021-06-21T10:45:46Z</time>
      </trkpt>
      <trkpt lat="47.20304" lon="5.93568">
        <ele>275</ele>
        <time>2021-06-21T10:45:48Z</time>
      </trkpt>
      <trkpt lat="47.20308" lon="5.93571">
        <ele>275</ele>
        <time>2021-06-21T10:45:49Z</time>
      </trkpt>
      <trkpt lat="47.2031" lon="5.93573">
        <ele>275.2</ele>
        <time>2021-06-21T10:45:50Z</time>
      </trkpt>
      <trkpt lat="47.20314" lon="5.93575">
        <ele>275.2</ele>
        <time>2021-06-21T10:45:51Z</time>
      </trkpt>
      <trkpt lat="47.20317" lon="5.93577">
        <ele>275.4</ele>
        <time>2021-06-21T10:45:52Z</time>
      </trkpt>
      <trkpt lat="47.2033" lon="5.93585">
        <ele>276</ele>
        <time>2021-06-21T10:45:56Z</time>
      </trkpt>
      <trkpt lat="47.20336" lon="5.93589">
        <ele>276.2</ele>
        <time>2021-06-21T10:45:58Z</time>
      </trkpt>
      <trkpt lat="47.20339" lon="5.93592">
        <ele>276.4</ele>
        <time>2021-06-21T10:45:59Z</time>
      </trkpt>
      <trkpt lat="47.20362" lon="5.93604">
        <ele>277</ele>
        <time>2021-06-21T10:46:06Z</time>
      </trkpt>
      <trkpt lat="47.20364" lon="5.93606">
        <ele>277.2</ele>
        <time>2021-06-21T10:46:07Z</time>
      </trkpt>
      <trkpt lat="47.20371" lon="5.93611">
        <ele>277.4</ele>
        <time>2021-06-21T10:46:09Z</time>
      </trkpt>
      <trkpt lat="47.20377" lon="5.93614">
        <ele>277.8</ele>
        <time>2021-06-21T10:46:11Z</time>
      </trkpt>
      <trkpt lat="47.2038" lon="5.93615">
        <ele>278.6</ele>
        <time>2021-06-21T10:46:12Z</time>
      </trkpt>
      <trkpt lat="47.20384" lon="5.93618">
        <ele>278.8</ele>
        <time>2021-06-21T10:46:13Z</time>
      </trkpt>
      <trkpt lat="47.20386" lon="5.93619">
        <ele>279</ele>
        <time>2021-06-21T10:46:14Z</time>
      </trkpt>
      <trkpt lat="47.20389" lon="5.93622">
        <ele>279.2</ele>
        <time>2021-06-21T10:46:15Z</time>
      </trkpt>
      <trkpt lat="47.20391" lon="5.93623">
        <ele>279.4</ele>
        <time>2021-06-21T10:46:16Z</time>
      </trkpt>
      <trkpt lat="47.20394" lon="5.93626">
        <ele>279.4</ele>
        <time>2021-06-21T10:46:17Z</time>
      </trkpt>
      <trkpt lat="47.20397" lon="5.93628">
        <ele>279.4</ele>
        <time>2021-06-21T10:46:18Z</time>
      </trkpt>
      <trkpt lat="47.204" lon="5.9363">
        <ele>279.4</ele>
        <time>2021-06-21T10:46:19Z</time>
      </trkpt>
      <trkpt lat="47.20402" lon="5.93631">
        <ele>279.4</ele>
        <time>2021-06-21T10:46:20Z</time>
      </trkpt>
      <trkpt lat="47.20404" lon="5.93632">
        <ele>279.4</ele>
        <time>2021-06-21T10:46:21Z</time>
      </trkpt>
      <trkpt lat="47.20407" lon="5.93634">
        <ele>279.4</ele>
        <time>2021-06-21T10:46:22Z</time>
      </trkpt>
      <trkpt lat="47.2041" lon="5.93636">
        <ele>279.6</ele>
        <time>2021-06-21T10:46:23Z</time>
      </trkpt>
      <trkpt lat="47.20413" lon="5.93637">
        <ele>279.6</ele>
        <time>2021-06-21T10:46:24Z</time>
      </trkpt>
      <trkpt lat="47.20415" lon="5.93639">
        <ele>279.8</ele>
        <time>2021-06-21T10:46:25Z</time>
      </trkpt>
      <trkpt lat="47.20417" lon="5.93641">
        <ele>280.2</ele>
        <time>2021-06-21T10:46:26Z</time>
      </trkpt>
      <trkpt lat="47.20419" lon="5.93642">
        <ele>280.4</ele>
        <time>2021-06-21T10:46:27Z</time>
      </trkpt>
      <trkpt lat="47.20422" lon="5.93643">
        <ele>281</ele>
        <time>2021-06-21T10:46:28Z</time>
      </trkpt>
      <trkpt lat="47.20424" lon="5.93645">
        <ele>281.2</ele>
        <time>2021-06-21T10:46:29Z</time>
      </trkpt>
      <trkpt lat="47.20427" lon="5.93646">
        <ele>281.6</ele>
        <time>2021-06-21T10:46:30Z</time>
      </trkpt>
      <trkpt lat="47.20429" lon="5.93648">
        <ele>281.8</ele>
        <time>2021-06-21T10:46:31Z</time>
      </trkpt>
      <trkpt lat="47.20432" lon="5.93649">
        <ele>282</ele>
        <time>2021-06-21T10:46:32Z</time>
      </trkpt>
      <trkpt lat="47.20434" lon="5.93651">
        <ele>282.2</ele>
        <time>2021-06-21T10:46:33Z</time>
      </trkpt>
      <trkpt lat="47.20436" lon="5.93652">
        <ele>282.4</ele>
        <time>2021-06-21T10:46:34Z</time>
      </trkpt>
      <trkpt lat="47.20438" lon="5.93654">
        <ele>282.6</ele>
        <time>2021-06-21T10:46:35Z</time>
      </trkpt>
      <trkpt lat="47.20441" lon="5.93655">
        <ele>282.8</ele>
        <time>2021-06-21T10:46:36Z</time>
      </trkpt>
      <trkpt lat="47.20444" lon="5.93656">
        <ele>282.8</ele>
        <time>2021-06-21T10:46:37Z</time>
      </trkpt>
      <trkpt lat="47.20446" lon="5.93657">
        <ele>283.2</ele>
        <time>2021-06-21T10:46:38Z</time>
      </trkpt>
      <trkpt lat="47.20449" lon="5.93658">
        <ele>283.4</ele>
        <time>2021-06-21T10:46:39Z</time>
      </trkpt>
      <trkpt lat="47.20451" lon="5.93659">
        <ele>283.6</ele>
        <time>2021-06-21T10:46:40Z</time>
      </trkpt>
      <trkpt lat="47.20454" lon="5.9366">
        <ele>283.6</ele>
        <time>2021-06-21T10:46:41Z</time>
      </trkpt>
      <trkpt lat="47.20456" lon="5.93661">
        <ele>284</ele>
        <time>2021-06-21T10:46:42Z</time>
      </trkpt>
      <trkpt lat="47.20458" lon="5.93663">
        <ele>284.2</ele>
        <time>2021-06-21T10:46:43Z</time>
      </trkpt>
      <trkpt lat="47.2046" lon="5.93663">
        <ele>284.6</ele>
        <time>2021-06-21T10:46:44Z</time>
      </trkpt>
      <trkpt lat="47.20462" lon="5.93664">
        <ele>284.8</ele>
        <time>2021-06-21T10:46:45Z</time>
      </trkpt>
      <trkpt lat="47.20464" lon="5.93664">
        <ele>284.8</ele>
        <time>2021-06-21T10:46:46Z</time>
      </trkpt>
      <trkpt lat="47.20466" lon="5.93665">
        <ele>285</ele>
        <time>2021-06-21T10:46:47Z</time>
      </trkpt>
      <trkpt lat="47.20468" lon="5.93666">
        <ele>285</ele>
        <time>2021-06-21T10:46:48Z</time>
      </trkpt>
      <trkpt lat="47.20471" lon="5.93667">
        <ele>285.2</ele>
        <time>2021-06-21T10:46:49Z</time>
      </trkpt>
      <trkpt lat="47.20472" lon="5.93668">
        <ele>285.6</ele>
        <time>2021-06-21T10:46:50Z</time>
      </trkpt>
      <trkpt lat="47.20476" lon="5.93671">
        <ele>285.8</ele>
        <time>2021-06-21T10:46:51Z</time>
      </trkpt>
      <trkpt lat="47.20479" lon="5.93672">
        <ele>286.2</ele>
        <time>2021-06-21T10:46:52Z</time>
      </trkpt>
      <trkpt lat="47.20481" lon="5.93673">
        <ele>286.2</ele>
        <time>2021-06-21T10:46:53Z</time>
      </trkpt>
      <trkpt lat="47.20483" lon="5.93674">
        <ele>286.6</ele>
        <time>2021-06-21T10:46:54Z</time>
      </trkpt>
      <trkpt lat="47.20485" lon="5.93675">
        <ele>286.6</ele>
        <time>2021-06-21T10:46:55Z</time>
      </trkpt>
      <trkpt lat="47.20487" lon="5.93676">
        <ele>286.8</ele>
        <time>2021-06-21T10:46:56Z</time>
      </trkpt>
      <trkpt lat="47.20489" lon="5.93677">
        <ele>287</ele>
        <time>2021-06-21T10:46:57Z</time>
      </trkpt>
      <trkpt lat="47.20491" lon="5.93678">
        <ele>286.8</ele>
        <time>2021-06-21T10:46:58Z</time>
      </trkpt>
      <trkpt lat="47.20493" lon="5.93679">
        <ele>287.2</ele>
        <time>2021-06-21T10:46:59Z</time>
      </trkpt>
      <trkpt lat="47.20496" lon="5.9368">
        <ele>287.2</ele>
        <time>2021-06-21T10:47:00Z</time>
      </trkpt>
      <trkpt lat="47.20498" lon="5.93681">
        <ele>287.2</ele>
        <time>2021-06-21T10:47:01Z</time>
      </trkpt>
      <trkpt lat="47.205" lon="5.93682">
        <ele>287.4</ele>
        <time>2021-06-21T10:47:02Z</time>
      </trkpt>
      <trkpt lat="47.20503" lon="5.93683">
        <ele>287.6</ele>
        <time>2021-06-21T10:47:03Z</time>
      </trkpt>
      <trkpt lat="47.20505" lon="5.93684">
        <ele>287.8</ele>
        <time>2021-06-21T10:47:04Z</time>
      </trkpt>
      <trkpt lat="47.20507" lon="5.93685">
        <ele>288.2</ele>
        <time>2021-06-21T10:47:05Z</time>
      </trkpt>
      <trkpt lat="47.20509" lon="5.93687">
        <ele>288.4</ele>
        <time>2021-06-21T10:47:06Z</time>
      </trkpt>
      <trkpt lat="47.20511" lon="5.93688">
        <ele>288.6</ele>
        <time>2021-06-21T10:47:07Z</time>
      </trkpt>
      <trkpt lat="47.20512" lon="5.9369">
        <ele>288.8</ele>
        <time>2021-06-21T10:47:08Z</time>
      </trkpt>
      <trkpt lat="47.20514" lon="5.9369">
        <ele>288.8</ele>
        <time>2021-06-21T10:47:09Z</time>
      </trkpt>
      <trkpt lat="47.20516" lon="5.93691">
        <ele>289.4</ele>
        <time>2021-06-21T10:47:10Z</time>
      </trkpt>
      <trkpt lat="47.20518" lon="5.93692">
        <ele>289.6</ele>
        <time>2021-06-21T10:47:11Z</time>
      </trkpt>
      <trkpt lat="47.20521" lon="5.93693">
        <ele>289.8</ele>
        <time>2021-06-21T10:47:12Z</time>
      </trkpt>
      <trkpt lat="47.20522" lon="5.93694">
        <ele>289.8</ele>
        <time>2021-06-21T10:47:13Z</time>
      </trkpt>
      <trkpt lat="47.20523" lon="5.93695">
        <ele>290</ele>
        <time>2021-06-21T10:47:14Z</time>
      </trkpt>
      <trkpt lat="47.20525" lon="5.93695">
        <ele>290.2</ele>
        <time>2021-06-21T10:47:15Z</time>
      </trkpt>
      <trkpt lat="47.20526" lon="5.93696">
        <ele>290.2</ele>
        <time>2021-06-21T10:47:16Z</time>
      </trkpt>
      <trkpt lat="47.20529" lon="5.93698">
        <ele>290.4</ele>
        <time>2021-06-21T10:47:17Z</time>
      </trkpt>
      <trkpt lat="47.20531" lon="5.93699">
        <ele>290.6</ele>
        <time>2021-06-21T10:47:18Z</time>
      </trkpt>
      <trkpt lat="47.20533" lon="5.93701">
        <ele>290.6</ele>
        <time>2021-06-21T10:47:19Z</time>
      </trkpt>
      <trkpt lat="47.20535" lon="5.93702">
        <ele>290.8</ele>
        <time>2021-06-21T10:47:20Z</time>
      </trkpt>
      <trkpt lat="47.20537" lon="5.93703">
        <ele>290.8</ele>
        <time>2021-06-21T10:47:21Z</time>
      </trkpt>
      <trkpt lat="47.20539" lon="5.93705">
        <ele>291</ele>
        <time>2021-06-21T10:47:22Z</time>
      </trkpt>
      <trkpt lat="47.20541" lon="5.93706">
        <ele>291</ele>
        <time>2021-06-21T10:47:23Z</time>
      </trkpt>
      <trkpt lat="47.20543" lon="5.93707">
        <ele>291.2</ele>
        <time>2021-06-21T10:47:24Z</time>
      </trkpt>
      <trkpt lat="47.20545" lon="5.93707">
        <ele>291.2</ele>
        <time>2021-06-21T10:47:25Z</time>
      </trkpt>
      <trkpt lat="47.20547" lon="5.93708">
        <ele>291.4</ele>
        <time>2021-06-21T10:47:26Z</time>
      </trkpt>
      <trkpt lat="47.20548" lon="5.93708">
        <ele>291.6</ele>
        <time>2021-06-21T10:47:27Z</time>
      </trkpt>
      <trkpt lat="47.2055" lon="5.93709">
        <ele>291.6</ele>
        <time>2021-06-21T10:47:28Z</time>
      </trkpt>
      <trkpt lat="47.20552" lon="5.9371">
        <ele>291.8</ele>
        <time>2021-06-21T10:47:29Z</time>
      </trkpt>
      <trkpt lat="47.20554" lon="5.93711">
        <ele>292</ele>
        <time>2021-06-21T10:47:30Z</time>
      </trkpt>
      <trkpt lat="47.20556" lon="5.93713">
        <ele>292</ele>
        <time>2021-06-21T10:47:31Z</time>
      </trkpt>
      <trkpt lat="47.20558" lon="5.93714">
        <ele>292.2</ele>
        <time>2021-06-21T10:47:32Z</time>
      </trkpt>
      <trkpt lat="47.20559" lon="5.93715">
        <ele>292.2</ele>
        <time>2021-06-21T10:47:33Z</time>
      </trkpt>
      <trkpt lat="47.20562" lon="5.93716">
        <ele>292.2</ele>
        <time>2021-06-21T10:47:34Z</time>
      </trkpt>
      <trkpt lat="47.20564" lon="5.93718">
        <ele>292.2</ele>
        <time>2021-06-21T10:47:35Z</time>
      </trkpt>
      <trkpt lat="47.20566" lon="5.93719">
        <ele>292.4</ele>
        <time>2021-06-21T10:47:36Z</time>
      </trkpt>
      <trkpt lat="47.20569" lon="5.93719">
        <ele>292.4</ele>
        <time>2021-06-21T10:47:37Z</time>
      </trkpt>
      <trkpt lat="47.20571" lon="5.93719">
        <ele>292.6</ele>
        <time>2021-06-21T10:47:38Z</time>
      </trkpt>
      <trkpt lat="47.20572" lon="5.93719">
        <ele>292.6</ele>
        <time>2021-06-21T10:47:39Z</time>
      </trkpt>
      <trkpt lat="47.20573" lon="5.93718">
        <ele>292.6</ele>
        <time>2021-06-21T10:47:40Z</time>
      </trkpt>
      <trkpt lat="47.20574" lon="5.93717">
        <ele>292.8</ele>
        <time>2021-06-21T10:47:41Z</time>
      </trkpt>
      <trkpt lat="47.20575" lon="5.93716">
        <ele>293</ele>
        <time>2021-06-21T10:47:42Z</time>
      </trkpt>
      <trkpt lat="47.20576" lon="5.93717">
        <ele>293</ele>
        <time>2021-06-21T10:47:43Z</time>
      </trkpt>
      <trkpt lat="47.20577" lon="5.93717">
        <ele>293</ele>
        <time>2021-06-21T10:47:44Z</time>
      </trkpt>
      <trkpt lat="47.20577" lon="5.93716">
        <ele>293</ele>
        <time>2021-06-21T10:47:45Z</time>
      </trkpt>
      <trkpt lat="47.20579" lon="5.93716">
        <ele>293.2</ele>
        <time>2021-06-21T10:47:46Z</time>
      </trkpt>
      <trkpt lat="47.2058" lon="5.93716">
        <ele>293.2</ele>
        <time>2021-06-21T10:47:47Z</time>
      </trkpt>
      <trkpt lat="47.20581" lon="5.93715">
        <ele>293.2</ele>
        <time>2021-06-21T10:47:48Z</time>
      </trkpt>
      <trkpt lat="47.20583" lon="5.93715">
        <ele>293.2</ele>
        <time>2021-06-21T10:47:49Z</time>
      </trkpt>
      <trkpt lat="47.20583" lon="5.93715">
        <ele>293.2</ele>
        <time>2021-06-21T10:47:50Z</time>
      </trkpt>
      <trkpt lat="47.20583" lon="5.93715">
        <ele>293.4</ele>
        <time>2021-06-21T10:47:53Z</time>
      </trkpt>
      <trkpt lat="47.20583" lon="5.93715">
        <ele>293.4</ele>
        <time>2021-06-21T10:48:00Z</time>
      </trkpt>
      <trkpt lat="47.20584" lon="5.93711">
        <ele>293.4</ele>
        <time>2021-06-21T10:48:02Z</time>
      </trkpt>
      <trkpt lat="47.20586" lon="5.93706">
        <ele>293.4</ele>
        <time>2021-06-21T10:48:04Z</time>
      </trkpt>
      <trkpt lat="47.2059" lon="5.93704">
        <ele>293.4</ele>
        <time>2021-06-21T10:48:06Z</time>
      </trkpt>
      <trkpt lat="47.20592" lon="5.937">
        <ele>293.4</ele>
        <time>2021-06-21T10:48:07Z</time>
      </trkpt>
      <trkpt lat="47.20594" lon="5.93697">
        <ele>293.4</ele>
        <time>2021-06-21T10:48:08Z</time>
      </trkpt>
      <trkpt lat="47.20597" lon="5.93695">
        <ele>293.4</ele>
        <time>2021-06-21T10:48:09Z</time>
      </trkpt>
      <trkpt lat="47.20602" lon="5.93686">
        <ele>293.4</ele>
        <time>2021-06-21T10:48:11Z</time>
      </trkpt>
      <trkpt lat="47.20604" lon="5.93682">
        <ele>293.4</ele>
        <time>2021-06-21T10:48:12Z</time>
      </trkpt>
      <trkpt lat="47.20609" lon="5.93674">
        <ele>293</ele>
        <time>2021-06-21T10:48:14Z</time>
      </trkpt>
      <trkpt lat="47.20613" lon="5.93671">
        <ele>293</ele>
        <time>2021-06-21T10:48:15Z</time>
      </trkpt>
      <trkpt lat="47.20617" lon="5.9367">
        <ele>292.8</ele>
        <time>2021-06-21T10:48:16Z</time>
      </trkpt>
      <trkpt lat="47.20624" lon="5.93668">
        <ele>292.6</ele>
        <time>2021-06-21T10:48:17Z</time>
      </trkpt>
      <trkpt lat="47.20629" lon="5.93665">
        <ele>292.2</ele>
        <time>2021-06-21T10:48:18Z</time>
      </trkpt>
      <trkpt lat="47.20635" lon="5.93659">
        <ele>292.2</ele>
        <time>2021-06-21T10:48:19Z</time>
      </trkpt>
      <trkpt lat="47.20638" lon="5.93656">
        <ele>291.8</ele>
        <time>2021-06-21T10:48:20Z</time>
      </trkpt>
      <trkpt lat="47.20641" lon="5.93653">
        <ele>291.4</ele>
        <time>2021-06-21T10:48:21Z</time>
      </trkpt>
      <trkpt lat="47.20644" lon="5.93651">
        <ele>291.4</ele>
        <time>2021-06-21T10:48:22Z</time>
      </trkpt>
      <trkpt lat="47.20647" lon="5.93648">
        <ele>291</ele>
        <time>2021-06-21T10:48:23Z</time>
      </trkpt>
      <trkpt lat="47.20652" lon="5.93644">
        <ele>290.8</ele>
        <time>2021-06-21T10:48:24Z</time>
      </trkpt>
      <trkpt lat="47.20654" lon="5.9364">
        <ele>290.6</ele>
        <time>2021-06-21T10:48:25Z</time>
      </trkpt>
      <trkpt lat="47.20657" lon="5.93637">
        <ele>290.6</ele>
        <time>2021-06-21T10:48:26Z</time>
      </trkpt>
      <trkpt lat="47.2066" lon="5.93631">
        <ele>290.2</ele>
        <time>2021-06-21T10:48:27Z</time>
      </trkpt>
      <trkpt lat="47.20663" lon="5.93625">
        <ele>290</ele>
        <time>2021-06-21T10:48:28Z</time>
      </trkpt>
      <trkpt lat="47.20676" lon="5.93607">
        <ele>289.6</ele>
        <time>2021-06-21T10:48:31Z</time>
      </trkpt>
      <trkpt lat="47.20682" lon="5.93602">
        <ele>288.6</ele>
        <time>2021-06-21T10:48:32Z</time>
      </trkpt>
      <trkpt lat="47.20687" lon="5.93594">
        <ele>288.2</ele>
        <time>2021-06-21T10:48:33Z</time>
      </trkpt>
      <trkpt lat="47.20693" lon="5.93578">
        <ele>287.2</ele>
        <time>2021-06-21T10:48:35Z</time>
      </trkpt>
      <trkpt lat="47.20697" lon="5.93572">
        <ele>287.2</ele>
        <time>2021-06-21T10:48:36Z</time>
      </trkpt>
      <trkpt lat="47.20704" lon="5.93567">
        <ele>286.8</ele>
        <time>2021-06-21T10:48:37Z</time>
      </trkpt>
      <trkpt lat="47.20708" lon="5.93565">
        <ele>286.4</ele>
        <time>2021-06-21T10:48:38Z</time>
      </trkpt>
      <trkpt lat="47.20712" lon="5.93563">
        <ele>285.6</ele>
        <time>2021-06-21T10:48:39Z</time>
      </trkpt>
      <trkpt lat="47.20715" lon="5.93557">
        <ele>285.2</ele>
        <time>2021-06-21T10:48:40Z</time>
      </trkpt>
      <trkpt lat="47.20719" lon="5.93554">
        <ele>284.4</ele>
        <time>2021-06-21T10:48:41Z</time>
      </trkpt>
      <trkpt lat="47.20722" lon="5.93551">
        <ele>283.8</ele>
        <time>2021-06-21T10:48:42Z</time>
      </trkpt>
      <trkpt lat="47.20729" lon="5.93545">
        <ele>283.4</ele>
        <time>2021-06-21T10:48:44Z</time>
      </trkpt>
      <trkpt lat="47.20734" lon="5.93543">
        <ele>283.2</ele>
        <time>2021-06-21T10:48:45Z</time>
      </trkpt>
      <trkpt lat="47.2074" lon="5.93539">
        <ele>282.6</ele>
        <time>2021-06-21T10:48:46Z</time>
      </trkpt>
      <trkpt lat="47.2075" lon="5.93533">
        <ele>281.6</ele>
        <time>2021-06-21T10:48:48Z</time>
      </trkpt>
      <trkpt lat="47.20755" lon="5.9353">
        <ele>281</ele>
        <time>2021-06-21T10:48:49Z</time>
      </trkpt>
      <trkpt lat="47.20759" lon="5.93526">
        <ele>280.8</ele>
        <time>2021-06-21T10:48:50Z</time>
      </trkpt>
      <trkpt lat="47.20764" lon="5.93524">
        <ele>280.4</ele>
        <time>2021-06-21T10:48:51Z</time>
      </trkpt>
      <trkpt lat="47.20768" lon="5.9352">
        <ele>280</ele>
        <time>2021-06-21T10:48:52Z</time>
      </trkpt>
      <trkpt lat="47.20772" lon="5.93516">
        <ele>279.4</ele>
        <time>2021-06-21T10:48:53Z</time>
      </trkpt>
      <trkpt lat="47.20778" lon="5.93513">
        <ele>279.2</ele>
        <time>2021-06-21T10:48:54Z</time>
      </trkpt>
      <trkpt lat="47.20783" lon="5.9351">
        <ele>278.8</ele>
        <time>2021-06-21T10:48:55Z</time>
      </trkpt>
      <trkpt lat="47.20788" lon="5.93509">
        <ele>278.6</ele>
        <time>2021-06-21T10:48:56Z</time>
      </trkpt>
      <trkpt lat="47.20793" lon="5.93509">
        <ele>278.4</ele>
        <time>2021-06-21T10:48:57Z</time>
      </trkpt>
      <trkpt lat="47.20797" lon="5.9351">
        <ele>278.2</ele>
        <time>2021-06-21T10:48:58Z</time>
      </trkpt>
      <trkpt lat="47.20802" lon="5.9351">
        <ele>278.2</ele>
        <time>2021-06-21T10:48:59Z</time>
      </trkpt>
      <trkpt lat="47.20807" lon="5.93511">
        <ele>278</ele>
        <time>2021-06-21T10:49:00Z</time>
      </trkpt>
      <trkpt lat="47.20811" lon="5.93512">
        <ele>278</ele>
        <time>2021-06-21T10:49:01Z</time>
      </trkpt>
      <trkpt lat="47.20815" lon="5.93512">
        <ele>278</ele>
        <time>2021-06-21T10:49:02Z</time>
      </trkpt>
      <trkpt lat="47.20819" lon="5.93511">
        <ele>278</ele>
        <time>2021-06-21T10:49:03Z</time>
      </trkpt>
      <trkpt lat="47.20827" lon="5.9351">
        <ele>278</ele>
        <time>2021-06-21T10:49:05Z</time>
      </trkpt>
      <trkpt lat="47.2083" lon="5.9351">
        <ele>278.2</ele>
        <time>2021-06-21T10:49:06Z</time>
      </trkpt>
      <trkpt lat="47.20834" lon="5.9351">
        <ele>278.2</ele>
        <time>2021-06-21T10:49:07Z</time>
      </trkpt>
      <trkpt lat="47.2084" lon="5.93508">
        <ele>278.4</ele>
        <time>2021-06-21T10:49:08Z</time>
      </trkpt>
      <trkpt lat="47.20857" lon="5.93507">
        <ele>278.6</ele>
        <time>2021-06-21T10:49:12Z</time>
      </trkpt>
      <trkpt lat="47.20861" lon="5.93506">
        <ele>278.6</ele>
        <time>2021-06-21T10:49:13Z</time>
      </trkpt>
      <trkpt lat="47.20866" lon="5.93504">
        <ele>279</ele>
        <time>2021-06-21T10:49:15Z</time>
      </trkpt>
      <trkpt lat="47.2087" lon="5.93504">
        <ele>279.2</ele>
        <time>2021-06-21T10:49:16Z</time>
      </trkpt>
      <trkpt lat="47.20874" lon="5.93502">
        <ele>279.4</ele>
        <time>2021-06-21T10:49:17Z</time>
      </trkpt>
      <trkpt lat="47.20884" lon="5.93496">
        <ele>279.6</ele>
        <time>2021-06-21T10:49:20Z</time>
      </trkpt>
      <trkpt lat="47.20887" lon="5.93496">
        <ele>279.8</ele>
        <time>2021-06-21T10:49:21Z</time>
      </trkpt>
      <trkpt lat="47.20889" lon="5.93496">
        <ele>279.8</ele>
        <time>2021-06-21T10:49:22Z</time>
      </trkpt>
      <trkpt lat="47.20892" lon="5.93495">
        <ele>280</ele>
        <time>2021-06-21T10:49:23Z</time>
      </trkpt>
      <trkpt lat="47.20893" lon="5.93493">
        <ele>280</ele>
        <time>2021-06-21T10:49:24Z</time>
      </trkpt>
      <trkpt lat="47.20896" lon="5.93489">
        <ele>280.2</ele>
        <time>2021-06-21T10:49:25Z</time>
      </trkpt>
      <trkpt lat="47.20899" lon="5.93483">
        <ele>280.6</ele>
        <time>2021-06-21T10:49:26Z</time>
      </trkpt>
      <trkpt lat="47.20902" lon="5.93479">
        <ele>280.6</ele>
        <time>2021-06-21T10:49:27Z</time>
      </trkpt>
      <trkpt lat="47.20904" lon="5.93477">
        <ele>280.8</ele>
        <time>2021-06-21T10:49:28Z</time>
      </trkpt>
      <trkpt lat="47.20906" lon="5.93472">
        <ele>281</ele>
        <time>2021-06-21T10:49:29Z</time>
      </trkpt>
      <trkpt lat="47.20907" lon="5.9347">
        <ele>281</ele>
        <time>2021-06-21T10:49:30Z</time>
      </trkpt>
      <trkpt lat="47.20908" lon="5.93469">
        <ele>281.2</ele>
        <time>2021-06-21T10:49:31Z</time>
      </trkpt>
      <trkpt lat="47.20909" lon="5.93468">
        <ele>281.2</ele>
        <time>2021-06-21T10:49:32Z</time>
      </trkpt>
      <trkpt lat="47.20912" lon="5.93468">
        <ele>281.2</ele>
        <time>2021-06-21T10:49:33Z</time>
      </trkpt>
      <trkpt lat="47.20914" lon="5.93467">
        <ele>281.2</ele>
        <time>2021-06-21T10:49:34Z</time>
      </trkpt>
      <trkpt lat="47.20916" lon="5.93464">
        <ele>281.6</ele>
        <time>2021-06-21T10:49:35Z</time>
      </trkpt>
      <trkpt lat="47.20917" lon="5.93461">
        <ele>281.8</ele>
        <time>2021-06-21T10:49:36Z</time>
      </trkpt>
      <trkpt lat="47.20918" lon="5.93459">
        <ele>281.8</ele>
        <time>2021-06-21T10:49:37Z</time>
      </trkpt>
      <trkpt lat="47.20918" lon="5.93455">
        <ele>282</ele>
        <time>2021-06-21T10:49:38Z</time>
      </trkpt>
      <trkpt lat="47.2092" lon="5.93452">
        <ele>282</ele>
        <time>2021-06-21T10:49:39Z</time>
      </trkpt>
      <trkpt lat="47.20922" lon="5.93449">
        <ele>282.2</ele>
        <time>2021-06-21T10:49:40Z</time>
      </trkpt>
      <trkpt lat="47.20924" lon="5.93447">
        <ele>282.2</ele>
        <time>2021-06-21T10:49:41Z</time>
      </trkpt>
      <trkpt lat="47.20925" lon="5.93446">
        <ele>282.4</ele>
        <time>2021-06-21T10:49:42Z</time>
      </trkpt>
      <trkpt lat="47.20927" lon="5.93444">
        <ele>282.6</ele>
        <time>2021-06-21T10:49:43Z</time>
      </trkpt>
      <trkpt lat="47.20929" lon="5.93443">
        <ele>282.6</ele>
        <time>2021-06-21T10:49:44Z</time>
      </trkpt>
      <trkpt lat="47.20932" lon="5.93441">
        <ele>283</ele>
        <time>2021-06-21T10:49:45Z</time>
      </trkpt>
      <trkpt lat="47.20935" lon="5.93441">
        <ele>283.2</ele>
        <time>2021-06-21T10:49:46Z</time>
      </trkpt>
      <trkpt lat="47.20936" lon="5.93438">
        <ele>283.4</ele>
        <time>2021-06-21T10:49:47Z</time>
      </trkpt>
      <trkpt lat="47.20938" lon="5.93435">
        <ele>283.4</ele>
        <time>2021-06-21T10:49:48Z</time>
      </trkpt>
      <trkpt lat="47.20939" lon="5.9343">
        <ele>283.6</ele>
        <time>2021-06-21T10:49:49Z</time>
      </trkpt>
      <trkpt lat="47.2094" lon="5.93425">
        <ele>283.6</ele>
        <time>2021-06-21T10:49:50Z</time>
      </trkpt>
      <trkpt lat="47.20942" lon="5.93421">
        <ele>283.8</ele>
        <time>2021-06-21T10:49:51Z</time>
      </trkpt>
      <trkpt lat="47.20943" lon="5.93418">
        <ele>284</ele>
        <time>2021-06-21T10:49:52Z</time>
      </trkpt>
      <trkpt lat="47.20944" lon="5.93416">
        <ele>284</ele>
        <time>2021-06-21T10:49:53Z</time>
      </trkpt>
      <trkpt lat="47.20946" lon="5.93412">
        <ele>284</ele>
        <time>2021-06-21T10:49:54Z</time>
      </trkpt>
      <trkpt lat="47.20948" lon="5.9341">
        <ele>284.2</ele>
        <time>2021-06-21T10:49:55Z</time>
      </trkpt>
      <trkpt lat="47.20951" lon="5.93407">
        <ele>284.2</ele>
        <time>2021-06-21T10:49:56Z</time>
      </trkpt>
      <trkpt lat="47.20953" lon="5.93404">
        <ele>284.2</ele>
        <time>2021-06-21T10:49:57Z</time>
      </trkpt>
      <trkpt lat="47.20956" lon="5.93399">
        <ele>284.2</ele>
        <time>2021-06-21T10:49:58Z</time>
      </trkpt>
      <trkpt lat="47.20957" lon="5.93396">
        <ele>284.4</ele>
        <time>2021-06-21T10:49:59Z</time>
      </trkpt>
      <trkpt lat="47.20958" lon="5.93393">
        <ele>284.4</ele>
        <time>2021-06-21T10:50:00Z</time>
      </trkpt>
      <trkpt lat="47.20958" lon="5.93389">
        <ele>284.6</ele>
        <time>2021-06-21T10:50:01Z</time>
      </trkpt>
      <trkpt lat="47.20958" lon="5.93388">
        <ele>284.8</ele>
        <time>2021-06-21T10:50:02Z</time>
      </trkpt>
      <trkpt lat="47.20959" lon="5.93386">
        <ele>285</ele>
        <time>2021-06-21T10:50:03Z</time>
      </trkpt>
      <trkpt lat="47.2096" lon="5.93384">
        <ele>285.2</ele>
        <time>2021-06-21T10:50:04Z</time>
      </trkpt>
      <trkpt lat="47.20962" lon="5.93382">
        <ele>285.2</ele>
        <time>2021-06-21T10:50:05Z</time>
      </trkpt>
      <trkpt lat="47.20963" lon="5.93379">
        <ele>285.4</ele>
        <time>2021-06-21T10:50:06Z</time>
      </trkpt>
      <trkpt lat="47.20964" lon="5.93377">
        <ele>285.4</ele>
        <time>2021-06-21T10:50:07Z</time>
      </trkpt>
      <trkpt lat="47.20965" lon="5.93374">
        <ele>285.8</ele>
        <time>2021-06-21T10:50:08Z</time>
      </trkpt>
      <trkpt lat="47.20966" lon="5.93372">
        <ele>285.8</ele>
        <time>2021-06-21T10:50:09Z</time>
      </trkpt>
      <trkpt lat="47.20966" lon="5.9337">
        <ele>286.2</ele>
        <time>2021-06-21T10:50:10Z</time>
      </trkpt>
      <trkpt lat="47.20966" lon="5.93368">
        <ele>286.2</ele>
        <time>2021-06-21T10:50:11Z</time>
      </trkpt>
      <trkpt lat="47.20966" lon="5.93366">
        <ele>286.2</ele>
        <time>2021-06-21T10:50:12Z</time>
      </trkpt>
      <trkpt lat="47.20966" lon="5.93362">
        <ele>286.6</ele>
        <time>2021-06-21T10:50:13Z</time>
      </trkpt>
      <trkpt lat="47.20966" lon="5.93359">
        <ele>286.6</ele>
        <time>2021-06-21T10:50:14Z</time>
      </trkpt>
      <trkpt lat="47.20966" lon="5.93357">
        <ele>286.8</ele>
        <time>2021-06-21T10:50:15Z</time>
      </trkpt>
      <trkpt lat="47.20966" lon="5.93355">
        <ele>286.8</ele>
        <time>2021-06-21T10:50:16Z</time>
      </trkpt>
      <trkpt lat="47.20967" lon="5.93353">
        <ele>287</ele>
        <time>2021-06-21T10:50:17Z</time>
      </trkpt>
      <trkpt lat="47.20967" lon="5.93349">
        <ele>287.2</ele>
        <time>2021-06-21T10:50:18Z</time>
      </trkpt>
      <trkpt lat="47.20967" lon="5.93346">
        <ele>287.2</ele>
        <time>2021-06-21T10:50:19Z</time>
      </trkpt>
      <trkpt lat="47.20968" lon="5.93342">
        <ele>287.2</ele>
        <time>2021-06-21T10:50:20Z</time>
      </trkpt>
      <trkpt lat="47.20969" lon="5.93339">
        <ele>287.2</ele>
        <time>2021-06-21T10:50:21Z</time>
      </trkpt>
      <trkpt lat="47.2097" lon="5.93336">
        <ele>287.4</ele>
        <time>2021-06-21T10:50:22Z</time>
      </trkpt>
      <trkpt lat="47.2097" lon="5.93334">
        <ele>287.6</ele>
        <time>2021-06-21T10:50:23Z</time>
      </trkpt>
      <trkpt lat="47.2097" lon="5.93331">
        <ele>288</ele>
        <time>2021-06-21T10:50:24Z</time>
      </trkpt>
      <trkpt lat="47.2097" lon="5.93325">
        <ele>288.2</ele>
        <time>2021-06-21T10:50:25Z</time>
      </trkpt>
      <trkpt lat="47.20971" lon="5.9332">
        <ele>288.2</ele>
        <time>2021-06-21T10:50:26Z</time>
      </trkpt>
      <trkpt lat="47.20972" lon="5.93316">
        <ele>288.4</ele>
        <time>2021-06-21T10:50:27Z</time>
      </trkpt>
      <trkpt lat="47.20972" lon="5.93311">
        <ele>288.6</ele>
        <time>2021-06-21T10:50:28Z</time>
      </trkpt>
      <trkpt lat="47.20973" lon="5.93306">
        <ele>288.6</ele>
        <time>2021-06-21T10:50:29Z</time>
      </trkpt>
      <trkpt lat="47.20974" lon="5.93301">
        <ele>288.8</ele>
        <time>2021-06-21T10:50:30Z</time>
      </trkpt>
      <trkpt lat="47.20975" lon="5.93297">
        <ele>288.8</ele>
        <time>2021-06-21T10:50:31Z</time>
      </trkpt>
      <trkpt lat="47.20976" lon="5.93293">
        <ele>289</ele>
        <time>2021-06-21T10:50:32Z</time>
      </trkpt>
      <trkpt lat="47.20976" lon="5.9329">
        <ele>289.2</ele>
        <time>2021-06-21T10:50:33Z</time>
      </trkpt>
      <trkpt lat="47.20976" lon="5.93287">
        <ele>289.2</ele>
        <time>2021-06-21T10:50:34Z</time>
      </trkpt>
      <trkpt lat="47.20977" lon="5.93285">
        <ele>289.4</ele>
        <time>2021-06-21T10:50:35Z</time>
      </trkpt>
      <trkpt lat="47.20978" lon="5.93282">
        <ele>289.4</ele>
        <time>2021-06-21T10:50:36Z</time>
      </trkpt>
      <trkpt lat="47.20978" lon="5.93279">
        <ele>289.4</ele>
        <time>2021-06-21T10:50:37Z</time>
      </trkpt>
      <trkpt lat="47.20979" lon="5.93276">
        <ele>289.4</ele>
        <time>2021-06-21T10:50:38Z</time>
      </trkpt>
      <trkpt lat="47.2098" lon="5.93273">
        <ele>289.4</ele>
        <time>2021-06-21T10:50:39Z</time>
      </trkpt>
      <trkpt lat="47.2098" lon="5.93272">
        <ele>289.6</ele>
        <time>2021-06-21T10:50:40Z</time>
      </trkpt>
      <trkpt lat="47.20982" lon="5.93272">
        <ele>289.6</ele>
        <time>2021-06-21T10:50:41Z</time>
      </trkpt>
      <trkpt lat="47.20982" lon="5.9327">
        <ele>289.6</ele>
        <time>2021-06-21T10:50:42Z</time>
      </trkpt>
      <trkpt lat="47.20983" lon="5.93268">
        <ele>289.4</ele>
        <time>2021-06-21T10:50:43Z</time>
      </trkpt>
      <trkpt lat="47.20983" lon="5.93268">
        <ele>289.4</ele>
        <time>2021-06-21T10:50:44Z</time>
      </trkpt>
      <trkpt lat="47.20983" lon="5.93268">
        <ele>289.2</ele>
        <time>2021-06-21T10:50:49Z</time>
      </trkpt>
      <trkpt lat="47.20985" lon="5.93262">
        <ele>288.8</ele>
        <time>2021-06-21T10:51:01Z</time>
      </trkpt>
      <trkpt lat="47.20987" lon="5.93252">
        <ele>288.6</ele>
        <time>2021-06-21T10:51:04Z</time>
      </trkpt>
      <trkpt lat="47.20987" lon="5.93248">
        <ele>288.6</ele>
        <time>2021-06-21T10:51:05Z</time>
      </trkpt>
      <trkpt lat="47.20987" lon="5.9324">
        <ele>288.6</ele>
        <time>2021-06-21T10:51:07Z</time>
      </trkpt>
      <trkpt lat="47.20986" lon="5.93235">
        <ele>288.6</ele>
        <time>2021-06-21T10:51:08Z</time>
      </trkpt>
      <trkpt lat="47.20986" lon="5.93231">
        <ele>288.6</ele>
        <time>2021-06-21T10:51:09Z</time>
      </trkpt>
      <trkpt lat="47.20985" lon="5.93226">
        <ele>288.6</ele>
        <time>2021-06-21T10:51:10Z</time>
      </trkpt>
      <trkpt lat="47.20983" lon="5.93214">
        <ele>288.6</ele>
        <time>2021-06-21T10:51:13Z</time>
      </trkpt>
      <trkpt lat="47.20982" lon="5.93211">
        <ele>288.4</ele>
        <time>2021-06-21T10:51:14Z</time>
      </trkpt>
      <trkpt lat="47.20981" lon="5.93209">
        <ele>288.4</ele>
        <time>2021-06-21T10:51:15Z</time>
      </trkpt>
      <trkpt lat="47.2098" lon="5.93208">
        <ele>288.2</ele>
        <time>2021-06-21T10:51:16Z</time>
      </trkpt>
      <trkpt lat="47.2098" lon="5.93207">
        <ele>288.2</ele>
        <time>2021-06-21T10:51:17Z</time>
      </trkpt>
      <trkpt lat="47.2098" lon="5.93205">
        <ele>288.2</ele>
        <time>2021-06-21T10:51:18Z</time>
      </trkpt>
      <trkpt lat="47.2098" lon="5.93205">
        <ele>288.2</ele>
        <time>2021-06-21T10:51:19Z</time>
      </trkpt>
      <trkpt lat="47.2098" lon="5.93205">
        <ele>288.2</ele>
        <time>2021-06-21T10:51:20Z</time>
      </trkpt>
      <trkpt lat="47.2098" lon="5.93205">
        <ele>288.2</ele>
        <time>2021-06-21T10:51:21Z</time>
      </trkpt>
      <trkpt lat="47.2098" lon="5.93205">
        <ele>288</ele>
        <time>2021-06-21T10:51:26Z</time>
      </trkpt>
      <trkpt lat="47.20978" lon="5.93203">
        <ele>288.4</ele>
        <time>2021-06-21T10:51:50Z</time>
      </trkpt>
      <trkpt lat="47.20978" lon="5.93203">
        <ele>288.2</ele>
        <time>2021-06-21T10:51:52Z</time>
      </trkpt>
      <trkpt lat="47.20977" lon="5.93192">
        <ele>288.2</ele>
        <time>2021-06-21T10:51:57Z</time>
      </trkpt>
      <trkpt lat="47.20976" lon="5.93189">
        <ele>288.2</ele>
        <time>2021-06-21T10:51:58Z</time>
      </trkpt>
      <trkpt lat="47.20975" lon="5.93187">
        <ele>288.2</ele>
        <time>2021-06-21T10:51:59Z</time>
      </trkpt>
      <trkpt lat="47.20973" lon="5.93184">
        <ele>288.2</ele>
        <time>2021-06-21T10:52:00Z</time>
      </trkpt>
      <trkpt lat="47.20972" lon="5.93181">
        <ele>288.2</ele>
        <time>2021-06-21T10:52:01Z</time>
      </trkpt>
      <trkpt lat="47.20969" lon="5.93174">
        <ele>288.2</ele>
        <time>2021-06-21T10:52:03Z</time>
      </trkpt>
      <trkpt lat="47.20966" lon="5.93165">
        <ele>288.8</ele>
        <time>2021-06-21T10:52:06Z</time>
      </trkpt>
      <trkpt lat="47.20963" lon="5.93157">
        <ele>289.2</ele>
        <time>2021-06-21T10:52:09Z</time>
      </trkpt>
      <trkpt lat="47.20961" lon="5.93152">
        <ele>289.4</ele>
        <time>2021-06-21T10:52:11Z</time>
      </trkpt>
      <trkpt lat="47.2096" lon="5.9315">
        <ele>289.6</ele>
        <time>2021-06-21T10:52:12Z</time>
      </trkpt>
      <trkpt lat="47.20959" lon="5.93147">
        <ele>289.6</ele>
        <time>2021-06-21T10:52:13Z</time>
      </trkpt>
      <trkpt lat="47.20958" lon="5.93144">
        <ele>289.6</ele>
        <time>2021-06-21T10:52:14Z</time>
      </trkpt>
      <trkpt lat="47.20956" lon="5.93142">
        <ele>289.8</ele>
        <time>2021-06-21T10:52:15Z</time>
      </trkpt>
      <trkpt lat="47.20956" lon="5.93139">
        <ele>290</ele>
        <time>2021-06-21T10:52:16Z</time>
      </trkpt>
      <trkpt lat="47.20955" lon="5.93137">
        <ele>290</ele>
        <time>2021-06-21T10:52:17Z</time>
      </trkpt>
      <trkpt lat="47.20951" lon="5.93128">
        <ele>290.4</ele>
        <time>2021-06-21T10:52:20Z</time>
      </trkpt>
      <trkpt lat="47.20938" lon="5.93104">
        <ele>290.6</ele>
        <time>2021-06-21T10:52:27Z</time>
      </trkpt>
      <trkpt lat="47.20931" lon="5.93092">
        <ele>290.8</ele>
        <time>2021-06-21T10:52:31Z</time>
      </trkpt>
      <trkpt lat="47.20929" lon="5.93089">
        <ele>290.8</ele>
        <time>2021-06-21T10:52:32Z</time>
      </trkpt>
      <trkpt lat="47.20927" lon="5.93086">
        <ele>290.8</ele>
        <time>2021-06-21T10:52:33Z</time>
      </trkpt>
      <trkpt lat="47.20925" lon="5.93084">
        <ele>290.8</ele>
        <time>2021-06-21T10:52:34Z</time>
      </trkpt>
      <trkpt lat="47.20923" lon="5.93081">
        <ele>290.8</ele>
        <time>2021-06-21T10:52:35Z</time>
      </trkpt>
      <trkpt lat="47.20918" lon="5.93071">
        <ele>290.6</ele>
        <time>2021-06-21T10:52:37Z</time>
      </trkpt>
      <trkpt lat="47.20917" lon="5.93066">
        <ele>290.4</ele>
        <time>2021-06-21T10:52:38Z</time>
      </trkpt>
      <trkpt lat="47.20916" lon="5.93062">
        <ele>290.4</ele>
        <time>2021-06-21T10:52:39Z</time>
      </trkpt>
      <trkpt lat="47.20914" lon="5.93057">
        <ele>290.2</ele>
        <time>2021-06-21T10:52:40Z</time>
      </trkpt>
      <trkpt lat="47.20912" lon="5.93054">
        <ele>290.2</ele>
        <time>2021-06-21T10:52:41Z</time>
      </trkpt>
      <trkpt lat="47.20909" lon="5.93051">
        <ele>290.2</ele>
        <time>2021-06-21T10:52:42Z</time>
      </trkpt>
      <trkpt lat="47.20906" lon="5.93048">
        <ele>290.2</ele>
        <time>2021-06-21T10:52:43Z</time>
      </trkpt>
      <trkpt lat="47.20895" lon="5.93029">
        <ele>290.2</ele>
        <time>2021-06-21T10:52:47Z</time>
      </trkpt>
      <trkpt lat="47.20892" lon="5.93023">
        <ele>290.2</ele>
        <time>2021-06-21T10:52:49Z</time>
      </trkpt>
      <trkpt lat="47.20891" lon="5.93017">
        <ele>290.2</ele>
        <time>2021-06-21T10:52:50Z</time>
      </trkpt>
      <trkpt lat="47.20887" lon="5.93006">
        <ele>290.2</ele>
        <time>2021-06-21T10:52:52Z</time>
      </trkpt>
      <trkpt lat="47.20882" lon="5.92999">
        <ele>290.2</ele>
        <time>2021-06-21T10:52:53Z</time>
      </trkpt>
      <trkpt lat="47.2088" lon="5.92995">
        <ele>290</ele>
        <time>2021-06-21T10:52:54Z</time>
      </trkpt>
      <trkpt lat="47.20879" lon="5.92991">
        <ele>290</ele>
        <time>2021-06-21T10:52:55Z</time>
      </trkpt>
      <trkpt lat="47.20876" lon="5.92981">
        <ele>289.8</ele>
        <time>2021-06-21T10:52:57Z</time>
      </trkpt>
      <trkpt lat="47.20862" lon="5.92955">
        <ele>289.2</ele>
        <time>2021-06-21T10:53:03Z</time>
      </trkpt>
      <trkpt lat="47.2086" lon="5.9295">
        <ele>289</ele>
        <time>2021-06-21T10:53:04Z</time>
      </trkpt>
      <trkpt lat="47.20859" lon="5.92946">
        <ele>288.8</ele>
        <time>2021-06-21T10:53:05Z</time>
      </trkpt>
      <trkpt lat="47.20858" lon="5.92943">
        <ele>288.8</ele>
        <time>2021-06-21T10:53:06Z</time>
      </trkpt>
      <trkpt lat="47.20855" lon="5.92939">
        <ele>288.6</ele>
        <time>2021-06-21T10:53:07Z</time>
      </trkpt>
      <trkpt lat="47.20854" lon="5.92936">
        <ele>288.4</ele>
        <time>2021-06-21T10:53:08Z</time>
      </trkpt>
      <trkpt lat="47.20852" lon="5.92933">
        <ele>288.4</ele>
        <time>2021-06-21T10:53:09Z</time>
      </trkpt>
      <trkpt lat="47.20839" lon="5.9291">
        <ele>287.8</ele>
        <time>2021-06-21T10:53:14Z</time>
      </trkpt>
      <trkpt lat="47.20837" lon="5.92904">
        <ele>287.8</ele>
        <time>2021-06-21T10:53:15Z</time>
      </trkpt>
      <trkpt lat="47.20828" lon="5.92888">
        <ele>287.8</ele>
        <time>2021-06-21T10:53:18Z</time>
      </trkpt>
      <trkpt lat="47.20825" lon="5.92887">
        <ele>287.8</ele>
        <time>2021-06-21T10:53:19Z</time>
      </trkpt>
      <trkpt lat="47.20824" lon="5.92886">
        <ele>287.8</ele>
        <time>2021-06-21T10:53:20Z</time>
      </trkpt>
      <trkpt lat="47.20823" lon="5.92887">
        <ele>287.6</ele>
        <time>2021-06-21T10:53:21Z</time>
      </trkpt>
      <trkpt lat="47.20822" lon="5.92887">
        <ele>287.6</ele>
        <time>2021-06-21T10:53:22Z</time>
      </trkpt>
      <trkpt lat="47.20822" lon="5.92888">
        <ele>287.6</ele>
        <time>2021-06-21T10:53:23Z</time>
      </trkpt>
      <trkpt lat="47.20822" lon="5.92889">
        <ele>287.6</ele>
        <time>2021-06-21T10:53:24Z</time>
      </trkpt>
      <trkpt lat="47.20821" lon="5.92891">
        <ele>287.6</ele>
        <time>2021-06-21T10:53:25Z</time>
      </trkpt>
      <trkpt lat="47.2082" lon="5.92891">
        <ele>287.6</ele>
        <time>2021-06-21T10:53:26Z</time>
      </trkpt>
      <trkpt lat="47.20819" lon="5.92892">
        <ele>287.6</ele>
        <time>2021-06-21T10:53:27Z</time>
      </trkpt>
      <trkpt lat="47.20818" lon="5.92892">
        <ele>287.8</ele>
        <time>2021-06-21T10:53:28Z</time>
      </trkpt>
      <trkpt lat="47.20817" lon="5.92892">
        <ele>287.8</ele>
        <time>2021-06-21T10:53:29Z</time>
      </trkpt>
      <trkpt lat="47.20816" lon="5.92893">
        <ele>287.8</ele>
        <time>2021-06-21T10:53:30Z</time>
      </trkpt>
      <trkpt lat="47.20809" lon="5.92894">
        <ele>287.8</ele>
        <time>2021-06-21T10:53:33Z</time>
      </trkpt>
      <trkpt lat="47.20806" lon="5.92895">
        <ele>287.8</ele>
        <time>2021-06-21T10:53:34Z</time>
      </trkpt>
      <trkpt lat="47.20797" lon="5.92896">
        <ele>287.6</ele>
        <time>2021-06-21T10:53:37Z</time>
      </trkpt>
      <trkpt lat="47.20794" lon="5.92896">
        <ele>287.6</ele>
        <time>2021-06-21T10:53:38Z</time>
      </trkpt>
      <trkpt lat="47.20789" lon="5.92897">
        <ele>287.2</ele>
        <time>2021-06-21T10:53:40Z</time>
      </trkpt>
      <trkpt lat="47.20785" lon="5.92897">
        <ele>286.8</ele>
        <time>2021-06-21T10:53:42Z</time>
      </trkpt>
      <trkpt lat="47.20784" lon="5.92896">
        <ele>286.6</ele>
        <time>2021-06-21T10:53:43Z</time>
      </trkpt>
      <trkpt lat="47.20782" lon="5.92896">
        <ele>286.2</ele>
        <time>2021-06-21T10:53:44Z</time>
      </trkpt>
      <trkpt lat="47.20777" lon="5.92896">
        <ele>285.8</ele>
        <time>2021-06-21T10:53:46Z</time>
      </trkpt>
      <trkpt lat="47.20775" lon="5.92896">
        <ele>285.6</ele>
        <time>2021-06-21T10:53:47Z</time>
      </trkpt>
      <trkpt lat="47.20772" lon="5.92894">
        <ele>285.6</ele>
        <time>2021-06-21T10:53:48Z</time>
      </trkpt>
      <trkpt lat="47.20771" lon="5.92892">
        <ele>285.4</ele>
        <time>2021-06-21T10:53:49Z</time>
      </trkpt>
      <trkpt lat="47.20769" lon="5.9289">
        <ele>285.2</ele>
        <time>2021-06-21T10:53:50Z</time>
      </trkpt>
      <trkpt lat="47.20768" lon="5.92888">
        <ele>284.8</ele>
        <time>2021-06-21T10:53:51Z</time>
      </trkpt>
      <trkpt lat="47.20766" lon="5.92887">
        <ele>284.8</ele>
        <time>2021-06-21T10:53:52Z</time>
      </trkpt>
      <trkpt lat="47.20761" lon="5.92883">
        <ele>284.4</ele>
        <time>2021-06-21T10:53:53Z</time>
      </trkpt>
      <trkpt lat="47.20758" lon="5.92881">
        <ele>284.2</ele>
        <time>2021-06-21T10:53:54Z</time>
      </trkpt>
      <trkpt lat="47.20756" lon="5.9288">
        <ele>284.2</ele>
        <time>2021-06-21T10:53:55Z</time>
      </trkpt>
      <trkpt lat="47.20754" lon="5.92878">
        <ele>284</ele>
        <time>2021-06-21T10:53:56Z</time>
      </trkpt>
      <trkpt lat="47.20749" lon="5.92877">
        <ele>284</ele>
        <time>2021-06-21T10:53:58Z</time>
      </trkpt>
      <trkpt lat="47.20747" lon="5.92876">
        <ele>283.8</ele>
        <time>2021-06-21T10:53:59Z</time>
      </trkpt>
      <trkpt lat="47.20743" lon="5.92875">
        <ele>283.6</ele>
        <time>2021-06-21T10:54:00Z</time>
      </trkpt>
      <trkpt lat="47.20739" lon="5.92873">
        <ele>283.2</ele>
        <time>2021-06-21T10:54:01Z</time>
      </trkpt>
      <trkpt lat="47.20736" lon="5.9287">
        <ele>283</ele>
        <time>2021-06-21T10:54:02Z</time>
      </trkpt>
      <trkpt lat="47.20734" lon="5.92868">
        <ele>282.6</ele>
        <time>2021-06-21T10:54:03Z</time>
      </trkpt>
      <trkpt lat="47.20732" lon="5.92866">
        <ele>282.6</ele>
        <time>2021-06-21T10:54:04Z</time>
      </trkpt>
      <trkpt lat="47.2073" lon="5.92863">
        <ele>282.4</ele>
        <time>2021-06-21T10:54:05Z</time>
      </trkpt>
      <trkpt lat="47.20725" lon="5.92856">
        <ele>282.2</ele>
        <time>2021-06-21T10:54:07Z</time>
      </trkpt>
      <trkpt lat="47.20717" lon="5.9284">
        <ele>281.8</ele>
        <time>2021-06-21T10:54:11Z</time>
      </trkpt>
      <trkpt lat="47.20715" lon="5.92837">
        <ele>281.6</ele>
        <time>2021-06-21T10:54:12Z</time>
      </trkpt>
      <trkpt lat="47.2071" lon="5.92832">
        <ele>281.2</ele>
        <time>2021-06-21T10:54:15Z</time>
      </trkpt>
      <trkpt lat="47.20708" lon="5.9283">
        <ele>281.2</ele>
        <time>2021-06-21T10:54:16Z</time>
      </trkpt>
      <trkpt lat="47.20705" lon="5.92827">
        <ele>280.8</ele>
        <time>2021-06-21T10:54:17Z</time>
      </trkpt>
      <trkpt lat="47.20703" lon="5.92818">
        <ele>280.6</ele>
        <time>2021-06-21T10:54:19Z</time>
      </trkpt>
      <trkpt lat="47.20703" lon="5.92813">
        <ele>280.6</ele>
        <time>2021-06-21T10:54:20Z</time>
      </trkpt>
      <trkpt lat="47.20702" lon="5.9281">
        <ele>280.6</ele>
        <time>2021-06-21T10:54:21Z</time>
      </trkpt>
      <trkpt lat="47.20703" lon="5.92806">
        <ele>280.6</ele>
        <time>2021-06-21T10:54:22Z</time>
      </trkpt>
      <trkpt lat="47.20704" lon="5.92802">
        <ele>280.4</ele>
        <time>2021-06-21T10:54:23Z</time>
      </trkpt>
      <trkpt lat="47.20704" lon="5.92799">
        <ele>280.4</ele>
        <time>2021-06-21T10:54:24Z</time>
      </trkpt>
      <trkpt lat="47.20705" lon="5.92796">
        <ele>280.6</ele>
        <time>2021-06-21T10:54:25Z</time>
      </trkpt>
      <trkpt lat="47.20706" lon="5.92792">
        <ele>280.6</ele>
        <time>2021-06-21T10:54:26Z</time>
      </trkpt>
      <trkpt lat="47.20708" lon="5.9279">
        <ele>280.6</ele>
        <time>2021-06-21T10:54:27Z</time>
      </trkpt>
      <trkpt lat="47.20709" lon="5.92788">
        <ele>280.6</ele>
        <time>2021-06-21T10:54:28Z</time>
      </trkpt>
      <trkpt lat="47.2071" lon="5.92786">
        <ele>280.6</ele>
        <time>2021-06-21T10:54:29Z</time>
      </trkpt>
      <trkpt lat="47.20711" lon="5.92783">
        <ele>280.6</ele>
        <time>2021-06-21T10:54:30Z</time>
      </trkpt>
      <trkpt lat="47.20711" lon="5.92779">
        <ele>280.8</ele>
        <time>2021-06-21T10:54:31Z</time>
      </trkpt>
      <trkpt lat="47.20712" lon="5.92775">
        <ele>280.8</ele>
        <time>2021-06-21T10:54:32Z</time>
      </trkpt>
      <trkpt lat="47.20713" lon="5.92772">
        <ele>280.8</ele>
        <time>2021-06-21T10:54:33Z</time>
      </trkpt>
      <trkpt lat="47.20714" lon="5.92769">
        <ele>280.8</ele>
        <time>2021-06-21T10:54:34Z</time>
      </trkpt>
      <trkpt lat="47.20714" lon="5.92765">
        <ele>281</ele>
        <time>2021-06-21T10:54:35Z</time>
      </trkpt>
      <trkpt lat="47.20712" lon="5.92761">
        <ele>280.8</ele>
        <time>2021-06-21T10:54:36Z</time>
      </trkpt>
      <trkpt lat="47.20711" lon="5.92755">
        <ele>280.8</ele>
        <time>2021-06-21T10:54:37Z</time>
      </trkpt>
      <trkpt lat="47.20711" lon="5.92746">
        <ele>280.6</ele>
        <time>2021-06-21T10:54:38Z</time>
      </trkpt>
      <trkpt lat="47.20712" lon="5.9274">
        <ele>280.6</ele>
        <time>2021-06-21T10:54:39Z</time>
      </trkpt>
      <trkpt lat="47.20712" lon="5.92732">
        <ele>280.6</ele>
        <time>2021-06-21T10:54:40Z</time>
      </trkpt>
      <trkpt lat="47.20713" lon="5.92725">
        <ele>280.4</ele>
        <time>2021-06-21T10:54:41Z</time>
      </trkpt>
      <trkpt lat="47.20714" lon="5.92715">
        <ele>280.2</ele>
        <time>2021-06-21T10:54:42Z</time>
      </trkpt>
      <trkpt lat="47.20716" lon="5.92709">
        <ele>280</ele>
        <time>2021-06-21T10:54:43Z</time>
      </trkpt>
      <trkpt lat="47.20718" lon="5.92704">
        <ele>279.8</ele>
        <time>2021-06-21T10:54:44Z</time>
      </trkpt>
      <trkpt lat="47.20719" lon="5.9269">
        <ele>279.6</ele>
        <time>2021-06-21T10:54:47Z</time>
      </trkpt>
      <trkpt lat="47.20719" lon="5.92686">
        <ele>279.6</ele>
        <time>2021-06-21T10:54:48Z</time>
      </trkpt>
      <trkpt lat="47.2072" lon="5.92682">
        <ele>279.6</ele>
        <time>2021-06-21T10:54:49Z</time>
      </trkpt>
      <trkpt lat="47.2072" lon="5.92677">
        <ele>279.6</ele>
        <time>2021-06-21T10:54:50Z</time>
      </trkpt>
      <trkpt lat="47.20722" lon="5.9265">
        <ele>279.2</ele>
        <time>2021-06-21T10:54:55Z</time>
      </trkpt>
      <trkpt lat="47.20725" lon="5.92638">
        <ele>279.2</ele>
        <time>2021-06-21T10:54:57Z</time>
      </trkpt>
      <trkpt lat="47.20727" lon="5.92633">
        <ele>279</ele>
        <time>2021-06-21T10:54:58Z</time>
      </trkpt>
      <trkpt lat="47.20729" lon="5.92626">
        <ele>278.8</ele>
        <time>2021-06-21T10:54:59Z</time>
      </trkpt>
      <trkpt lat="47.20732" lon="5.92621">
        <ele>278.8</ele>
        <time>2021-06-21T10:55:00Z</time>
      </trkpt>
      <trkpt lat="47.20735" lon="5.92599">
        <ele>278.2</ele>
        <time>2021-06-21T10:55:04Z</time>
      </trkpt>
      <trkpt lat="47.20736" lon="5.92595">
        <ele>278.2</ele>
        <time>2021-06-21T10:55:05Z</time>
      </trkpt>
      <trkpt lat="47.20736" lon="5.9259">
        <ele>278.2</ele>
        <time>2021-06-21T10:55:06Z</time>
      </trkpt>
      <trkpt lat="47.20732" lon="5.92576">
        <ele>278</ele>
        <time>2021-06-21T10:55:09Z</time>
      </trkpt>
      <trkpt lat="47.20726" lon="5.92566">
        <ele>277.8</ele>
        <time>2021-06-21T10:55:11Z</time>
      </trkpt>
      <trkpt lat="47.20724" lon="5.92561">
        <ele>277.8</ele>
        <time>2021-06-21T10:55:12Z</time>
      </trkpt>
      <trkpt lat="47.20718" lon="5.92553">
        <ele>277.8</ele>
        <time>2021-06-21T10:55:14Z</time>
      </trkpt>
      <trkpt lat="47.20715" lon="5.92548">
        <ele>277.6</ele>
        <time>2021-06-21T10:55:15Z</time>
      </trkpt>
      <trkpt lat="47.20713" lon="5.92544">
        <ele>277.6</ele>
        <time>2021-06-21T10:55:16Z</time>
      </trkpt>
      <trkpt lat="47.20703" lon="5.92533">
        <ele>277.2</ele>
        <time>2021-06-21T10:55:20Z</time>
      </trkpt>
      <trkpt lat="47.207" lon="5.92531">
        <ele>277.2</ele>
        <time>2021-06-21T10:55:21Z</time>
      </trkpt>
      <trkpt lat="47.20697" lon="5.92529">
        <ele>277.2</ele>
        <time>2021-06-21T10:55:22Z</time>
      </trkpt>
      <trkpt lat="47.20694" lon="5.92527">
        <ele>277</ele>
        <time>2021-06-21T10:55:23Z</time>
      </trkpt>
      <trkpt lat="47.20691" lon="5.92524">
        <ele>277</ele>
        <time>2021-06-21T10:55:24Z</time>
      </trkpt>
      <trkpt lat="47.20688" lon="5.92523">
        <ele>277</ele>
        <time>2021-06-21T10:55:25Z</time>
      </trkpt>
      <trkpt lat="47.20685" lon="5.92521">
        <ele>277.2</ele>
        <time>2021-06-21T10:55:26Z</time>
      </trkpt>
      <trkpt lat="47.20682" lon="5.9252">
        <ele>277.2</ele>
        <time>2021-06-21T10:55:27Z</time>
      </trkpt>
      <trkpt lat="47.2068" lon="5.92519">
        <ele>277.2</ele>
        <time>2021-06-21T10:55:28Z</time>
      </trkpt>
      <trkpt lat="47.20661" lon="5.92514">
        <ele>278.2</ele>
        <time>2021-06-21T10:55:34Z</time>
      </trkpt>
      <trkpt lat="47.20658" lon="5.92513">
        <ele>278.2</ele>
        <time>2021-06-21T10:55:35Z</time>
      </trkpt>
      <trkpt lat="47.20654" lon="5.92511">
        <ele>278.4</ele>
        <time>2021-06-21T10:55:36Z</time>
      </trkpt>
      <trkpt lat="47.20651" lon="5.92512">
        <ele>278.4</ele>
        <time>2021-06-21T10:55:37Z</time>
      </trkpt>
      <trkpt lat="47.20647" lon="5.92514">
        <ele>278.6</ele>
        <time>2021-06-21T10:55:39Z</time>
      </trkpt>
      <trkpt lat="47.20644" lon="5.92514">
        <ele>278.8</ele>
        <time>2021-06-21T10:55:40Z</time>
      </trkpt>
      <trkpt lat="47.20641" lon="5.92514">
        <ele>279</ele>
        <time>2021-06-21T10:55:41Z</time>
      </trkpt>
      <trkpt lat="47.20638" lon="5.92513">
        <ele>279</ele>
        <time>2021-06-21T10:55:42Z</time>
      </trkpt>
      <trkpt lat="47.20634" lon="5.92512">
        <ele>279.2</ele>
        <time>2021-06-21T10:55:43Z</time>
      </trkpt>
      <trkpt lat="47.20625" lon="5.92507">
        <ele>279.4</ele>
        <time>2021-06-21T10:55:46Z</time>
      </trkpt>
      <trkpt lat="47.20622" lon="5.92504">
        <ele>279.6</ele>
        <time>2021-06-21T10:55:47Z</time>
      </trkpt>
      <trkpt lat="47.20618" lon="5.925">
        <ele>279.6</ele>
        <time>2021-06-21T10:55:48Z</time>
      </trkpt>
      <trkpt lat="47.20604" lon="5.9249">
        <ele>279.6</ele>
        <time>2021-06-21T10:55:51Z</time>
      </trkpt>
      <trkpt lat="47.20579" lon="5.92465">
        <ele>279</ele>
        <time>2021-06-21T10:55:57Z</time>
      </trkpt>
      <trkpt lat="47.20576" lon="5.92461">
        <ele>278.8</ele>
        <time>2021-06-21T10:55:58Z</time>
      </trkpt>
      <trkpt lat="47.20573" lon="5.92459">
        <ele>278.8</ele>
        <time>2021-06-21T10:55:59Z</time>
      </trkpt>
      <trkpt lat="47.20569" lon="5.92456">
        <ele>278.8</ele>
        <time>2021-06-21T10:56:00Z</time>
      </trkpt>
      <trkpt lat="47.20566" lon="5.92453">
        <ele>278.8</ele>
        <time>2021-06-21T10:56:01Z</time>
      </trkpt>
      <trkpt lat="47.20563" lon="5.92448">
        <ele>278.8</ele>
        <time>2021-06-21T10:56:02Z</time>
      </trkpt>
      <trkpt lat="47.20558" lon="5.92439">
        <ele>278.8</ele>
        <time>2021-06-21T10:56:04Z</time>
      </trkpt>
      <trkpt lat="47.20555" lon="5.92434">
        <ele>278.8</ele>
        <time>2021-06-21T10:56:05Z</time>
      </trkpt>
      <trkpt lat="47.20553" lon="5.92428">
        <ele>278.8</ele>
        <time>2021-06-21T10:56:06Z</time>
      </trkpt>
      <trkpt lat="47.2055" lon="5.92424">
        <ele>278.8</ele>
        <time>2021-06-21T10:56:07Z</time>
      </trkpt>
      <trkpt lat="47.20548" lon="5.92419">
        <ele>278.8</ele>
        <time>2021-06-21T10:56:08Z</time>
      </trkpt>
      <trkpt lat="47.20545" lon="5.92414">
        <ele>278.8</ele>
        <time>2021-06-21T10:56:09Z</time>
      </trkpt>
      <trkpt lat="47.20543" lon="5.92408">
        <ele>278.8</ele>
        <time>2021-06-21T10:56:10Z</time>
      </trkpt>
      <trkpt lat="47.2054" lon="5.92403">
        <ele>278.6</ele>
        <time>2021-06-21T10:56:11Z</time>
      </trkpt>
      <trkpt lat="47.20532" lon="5.92393">
        <ele>278.4</ele>
        <time>2021-06-21T10:56:13Z</time>
      </trkpt>
      <trkpt lat="47.20525" lon="5.92383">
        <ele>278</ele>
        <time>2021-06-21T10:56:15Z</time>
      </trkpt>
      <trkpt lat="47.20521" lon="5.92378">
        <ele>277.8</ele>
        <time>2021-06-21T10:56:16Z</time>
      </trkpt>
      <trkpt lat="47.20515" lon="5.92369">
        <ele>277.4</ele>
        <time>2021-06-21T10:56:18Z</time>
      </trkpt>
      <trkpt lat="47.20507" lon="5.9236">
        <ele>277.2</ele>
        <time>2021-06-21T10:56:20Z</time>
      </trkpt>
      <trkpt lat="47.20503" lon="5.92357">
        <ele>277.2</ele>
        <time>2021-06-21T10:56:21Z</time>
      </trkpt>
      <trkpt lat="47.20499" lon="5.92355">
        <ele>277</ele>
        <time>2021-06-21T10:56:22Z</time>
      </trkpt>
      <trkpt lat="47.20495" lon="5.92352">
        <ele>277</ele>
        <time>2021-06-21T10:56:23Z</time>
      </trkpt>
      <trkpt lat="47.20492" lon="5.9235">
        <ele>277</ele>
        <time>2021-06-21T10:56:24Z</time>
      </trkpt>
      <trkpt lat="47.2049" lon="5.92347">
        <ele>277</ele>
        <time>2021-06-21T10:56:25Z</time>
      </trkpt>
      <trkpt lat="47.20487" lon="5.92344">
        <ele>277</ele>
        <time>2021-06-21T10:56:26Z</time>
      </trkpt>
      <trkpt lat="47.20479" lon="5.92335">
        <ele>277</ele>
        <time>2021-06-21T10:56:28Z</time>
      </trkpt>
      <trkpt lat="47.20476" lon="5.92331">
        <ele>277</ele>
        <time>2021-06-21T10:56:29Z</time>
      </trkpt>
      <trkpt lat="47.20473" lon="5.92329">
        <ele>277</ele>
        <time>2021-06-21T10:56:30Z</time>
      </trkpt>
      <trkpt lat="47.20471" lon="5.92326">
        <ele>277</ele>
        <time>2021-06-21T10:56:31Z</time>
      </trkpt>
      <trkpt lat="47.20468" lon="5.92321">
        <ele>277</ele>
        <time>2021-06-21T10:56:33Z</time>
      </trkpt>
      <trkpt lat="47.20466" lon="5.92318">
        <ele>277</ele>
        <time>2021-06-21T10:56:34Z</time>
      </trkpt>
      <trkpt lat="47.20464" lon="5.92316">
        <ele>277</ele>
        <time>2021-06-21T10:56:35Z</time>
      </trkpt>
      <trkpt lat="47.20463" lon="5.92314">
        <ele>277</ele>
        <time>2021-06-21T10:56:36Z</time>
      </trkpt>
      <trkpt lat="47.20454" lon="5.92305">
        <ele>277</ele>
        <time>2021-06-21T10:56:39Z</time>
      </trkpt>
      <trkpt lat="47.20441" lon="5.92281">
        <ele>277</ele>
        <time>2021-06-21T10:56:43Z</time>
      </trkpt>
      <trkpt lat="47.20423" lon="5.92262">
        <ele>277</ele>
        <time>2021-06-21T10:56:46Z</time>
      </trkpt>
      <trkpt lat="47.2042" lon="5.92256">
        <ele>277</ele>
        <time>2021-06-21T10:56:47Z</time>
      </trkpt>
      <trkpt lat="47.204" lon="5.9222">
        <ele>276.6</ele>
        <time>2021-06-21T10:56:52Z</time>
      </trkpt>
      <trkpt lat="47.20397" lon="5.92214">
        <ele>276.4</ele>
        <time>2021-06-21T10:56:53Z</time>
      </trkpt>
      <trkpt lat="47.20394" lon="5.92209">
        <ele>276.4</ele>
        <time>2021-06-21T10:56:54Z</time>
      </trkpt>
      <trkpt lat="47.20392" lon="5.92206">
        <ele>276.2</ele>
        <time>2021-06-21T10:56:55Z</time>
      </trkpt>
      <trkpt lat="47.20391" lon="5.92205">
        <ele>276.2</ele>
        <time>2021-06-21T10:56:56Z</time>
      </trkpt>
      <trkpt lat="47.20391" lon="5.92205">
        <ele>276.2</ele>
        <time>2021-06-21T10:57:01Z</time>
      </trkpt>
      <trkpt lat="47.20391" lon="5.92205">
        <ele>276</ele>
        <time>2021-06-21T10:57:10Z</time>
      </trkpt>
      <trkpt lat="47.20391" lon="5.92205">
        <ele>275.8</ele>
        <time>2021-06-21T10:57:37Z</time>
      </trkpt>
      <trkpt lat="47.20388" lon="5.92197">
        <ele>275.8</ele>
        <time>2021-06-21T10:57:40Z</time>
      </trkpt>
      <trkpt lat="47.20382" lon="5.9219">
        <ele>275.8</ele>
        <time>2021-06-21T10:57:43Z</time>
      </trkpt>
      <trkpt lat="47.20378" lon="5.92181">
        <ele>275.8</ele>
        <time>2021-06-21T10:57:45Z</time>
      </trkpt>
      <trkpt lat="47.20364" lon="5.92159">
        <ele>275.4</ele>
        <time>2021-06-21T10:57:50Z</time>
      </trkpt>
      <trkpt lat="47.20361" lon="5.92152">
        <ele>275.4</ele>
        <time>2021-06-21T10:57:51Z</time>
      </trkpt>
      <trkpt lat="47.20357" lon="5.92147">
        <ele>275.2</ele>
        <time>2021-06-21T10:57:52Z</time>
      </trkpt>
      <trkpt lat="47.20351" lon="5.92136">
        <ele>275.2</ele>
        <time>2021-06-21T10:57:54Z</time>
      </trkpt>
      <trkpt lat="47.20347" lon="5.9213">
        <ele>275</ele>
        <time>2021-06-21T10:57:55Z</time>
      </trkpt>
      <trkpt lat="47.20338" lon="5.92117">
        <ele>274.8</ele>
        <time>2021-06-21T10:57:57Z</time>
      </trkpt>
      <trkpt lat="47.20335" lon="5.9211">
        <ele>274.6</ele>
        <time>2021-06-21T10:57:58Z</time>
      </trkpt>
      <trkpt lat="47.20333" lon="5.92105">
        <ele>274.6</ele>
        <time>2021-06-21T10:57:59Z</time>
      </trkpt>
      <trkpt lat="47.20332" lon="5.92098">
        <ele>274.2</ele>
        <time>2021-06-21T10:58:00Z</time>
      </trkpt>
      <trkpt lat="47.20333" lon="5.92092">
        <ele>274.2</ele>
        <time>2021-06-21T10:58:01Z</time>
      </trkpt>
      <trkpt lat="47.20333" lon="5.9208">
        <ele>273.8</ele>
        <time>2021-06-21T10:58:03Z</time>
      </trkpt>
      <trkpt lat="47.20332" lon="5.92069">
        <ele>273.6</ele>
        <time>2021-06-21T10:58:05Z</time>
      </trkpt>
      <trkpt lat="47.20331" lon="5.92058">
        <ele>273.6</ele>
        <time>2021-06-21T10:58:06Z</time>
      </trkpt>
      <trkpt lat="47.20332" lon="5.92052">
        <ele>273.6</ele>
        <time>2021-06-21T10:58:07Z</time>
      </trkpt>
      <trkpt lat="47.20333" lon="5.92046">
        <ele>273.6</ele>
        <time>2021-06-21T10:58:08Z</time>
      </trkpt>
      <trkpt lat="47.20334" lon="5.92034">
        <ele>273.6</ele>
        <time>2021-06-21T10:58:10Z</time>
      </trkpt>
      <trkpt lat="47.20336" lon="5.9203">
        <ele>273.6</ele>
        <time>2021-06-21T10:58:11Z</time>
      </trkpt>
      <trkpt lat="47.20337" lon="5.92026">
        <ele>273.6</ele>
        <time>2021-06-21T10:58:12Z</time>
      </trkpt>
      <trkpt lat="47.20339" lon="5.92023">
        <ele>273.6</ele>
        <time>2021-06-21T10:58:13Z</time>
      </trkpt>
      <trkpt lat="47.20345" lon="5.92013">
        <ele>274.6</ele>
        <time>2021-06-21T10:58:16Z</time>
      </trkpt>
      <trkpt lat="47.20347" lon="5.92009">
        <ele>274.6</ele>
        <time>2021-06-21T10:58:17Z</time>
      </trkpt>
      <trkpt lat="47.20348" lon="5.92006">
        <ele>274.8</ele>
        <time>2021-06-21T10:58:18Z</time>
      </trkpt>
      <trkpt lat="47.20348" lon="5.92003">
        <ele>275</ele>
        <time>2021-06-21T10:58:19Z</time>
      </trkpt>
      <trkpt lat="47.20348" lon="5.92002">
        <ele>275</ele>
        <time>2021-06-21T10:58:20Z</time>
      </trkpt>
      <trkpt lat="47.20348" lon="5.92002">
        <ele>275.4</ele>
        <time>2021-06-21T10:58:21Z</time>
      </trkpt>
      <trkpt lat="47.20348" lon="5.91998">
        <ele>275.6</ele>
        <time>2021-06-21T10:58:22Z</time>
      </trkpt>
      <trkpt lat="47.20348" lon="5.91996">
        <ele>276</ele>
        <time>2021-06-21T10:58:23Z</time>
      </trkpt>
      <trkpt lat="47.20347" lon="5.91993">
        <ele>276</ele>
        <time>2021-06-21T10:58:24Z</time>
      </trkpt>
      <trkpt lat="47.20346" lon="5.91988">
        <ele>276</ele>
        <time>2021-06-21T10:58:25Z</time>
      </trkpt>
      <trkpt lat="47.20343" lon="5.91977">
        <ele>276</ele>
        <time>2021-06-21T10:58:27Z</time>
      </trkpt>
      <trkpt lat="47.2034" lon="5.91971">
        <ele>276</ele>
        <time>2021-06-21T10:58:28Z</time>
      </trkpt>
      <trkpt lat="47.20336" lon="5.91958">
        <ele>276</ele>
        <time>2021-06-21T10:58:30Z</time>
      </trkpt>
      <trkpt lat="47.20327" lon="5.91948">
        <ele>275.6</ele>
        <time>2021-06-21T10:58:32Z</time>
      </trkpt>
      <trkpt lat="47.20316" lon="5.91938">
        <ele>275</ele>
        <time>2021-06-21T10:58:34Z</time>
      </trkpt>
      <trkpt lat="47.20309" lon="5.9193">
        <ele>274.6</ele>
        <time>2021-06-21T10:58:35Z</time>
      </trkpt>
      <trkpt lat="47.20305" lon="5.91922">
        <ele>274.4</ele>
        <time>2021-06-21T10:58:36Z</time>
      </trkpt>
      <trkpt lat="47.20302" lon="5.91913">
        <ele>274</ele>
        <time>2021-06-21T10:58:37Z</time>
      </trkpt>
      <trkpt lat="47.203" lon="5.91905">
        <ele>273.6</ele>
        <time>2021-06-21T10:58:38Z</time>
      </trkpt>
      <trkpt lat="47.20298" lon="5.91898">
        <ele>272.8</ele>
        <time>2021-06-21T10:58:39Z</time>
      </trkpt>
      <trkpt lat="47.20296" lon="5.91891">
        <ele>272.6</ele>
        <time>2021-06-21T10:58:40Z</time>
      </trkpt>
      <trkpt lat="47.20294" lon="5.91885">
        <ele>272.2</ele>
        <time>2021-06-21T10:58:41Z</time>
      </trkpt>
      <trkpt lat="47.20291" lon="5.91877">
        <ele>272</ele>
        <time>2021-06-21T10:58:42Z</time>
      </trkpt>
      <trkpt lat="47.20288" lon="5.91869">
        <ele>271.8</ele>
        <time>2021-06-21T10:58:43Z</time>
      </trkpt>
      <trkpt lat="47.20285" lon="5.91859">
        <ele>271.4</ele>
        <time>2021-06-21T10:58:44Z</time>
      </trkpt>
      <trkpt lat="47.20277" lon="5.91831">
        <ele>271</ele>
        <time>2021-06-21T10:58:47Z</time>
      </trkpt>
      <trkpt lat="47.20275" lon="5.91821">
        <ele>270.6</ele>
        <time>2021-06-21T10:58:48Z</time>
      </trkpt>
      <trkpt lat="47.20273" lon="5.91814">
        <ele>270.4</ele>
        <time>2021-06-21T10:58:49Z</time>
      </trkpt>
      <trkpt lat="47.20271" lon="5.91806">
        <ele>270.2</ele>
        <time>2021-06-21T10:58:50Z</time>
      </trkpt>
      <trkpt lat="47.20271" lon="5.918">
        <ele>270.2</ele>
        <time>2021-06-21T10:58:51Z</time>
      </trkpt>
      <trkpt lat="47.20271" lon="5.91794">
        <ele>270.2</ele>
        <time>2021-06-21T10:58:52Z</time>
      </trkpt>
      <trkpt lat="47.20272" lon="5.91787">
        <ele>270</ele>
        <time>2021-06-21T10:58:53Z</time>
      </trkpt>
      <trkpt lat="47.20273" lon="5.91779">
        <ele>270.2</ele>
        <time>2021-06-21T10:58:54Z</time>
      </trkpt>
      <trkpt lat="47.20275" lon="5.91765">
        <ele>270.2</ele>
        <time>2021-06-21T10:58:56Z</time>
      </trkpt>
      <trkpt lat="47.20278" lon="5.91753">
        <ele>270</ele>
        <time>2021-06-21T10:58:58Z</time>
      </trkpt>
      <trkpt lat="47.2028" lon="5.91748">
        <ele>270</ele>
        <time>2021-06-21T10:58:59Z</time>
      </trkpt>
      <trkpt lat="47.20281" lon="5.9174">
        <ele>270</ele>
        <time>2021-06-21T10:59:00Z</time>
      </trkpt>
      <trkpt lat="47.20281" lon="5.91739">
        <ele>270</ele>
        <time>2021-06-21T10:59:01Z</time>
      </trkpt>
      <trkpt lat="47.2028" lon="5.91736">
        <ele>270</ele>
        <time>2021-06-21T10:59:02Z</time>
      </trkpt>
      <trkpt lat="47.20277" lon="5.9173">
        <ele>269.8</ele>
        <time>2021-06-21T10:59:03Z</time>
      </trkpt>
      <trkpt lat="47.20275" lon="5.91725">
        <ele>269.8</ele>
        <time>2021-06-21T10:59:04Z</time>
      </trkpt>
      <trkpt lat="47.20274" lon="5.91722">
        <ele>269.8</ele>
        <time>2021-06-21T10:59:05Z</time>
      </trkpt>
      <trkpt lat="47.20272" lon="5.9172">
        <ele>269.8</ele>
        <time>2021-06-21T10:59:06Z</time>
      </trkpt>
      <trkpt lat="47.20259" lon="5.91706">
        <ele>269.6</ele>
        <time>2021-06-21T10:59:09Z</time>
      </trkpt>
      <trkpt lat="47.20258" lon="5.91705">
        <ele>269.4</ele>
        <time>2021-06-21T10:59:10Z</time>
      </trkpt>
      <trkpt lat="47.20254" lon="5.91703">
        <ele>269.4</ele>
        <time>2021-06-21T10:59:12Z</time>
      </trkpt>
      <trkpt lat="47.20251" lon="5.91702">
        <ele>269.4</ele>
        <time>2021-06-21T10:59:13Z</time>
      </trkpt>
      <trkpt lat="47.20242" lon="5.91698">
        <ele>269.8</ele>
        <time>2021-06-21T10:59:16Z</time>
      </trkpt>
      <trkpt lat="47.20239" lon="5.91695">
        <ele>269.8</ele>
        <time>2021-06-21T10:59:17Z</time>
      </trkpt>
      <trkpt lat="47.20234" lon="5.91687">
        <ele>269.8</ele>
        <time>2021-06-21T10:59:19Z</time>
      </trkpt>
      <trkpt lat="47.20231" lon="5.91682">
        <ele>269.8</ele>
        <time>2021-06-21T10:59:20Z</time>
      </trkpt>
      <trkpt lat="47.20228" lon="5.91677">
        <ele>269.8</ele>
        <time>2021-06-21T10:59:21Z</time>
      </trkpt>
      <trkpt lat="47.20218" lon="5.91651">
        <ele>269.8</ele>
        <time>2021-06-21T10:59:25Z</time>
      </trkpt>
      <trkpt lat="47.20217" lon="5.91646">
        <ele>269.6</ele>
        <time>2021-06-21T10:59:26Z</time>
      </trkpt>
      <trkpt lat="47.20217" lon="5.91642">
        <ele>269.6</ele>
        <time>2021-06-21T10:59:27Z</time>
      </trkpt>
      <trkpt lat="47.20215" lon="5.91612">
        <ele>269.6</ele>
        <time>2021-06-21T10:59:32Z</time>
      </trkpt>
      <trkpt lat="47.20213" lon="5.91606">
        <ele>269.6</ele>
        <time>2021-06-21T10:59:33Z</time>
      </trkpt>
      <trkpt lat="47.20212" lon="5.91602">
        <ele>269.8</ele>
        <time>2021-06-21T10:59:34Z</time>
      </trkpt>
      <trkpt lat="47.2021" lon="5.91599">
        <ele>269.8</ele>
        <time>2021-06-21T10:59:35Z</time>
      </trkpt>
      <trkpt lat="47.20208" lon="5.91595">
        <ele>269.8</ele>
        <time>2021-06-21T10:59:36Z</time>
      </trkpt>
      <trkpt lat="47.20205" lon="5.91591">
        <ele>269.8</ele>
        <time>2021-06-21T10:59:37Z</time>
      </trkpt>
      <trkpt lat="47.20203" lon="5.91589">
        <ele>270</ele>
        <time>2021-06-21T10:59:38Z</time>
      </trkpt>
      <trkpt lat="47.202" lon="5.91585">
        <ele>270</ele>
        <time>2021-06-21T10:59:39Z</time>
      </trkpt>
      <trkpt lat="47.20196" lon="5.91578">
        <ele>270</ele>
        <time>2021-06-21T10:59:40Z</time>
      </trkpt>
      <trkpt lat="47.20194" lon="5.91574">
        <ele>270</ele>
        <time>2021-06-21T10:59:41Z</time>
      </trkpt>
      <trkpt lat="47.20192" lon="5.9157">
        <ele>270</ele>
        <time>2021-06-21T10:59:42Z</time>
      </trkpt>
      <trkpt lat="47.2019" lon="5.91565">
        <ele>269.8</ele>
        <time>2021-06-21T10:59:43Z</time>
      </trkpt>
      <trkpt lat="47.20187" lon="5.91555">
        <ele>269.8</ele>
        <time>2021-06-21T10:59:45Z</time>
      </trkpt>
      <trkpt lat="47.20186" lon="5.91549">
        <ele>269.8</ele>
        <time>2021-06-21T10:59:46Z</time>
      </trkpt>
      <trkpt lat="47.20184" lon="5.91544">
        <ele>269.8</ele>
        <time>2021-06-21T10:59:47Z</time>
      </trkpt>
      <trkpt lat="47.2018" lon="5.91537">
        <ele>269.8</ele>
        <time>2021-06-21T10:59:48Z</time>
      </trkpt>
      <trkpt lat="47.20178" lon="5.91532">
        <ele>270</ele>
        <time>2021-06-21T10:59:49Z</time>
      </trkpt>
      <trkpt lat="47.20176" lon="5.91528">
        <ele>270</ele>
        <time>2021-06-21T10:59:50Z</time>
      </trkpt>
      <trkpt lat="47.2017" lon="5.91517">
        <ele>270.4</ele>
        <time>2021-06-21T10:59:53Z</time>
      </trkpt>
      <trkpt lat="47.20158" lon="5.91499">
        <ele>270.8</ele>
        <time>2021-06-21T10:59:58Z</time>
      </trkpt>
      <trkpt lat="47.20156" lon="5.91495">
        <ele>271</ele>
        <time>2021-06-21T10:59:59Z</time>
      </trkpt>
      <trkpt lat="47.20141" lon="5.91463">
        <ele>272.2</ele>
        <time>2021-06-21T11:00:05Z</time>
      </trkpt>
      <trkpt lat="47.20138" lon="5.91455">
        <ele>272.2</ele>
        <time>2021-06-21T11:00:06Z</time>
      </trkpt>
      <trkpt lat="47.2013" lon="5.91431">
        <ele>272.4</ele>
        <time>2021-06-21T11:00:10Z</time>
      </trkpt>
      <trkpt lat="47.20126" lon="5.9142">
        <ele>272.4</ele>
        <time>2021-06-21T11:00:12Z</time>
      </trkpt>
      <trkpt lat="47.20123" lon="5.91415">
        <ele>272.4</ele>
        <time>2021-06-21T11:00:13Z</time>
      </trkpt>
      <trkpt lat="47.20122" lon="5.9141">
        <ele>272.2</ele>
        <time>2021-06-21T11:00:14Z</time>
      </trkpt>
      <trkpt lat="47.2012" lon="5.91404">
        <ele>272.4</ele>
        <time>2021-06-21T11:00:15Z</time>
      </trkpt>
      <trkpt lat="47.20119" lon="5.91399">
        <ele>272.2</ele>
        <time>2021-06-21T11:00:16Z</time>
      </trkpt>
      <trkpt lat="47.20117" lon="5.9138">
        <ele>272.2</ele>
        <time>2021-06-21T11:00:20Z</time>
      </trkpt>
      <trkpt lat="47.20115" lon="5.91377">
        <ele>272.2</ele>
        <time>2021-06-21T11:00:21Z</time>
      </trkpt>
      <trkpt lat="47.20114" lon="5.91373">
        <ele>272.2</ele>
        <time>2021-06-21T11:00:22Z</time>
      </trkpt>
      <trkpt lat="47.20112" lon="5.91368">
        <ele>272.2</ele>
        <time>2021-06-21T11:00:23Z</time>
      </trkpt>
      <trkpt lat="47.20111" lon="5.91363">
        <ele>272.2</ele>
        <time>2021-06-21T11:00:24Z</time>
      </trkpt>
      <trkpt lat="47.201" lon="5.91334">
        <ele>271.6</ele>
        <time>2021-06-21T11:00:30Z</time>
      </trkpt>
      <trkpt lat="47.2009" lon="5.91296">
        <ele>271.8</ele>
        <time>2021-06-21T11:00:37Z</time>
      </trkpt>
      <trkpt lat="47.20089" lon="5.91291">
        <ele>271.8</ele>
        <time>2021-06-21T11:00:39Z</time>
      </trkpt>
      <trkpt lat="47.20087" lon="5.91285">
        <ele>272</ele>
        <time>2021-06-21T11:00:40Z</time>
      </trkpt>
      <trkpt lat="47.20086" lon="5.9128">
        <ele>272</ele>
        <time>2021-06-21T11:00:41Z</time>
      </trkpt>
      <trkpt lat="47.20085" lon="5.91275">
        <ele>272</ele>
        <time>2021-06-21T11:00:42Z</time>
      </trkpt>
      <trkpt lat="47.20084" lon="5.91268">
        <ele>272.2</ele>
        <time>2021-06-21T11:00:44Z</time>
      </trkpt>
      <trkpt lat="47.20083" lon="5.91264">
        <ele>272.2</ele>
        <time>2021-06-21T11:00:45Z</time>
      </trkpt>
      <trkpt lat="47.20079" lon="5.91258">
        <ele>272.6</ele>
        <time>2021-06-21T11:00:47Z</time>
      </trkpt>
      <trkpt lat="47.20076" lon="5.91252">
        <ele>272.6</ele>
        <time>2021-06-21T11:00:48Z</time>
      </trkpt>
      <trkpt lat="47.20075" lon="5.91247">
        <ele>272.8</ele>
        <time>2021-06-21T11:00:49Z</time>
      </trkpt>
      <trkpt lat="47.20074" lon="5.91243">
        <ele>272.8</ele>
        <time>2021-06-21T11:00:50Z</time>
      </trkpt>
      <trkpt lat="47.20068" lon="5.91229">
        <ele>273</ele>
        <time>2021-06-21T11:00:53Z</time>
      </trkpt>
      <trkpt lat="47.2006" lon="5.9121">
        <ele>273</ele>
        <time>2021-06-21T11:00:56Z</time>
      </trkpt>
      <trkpt lat="47.20059" lon="5.91206">
        <ele>273</ele>
        <time>2021-06-21T11:00:57Z</time>
      </trkpt>
      <trkpt lat="47.20057" lon="5.91203">
        <ele>273</ele>
        <time>2021-06-21T11:00:58Z</time>
      </trkpt>
      <trkpt lat="47.20047" lon="5.9118">
        <ele>272.8</ele>
        <time>2021-06-21T11:01:02Z</time>
      </trkpt>
      <trkpt lat="47.20046" lon="5.91174">
        <ele>272.8</ele>
        <time>2021-06-21T11:01:03Z</time>
      </trkpt>
      <trkpt lat="47.20045" lon="5.91171">
        <ele>272.6</ele>
        <time>2021-06-21T11:01:04Z</time>
      </trkpt>
      <trkpt lat="47.20043" lon="5.91169">
        <ele>272.6</ele>
        <time>2021-06-21T11:01:05Z</time>
      </trkpt>
      <trkpt lat="47.20041" lon="5.91167">
        <ele>272.6</ele>
        <time>2021-06-21T11:01:06Z</time>
      </trkpt>
      <trkpt lat="47.20038" lon="5.91163">
        <ele>272.4</ele>
        <time>2021-06-21T11:01:07Z</time>
      </trkpt>
      <trkpt lat="47.20036" lon="5.91159">
        <ele>272.4</ele>
        <time>2021-06-21T11:01:08Z</time>
      </trkpt>
      <trkpt lat="47.20034" lon="5.91156">
        <ele>272.2</ele>
        <time>2021-06-21T11:01:09Z</time>
      </trkpt>
      <trkpt lat="47.2003" lon="5.91151">
        <ele>272</ele>
        <time>2021-06-21T11:01:10Z</time>
      </trkpt>
      <trkpt lat="47.20028" lon="5.91147">
        <ele>272</ele>
        <time>2021-06-21T11:01:11Z</time>
      </trkpt>
      <trkpt lat="47.20026" lon="5.91143">
        <ele>271.8</ele>
        <time>2021-06-21T11:01:12Z</time>
      </trkpt>
      <trkpt lat="47.20007" lon="5.91116">
        <ele>271.4</ele>
        <time>2021-06-21T11:01:16Z</time>
      </trkpt>
      <trkpt lat="47.20003" lon="5.9111">
        <ele>271.4</ele>
        <time>2021-06-21T11:01:17Z</time>
      </trkpt>
      <trkpt lat="47.19999" lon="5.91101">
        <ele>271.4</ele>
        <time>2021-06-21T11:01:18Z</time>
      </trkpt>
      <trkpt lat="47.19997" lon="5.91096">
        <ele>271.2</ele>
        <time>2021-06-21T11:01:19Z</time>
      </trkpt>
      <trkpt lat="47.19989" lon="5.9108">
        <ele>270.8</ele>
        <time>2021-06-21T11:01:22Z</time>
      </trkpt>
      <trkpt lat="47.19973" lon="5.91044">
        <ele>270.6</ele>
        <time>2021-06-21T11:01:27Z</time>
      </trkpt>
      <trkpt lat="47.1997" lon="5.91035">
        <ele>270.4</ele>
        <time>2021-06-21T11:01:28Z</time>
      </trkpt>
      <trkpt lat="47.19968" lon="5.91029">
        <ele>270.4</ele>
        <time>2021-06-21T11:01:29Z</time>
      </trkpt>
      <trkpt lat="47.19965" lon="5.91022">
        <ele>270</ele>
        <time>2021-06-21T11:01:30Z</time>
      </trkpt>
      <trkpt lat="47.19963" lon="5.91013">
        <ele>270</ele>
        <time>2021-06-21T11:01:31Z</time>
      </trkpt>
      <trkpt lat="47.19956" lon="5.90998">
        <ele>269.8</ele>
        <time>2021-06-21T11:01:33Z</time>
      </trkpt>
      <trkpt lat="47.19955" lon="5.90993">
        <ele>269.8</ele>
        <time>2021-06-21T11:01:34Z</time>
      </trkpt>
      <trkpt lat="47.19955" lon="5.90992">
        <ele>269.6</ele>
        <time>2021-06-21T11:01:35Z</time>
      </trkpt>
      <trkpt lat="47.19946" lon="5.90969">
        <ele>269.6</ele>
        <time>2021-06-21T11:01:38Z</time>
      </trkpt>
      <trkpt lat="47.19938" lon="5.90957">
        <ele>269.6</ele>
        <time>2021-06-21T11:01:41Z</time>
      </trkpt>
      <trkpt lat="47.19935" lon="5.90954">
        <ele>269.8</ele>
        <time>2021-06-21T11:01:42Z</time>
      </trkpt>
      <trkpt lat="47.19929" lon="5.90946">
        <ele>270</ele>
        <time>2021-06-21T11:01:44Z</time>
      </trkpt>
      <trkpt lat="47.19917" lon="5.90921">
        <ele>270.2</ele>
        <time>2021-06-21T11:01:49Z</time>
      </trkpt>
      <trkpt lat="47.19917" lon="5.90918">
        <ele>270.4</ele>
        <time>2021-06-21T11:01:50Z</time>
      </trkpt>
      <trkpt lat="47.19916" lon="5.90914">
        <ele>270.4</ele>
        <time>2021-06-21T11:01:51Z</time>
      </trkpt>
      <trkpt lat="47.19915" lon="5.9091">
        <ele>270.6</ele>
        <time>2021-06-21T11:01:52Z</time>
      </trkpt>
      <trkpt lat="47.19914" lon="5.90906">
        <ele>271</ele>
        <time>2021-06-21T11:01:53Z</time>
      </trkpt>
      <trkpt lat="47.19913" lon="5.90905">
        <ele>271.2</ele>
        <time>2021-06-21T11:01:54Z</time>
      </trkpt>
      <trkpt lat="47.19913" lon="5.90904">
        <ele>271.4</ele>
        <time>2021-06-21T11:01:55Z</time>
      </trkpt>
      <trkpt lat="47.19912" lon="5.90902">
        <ele>271.6</ele>
        <time>2021-06-21T11:01:56Z</time>
      </trkpt>
      <trkpt lat="47.1991" lon="5.90898">
        <ele>271.8</ele>
        <time>2021-06-21T11:01:57Z</time>
      </trkpt>
      <trkpt lat="47.19907" lon="5.90892">
        <ele>272</ele>
        <time>2021-06-21T11:01:59Z</time>
      </trkpt>
      <trkpt lat="47.19907" lon="5.9089">
        <ele>272.2</ele>
        <time>2021-06-21T11:02:00Z</time>
      </trkpt>
      <trkpt lat="47.19905" lon="5.90888">
        <ele>272.2</ele>
        <time>2021-06-21T11:02:01Z</time>
      </trkpt>
      <trkpt lat="47.19899" lon="5.90878">
        <ele>272.6</ele>
        <time>2021-06-21T11:02:03Z</time>
      </trkpt>
      <trkpt lat="47.1989" lon="5.90861">
        <ele>272.8</ele>
        <time>2021-06-21T11:02:07Z</time>
      </trkpt>
      <trkpt lat="47.19888" lon="5.90857">
        <ele>272.8</ele>
        <time>2021-06-21T11:02:08Z</time>
      </trkpt>
      <trkpt lat="47.19885" lon="5.90853">
        <ele>272.8</ele>
        <time>2021-06-21T11:02:09Z</time>
      </trkpt>
      <trkpt lat="47.19883" lon="5.90851">
        <ele>272.8</ele>
        <time>2021-06-21T11:02:10Z</time>
      </trkpt>
      <trkpt lat="47.1988" lon="5.90847">
        <ele>272.8</ele>
        <time>2021-06-21T11:02:11Z</time>
      </trkpt>
      <trkpt lat="47.19877" lon="5.90843">
        <ele>272.8</ele>
        <time>2021-06-21T11:02:12Z</time>
      </trkpt>
      <trkpt lat="47.19875" lon="5.9084">
        <ele>272.8</ele>
        <time>2021-06-21T11:02:13Z</time>
      </trkpt>
      <trkpt lat="47.19867" lon="5.90828">
        <ele>272.6</ele>
        <time>2021-06-21T11:02:15Z</time>
      </trkpt>
      <trkpt lat="47.19854" lon="5.90777">
        <ele>272.4</ele>
        <time>2021-06-21T11:02:21Z</time>
      </trkpt>
      <trkpt lat="47.19846" lon="5.90756">
        <ele>272.2</ele>
        <time>2021-06-21T11:02:23Z</time>
      </trkpt>
      <trkpt lat="47.19843" lon="5.90735">
        <ele>271.8</ele>
        <time>2021-06-21T11:02:26Z</time>
      </trkpt>
      <trkpt lat="47.19839" lon="5.90725">
        <ele>271.6</ele>
        <time>2021-06-21T11:02:27Z</time>
      </trkpt>
      <trkpt lat="47.19834" lon="5.90717">
        <ele>270.8</ele>
        <time>2021-06-21T11:02:28Z</time>
      </trkpt>
      <trkpt lat="47.19829" lon="5.90709">
        <ele>270.6</ele>
        <time>2021-06-21T11:02:29Z</time>
      </trkpt>
      <trkpt lat="47.19823" lon="5.90701">
        <ele>269.4</ele>
        <time>2021-06-21T11:02:30Z</time>
      </trkpt>
      <trkpt lat="47.19817" lon="5.90693">
        <ele>268.8</ele>
        <time>2021-06-21T11:02:31Z</time>
      </trkpt>
      <trkpt lat="47.1981" lon="5.90683">
        <ele>268.4</ele>
        <time>2021-06-21T11:02:32Z</time>
      </trkpt>
      <trkpt lat="47.19806" lon="5.90675">
        <ele>268.2</ele>
        <time>2021-06-21T11:02:33Z</time>
      </trkpt>
      <trkpt lat="47.19804" lon="5.90669">
        <ele>268</ele>
        <time>2021-06-21T11:02:34Z</time>
      </trkpt>
      <trkpt lat="47.19803" lon="5.90663">
        <ele>267.6</ele>
        <time>2021-06-21T11:02:35Z</time>
      </trkpt>
      <trkpt lat="47.19803" lon="5.90659">
        <ele>267.4</ele>
        <time>2021-06-21T11:02:36Z</time>
      </trkpt>
      <trkpt lat="47.19803" lon="5.90654">
        <ele>267</ele>
        <time>2021-06-21T11:02:37Z</time>
      </trkpt>
      <trkpt lat="47.19803" lon="5.90647">
        <ele>266.8</ele>
        <time>2021-06-21T11:02:38Z</time>
      </trkpt>
      <trkpt lat="47.19806" lon="5.90644">
        <ele>266.4</ele>
        <time>2021-06-21T11:02:39Z</time>
      </trkpt>
      <trkpt lat="47.19806" lon="5.90639">
        <ele>265.8</ele>
        <time>2021-06-21T11:02:40Z</time>
      </trkpt>
      <trkpt lat="47.19805" lon="5.90635">
        <ele>265.6</ele>
        <time>2021-06-21T11:02:41Z</time>
      </trkpt>
      <trkpt lat="47.19804" lon="5.90631">
        <ele>265</ele>
        <time>2021-06-21T11:02:42Z</time>
      </trkpt>
      <trkpt lat="47.19802" lon="5.90628">
        <ele>264.8</ele>
        <time>2021-06-21T11:02:43Z</time>
      </trkpt>
      <trkpt lat="47.19796" lon="5.90622">
        <ele>264.2</ele>
        <time>2021-06-21T11:02:45Z</time>
      </trkpt>
      <trkpt lat="47.19793" lon="5.9062">
        <ele>264</ele>
        <time>2021-06-21T11:02:46Z</time>
      </trkpt>
      <trkpt lat="47.19789" lon="5.90618">
        <ele>263.6</ele>
        <time>2021-06-21T11:02:47Z</time>
      </trkpt>
      <trkpt lat="47.19781" lon="5.9061">
        <ele>263.2</ele>
        <time>2021-06-21T11:02:49Z</time>
      </trkpt>
      <trkpt lat="47.1978" lon="5.90604">
        <ele>263.2</ele>
        <time>2021-06-21T11:02:50Z</time>
      </trkpt>
      <trkpt lat="47.19782" lon="5.90594">
        <ele>262.4</ele>
        <time>2021-06-21T11:02:52Z</time>
      </trkpt>
      <trkpt lat="47.19784" lon="5.90589">
        <ele>262.2</ele>
        <time>2021-06-21T11:02:53Z</time>
      </trkpt>
      <trkpt lat="47.19795" lon="5.90566">
        <ele>261</ele>
        <time>2021-06-21T11:02:58Z</time>
      </trkpt>
      <trkpt lat="47.19803" lon="5.90555">
        <ele>260.8</ele>
        <time>2021-06-21T11:03:01Z</time>
      </trkpt>
      <trkpt lat="47.19808" lon="5.90552">
        <ele>260.6</ele>
        <time>2021-06-21T11:03:02Z</time>
      </trkpt>
      <trkpt lat="47.19811" lon="5.9055">
        <ele>260.6</ele>
        <time>2021-06-21T11:03:03Z</time>
      </trkpt>
      <trkpt lat="47.19815" lon="5.90548">
        <ele>260.4</ele>
        <time>2021-06-21T11:03:04Z</time>
      </trkpt>
      <trkpt lat="47.1982" lon="5.90547">
        <ele>260.4</ele>
        <time>2021-06-21T11:03:05Z</time>
      </trkpt>
      <trkpt lat="47.1983" lon="5.90547">
        <ele>260.2</ele>
        <time>2021-06-21T11:03:07Z</time>
      </trkpt>
      <trkpt lat="47.19835" lon="5.90548">
        <ele>260.2</ele>
        <time>2021-06-21T11:03:08Z</time>
      </trkpt>
      <trkpt lat="47.19839" lon="5.90548">
        <ele>260</ele>
        <time>2021-06-21T11:03:09Z</time>
      </trkpt>
      <trkpt lat="47.19847" lon="5.9054">
        <ele>259.6</ele>
        <time>2021-06-21T11:03:11Z</time>
      </trkpt>
      <trkpt lat="47.19847" lon="5.90533">
        <ele>259.4</ele>
        <time>2021-06-21T11:03:12Z</time>
      </trkpt>
      <trkpt lat="47.19845" lon="5.90528">
        <ele>259.2</ele>
        <time>2021-06-21T11:03:13Z</time>
      </trkpt>
      <trkpt lat="47.19843" lon="5.90524">
        <ele>259</ele>
        <time>2021-06-21T11:03:14Z</time>
      </trkpt>
      <trkpt lat="47.19841" lon="5.90518">
        <ele>259</ele>
        <time>2021-06-21T11:03:15Z</time>
      </trkpt>
      <trkpt lat="47.19832" lon="5.90498">
        <ele>258.8</ele>
        <time>2021-06-21T11:03:18Z</time>
      </trkpt>
      <trkpt lat="47.1983" lon="5.90484">
        <ele>258.8</ele>
        <time>2021-06-21T11:03:20Z</time>
      </trkpt>
      <trkpt lat="47.1983" lon="5.90474">
        <ele>258.6</ele>
        <time>2021-06-21T11:03:21Z</time>
      </trkpt>
      <trkpt lat="47.19831" lon="5.90467">
        <ele>258.4</ele>
        <time>2021-06-21T11:03:22Z</time>
      </trkpt>
      <trkpt lat="47.19833" lon="5.90456">
        <ele>258.2</ele>
        <time>2021-06-21T11:03:23Z</time>
      </trkpt>
      <trkpt lat="47.19836" lon="5.90449">
        <ele>257.6</ele>
        <time>2021-06-21T11:03:24Z</time>
      </trkpt>
      <trkpt lat="47.19838" lon="5.9044">
        <ele>257.6</ele>
        <time>2021-06-21T11:03:25Z</time>
      </trkpt>
      <trkpt lat="47.19837" lon="5.90418">
        <ele>257.2</ele>
        <time>2021-06-21T11:03:27Z</time>
      </trkpt>
      <trkpt lat="47.19833" lon="5.90409">
        <ele>256.6</ele>
        <time>2021-06-21T11:03:28Z</time>
      </trkpt>
      <trkpt lat="47.19829" lon="5.90404">
        <ele>256</ele>
        <time>2021-06-21T11:03:29Z</time>
      </trkpt>
      <trkpt lat="47.19825" lon="5.90399">
        <ele>255.4</ele>
        <time>2021-06-21T11:03:30Z</time>
      </trkpt>
      <trkpt lat="47.19818" lon="5.90396">
        <ele>254.6</ele>
        <time>2021-06-21T11:03:31Z</time>
      </trkpt>
      <trkpt lat="47.19809" lon="5.90395">
        <ele>254.4</ele>
        <time>2021-06-21T11:03:32Z</time>
      </trkpt>
      <trkpt lat="47.198" lon="5.90397">
        <ele>253.6</ele>
        <time>2021-06-21T11:03:33Z</time>
      </trkpt>
      <trkpt lat="47.19793" lon="5.90399">
        <ele>253.2</ele>
        <time>2021-06-21T11:03:34Z</time>
      </trkpt>
      <trkpt lat="47.19784" lon="5.904">
        <ele>252.4</ele>
        <time>2021-06-21T11:03:35Z</time>
      </trkpt>
      <trkpt lat="47.19773" lon="5.90401">
        <ele>252</ele>
        <time>2021-06-21T11:03:36Z</time>
      </trkpt>
      <trkpt lat="47.19765" lon="5.90401">
        <ele>251.2</ele>
        <time>2021-06-21T11:03:37Z</time>
      </trkpt>
      <trkpt lat="47.19758" lon="5.90398">
        <ele>250</ele>
        <time>2021-06-21T11:03:38Z</time>
      </trkpt>
      <trkpt lat="47.19753" lon="5.90394">
        <ele>249.6</ele>
        <time>2021-06-21T11:03:39Z</time>
      </trkpt>
      <trkpt lat="47.19747" lon="5.90389">
        <ele>248.4</ele>
        <time>2021-06-21T11:03:40Z</time>
      </trkpt>
      <trkpt lat="47.19742" lon="5.90379">
        <ele>248</ele>
        <time>2021-06-21T11:03:41Z</time>
      </trkpt>
      <trkpt lat="47.19739" lon="5.90367">
        <ele>247.4</ele>
        <time>2021-06-21T11:03:42Z</time>
      </trkpt>
      <trkpt lat="47.19737" lon="5.90355">
        <ele>247</ele>
        <time>2021-06-21T11:03:43Z</time>
      </trkpt>
      <trkpt lat="47.19736" lon="5.90344">
        <ele>246</ele>
        <time>2021-06-21T11:03:44Z</time>
      </trkpt>
      <trkpt lat="47.19736" lon="5.90331">
        <ele>245</ele>
        <time>2021-06-21T11:03:45Z</time>
      </trkpt>
      <trkpt lat="47.19738" lon="5.90315">
        <ele>244.6</ele>
        <time>2021-06-21T11:03:46Z</time>
      </trkpt>
      <trkpt lat="47.1974" lon="5.90303">
        <ele>244</ele>
        <time>2021-06-21T11:03:47Z</time>
      </trkpt>
      <trkpt lat="47.19744" lon="5.90292">
        <ele>243.6</ele>
        <time>2021-06-21T11:03:48Z</time>
      </trkpt>
      <trkpt lat="47.19746" lon="5.90285">
        <ele>243</ele>
        <time>2021-06-21T11:03:49Z</time>
      </trkpt>
      <trkpt lat="47.19749" lon="5.90277">
        <ele>243</ele>
        <time>2021-06-21T11:03:50Z</time>
      </trkpt>
      <trkpt lat="47.19752" lon="5.90268">
        <ele>242.8</ele>
        <time>2021-06-21T11:03:51Z</time>
      </trkpt>
      <trkpt lat="47.19753" lon="5.90262">
        <ele>242.8</ele>
        <time>2021-06-21T11:03:52Z</time>
      </trkpt>
      <trkpt lat="47.19753" lon="5.90256">
        <ele>242.8</ele>
        <time>2021-06-21T11:03:53Z</time>
      </trkpt>
      <trkpt lat="47.19753" lon="5.90252">
        <ele>242.8</ele>
        <time>2021-06-21T11:03:54Z</time>
      </trkpt>
      <trkpt lat="47.19753" lon="5.90248">
        <ele>242.8</ele>
        <time>2021-06-21T11:03:55Z</time>
      </trkpt>
      <trkpt lat="47.19753" lon="5.90243">
        <ele>243.2</ele>
        <time>2021-06-21T11:03:56Z</time>
      </trkpt>
      <trkpt lat="47.19752" lon="5.9024">
        <ele>243.6</ele>
        <time>2021-06-21T11:03:57Z</time>
      </trkpt>
      <trkpt lat="47.19752" lon="5.90236">
        <ele>243.8</ele>
        <time>2021-06-21T11:03:58Z</time>
      </trkpt>
      <trkpt lat="47.19751" lon="5.90233">
        <ele>244.4</ele>
        <time>2021-06-21T11:03:59Z</time>
      </trkpt>
      <trkpt lat="47.19749" lon="5.90226">
        <ele>244.8</ele>
        <time>2021-06-21T11:04:01Z</time>
      </trkpt>
      <trkpt lat="47.19748" lon="5.90224">
        <ele>245</ele>
        <time>2021-06-21T11:04:02Z</time>
      </trkpt>
      <trkpt lat="47.19747" lon="5.90221">
        <ele>245.2</ele>
        <time>2021-06-21T11:04:03Z</time>
      </trkpt>
      <trkpt lat="47.19745" lon="5.90218">
        <ele>245.4</ele>
        <time>2021-06-21T11:04:04Z</time>
      </trkpt>
      <trkpt lat="47.19744" lon="5.90215">
        <ele>245.8</ele>
        <time>2021-06-21T11:04:05Z</time>
      </trkpt>
      <trkpt lat="47.19742" lon="5.90212">
        <ele>245.8</ele>
        <time>2021-06-21T11:04:06Z</time>
      </trkpt>
      <trkpt lat="47.19741" lon="5.90209">
        <ele>246</ele>
        <time>2021-06-21T11:04:07Z</time>
      </trkpt>
      <trkpt lat="47.19739" lon="5.90206">
        <ele>246.4</ele>
        <time>2021-06-21T11:04:08Z</time>
      </trkpt>
      <trkpt lat="47.19739" lon="5.90204">
        <ele>246.6</ele>
        <time>2021-06-21T11:04:09Z</time>
      </trkpt>
      <trkpt lat="47.19737" lon="5.90201">
        <ele>246.8</ele>
        <time>2021-06-21T11:04:10Z</time>
      </trkpt>
      <trkpt lat="47.19735" lon="5.90194">
        <ele>247.2</ele>
        <time>2021-06-21T11:04:12Z</time>
      </trkpt>
      <trkpt lat="47.19733" lon="5.90188">
        <ele>247.6</ele>
        <time>2021-06-21T11:04:14Z</time>
      </trkpt>
      <trkpt lat="47.19732" lon="5.90186">
        <ele>247.8</ele>
        <time>2021-06-21T11:04:15Z</time>
      </trkpt>
      <trkpt lat="47.1973" lon="5.90182">
        <ele>247.8</ele>
        <time>2021-06-21T11:04:16Z</time>
      </trkpt>
      <trkpt lat="47.19726" lon="5.90175">
        <ele>248.8</ele>
        <time>2021-06-21T11:04:19Z</time>
      </trkpt>
      <trkpt lat="47.19725" lon="5.90172">
        <ele>249</ele>
        <time>2021-06-21T11:04:20Z</time>
      </trkpt>
      <trkpt lat="47.19724" lon="5.90169">
        <ele>249.2</ele>
        <time>2021-06-21T11:04:21Z</time>
      </trkpt>
      <trkpt lat="47.19723" lon="5.90166">
        <ele>249.4</ele>
        <time>2021-06-21T11:04:22Z</time>
      </trkpt>
      <trkpt lat="47.19723" lon="5.90163">
        <ele>249.4</ele>
        <time>2021-06-21T11:04:23Z</time>
      </trkpt>
      <trkpt lat="47.19722" lon="5.90161">
        <ele>249.8</ele>
        <time>2021-06-21T11:04:24Z</time>
      </trkpt>
      <trkpt lat="47.19721" lon="5.90159">
        <ele>250</ele>
        <time>2021-06-21T11:04:25Z</time>
      </trkpt>
      <trkpt lat="47.1972" lon="5.90156">
        <ele>250.4</ele>
        <time>2021-06-21T11:04:26Z</time>
      </trkpt>
      <trkpt lat="47.19719" lon="5.90153">
        <ele>250.4</ele>
        <time>2021-06-21T11:04:27Z</time>
      </trkpt>
      <trkpt lat="47.19718" lon="5.90151">
        <ele>250.6</ele>
        <time>2021-06-21T11:04:28Z</time>
      </trkpt>
      <trkpt lat="47.19717" lon="5.90149">
        <ele>251</ele>
        <time>2021-06-21T11:04:29Z</time>
      </trkpt>
      <trkpt lat="47.19717" lon="5.90146">
        <ele>251</ele>
        <time>2021-06-21T11:04:30Z</time>
      </trkpt>
      <trkpt lat="47.19715" lon="5.90142">
        <ele>251.4</ele>
        <time>2021-06-21T11:04:31Z</time>
      </trkpt>
      <trkpt lat="47.19714" lon="5.90139">
        <ele>251.6</ele>
        <time>2021-06-21T11:04:32Z</time>
      </trkpt>
      <trkpt lat="47.19714" lon="5.90137">
        <ele>251.8</ele>
        <time>2021-06-21T11:04:33Z</time>
      </trkpt>
      <trkpt lat="47.19713" lon="5.90135">
        <ele>252</ele>
        <time>2021-06-21T11:04:34Z</time>
      </trkpt>
      <trkpt lat="47.19712" lon="5.90132">
        <ele>252.2</ele>
        <time>2021-06-21T11:04:35Z</time>
      </trkpt>
      <trkpt lat="47.19711" lon="5.90129">
        <ele>252.4</ele>
        <time>2021-06-21T11:04:36Z</time>
      </trkpt>
      <trkpt lat="47.1971" lon="5.90126">
        <ele>252.4</ele>
        <time>2021-06-21T11:04:37Z</time>
      </trkpt>
      <trkpt lat="47.19709" lon="5.90123">
        <ele>252.8</ele>
        <time>2021-06-21T11:04:38Z</time>
      </trkpt>
      <trkpt lat="47.19708" lon="5.90121">
        <ele>253</ele>
        <time>2021-06-21T11:04:39Z</time>
      </trkpt>
      <trkpt lat="47.19707" lon="5.90118">
        <ele>253.2</ele>
        <time>2021-06-21T11:04:40Z</time>
      </trkpt>
      <trkpt lat="47.19707" lon="5.90115">
        <ele>253.4</ele>
        <time>2021-06-21T11:04:41Z</time>
      </trkpt>
      <trkpt lat="47.19707" lon="5.90113">
        <ele>253.6</ele>
        <time>2021-06-21T11:04:42Z</time>
      </trkpt>
      <trkpt lat="47.19707" lon="5.90109">
        <ele>254.2</ele>
        <time>2021-06-21T11:04:43Z</time>
      </trkpt>
      <trkpt lat="47.19707" lon="5.90107">
        <ele>254.2</ele>
        <time>2021-06-21T11:04:44Z</time>
      </trkpt>
      <trkpt lat="47.19707" lon="5.90104">
        <ele>254.6</ele>
        <time>2021-06-21T11:04:45Z</time>
      </trkpt>
      <trkpt lat="47.19707" lon="5.901">
        <ele>254.8</ele>
        <time>2021-06-21T11:04:46Z</time>
      </trkpt>
      <trkpt lat="47.19707" lon="5.90097">
        <ele>255</ele>
        <time>2021-06-21T11:04:47Z</time>
      </trkpt>
      <trkpt lat="47.19707" lon="5.90095">
        <ele>255</ele>
        <time>2021-06-21T11:04:48Z</time>
      </trkpt>
      <trkpt lat="47.19707" lon="5.90093">
        <ele>255.4</ele>
        <time>2021-06-21T11:04:49Z</time>
      </trkpt>
      <trkpt lat="47.19707" lon="5.90091">
        <ele>255.6</ele>
        <time>2021-06-21T11:04:50Z</time>
      </trkpt>
      <trkpt lat="47.19707" lon="5.90088">
        <ele>255.8</ele>
        <time>2021-06-21T11:04:51Z</time>
      </trkpt>
      <trkpt lat="47.19707" lon="5.90086">
        <ele>256</ele>
        <time>2021-06-21T11:04:52Z</time>
      </trkpt>
      <trkpt lat="47.19707" lon="5.90083">
        <ele>256.2</ele>
        <time>2021-06-21T11:04:53Z</time>
      </trkpt>
      <trkpt lat="47.19707" lon="5.90082">
        <ele>256.4</ele>
        <time>2021-06-21T11:04:54Z</time>
      </trkpt>
      <trkpt lat="47.19706" lon="5.9008">
        <ele>256.6</ele>
        <time>2021-06-21T11:04:55Z</time>
      </trkpt>
      <trkpt lat="47.19705" lon="5.90077">
        <ele>256.8</ele>
        <time>2021-06-21T11:04:56Z</time>
      </trkpt>
      <trkpt lat="47.19704" lon="5.90075">
        <ele>257</ele>
        <time>2021-06-21T11:04:57Z</time>
      </trkpt>
      <trkpt lat="47.19703" lon="5.90073">
        <ele>257.2</ele>
        <time>2021-06-21T11:04:58Z</time>
      </trkpt>
      <trkpt lat="47.19702" lon="5.90071">
        <ele>257.2</ele>
        <time>2021-06-21T11:04:59Z</time>
      </trkpt>
      <trkpt lat="47.19701" lon="5.90069">
        <ele>257.2</ele>
        <time>2021-06-21T11:05:00Z</time>
      </trkpt>
      <trkpt lat="47.197" lon="5.90066">
        <ele>257.4</ele>
        <time>2021-06-21T11:05:01Z</time>
      </trkpt>
      <trkpt lat="47.19699" lon="5.90063">
        <ele>257.4</ele>
        <time>2021-06-21T11:05:02Z</time>
      </trkpt>
      <trkpt lat="47.19698" lon="5.9006">
        <ele>257.6</ele>
        <time>2021-06-21T11:05:03Z</time>
      </trkpt>
      <trkpt lat="47.19698" lon="5.90058">
        <ele>257.8</ele>
        <time>2021-06-21T11:05:04Z</time>
      </trkpt>
      <trkpt lat="47.19697" lon="5.90054">
        <ele>258</ele>
        <time>2021-06-21T11:05:05Z</time>
      </trkpt>
      <trkpt lat="47.19697" lon="5.90051">
        <ele>258.2</ele>
        <time>2021-06-21T11:05:06Z</time>
      </trkpt>
      <trkpt lat="47.19696" lon="5.90048">
        <ele>258.2</ele>
        <time>2021-06-21T11:05:07Z</time>
      </trkpt>
      <trkpt lat="47.19696" lon="5.90044">
        <ele>258.2</ele>
        <time>2021-06-21T11:05:08Z</time>
      </trkpt>
      <trkpt lat="47.19695" lon="5.90041">
        <ele>258.4</ele>
        <time>2021-06-21T11:05:09Z</time>
      </trkpt>
      <trkpt lat="47.19694" lon="5.90037">
        <ele>258.4</ele>
        <time>2021-06-21T11:05:10Z</time>
      </trkpt>
      <trkpt lat="47.19694" lon="5.90033">
        <ele>258.4</ele>
        <time>2021-06-21T11:05:11Z</time>
      </trkpt>
      <trkpt lat="47.19694" lon="5.9003">
        <ele>258.4</ele>
        <time>2021-06-21T11:05:12Z</time>
      </trkpt>
      <trkpt lat="47.19694" lon="5.90025">
        <ele>258.6</ele>
        <time>2021-06-21T11:05:13Z</time>
      </trkpt>
      <trkpt lat="47.19693" lon="5.90021">
        <ele>258.6</ele>
        <time>2021-06-21T11:05:14Z</time>
      </trkpt>
      <trkpt lat="47.19693" lon="5.90016">
        <ele>258.6</ele>
        <time>2021-06-21T11:05:15Z</time>
      </trkpt>
      <trkpt lat="47.19693" lon="5.90011">
        <ele>258.6</ele>
        <time>2021-06-21T11:05:16Z</time>
      </trkpt>
      <trkpt lat="47.19692" lon="5.90006">
        <ele>258.8</ele>
        <time>2021-06-21T11:05:17Z</time>
      </trkpt>
      <trkpt lat="47.19692" lon="5.90001">
        <ele>258.8</ele>
        <time>2021-06-21T11:05:18Z</time>
      </trkpt>
      <trkpt lat="47.19692" lon="5.89996">
        <ele>258.8</ele>
        <time>2021-06-21T11:05:19Z</time>
      </trkpt>
      <trkpt lat="47.19691" lon="5.8999">
        <ele>258.8</ele>
        <time>2021-06-21T11:05:20Z</time>
      </trkpt>
      <trkpt lat="47.19691" lon="5.89985">
        <ele>258.8</ele>
        <time>2021-06-21T11:05:21Z</time>
      </trkpt>
      <trkpt lat="47.19691" lon="5.89979">
        <ele>258.8</ele>
        <time>2021-06-21T11:05:22Z</time>
      </trkpt>
      <trkpt lat="47.19691" lon="5.89973">
        <ele>258.8</ele>
        <time>2021-06-21T11:05:23Z</time>
      </trkpt>
      <trkpt lat="47.19691" lon="5.89967">
        <ele>258.8</ele>
        <time>2021-06-21T11:05:24Z</time>
      </trkpt>
      <trkpt lat="47.19691" lon="5.89956">
        <ele>259</ele>
        <time>2021-06-21T11:05:26Z</time>
      </trkpt>
      <trkpt lat="47.19683" lon="5.89928">
        <ele>258.8</ele>
        <time>2021-06-21T11:05:31Z</time>
      </trkpt>
      <trkpt lat="47.19678" lon="5.89919">
        <ele>258.8</ele>
        <time>2021-06-21T11:05:33Z</time>
      </trkpt>
      <trkpt lat="47.19677" lon="5.89915">
        <ele>258.6</ele>
        <time>2021-06-21T11:05:34Z</time>
      </trkpt>
      <trkpt lat="47.19671" lon="5.89902">
        <ele>258.6</ele>
        <time>2021-06-21T11:05:37Z</time>
      </trkpt>
      <trkpt lat="47.1967" lon="5.89898">
        <ele>258.4</ele>
        <time>2021-06-21T11:05:38Z</time>
      </trkpt>
      <trkpt lat="47.19668" lon="5.89894">
        <ele>258.4</ele>
        <time>2021-06-21T11:05:39Z</time>
      </trkpt>
      <trkpt lat="47.19666" lon="5.89889">
        <ele>258.4</ele>
        <time>2021-06-21T11:05:40Z</time>
      </trkpt>
      <trkpt lat="47.19664" lon="5.89885">
        <ele>258.4</ele>
        <time>2021-06-21T11:05:41Z</time>
      </trkpt>
      <trkpt lat="47.19662" lon="5.89881">
        <ele>258.4</ele>
        <time>2021-06-21T11:05:42Z</time>
      </trkpt>
      <trkpt lat="47.19661" lon="5.89877">
        <ele>258.2</ele>
        <time>2021-06-21T11:05:43Z</time>
      </trkpt>
      <trkpt lat="47.19652" lon="5.89854">
        <ele>258.2</ele>
        <time>2021-06-21T11:05:48Z</time>
      </trkpt>
      <trkpt lat="47.19647" lon="5.89811">
        <ele>258.6</ele>
        <time>2021-06-21T11:05:56Z</time>
      </trkpt>
      <trkpt lat="47.19646" lon="5.8976">
        <ele>258.8</ele>
        <time>2021-06-21T11:06:05Z</time>
      </trkpt>
      <trkpt lat="47.19644" lon="5.89731">
        <ele>258.6</ele>
        <time>2021-06-21T11:06:10Z</time>
      </trkpt>
      <trkpt lat="47.19643" lon="5.89707">
        <ele>258.8</ele>
        <time>2021-06-21T11:06:14Z</time>
      </trkpt>
      <trkpt lat="47.19643" lon="5.89702">
        <ele>258.8</ele>
        <time>2021-06-21T11:06:15Z</time>
      </trkpt>
      <trkpt lat="47.19642" lon="5.89696">
        <ele>258.8</ele>
        <time>2021-06-21T11:06:16Z</time>
      </trkpt>
      <trkpt lat="47.19641" lon="5.89686">
        <ele>259</ele>
        <time>2021-06-21T11:06:18Z</time>
      </trkpt>
      <trkpt lat="47.1964" lon="5.89682">
        <ele>259.2</ele>
        <time>2021-06-21T11:06:19Z</time>
      </trkpt>
      <trkpt lat="47.1964" lon="5.89679">
        <ele>259.2</ele>
        <time>2021-06-21T11:06:20Z</time>
      </trkpt>
      <trkpt lat="47.1964" lon="5.89676">
        <ele>259.4</ele>
        <time>2021-06-21T11:06:21Z</time>
      </trkpt>
      <trkpt lat="47.1964" lon="5.89673">
        <ele>259.4</ele>
        <time>2021-06-21T11:06:22Z</time>
      </trkpt>
      <trkpt lat="47.19641" lon="5.8967">
        <ele>259.6</ele>
        <time>2021-06-21T11:06:23Z</time>
      </trkpt>
      <trkpt lat="47.19642" lon="5.89668">
        <ele>259.8</ele>
        <time>2021-06-21T11:06:24Z</time>
      </trkpt>
      <trkpt lat="47.19644" lon="5.89667">
        <ele>260</ele>
        <time>2021-06-21T11:06:25Z</time>
      </trkpt>
      <trkpt lat="47.19645" lon="5.89665">
        <ele>260</ele>
        <time>2021-06-21T11:06:26Z</time>
      </trkpt>
      <trkpt lat="47.19647" lon="5.89662">
        <ele>260</ele>
        <time>2021-06-21T11:06:27Z</time>
      </trkpt>
      <trkpt lat="47.19648" lon="5.89658">
        <ele>260.2</ele>
        <time>2021-06-21T11:06:28Z</time>
      </trkpt>
      <trkpt lat="47.19648" lon="5.89654">
        <ele>260.2</ele>
        <time>2021-06-21T11:06:29Z</time>
      </trkpt>
      <trkpt lat="47.19648" lon="5.8965">
        <ele>260.2</ele>
        <time>2021-06-21T11:06:30Z</time>
      </trkpt>
      <trkpt lat="47.19648" lon="5.89646">
        <ele>260.4</ele>
        <time>2021-06-21T11:06:31Z</time>
      </trkpt>
      <trkpt lat="47.19655" lon="5.89624">
        <ele>260.4</ele>
        <time>2021-06-21T11:06:36Z</time>
      </trkpt>
      <trkpt lat="47.19662" lon="5.89596">
        <ele>260.6</ele>
        <time>2021-06-21T11:06:42Z</time>
      </trkpt>
      <trkpt lat="47.19662" lon="5.89591">
        <ele>260.6</ele>
        <time>2021-06-21T11:06:43Z</time>
      </trkpt>
      <trkpt lat="47.19661" lon="5.89585">
        <ele>260.6</ele>
        <time>2021-06-21T11:06:44Z</time>
      </trkpt>
      <trkpt lat="47.19658" lon="5.89563">
        <ele>260.8</ele>
        <time>2021-06-21T11:06:48Z</time>
      </trkpt>
      <trkpt lat="47.19653" lon="5.89539">
        <ele>261.2</ele>
        <time>2021-06-21T11:06:52Z</time>
      </trkpt>
      <trkpt lat="47.19645" lon="5.89511">
        <ele>261.6</ele>
        <time>2021-06-21T11:06:57Z</time>
      </trkpt>
      <trkpt lat="47.1964" lon="5.89496">
        <ele>261.8</ele>
        <time>2021-06-21T11:07:00Z</time>
      </trkpt>
      <trkpt lat="47.19639" lon="5.89492">
        <ele>262</ele>
        <time>2021-06-21T11:07:01Z</time>
      </trkpt>
      <trkpt lat="47.19637" lon="5.89488">
        <ele>262.2</ele>
        <time>2021-06-21T11:07:02Z</time>
      </trkpt>
      <trkpt lat="47.19636" lon="5.89483">
        <ele>262.4</ele>
        <time>2021-06-21T11:07:03Z</time>
      </trkpt>
      <trkpt lat="47.19634" lon="5.89479">
        <ele>262.6</ele>
        <time>2021-06-21T11:07:04Z</time>
      </trkpt>
      <trkpt lat="47.19633" lon="5.89474">
        <ele>262.8</ele>
        <time>2021-06-21T11:07:05Z</time>
      </trkpt>
      <trkpt lat="47.19631" lon="5.8947">
        <ele>263</ele>
        <time>2021-06-21T11:07:06Z</time>
      </trkpt>
      <trkpt lat="47.1963" lon="5.89465">
        <ele>263.4</ele>
        <time>2021-06-21T11:07:07Z</time>
      </trkpt>
      <trkpt lat="47.19628" lon="5.8946">
        <ele>263.6</ele>
        <time>2021-06-21T11:07:08Z</time>
      </trkpt>
      <trkpt lat="47.19627" lon="5.89456">
        <ele>263.8</ele>
        <time>2021-06-21T11:07:09Z</time>
      </trkpt>
      <trkpt lat="47.19625" lon="5.89451">
        <ele>263.8</ele>
        <time>2021-06-21T11:07:10Z</time>
      </trkpt>
      <trkpt lat="47.19624" lon="5.89446">
        <ele>264</ele>
        <time>2021-06-21T11:07:11Z</time>
      </trkpt>
      <trkpt lat="47.19623" lon="5.89442">
        <ele>264.2</ele>
        <time>2021-06-21T11:07:12Z</time>
      </trkpt>
      <trkpt lat="47.19621" lon="5.89437">
        <ele>264.2</ele>
        <time>2021-06-21T11:07:13Z</time>
      </trkpt>
      <trkpt lat="47.1962" lon="5.89432">
        <ele>264.4</ele>
        <time>2021-06-21T11:07:14Z</time>
      </trkpt>
      <trkpt lat="47.19619" lon="5.89427">
        <ele>264.4</ele>
        <time>2021-06-21T11:07:15Z</time>
      </trkpt>
      <trkpt lat="47.19617" lon="5.89423">
        <ele>264.4</ele>
        <time>2021-06-21T11:07:16Z</time>
      </trkpt>
      <trkpt lat="47.19616" lon="5.89419">
        <ele>264.6</ele>
        <time>2021-06-21T11:07:17Z</time>
      </trkpt>
      <trkpt lat="47.19615" lon="5.89414">
        <ele>264.6</ele>
        <time>2021-06-21T11:07:18Z</time>
      </trkpt>
      <trkpt lat="47.19613" lon="5.8941">
        <ele>264.8</ele>
        <time>2021-06-21T11:07:19Z</time>
      </trkpt>
      <trkpt lat="47.19612" lon="5.89405">
        <ele>264.8</ele>
        <time>2021-06-21T11:07:20Z</time>
      </trkpt>
      <trkpt lat="47.1961" lon="5.894">
        <ele>265</ele>
        <time>2021-06-21T11:07:21Z</time>
      </trkpt>
      <trkpt lat="47.19609" lon="5.89395">
        <ele>265</ele>
        <time>2021-06-21T11:07:22Z</time>
      </trkpt>
      <trkpt lat="47.19607" lon="5.8939">
        <ele>265</ele>
        <time>2021-06-21T11:07:23Z</time>
      </trkpt>
      <trkpt lat="47.19605" lon="5.89385">
        <ele>265</ele>
        <time>2021-06-21T11:07:24Z</time>
      </trkpt>
      <trkpt lat="47.19603" lon="5.89379">
        <ele>265</ele>
        <time>2021-06-21T11:07:25Z</time>
      </trkpt>
      <trkpt lat="47.19601" lon="5.89374">
        <ele>265.2</ele>
        <time>2021-06-21T11:07:26Z</time>
      </trkpt>
      <trkpt lat="47.196" lon="5.89369">
        <ele>265.2</ele>
        <time>2021-06-21T11:07:27Z</time>
      </trkpt>
      <trkpt lat="47.19598" lon="5.89364">
        <ele>265.2</ele>
        <time>2021-06-21T11:07:28Z</time>
      </trkpt>
      <trkpt lat="47.19596" lon="5.89359">
        <ele>265.2</ele>
        <time>2021-06-21T11:07:29Z</time>
      </trkpt>
      <trkpt lat="47.19595" lon="5.89354">
        <ele>265.4</ele>
        <time>2021-06-21T11:07:30Z</time>
      </trkpt>
      <trkpt lat="47.19593" lon="5.89349">
        <ele>265.4</ele>
        <time>2021-06-21T11:07:31Z</time>
      </trkpt>
      <trkpt lat="47.19592" lon="5.89344">
        <ele>265.4</ele>
        <time>2021-06-21T11:07:32Z</time>
      </trkpt>
      <trkpt lat="47.19591" lon="5.8934">
        <ele>265.4</ele>
        <time>2021-06-21T11:07:33Z</time>
      </trkpt>
      <trkpt lat="47.19589" lon="5.89335">
        <ele>265.4</ele>
        <time>2021-06-21T11:07:34Z</time>
      </trkpt>
      <trkpt lat="47.19588" lon="5.89331">
        <ele>265.6</ele>
        <time>2021-06-21T11:07:35Z</time>
      </trkpt>
      <trkpt lat="47.19586" lon="5.89326">
        <ele>265.6</ele>
        <time>2021-06-21T11:07:36Z</time>
      </trkpt>
      <trkpt lat="47.19585" lon="5.89322">
        <ele>265.8</ele>
        <time>2021-06-21T11:07:37Z</time>
      </trkpt>
      <trkpt lat="47.19583" lon="5.89318">
        <ele>266</ele>
        <time>2021-06-21T11:07:38Z</time>
      </trkpt>
      <trkpt lat="47.19582" lon="5.89313">
        <ele>266.2</ele>
        <time>2021-06-21T11:07:39Z</time>
      </trkpt>
      <trkpt lat="47.19582" lon="5.89309">
        <ele>266.4</ele>
        <time>2021-06-21T11:07:40Z</time>
      </trkpt>
      <trkpt lat="47.19581" lon="5.89304">
        <ele>266.8</ele>
        <time>2021-06-21T11:07:41Z</time>
      </trkpt>
      <trkpt lat="47.1958" lon="5.89299">
        <ele>267</ele>
        <time>2021-06-21T11:07:42Z</time>
      </trkpt>
      <trkpt lat="47.1958" lon="5.89295">
        <ele>267</ele>
        <time>2021-06-21T11:07:43Z</time>
      </trkpt>
      <trkpt lat="47.19579" lon="5.89291">
        <ele>267.4</ele>
        <time>2021-06-21T11:07:44Z</time>
      </trkpt>
      <trkpt lat="47.19578" lon="5.89282">
        <ele>268</ele>
        <time>2021-06-21T11:07:46Z</time>
      </trkpt>
      <trkpt lat="47.19577" lon="5.89277">
        <ele>268.2</ele>
        <time>2021-06-21T11:07:47Z</time>
      </trkpt>
      <trkpt lat="47.19576" lon="5.89273">
        <ele>268.2</ele>
        <time>2021-06-21T11:07:48Z</time>
      </trkpt>
      <trkpt lat="47.19576" lon="5.89269">
        <ele>268.2</ele>
        <time>2021-06-21T11:07:49Z</time>
      </trkpt>
      <trkpt lat="47.19575" lon="5.89264">
        <ele>268.4</ele>
        <time>2021-06-21T11:07:50Z</time>
      </trkpt>
      <trkpt lat="47.19574" lon="5.8926">
        <ele>268.6</ele>
        <time>2021-06-21T11:07:51Z</time>
      </trkpt>
      <trkpt lat="47.19574" lon="5.89256">
        <ele>268.6</ele>
        <time>2021-06-21T11:07:52Z</time>
      </trkpt>
      <trkpt lat="47.19573" lon="5.89251">
        <ele>268.8</ele>
        <time>2021-06-21T11:07:53Z</time>
      </trkpt>
      <trkpt lat="47.19573" lon="5.89247">
        <ele>268.8</ele>
        <time>2021-06-21T11:07:54Z</time>
      </trkpt>
      <trkpt lat="47.19573" lon="5.89243">
        <ele>269</ele>
        <time>2021-06-21T11:07:55Z</time>
      </trkpt>
      <trkpt lat="47.19573" lon="5.89238">
        <ele>269</ele>
        <time>2021-06-21T11:07:56Z</time>
      </trkpt>
      <trkpt lat="47.19572" lon="5.89233">
        <ele>269</ele>
        <time>2021-06-21T11:07:57Z</time>
      </trkpt>
      <trkpt lat="47.19572" lon="5.89228">
        <ele>269.2</ele>
        <time>2021-06-21T11:07:58Z</time>
      </trkpt>
      <trkpt lat="47.19572" lon="5.89223">
        <ele>269.2</ele>
        <time>2021-06-21T11:07:59Z</time>
      </trkpt>
      <trkpt lat="47.19571" lon="5.89218">
        <ele>269.2</ele>
        <time>2021-06-21T11:08:00Z</time>
      </trkpt>
      <trkpt lat="47.19571" lon="5.89214">
        <ele>269.4</ele>
        <time>2021-06-21T11:08:01Z</time>
      </trkpt>
      <trkpt lat="47.19571" lon="5.89209">
        <ele>269.4</ele>
        <time>2021-06-21T11:08:02Z</time>
      </trkpt>
      <trkpt lat="47.1957" lon="5.89204">
        <ele>269.4</ele>
        <time>2021-06-21T11:08:03Z</time>
      </trkpt>
      <trkpt lat="47.1957" lon="5.89198">
        <ele>269.4</ele>
        <time>2021-06-21T11:08:04Z</time>
      </trkpt>
      <trkpt lat="47.1957" lon="5.89193">
        <ele>269.4</ele>
        <time>2021-06-21T11:08:05Z</time>
      </trkpt>
      <trkpt lat="47.1957" lon="5.89187">
        <ele>269.4</ele>
        <time>2021-06-21T11:08:06Z</time>
      </trkpt>
      <trkpt lat="47.19569" lon="5.89181">
        <ele>269.4</ele>
        <time>2021-06-21T11:08:07Z</time>
      </trkpt>
      <trkpt lat="47.19569" lon="5.89175">
        <ele>269.2</ele>
        <time>2021-06-21T11:08:08Z</time>
      </trkpt>
      <trkpt lat="47.19569" lon="5.89169">
        <ele>269.2</ele>
        <time>2021-06-21T11:08:09Z</time>
      </trkpt>
      <trkpt lat="47.19567" lon="5.8914">
        <ele>269.2</ele>
        <time>2021-06-21T11:08:14Z</time>
      </trkpt>
      <trkpt lat="47.19566" lon="5.89124">
        <ele>269</ele>
        <time>2021-06-21T11:08:17Z</time>
      </trkpt>
      <trkpt lat="47.19566" lon="5.8912">
        <ele>269</ele>
        <time>2021-06-21T11:08:18Z</time>
      </trkpt>
      <trkpt lat="47.19566" lon="5.89115">
        <ele>269</ele>
        <time>2021-06-21T11:08:19Z</time>
      </trkpt>
      <trkpt lat="47.19566" lon="5.8911">
        <ele>269</ele>
        <time>2021-06-21T11:08:20Z</time>
      </trkpt>
      <trkpt lat="47.19567" lon="5.89106">
        <ele>269</ele>
        <time>2021-06-21T11:08:21Z</time>
      </trkpt>
      <trkpt lat="47.19567" lon="5.89102">
        <ele>269</ele>
        <time>2021-06-21T11:08:22Z</time>
      </trkpt>
      <trkpt lat="47.19567" lon="5.89097">
        <ele>269.2</ele>
        <time>2021-06-21T11:08:23Z</time>
      </trkpt>
      <trkpt lat="47.19568" lon="5.89093">
        <ele>269.2</ele>
        <time>2021-06-21T11:08:24Z</time>
      </trkpt>
      <trkpt lat="47.19568" lon="5.89089">
        <ele>269.2</ele>
        <time>2021-06-21T11:08:25Z</time>
      </trkpt>
      <trkpt lat="47.1957" lon="5.89084">
        <ele>269.2</ele>
        <time>2021-06-21T11:08:26Z</time>
      </trkpt>
      <trkpt lat="47.19571" lon="5.8908">
        <ele>269.4</ele>
        <time>2021-06-21T11:08:27Z</time>
      </trkpt>
      <trkpt lat="47.19572" lon="5.89075">
        <ele>269.4</ele>
        <time>2021-06-21T11:08:28Z</time>
      </trkpt>
      <trkpt lat="47.19573" lon="5.89071">
        <ele>269.4</ele>
        <time>2021-06-21T11:08:29Z</time>
      </trkpt>
      <trkpt lat="47.19574" lon="5.89068">
        <ele>269.4</ele>
        <time>2021-06-21T11:08:30Z</time>
      </trkpt>
      <trkpt lat="47.19575" lon="5.89064">
        <ele>269.4</ele>
        <time>2021-06-21T11:08:31Z</time>
      </trkpt>
      <trkpt lat="47.19577" lon="5.8906">
        <ele>269.4</ele>
        <time>2021-06-21T11:08:32Z</time>
      </trkpt>
      <trkpt lat="47.19582" lon="5.89043">
        <ele>269.2</ele>
        <time>2021-06-21T11:08:36Z</time>
      </trkpt>
      <trkpt lat="47.19583" lon="5.89038">
        <ele>269.2</ele>
        <time>2021-06-21T11:08:37Z</time>
      </trkpt>
      <trkpt lat="47.1959" lon="5.89015">
        <ele>269.2</ele>
        <time>2021-06-21T11:08:42Z</time>
      </trkpt>
      <trkpt lat="47.19591" lon="5.89006">
        <ele>269.2</ele>
        <time>2021-06-21T11:08:44Z</time>
      </trkpt>
      <trkpt lat="47.19591" lon="5.89002">
        <ele>269.2</ele>
        <time>2021-06-21T11:08:45Z</time>
      </trkpt>
      <trkpt lat="47.19591" lon="5.88997">
        <ele>269.2</ele>
        <time>2021-06-21T11:08:46Z</time>
      </trkpt>
      <trkpt lat="47.19592" lon="5.88992">
        <ele>269.2</ele>
        <time>2021-06-21T11:08:47Z</time>
      </trkpt>
      <trkpt lat="47.19591" lon="5.88987">
        <ele>269.4</ele>
        <time>2021-06-21T11:08:48Z</time>
      </trkpt>
      <trkpt lat="47.19592" lon="5.88982">
        <ele>269.4</ele>
        <time>2021-06-21T11:08:49Z</time>
      </trkpt>
      <trkpt lat="47.19592" lon="5.88978">
        <ele>269.6</ele>
        <time>2021-06-21T11:08:50Z</time>
      </trkpt>
      <trkpt lat="47.19592" lon="5.88974">
        <ele>269.8</ele>
        <time>2021-06-21T11:08:51Z</time>
      </trkpt>
      <trkpt lat="47.19593" lon="5.8897">
        <ele>270</ele>
        <time>2021-06-21T11:08:52Z</time>
      </trkpt>
      <trkpt lat="47.19594" lon="5.88952">
        <ele>270.6</ele>
        <time>2021-06-21T11:08:55Z</time>
      </trkpt>
      <trkpt lat="47.19598" lon="5.8892">
        <ele>271</ele>
        <time>2021-06-21T11:09:01Z</time>
      </trkpt>
      <trkpt lat="47.19603" lon="5.88885">
        <ele>271.2</ele>
        <time>2021-06-21T11:09:06Z</time>
      </trkpt>
      <trkpt lat="47.19603" lon="5.88879">
        <ele>271.2</ele>
        <time>2021-06-21T11:09:07Z</time>
      </trkpt>
      <trkpt lat="47.19606" lon="5.88855">
        <ele>271.6</ele>
        <time>2021-06-21T11:09:11Z</time>
      </trkpt>
      <trkpt lat="47.19609" lon="5.88836">
        <ele>271.6</ele>
        <time>2021-06-21T11:09:15Z</time>
      </trkpt>
      <trkpt lat="47.1961" lon="5.88827">
        <ele>271.8</ele>
        <time>2021-06-21T11:09:17Z</time>
      </trkpt>
      <trkpt lat="47.19612" lon="5.88823">
        <ele>272</ele>
        <time>2021-06-21T11:09:18Z</time>
      </trkpt>
      <trkpt lat="47.19613" lon="5.8882">
        <ele>272.4</ele>
        <time>2021-06-21T11:09:19Z</time>
      </trkpt>
      <trkpt lat="47.19614" lon="5.88817">
        <ele>272.4</ele>
        <time>2021-06-21T11:09:20Z</time>
      </trkpt>
      <trkpt lat="47.19615" lon="5.88814">
        <ele>272.8</ele>
        <time>2021-06-21T11:09:21Z</time>
      </trkpt>
      <trkpt lat="47.19615" lon="5.88811">
        <ele>272.8</ele>
        <time>2021-06-21T11:09:22Z</time>
      </trkpt>
      <trkpt lat="47.19617" lon="5.88804">
        <ele>273.2</ele>
        <time>2021-06-21T11:09:25Z</time>
      </trkpt>
      <trkpt lat="47.19618" lon="5.88802">
        <ele>273.6</ele>
        <time>2021-06-21T11:09:26Z</time>
      </trkpt>
      <trkpt lat="47.19618" lon="5.888">
        <ele>273.6</ele>
        <time>2021-06-21T11:09:27Z</time>
      </trkpt>
      <trkpt lat="47.19619" lon="5.88797">
        <ele>273.8</ele>
        <time>2021-06-21T11:09:28Z</time>
      </trkpt>
      <trkpt lat="47.19619" lon="5.88795">
        <ele>274.2</ele>
        <time>2021-06-21T11:09:29Z</time>
      </trkpt>
      <trkpt lat="47.1962" lon="5.88792">
        <ele>274.4</ele>
        <time>2021-06-21T11:09:30Z</time>
      </trkpt>
      <trkpt lat="47.1962" lon="5.8879">
        <ele>274.6</ele>
        <time>2021-06-21T11:09:31Z</time>
      </trkpt>
      <trkpt lat="47.1962" lon="5.88788">
        <ele>274.8</ele>
        <time>2021-06-21T11:09:32Z</time>
      </trkpt>
      <trkpt lat="47.19621" lon="5.88786">
        <ele>275</ele>
        <time>2021-06-21T11:09:33Z</time>
      </trkpt>
      <trkpt lat="47.19621" lon="5.88785">
        <ele>275</ele>
        <time>2021-06-21T11:09:34Z</time>
      </trkpt>
      <trkpt lat="47.19622" lon="5.88782">
        <ele>275.2</ele>
        <time>2021-06-21T11:09:35Z</time>
      </trkpt>
      <trkpt lat="47.19622" lon="5.88779">
        <ele>275.4</ele>
        <time>2021-06-21T11:09:36Z</time>
      </trkpt>
      <trkpt lat="47.19622" lon="5.88777">
        <ele>275.6</ele>
        <time>2021-06-21T11:09:37Z</time>
      </trkpt>
      <trkpt lat="47.19623" lon="5.88774">
        <ele>276</ele>
        <time>2021-06-21T11:09:38Z</time>
      </trkpt>
      <trkpt lat="47.19623" lon="5.88771">
        <ele>276</ele>
        <time>2021-06-21T11:09:39Z</time>
      </trkpt>
      <trkpt lat="47.19624" lon="5.88768">
        <ele>276.4</ele>
        <time>2021-06-21T11:09:40Z</time>
      </trkpt>
      <trkpt lat="47.19625" lon="5.88764">
        <ele>276.4</ele>
        <time>2021-06-21T11:09:41Z</time>
      </trkpt>
      <trkpt lat="47.19625" lon="5.8876">
        <ele>276.6</ele>
        <time>2021-06-21T11:09:42Z</time>
      </trkpt>
      <trkpt lat="47.19626" lon="5.88757">
        <ele>276.6</ele>
        <time>2021-06-21T11:09:43Z</time>
      </trkpt>
      <trkpt lat="47.19627" lon="5.88754">
        <ele>276.8</ele>
        <time>2021-06-21T11:09:44Z</time>
      </trkpt>
      <trkpt lat="47.19628" lon="5.88751">
        <ele>277</ele>
        <time>2021-06-21T11:09:45Z</time>
      </trkpt>
      <trkpt lat="47.19629" lon="5.88748">
        <ele>277</ele>
        <time>2021-06-21T11:09:46Z</time>
      </trkpt>
      <trkpt lat="47.19629" lon="5.88744">
        <ele>277.2</ele>
        <time>2021-06-21T11:09:47Z</time>
      </trkpt>
      <trkpt lat="47.1963" lon="5.88741">
        <ele>277.2</ele>
        <time>2021-06-21T11:09:48Z</time>
      </trkpt>
      <trkpt lat="47.19631" lon="5.88738">
        <ele>277.4</ele>
        <time>2021-06-21T11:09:49Z</time>
      </trkpt>
      <trkpt lat="47.19631" lon="5.88735">
        <ele>277.4</ele>
        <time>2021-06-21T11:09:50Z</time>
      </trkpt>
      <trkpt lat="47.19632" lon="5.88733">
        <ele>277.8</ele>
        <time>2021-06-21T11:09:51Z</time>
      </trkpt>
      <trkpt lat="47.19632" lon="5.88729">
        <ele>278</ele>
        <time>2021-06-21T11:09:52Z</time>
      </trkpt>
      <trkpt lat="47.19632" lon="5.88726">
        <ele>278.2</ele>
        <time>2021-06-21T11:09:53Z</time>
      </trkpt>
      <trkpt lat="47.19632" lon="5.88724">
        <ele>278.4</ele>
        <time>2021-06-21T11:09:54Z</time>
      </trkpt>
      <trkpt lat="47.19632" lon="5.8872">
        <ele>278.4</ele>
        <time>2021-06-21T11:09:55Z</time>
      </trkpt>
      <trkpt lat="47.19633" lon="5.88716">
        <ele>278.6</ele>
        <time>2021-06-21T11:09:56Z</time>
      </trkpt>
      <trkpt lat="47.19634" lon="5.88713">
        <ele>278.6</ele>
        <time>2021-06-21T11:09:57Z</time>
      </trkpt>
      <trkpt lat="47.19635" lon="5.8871">
        <ele>278.8</ele>
        <time>2021-06-21T11:09:58Z</time>
      </trkpt>
      <trkpt lat="47.19635" lon="5.88706">
        <ele>278.8</ele>
        <time>2021-06-21T11:09:59Z</time>
      </trkpt>
      <trkpt lat="47.19635" lon="5.88702">
        <ele>278.8</ele>
        <time>2021-06-21T11:10:00Z</time>
      </trkpt>
      <trkpt lat="47.19635" lon="5.88699">
        <ele>279</ele>
        <time>2021-06-21T11:10:01Z</time>
      </trkpt>
      <trkpt lat="47.19636" lon="5.88696">
        <ele>279</ele>
        <time>2021-06-21T11:10:02Z</time>
      </trkpt>
      <trkpt lat="47.19635" lon="5.88693">
        <ele>279.2</ele>
        <time>2021-06-21T11:10:03Z</time>
      </trkpt>
      <trkpt lat="47.19636" lon="5.88692">
        <ele>279.2</ele>
        <time>2021-06-21T11:10:04Z</time>
      </trkpt>
      <trkpt lat="47.19636" lon="5.8869">
        <ele>279.4</ele>
        <time>2021-06-21T11:10:05Z</time>
      </trkpt>
      <trkpt lat="47.19637" lon="5.88688">
        <ele>279.4</ele>
        <time>2021-06-21T11:10:06Z</time>
      </trkpt>
      <trkpt lat="47.19638" lon="5.88686">
        <ele>279.6</ele>
        <time>2021-06-21T11:10:07Z</time>
      </trkpt>
      <trkpt lat="47.19638" lon="5.88685">
        <ele>279.6</ele>
        <time>2021-06-21T11:10:08Z</time>
      </trkpt>
      <trkpt lat="47.19639" lon="5.88682">
        <ele>279.8</ele>
        <time>2021-06-21T11:10:09Z</time>
      </trkpt>
      <trkpt lat="47.19638" lon="5.88679">
        <ele>279.8</ele>
        <time>2021-06-21T11:10:10Z</time>
      </trkpt>
      <trkpt lat="47.19638" lon="5.88676">
        <ele>279.8</ele>
        <time>2021-06-21T11:10:11Z</time>
      </trkpt>
      <trkpt lat="47.19639" lon="5.88673">
        <ele>280</ele>
        <time>2021-06-21T11:10:12Z</time>
      </trkpt>
      <trkpt lat="47.19639" lon="5.88672">
        <ele>280</ele>
        <time>2021-06-21T11:10:13Z</time>
      </trkpt>
      <trkpt lat="47.1964" lon="5.8867">
        <ele>280</ele>
        <time>2021-06-21T11:10:14Z</time>
      </trkpt>
      <trkpt lat="47.1964" lon="5.88668">
        <ele>280.2</ele>
        <time>2021-06-21T11:10:15Z</time>
      </trkpt>
      <trkpt lat="47.1964" lon="5.88665">
        <ele>280.4</ele>
        <time>2021-06-21T11:10:16Z</time>
      </trkpt>
      <trkpt lat="47.19641" lon="5.88662">
        <ele>280.8</ele>
        <time>2021-06-21T11:10:17Z</time>
      </trkpt>
      <trkpt lat="47.19641" lon="5.88659">
        <ele>281</ele>
        <time>2021-06-21T11:10:18Z</time>
      </trkpt>
      <trkpt lat="47.19642" lon="5.88657">
        <ele>281.2</ele>
        <time>2021-06-21T11:10:19Z</time>
      </trkpt>
      <trkpt lat="47.19642" lon="5.88653">
        <ele>281.4</ele>
        <time>2021-06-21T11:10:20Z</time>
      </trkpt>
      <trkpt lat="47.19644" lon="5.8865">
        <ele>281.6</ele>
        <time>2021-06-21T11:10:21Z</time>
      </trkpt>
      <trkpt lat="47.19644" lon="5.88647">
        <ele>281.8</ele>
        <time>2021-06-21T11:10:22Z</time>
      </trkpt>
      <trkpt lat="47.19644" lon="5.88645">
        <ele>282</ele>
        <time>2021-06-21T11:10:23Z</time>
      </trkpt>
      <trkpt lat="47.19645" lon="5.88643">
        <ele>282.4</ele>
        <time>2021-06-21T11:10:24Z</time>
      </trkpt>
      <trkpt lat="47.19644" lon="5.88641">
        <ele>282.8</ele>
        <time>2021-06-21T11:10:25Z</time>
      </trkpt>
      <trkpt lat="47.19644" lon="5.88639">
        <ele>283</ele>
        <time>2021-06-21T11:10:26Z</time>
      </trkpt>
      <trkpt lat="47.19644" lon="5.88636">
        <ele>283.4</ele>
        <time>2021-06-21T11:10:27Z</time>
      </trkpt>
      <trkpt lat="47.19644" lon="5.88633">
        <ele>283.6</ele>
        <time>2021-06-21T11:10:28Z</time>
      </trkpt>
      <trkpt lat="47.19645" lon="5.8863">
        <ele>283.8</ele>
        <time>2021-06-21T11:10:29Z</time>
      </trkpt>
      <trkpt lat="47.19644" lon="5.88627">
        <ele>284.2</ele>
        <time>2021-06-21T11:10:30Z</time>
      </trkpt>
      <trkpt lat="47.19644" lon="5.88624">
        <ele>284.6</ele>
        <time>2021-06-21T11:10:31Z</time>
      </trkpt>
      <trkpt lat="47.19644" lon="5.88622">
        <ele>284.8</ele>
        <time>2021-06-21T11:10:32Z</time>
      </trkpt>
      <trkpt lat="47.19644" lon="5.88621">
        <ele>285</ele>
        <time>2021-06-21T11:10:33Z</time>
      </trkpt>
      <trkpt lat="47.19645" lon="5.88618">
        <ele>285.4</ele>
        <time>2021-06-21T11:10:34Z</time>
      </trkpt>
      <trkpt lat="47.19646" lon="5.88614">
        <ele>285.4</ele>
        <time>2021-06-21T11:10:35Z</time>
      </trkpt>
      <trkpt lat="47.19646" lon="5.88611">
        <ele>285.6</ele>
        <time>2021-06-21T11:10:36Z</time>
      </trkpt>
      <trkpt lat="47.19646" lon="5.88608">
        <ele>286</ele>
        <time>2021-06-21T11:10:37Z</time>
      </trkpt>
      <trkpt lat="47.19645" lon="5.88604">
        <ele>286.2</ele>
        <time>2021-06-21T11:10:38Z</time>
      </trkpt>
      <trkpt lat="47.19645" lon="5.88601">
        <ele>286.6</ele>
        <time>2021-06-21T11:10:39Z</time>
      </trkpt>
      <trkpt lat="47.19644" lon="5.88601">
        <ele>286.6</ele>
        <time>2021-06-21T11:10:40Z</time>
      </trkpt>
      <trkpt lat="47.19645" lon="5.88599">
        <ele>286.8</ele>
        <time>2021-06-21T11:10:41Z</time>
      </trkpt>
      <trkpt lat="47.19645" lon="5.88597">
        <ele>287</ele>
        <time>2021-06-21T11:10:42Z</time>
      </trkpt>
      <trkpt lat="47.19644" lon="5.88595">
        <ele>287.2</ele>
        <time>2021-06-21T11:10:43Z</time>
      </trkpt>
      <trkpt lat="47.19645" lon="5.88594">
        <ele>287.2</ele>
        <time>2021-06-21T11:10:44Z</time>
      </trkpt>
      <trkpt lat="47.19645" lon="5.88589">
        <ele>287.4</ele>
        <time>2021-06-21T11:10:45Z</time>
      </trkpt>
      <trkpt lat="47.19646" lon="5.88585">
        <ele>287.6</ele>
        <time>2021-06-21T11:10:46Z</time>
      </trkpt>
      <trkpt lat="47.19646" lon="5.88582">
        <ele>287.6</ele>
        <time>2021-06-21T11:10:47Z</time>
      </trkpt>
      <trkpt lat="47.19646" lon="5.88578">
        <ele>287.8</ele>
        <time>2021-06-21T11:10:48Z</time>
      </trkpt>
      <trkpt lat="47.19647" lon="5.88577">
        <ele>287.8</ele>
        <time>2021-06-21T11:10:49Z</time>
      </trkpt>
      <trkpt lat="47.19647" lon="5.88575">
        <ele>288</ele>
        <time>2021-06-21T11:10:50Z</time>
      </trkpt>
      <trkpt lat="47.19647" lon="5.88573">
        <ele>288</ele>
        <time>2021-06-21T11:10:51Z</time>
      </trkpt>
      <trkpt lat="47.19647" lon="5.88571">
        <ele>288</ele>
        <time>2021-06-21T11:10:52Z</time>
      </trkpt>
      <trkpt lat="47.19646" lon="5.88569">
        <ele>288.2</ele>
        <time>2021-06-21T11:10:53Z</time>
      </trkpt>
      <trkpt lat="47.19645" lon="5.88566">
        <ele>288.4</ele>
        <time>2021-06-21T11:10:54Z</time>
      </trkpt>
      <trkpt lat="47.19644" lon="5.88562">
        <ele>288.6</ele>
        <time>2021-06-21T11:10:55Z</time>
      </trkpt>
      <trkpt lat="47.19644" lon="5.88559">
        <ele>288.6</ele>
        <time>2021-06-21T11:10:56Z</time>
      </trkpt>
      <trkpt lat="47.19644" lon="5.88558">
        <ele>288.8</ele>
        <time>2021-06-21T11:10:57Z</time>
      </trkpt>
      <trkpt lat="47.19644" lon="5.88555">
        <ele>288.8</ele>
        <time>2021-06-21T11:10:58Z</time>
      </trkpt>
      <trkpt lat="47.19644" lon="5.88553">
        <ele>288.8</ele>
        <time>2021-06-21T11:10:59Z</time>
      </trkpt>
      <trkpt lat="47.19645" lon="5.88549">
        <ele>288.8</ele>
        <time>2021-06-21T11:11:00Z</time>
      </trkpt>
      <trkpt lat="47.19645" lon="5.88545">
        <ele>288.8</ele>
        <time>2021-06-21T11:11:01Z</time>
      </trkpt>
      <trkpt lat="47.19645" lon="5.88541">
        <ele>288.8</ele>
        <time>2021-06-21T11:11:02Z</time>
      </trkpt>
      <trkpt lat="47.19645" lon="5.88537">
        <ele>288.8</ele>
        <time>2021-06-21T11:11:03Z</time>
      </trkpt>
      <trkpt lat="47.19645" lon="5.88532">
        <ele>288.8</ele>
        <time>2021-06-21T11:11:04Z</time>
      </trkpt>
      <trkpt lat="47.19646" lon="5.88529">
        <ele>288.8</ele>
        <time>2021-06-21T11:11:05Z</time>
      </trkpt>
      <trkpt lat="47.19648" lon="5.88527">
        <ele>288.8</ele>
        <time>2021-06-21T11:11:06Z</time>
      </trkpt>
      <trkpt lat="47.19649" lon="5.88524">
        <ele>288.6</ele>
        <time>2021-06-21T11:11:07Z</time>
      </trkpt>
      <trkpt lat="47.1965" lon="5.88521">
        <ele>288.6</ele>
        <time>2021-06-21T11:11:08Z</time>
      </trkpt>
      <trkpt lat="47.19651" lon="5.88517">
        <ele>288.6</ele>
        <time>2021-06-21T11:11:09Z</time>
      </trkpt>
      <trkpt lat="47.19651" lon="5.88511">
        <ele>288.6</ele>
        <time>2021-06-21T11:11:10Z</time>
      </trkpt>
      <trkpt lat="47.19652" lon="5.88504">
        <ele>288.6</ele>
        <time>2021-06-21T11:11:11Z</time>
      </trkpt>
      <trkpt lat="47.19653" lon="5.885">
        <ele>288.6</ele>
        <time>2021-06-21T11:11:12Z</time>
      </trkpt>
      <trkpt lat="47.19655" lon="5.88497">
        <ele>288.6</ele>
        <time>2021-06-21T11:11:13Z</time>
      </trkpt>
      <trkpt lat="47.19657" lon="5.88492">
        <ele>288.6</ele>
        <time>2021-06-21T11:11:14Z</time>
      </trkpt>
      <trkpt lat="47.1966" lon="5.88486">
        <ele>288.6</ele>
        <time>2021-06-21T11:11:16Z</time>
      </trkpt>
      <trkpt lat="47.19661" lon="5.88484">
        <ele>288.6</ele>
        <time>2021-06-21T11:11:17Z</time>
      </trkpt>
      <trkpt lat="47.19664" lon="5.88482">
        <ele>288.6</ele>
        <time>2021-06-21T11:11:18Z</time>
      </trkpt>
      <trkpt lat="47.19665" lon="5.88478">
        <ele>288.8</ele>
        <time>2021-06-21T11:11:19Z</time>
      </trkpt>
      <trkpt lat="47.19666" lon="5.88476">
        <ele>288.8</ele>
        <time>2021-06-21T11:11:20Z</time>
      </trkpt>
      <trkpt lat="47.19666" lon="5.88476">
        <ele>288.8</ele>
        <time>2021-06-21T11:11:21Z</time>
      </trkpt>
      <trkpt lat="47.19666" lon="5.88476">
        <ele>288.4</ele>
        <time>2021-06-21T11:11:34Z</time>
      </trkpt>
      <trkpt lat="47.19667" lon="5.88469">
        <ele>288</ele>
        <time>2021-06-21T11:11:57Z</time>
      </trkpt>
      <trkpt lat="47.19668" lon="5.88467">
        <ele>288</ele>
        <time>2021-06-21T11:11:58Z</time>
      </trkpt>
      <trkpt lat="47.19668" lon="5.88464">
        <ele>288</ele>
        <time>2021-06-21T11:11:59Z</time>
      </trkpt>
      <trkpt lat="47.19667" lon="5.88457">
        <ele>287.8</ele>
        <time>2021-06-21T11:12:01Z</time>
      </trkpt>
      <trkpt lat="47.19666" lon="5.88453">
        <ele>287.6</ele>
        <time>2021-06-21T11:12:02Z</time>
      </trkpt>
      <trkpt lat="47.19664" lon="5.88446">
        <ele>287.4</ele>
        <time>2021-06-21T11:12:04Z</time>
      </trkpt>
      <trkpt lat="47.19662" lon="5.88443">
        <ele>287.2</ele>
        <time>2021-06-21T11:12:05Z</time>
      </trkpt>
      <trkpt lat="47.19661" lon="5.88439">
        <ele>287</ele>
        <time>2021-06-21T11:12:06Z</time>
      </trkpt>
      <trkpt lat="47.1966" lon="5.88436">
        <ele>286.8</ele>
        <time>2021-06-21T11:12:07Z</time>
      </trkpt>
      <trkpt lat="47.19659" lon="5.88425">
        <ele>286.8</ele>
        <time>2021-06-21T11:12:10Z</time>
      </trkpt>
      <trkpt lat="47.19659" lon="5.88421">
        <ele>286.8</ele>
        <time>2021-06-21T11:12:11Z</time>
      </trkpt>
      <trkpt lat="47.19659" lon="5.88418">
        <ele>286.8</ele>
        <time>2021-06-21T11:12:12Z</time>
      </trkpt>
      <trkpt lat="47.19659" lon="5.88415">
        <ele>286.8</ele>
        <time>2021-06-21T11:12:13Z</time>
      </trkpt>
      <trkpt lat="47.19659" lon="5.88411">
        <ele>286.8</ele>
        <time>2021-06-21T11:12:14Z</time>
      </trkpt>
      <trkpt lat="47.19658" lon="5.88408">
        <ele>286.8</ele>
        <time>2021-06-21T11:12:15Z</time>
      </trkpt>
      <trkpt lat="47.19658" lon="5.88404">
        <ele>286.8</ele>
        <time>2021-06-21T11:12:16Z</time>
      </trkpt>
      <trkpt lat="47.19658" lon="5.88395">
        <ele>287</ele>
        <time>2021-06-21T11:12:18Z</time>
      </trkpt>
      <trkpt lat="47.19657" lon="5.88386">
        <ele>287.2</ele>
        <time>2021-06-21T11:12:20Z</time>
      </trkpt>
      <trkpt lat="47.19655" lon="5.88375">
        <ele>287.4</ele>
        <time>2021-06-21T11:12:22Z</time>
      </trkpt>
      <trkpt lat="47.19653" lon="5.8836">
        <ele>287.6</ele>
        <time>2021-06-21T11:12:25Z</time>
      </trkpt>
      <trkpt lat="47.19653" lon="5.88356">
        <ele>287.8</ele>
        <time>2021-06-21T11:12:26Z</time>
      </trkpt>
      <trkpt lat="47.19653" lon="5.88351">
        <ele>288</ele>
        <time>2021-06-21T11:12:27Z</time>
      </trkpt>
      <trkpt lat="47.19652" lon="5.88345">
        <ele>288</ele>
        <time>2021-06-21T11:12:28Z</time>
      </trkpt>
      <trkpt lat="47.19652" lon="5.8834">
        <ele>288.2</ele>
        <time>2021-06-21T11:12:29Z</time>
      </trkpt>
      <trkpt lat="47.19651" lon="5.88335">
        <ele>288.2</ele>
        <time>2021-06-21T11:12:30Z</time>
      </trkpt>
      <trkpt lat="47.19651" lon="5.8833">
        <ele>288.4</ele>
        <time>2021-06-21T11:12:31Z</time>
      </trkpt>
      <trkpt lat="47.19651" lon="5.88325">
        <ele>288.6</ele>
        <time>2021-06-21T11:12:32Z</time>
      </trkpt>
      <trkpt lat="47.19651" lon="5.88321">
        <ele>288.8</ele>
        <time>2021-06-21T11:12:33Z</time>
      </trkpt>
      <trkpt lat="47.19651" lon="5.88317">
        <ele>289</ele>
        <time>2021-06-21T11:12:34Z</time>
      </trkpt>
      <trkpt lat="47.19651" lon="5.88313">
        <ele>289</ele>
        <time>2021-06-21T11:12:35Z</time>
      </trkpt>
      <trkpt lat="47.19649" lon="5.88304">
        <ele>289.2</ele>
        <time>2021-06-21T11:12:36Z</time>
      </trkpt>
      <trkpt lat="47.19648" lon="5.883">
        <ele>289.2</ele>
        <time>2021-06-21T11:12:37Z</time>
      </trkpt>
      <trkpt lat="47.19648" lon="5.88298">
        <ele>289.4</ele>
        <time>2021-06-21T11:12:38Z</time>
      </trkpt>
      <trkpt lat="47.19647" lon="5.88295">
        <ele>289.4</ele>
        <time>2021-06-21T11:12:39Z</time>
      </trkpt>
      <trkpt lat="47.19647" lon="5.88292">
        <ele>289.6</ele>
        <time>2021-06-21T11:12:40Z</time>
      </trkpt>
      <trkpt lat="47.19646" lon="5.88289">
        <ele>289.6</ele>
        <time>2021-06-21T11:12:41Z</time>
      </trkpt>
      <trkpt lat="47.19643" lon="5.88273">
        <ele>289.8</ele>
        <time>2021-06-21T11:12:44Z</time>
      </trkpt>
      <trkpt lat="47.19643" lon="5.88269">
        <ele>289.8</ele>
        <time>2021-06-21T11:12:45Z</time>
      </trkpt>
      <trkpt lat="47.19642" lon="5.88264">
        <ele>289.8</ele>
        <time>2021-06-21T11:12:46Z</time>
      </trkpt>
      <trkpt lat="47.19641" lon="5.8826">
        <ele>290</ele>
        <time>2021-06-21T11:12:47Z</time>
      </trkpt>
      <trkpt lat="47.19641" lon="5.88257">
        <ele>290.2</ele>
        <time>2021-06-21T11:12:48Z</time>
      </trkpt>
      <trkpt lat="47.1964" lon="5.88253">
        <ele>290.2</ele>
        <time>2021-06-21T11:12:49Z</time>
      </trkpt>
      <trkpt lat="47.19638" lon="5.88247">
        <ele>290.4</ele>
        <time>2021-06-21T11:12:50Z</time>
      </trkpt>
      <trkpt lat="47.19637" lon="5.88245">
        <ele>290.4</ele>
        <time>2021-06-21T11:12:51Z</time>
      </trkpt>
      <trkpt lat="47.19628" lon="5.88224">
        <ele>291.2</ele>
        <time>2021-06-21T11:12:56Z</time>
      </trkpt>
      <trkpt lat="47.19628" lon="5.88221">
        <ele>291.2</ele>
        <time>2021-06-21T11:12:57Z</time>
      </trkpt>
      <trkpt lat="47.19627" lon="5.88218">
        <ele>291.4</ele>
        <time>2021-06-21T11:12:58Z</time>
      </trkpt>
      <trkpt lat="47.19627" lon="5.88214">
        <ele>291.4</ele>
        <time>2021-06-21T11:12:59Z</time>
      </trkpt>
      <trkpt lat="47.19626" lon="5.88206">
        <ele>291.6</ele>
        <time>2021-06-21T11:13:00Z</time>
      </trkpt>
      <trkpt lat="47.19625" lon="5.88204">
        <ele>291.6</ele>
        <time>2021-06-21T11:13:01Z</time>
      </trkpt>
      <trkpt lat="47.19622" lon="5.88202">
        <ele>291.8</ele>
        <time>2021-06-21T11:13:02Z</time>
      </trkpt>
      <trkpt lat="47.19621" lon="5.88198">
        <ele>291.8</ele>
        <time>2021-06-21T11:13:03Z</time>
      </trkpt>
      <trkpt lat="47.1962" lon="5.88193">
        <ele>291.8</ele>
        <time>2021-06-21T11:13:04Z</time>
      </trkpt>
      <trkpt lat="47.19617" lon="5.88189">
        <ele>291.8</ele>
        <time>2021-06-21T11:13:05Z</time>
      </trkpt>
      <trkpt lat="47.19616" lon="5.88186">
        <ele>292</ele>
        <time>2021-06-21T11:13:06Z</time>
      </trkpt>
      <trkpt lat="47.19614" lon="5.88183">
        <ele>292</ele>
        <time>2021-06-21T11:13:07Z</time>
      </trkpt>
      <trkpt lat="47.19613" lon="5.8818">
        <ele>292.2</ele>
        <time>2021-06-21T11:13:08Z</time>
      </trkpt>
      <trkpt lat="47.19612" lon="5.88177">
        <ele>292.4</ele>
        <time>2021-06-21T11:13:09Z</time>
      </trkpt>
      <trkpt lat="47.19612" lon="5.88175">
        <ele>292.4</ele>
        <time>2021-06-21T11:13:10Z</time>
      </trkpt>
      <trkpt lat="47.19611" lon="5.88172">
        <ele>292.4</ele>
        <time>2021-06-21T11:13:11Z</time>
      </trkpt>
      <trkpt lat="47.19611" lon="5.88168">
        <ele>292.4</ele>
        <time>2021-06-21T11:13:12Z</time>
      </trkpt>
      <trkpt lat="47.19609" lon="5.88164">
        <ele>292.6</ele>
        <time>2021-06-21T11:13:13Z</time>
      </trkpt>
      <trkpt lat="47.19608" lon="5.88162">
        <ele>292.6</ele>
        <time>2021-06-21T11:13:14Z</time>
      </trkpt>
      <trkpt lat="47.19606" lon="5.88159">
        <ele>293</ele>
        <time>2021-06-21T11:13:15Z</time>
      </trkpt>
      <trkpt lat="47.19606" lon="5.88159">
        <ele>293</ele>
        <time>2021-06-21T11:13:16Z</time>
      </trkpt>
      <trkpt lat="47.19606" lon="5.88157">
        <ele>293.2</ele>
        <time>2021-06-21T11:13:17Z</time>
      </trkpt>
      <trkpt lat="47.19605" lon="5.88153">
        <ele>293.6</ele>
        <time>2021-06-21T11:13:18Z</time>
      </trkpt>
      <trkpt lat="47.19602" lon="5.88149">
        <ele>293.8</ele>
        <time>2021-06-21T11:13:19Z</time>
      </trkpt>
      <trkpt lat="47.19601" lon="5.88146">
        <ele>293.8</ele>
        <time>2021-06-21T11:13:20Z</time>
      </trkpt>
      <trkpt lat="47.19601" lon="5.88143">
        <ele>294</ele>
        <time>2021-06-21T11:13:21Z</time>
      </trkpt>
      <trkpt lat="47.19601" lon="5.88139">
        <ele>294.4</ele>
        <time>2021-06-21T11:13:22Z</time>
      </trkpt>
      <trkpt lat="47.196" lon="5.88134">
        <ele>294.8</ele>
        <time>2021-06-21T11:13:23Z</time>
      </trkpt>
      <trkpt lat="47.196" lon="5.88131">
        <ele>294.8</ele>
        <time>2021-06-21T11:13:24Z</time>
      </trkpt>
      <trkpt lat="47.19599" lon="5.88127">
        <ele>295</ele>
        <time>2021-06-21T11:13:25Z</time>
      </trkpt>
      <trkpt lat="47.19596" lon="5.88121">
        <ele>295.2</ele>
        <time>2021-06-21T11:13:26Z</time>
      </trkpt>
      <trkpt lat="47.19595" lon="5.88117">
        <ele>295.4</ele>
        <time>2021-06-21T11:13:27Z</time>
      </trkpt>
      <trkpt lat="47.19594" lon="5.88111">
        <ele>295.6</ele>
        <time>2021-06-21T11:13:28Z</time>
      </trkpt>
      <trkpt lat="47.19592" lon="5.88106">
        <ele>296</ele>
        <time>2021-06-21T11:13:29Z</time>
      </trkpt>
      <trkpt lat="47.19592" lon="5.881">
        <ele>296.2</ele>
        <time>2021-06-21T11:13:30Z</time>
      </trkpt>
      <trkpt lat="47.19591" lon="5.88099">
        <ele>296.4</ele>
        <time>2021-06-21T11:13:31Z</time>
      </trkpt>
      <trkpt lat="47.1959" lon="5.88095">
        <ele>296.4</ele>
        <time>2021-06-21T11:13:32Z</time>
      </trkpt>
      <trkpt lat="47.1959" lon="5.88091">
        <ele>296.6</ele>
        <time>2021-06-21T11:13:33Z</time>
      </trkpt>
      <trkpt lat="47.19591" lon="5.88089">
        <ele>296.8</ele>
        <time>2021-06-21T11:13:34Z</time>
      </trkpt>
      <trkpt lat="47.1959" lon="5.88086">
        <ele>296.8</ele>
        <time>2021-06-21T11:13:35Z</time>
      </trkpt>
      <trkpt lat="47.1959" lon="5.88084">
        <ele>297</ele>
        <time>2021-06-21T11:13:36Z</time>
      </trkpt>
      <trkpt lat="47.1959" lon="5.88081">
        <ele>297.4</ele>
        <time>2021-06-21T11:13:37Z</time>
      </trkpt>
      <trkpt lat="47.19589" lon="5.88078">
        <ele>297.6</ele>
        <time>2021-06-21T11:13:38Z</time>
      </trkpt>
      <trkpt lat="47.19587" lon="5.88075">
        <ele>297.8</ele>
        <time>2021-06-21T11:13:39Z</time>
      </trkpt>
      <trkpt lat="47.19585" lon="5.88073">
        <ele>298</ele>
        <time>2021-06-21T11:13:40Z</time>
      </trkpt>
      <trkpt lat="47.19585" lon="5.88071">
        <ele>298</ele>
        <time>2021-06-21T11:13:41Z</time>
      </trkpt>
      <trkpt lat="47.19585" lon="5.88068">
        <ele>298.2</ele>
        <time>2021-06-21T11:13:42Z</time>
      </trkpt>
      <trkpt lat="47.19584" lon="5.88061">
        <ele>298.4</ele>
        <time>2021-06-21T11:13:43Z</time>
      </trkpt>
      <trkpt lat="47.19583" lon="5.88058">
        <ele>298.6</ele>
        <time>2021-06-21T11:13:44Z</time>
      </trkpt>
      <trkpt lat="47.19582" lon="5.88054">
        <ele>298.8</ele>
        <time>2021-06-21T11:13:45Z</time>
      </trkpt>
      <trkpt lat="47.19582" lon="5.88051">
        <ele>298.8</ele>
        <time>2021-06-21T11:13:46Z</time>
      </trkpt>
      <trkpt lat="47.1958" lon="5.88048">
        <ele>299</ele>
        <time>2021-06-21T11:13:47Z</time>
      </trkpt>
      <trkpt lat="47.1958" lon="5.88045">
        <ele>299.2</ele>
        <time>2021-06-21T11:13:48Z</time>
      </trkpt>
      <trkpt lat="47.19579" lon="5.88041">
        <ele>299.4</ele>
        <time>2021-06-21T11:13:49Z</time>
      </trkpt>
      <trkpt lat="47.19578" lon="5.88037">
        <ele>299.4</ele>
        <time>2021-06-21T11:13:50Z</time>
      </trkpt>
      <trkpt lat="47.19576" lon="5.88033">
        <ele>299.6</ele>
        <time>2021-06-21T11:13:51Z</time>
      </trkpt>
      <trkpt lat="47.19575" lon="5.8803">
        <ele>299.6</ele>
        <time>2021-06-21T11:13:52Z</time>
      </trkpt>
      <trkpt lat="47.19575" lon="5.88028">
        <ele>299.6</ele>
        <time>2021-06-21T11:13:53Z</time>
      </trkpt>
      <trkpt lat="47.19575" lon="5.88024">
        <ele>299.8</ele>
        <time>2021-06-21T11:13:54Z</time>
      </trkpt>
      <trkpt lat="47.19575" lon="5.8802">
        <ele>299.8</ele>
        <time>2021-06-21T11:13:55Z</time>
      </trkpt>
      <trkpt lat="47.19575" lon="5.88016">
        <ele>299.6</ele>
        <time>2021-06-21T11:13:56Z</time>
      </trkpt>
      <trkpt lat="47.19574" lon="5.88014">
        <ele>299.8</ele>
        <time>2021-06-21T11:13:57Z</time>
      </trkpt>
      <trkpt lat="47.19574" lon="5.88011">
        <ele>299.6</ele>
        <time>2021-06-21T11:13:58Z</time>
      </trkpt>
      <trkpt lat="47.19573" lon="5.88009">
        <ele>299.6</ele>
        <time>2021-06-21T11:13:59Z</time>
      </trkpt>
      <trkpt lat="47.19573" lon="5.88006">
        <ele>299.8</ele>
        <time>2021-06-21T11:14:00Z</time>
      </trkpt>
      <trkpt lat="47.19572" lon="5.88005">
        <ele>300</ele>
        <time>2021-06-21T11:14:01Z</time>
      </trkpt>
      <trkpt lat="47.19572" lon="5.88003">
        <ele>300</ele>
        <time>2021-06-21T11:14:02Z</time>
      </trkpt>
      <trkpt lat="47.19572" lon="5.88001">
        <ele>300.2</ele>
        <time>2021-06-21T11:14:03Z</time>
      </trkpt>
      <trkpt lat="47.19573" lon="5.88">
        <ele>300.2</ele>
        <time>2021-06-21T11:14:04Z</time>
      </trkpt>
      <trkpt lat="47.19572" lon="5.87997">
        <ele>300.4</ele>
        <time>2021-06-21T11:14:05Z</time>
      </trkpt>
      <trkpt lat="47.19573" lon="5.87995">
        <ele>300.4</ele>
        <time>2021-06-21T11:14:06Z</time>
      </trkpt>
      <trkpt lat="47.19572" lon="5.87992">
        <ele>300.6</ele>
        <time>2021-06-21T11:14:07Z</time>
      </trkpt>
      <trkpt lat="47.19572" lon="5.87989">
        <ele>300.6</ele>
        <time>2021-06-21T11:14:08Z</time>
      </trkpt>
      <trkpt lat="47.19572" lon="5.87987">
        <ele>300.6</ele>
        <time>2021-06-21T11:14:09Z</time>
      </trkpt>
      <trkpt lat="47.19572" lon="5.87985">
        <ele>300.8</ele>
        <time>2021-06-21T11:14:10Z</time>
      </trkpt>
      <trkpt lat="47.19571" lon="5.87983">
        <ele>300.8</ele>
        <time>2021-06-21T11:14:11Z</time>
      </trkpt>
      <trkpt lat="47.19571" lon="5.87981">
        <ele>301</ele>
        <time>2021-06-21T11:14:12Z</time>
      </trkpt>
      <trkpt lat="47.19571" lon="5.87978">
        <ele>301</ele>
        <time>2021-06-21T11:14:13Z</time>
      </trkpt>
      <trkpt lat="47.1957" lon="5.87968">
        <ele>301</ele>
        <time>2021-06-21T11:14:16Z</time>
      </trkpt>
      <trkpt lat="47.19569" lon="5.87961">
        <ele>301</ele>
        <time>2021-06-21T11:14:18Z</time>
      </trkpt>
      <trkpt lat="47.19569" lon="5.87958">
        <ele>301.2</ele>
        <time>2021-06-21T11:14:19Z</time>
      </trkpt>
      <trkpt lat="47.19568" lon="5.8795">
        <ele>301.2</ele>
        <time>2021-06-21T11:14:21Z</time>
      </trkpt>
      <trkpt lat="47.19569" lon="5.87942">
        <ele>301.4</ele>
        <time>2021-06-21T11:14:23Z</time>
      </trkpt>
      <trkpt lat="47.19567" lon="5.87929">
        <ele>301.4</ele>
        <time>2021-06-21T11:14:26Z</time>
      </trkpt>
      <trkpt lat="47.19565" lon="5.87925">
        <ele>301.4</ele>
        <time>2021-06-21T11:14:27Z</time>
      </trkpt>
      <trkpt lat="47.19562" lon="5.87921">
        <ele>301.6</ele>
        <time>2021-06-21T11:14:28Z</time>
      </trkpt>
      <trkpt lat="47.1956" lon="5.87916">
        <ele>301.6</ele>
        <time>2021-06-21T11:14:29Z</time>
      </trkpt>
      <trkpt lat="47.19554" lon="5.87902">
        <ele>301.6</ele>
        <time>2021-06-21T11:14:32Z</time>
      </trkpt>
      <trkpt lat="47.19544" lon="5.87872">
        <ele>301.6</ele>
        <time>2021-06-21T11:14:37Z</time>
      </trkpt>
      <trkpt lat="47.19543" lon="5.87867">
        <ele>301.6</ele>
        <time>2021-06-21T11:14:38Z</time>
      </trkpt>
      <trkpt lat="47.19541" lon="5.87863">
        <ele>301</ele>
        <time>2021-06-21T11:14:39Z</time>
      </trkpt>
      <trkpt lat="47.19534" lon="5.87853">
        <ele>300.4</ele>
        <time>2021-06-21T11:14:41Z</time>
      </trkpt>
      <trkpt lat="47.19531" lon="5.87848">
        <ele>300.2</ele>
        <time>2021-06-21T11:14:42Z</time>
      </trkpt>
      <trkpt lat="47.19524" lon="5.87836">
        <ele>299.8</ele>
        <time>2021-06-21T11:14:44Z</time>
      </trkpt>
      <trkpt lat="47.19516" lon="5.87822">
        <ele>299</ele>
        <time>2021-06-21T11:14:47Z</time>
      </trkpt>
      <trkpt lat="47.19513" lon="5.87818">
        <ele>298.8</ele>
        <time>2021-06-21T11:14:48Z</time>
      </trkpt>
      <trkpt lat="47.19509" lon="5.87815">
        <ele>298.6</ele>
        <time>2021-06-21T11:14:49Z</time>
      </trkpt>
      <trkpt lat="47.19503" lon="5.8781">
        <ele>298.6</ele>
        <time>2021-06-21T11:14:50Z</time>
      </trkpt>
      <trkpt lat="47.19487" lon="5.87794">
        <ele>298.2</ele>
        <time>2021-06-21T11:14:53Z</time>
      </trkpt>
      <trkpt lat="47.19482" lon="5.87789">
        <ele>298</ele>
        <time>2021-06-21T11:14:54Z</time>
      </trkpt>
      <trkpt lat="47.19476" lon="5.87782">
        <ele>297.8</ele>
        <time>2021-06-21T11:14:55Z</time>
      </trkpt>
      <trkpt lat="47.19473" lon="5.8778">
        <ele>297.4</ele>
        <time>2021-06-21T11:14:56Z</time>
      </trkpt>
      <trkpt lat="47.19471" lon="5.87778">
        <ele>297.2</ele>
        <time>2021-06-21T11:14:57Z</time>
      </trkpt>
      <trkpt lat="47.19468" lon="5.87774">
        <ele>297.2</ele>
        <time>2021-06-21T11:14:58Z</time>
      </trkpt>
      <trkpt lat="47.19457" lon="5.8776">
        <ele>297</ele>
        <time>2021-06-21T11:15:00Z</time>
      </trkpt>
      <trkpt lat="47.19439" lon="5.8773">
        <ele>296.6</ele>
        <time>2021-06-21T11:15:05Z</time>
      </trkpt>
      <trkpt lat="47.19431" lon="5.87718">
        <ele>296</ele>
        <time>2021-06-21T11:15:07Z</time>
      </trkpt>
      <trkpt lat="47.19418" lon="5.87694">
        <ele>295</ele>
        <time>2021-06-21T11:15:11Z</time>
      </trkpt>
      <trkpt lat="47.19409" lon="5.87682">
        <ele>294.6</ele>
        <time>2021-06-21T11:15:13Z</time>
      </trkpt>
      <trkpt lat="47.19396" lon="5.87663">
        <ele>293.8</ele>
        <time>2021-06-21T11:15:16Z</time>
      </trkpt>
      <trkpt lat="47.19375" lon="5.87638">
        <ele>292.8</ele>
        <time>2021-06-21T11:15:21Z</time>
      </trkpt>
      <trkpt lat="47.1937" lon="5.87632">
        <ele>292.8</ele>
        <time>2021-06-21T11:15:22Z</time>
      </trkpt>
      <trkpt lat="47.19366" lon="5.87627">
        <ele>292.6</ele>
        <time>2021-06-21T11:15:23Z</time>
      </trkpt>
      <trkpt lat="47.19363" lon="5.87622">
        <ele>292.4</ele>
        <time>2021-06-21T11:15:24Z</time>
      </trkpt>
      <trkpt lat="47.19359" lon="5.87618">
        <ele>292.4</ele>
        <time>2021-06-21T11:15:25Z</time>
      </trkpt>
      <trkpt lat="47.19355" lon="5.87613">
        <ele>292</ele>
        <time>2021-06-21T11:15:26Z</time>
      </trkpt>
      <trkpt lat="47.19351" lon="5.87608">
        <ele>292</ele>
        <time>2021-06-21T11:15:27Z</time>
      </trkpt>
      <trkpt lat="47.19343" lon="5.876">
        <ele>291.6</ele>
        <time>2021-06-21T11:15:29Z</time>
      </trkpt>
      <trkpt lat="47.19339" lon="5.87596">
        <ele>291.6</ele>
        <time>2021-06-21T11:15:30Z</time>
      </trkpt>
      <trkpt lat="47.19335" lon="5.87593">
        <ele>291.6</ele>
        <time>2021-06-21T11:15:31Z</time>
      </trkpt>
      <trkpt lat="47.19332" lon="5.8759">
        <ele>291.4</ele>
        <time>2021-06-21T11:15:32Z</time>
      </trkpt>
      <trkpt lat="47.19329" lon="5.87588">
        <ele>291.2</ele>
        <time>2021-06-21T11:15:33Z</time>
      </trkpt>
      <trkpt lat="47.19326" lon="5.87586">
        <ele>291.2</ele>
        <time>2021-06-21T11:15:34Z</time>
      </trkpt>
      <trkpt lat="47.19324" lon="5.87585">
        <ele>291.2</ele>
        <time>2021-06-21T11:15:35Z</time>
      </trkpt>
      <trkpt lat="47.19321" lon="5.87585">
        <ele>291.2</ele>
        <time>2021-06-21T11:15:36Z</time>
      </trkpt>
      <trkpt lat="47.19318" lon="5.87585">
        <ele>291</ele>
        <time>2021-06-21T11:15:37Z</time>
      </trkpt>
      <trkpt lat="47.19314" lon="5.87586">
        <ele>291</ele>
        <time>2021-06-21T11:15:38Z</time>
      </trkpt>
      <trkpt lat="47.19307" lon="5.87587">
        <ele>291</ele>
        <time>2021-06-21T11:15:40Z</time>
      </trkpt>
      <trkpt lat="47.19299" lon="5.87591">
        <ele>291</ele>
        <time>2021-06-21T11:15:42Z</time>
      </trkpt>
      <trkpt lat="47.19284" lon="5.87604">
        <ele>291</ele>
        <time>2021-06-21T11:15:45Z</time>
      </trkpt>
      <trkpt lat="47.19271" lon="5.8762">
        <ele>290.6</ele>
        <time>2021-06-21T11:15:48Z</time>
      </trkpt>
      <trkpt lat="47.19252" lon="5.87634">
        <ele>289.8</ele>
        <time>2021-06-21T11:15:51Z</time>
      </trkpt>
      <trkpt lat="47.19245" lon="5.87638">
        <ele>289.2</ele>
        <time>2021-06-21T11:15:52Z</time>
      </trkpt>
      <trkpt lat="47.19229" lon="5.87645">
        <ele>288.2</ele>
        <time>2021-06-21T11:15:54Z</time>
      </trkpt>
      <trkpt lat="47.19221" lon="5.87646">
        <ele>287.4</ele>
        <time>2021-06-21T11:15:55Z</time>
      </trkpt>
      <trkpt lat="47.19208" lon="5.87644">
        <ele>286.8</ele>
        <time>2021-06-21T11:15:57Z</time>
      </trkpt>
      <trkpt lat="47.19202" lon="5.8764">
        <ele>286.6</ele>
        <time>2021-06-21T11:15:58Z</time>
      </trkpt>
      <trkpt lat="47.19197" lon="5.87632">
        <ele>286.2</ele>
        <time>2021-06-21T11:15:59Z</time>
      </trkpt>
      <trkpt lat="47.19186" lon="5.87611">
        <ele>285.8</ele>
        <time>2021-06-21T11:16:01Z</time>
      </trkpt>
      <trkpt lat="47.19181" lon="5.876">
        <ele>285.4</ele>
        <time>2021-06-21T11:16:02Z</time>
      </trkpt>
      <trkpt lat="47.19176" lon="5.8759">
        <ele>285.2</ele>
        <time>2021-06-21T11:16:03Z</time>
      </trkpt>
      <trkpt lat="47.19171" lon="5.87581">
        <ele>284.8</ele>
        <time>2021-06-21T11:16:04Z</time>
      </trkpt>
      <trkpt lat="47.19164" lon="5.8757">
        <ele>284.6</ele>
        <time>2021-06-21T11:16:05Z</time>
      </trkpt>
      <trkpt lat="47.19159" lon="5.87561">
        <ele>284.2</ele>
        <time>2021-06-21T11:16:06Z</time>
      </trkpt>
      <trkpt lat="47.19154" lon="5.87552">
        <ele>284</ele>
        <time>2021-06-21T11:16:07Z</time>
      </trkpt>
      <trkpt lat="47.19144" lon="5.87534">
        <ele>283.2</ele>
        <time>2021-06-21T11:16:09Z</time>
      </trkpt>
      <trkpt lat="47.19134" lon="5.87515">
        <ele>282.8</ele>
        <time>2021-06-21T11:16:11Z</time>
      </trkpt>
      <trkpt lat="47.1913" lon="5.87505">
        <ele>282.6</ele>
        <time>2021-06-21T11:16:12Z</time>
      </trkpt>
      <trkpt lat="47.19126" lon="5.87496">
        <ele>282.2</ele>
        <time>2021-06-21T11:16:13Z</time>
      </trkpt>
      <trkpt lat="47.19121" lon="5.87487">
        <ele>282</ele>
        <time>2021-06-21T11:16:14Z</time>
      </trkpt>
      <trkpt lat="47.19117" lon="5.87479">
        <ele>281.8</ele>
        <time>2021-06-21T11:16:15Z</time>
      </trkpt>
      <trkpt lat="47.19113" lon="5.87471">
        <ele>281.6</ele>
        <time>2021-06-21T11:16:16Z</time>
      </trkpt>
      <trkpt lat="47.19109" lon="5.87463">
        <ele>281.4</ele>
        <time>2021-06-21T11:16:17Z</time>
      </trkpt>
      <trkpt lat="47.19104" lon="5.87456">
        <ele>281.4</ele>
        <time>2021-06-21T11:16:18Z</time>
      </trkpt>
      <trkpt lat="47.19089" lon="5.87433">
        <ele>281</ele>
        <time>2021-06-21T11:16:21Z</time>
      </trkpt>
      <trkpt lat="47.19078" lon="5.87421">
        <ele>280.8</ele>
        <time>2021-06-21T11:16:23Z</time>
      </trkpt>
      <trkpt lat="47.19065" lon="5.87412">
        <ele>280.6</ele>
        <time>2021-06-21T11:16:25Z</time>
      </trkpt>
      <trkpt lat="47.19049" lon="5.87398">
        <ele>280.4</ele>
        <time>2021-06-21T11:16:28Z</time>
      </trkpt>
      <trkpt lat="47.19045" lon="5.87394">
        <ele>280.2</ele>
        <time>2021-06-21T11:16:29Z</time>
      </trkpt>
      <trkpt lat="47.1904" lon="5.87389">
        <ele>280.2</ele>
        <time>2021-06-21T11:16:30Z</time>
      </trkpt>
      <trkpt lat="47.19036" lon="5.87383">
        <ele>280.2</ele>
        <time>2021-06-21T11:16:31Z</time>
      </trkpt>
      <trkpt lat="47.19032" lon="5.87378">
        <ele>280</ele>
        <time>2021-06-21T11:16:32Z</time>
      </trkpt>
      <trkpt lat="47.19028" lon="5.87374">
        <ele>280</ele>
        <time>2021-06-21T11:16:33Z</time>
      </trkpt>
      <trkpt lat="47.19024" lon="5.87369">
        <ele>280</ele>
        <time>2021-06-21T11:16:34Z</time>
      </trkpt>
      <trkpt lat="47.19021" lon="5.87364">
        <ele>280</ele>
        <time>2021-06-21T11:16:35Z</time>
      </trkpt>
      <trkpt lat="47.19018" lon="5.87359">
        <ele>280</ele>
        <time>2021-06-21T11:16:36Z</time>
      </trkpt>
      <trkpt lat="47.19015" lon="5.87355">
        <ele>280</ele>
        <time>2021-06-21T11:16:37Z</time>
      </trkpt>
      <trkpt lat="47.19012" lon="5.87352">
        <ele>280</ele>
        <time>2021-06-21T11:16:38Z</time>
      </trkpt>
      <trkpt lat="47.19009" lon="5.87349">
        <ele>280</ele>
        <time>2021-06-21T11:16:39Z</time>
      </trkpt>
      <trkpt lat="47.19007" lon="5.87347">
        <ele>280</ele>
        <time>2021-06-21T11:16:40Z</time>
      </trkpt>
      <trkpt lat="47.19004" lon="5.87344">
        <ele>280</ele>
        <time>2021-06-21T11:16:41Z</time>
      </trkpt>
      <trkpt lat="47.19001" lon="5.87342">
        <ele>280</ele>
        <time>2021-06-21T11:16:42Z</time>
      </trkpt>
      <trkpt lat="47.18999" lon="5.8734">
        <ele>280</ele>
        <time>2021-06-21T11:16:43Z</time>
      </trkpt>
      <trkpt lat="47.18996" lon="5.8734">
        <ele>280.2</ele>
        <time>2021-06-21T11:16:44Z</time>
      </trkpt>
      <trkpt lat="47.18993" lon="5.87341">
        <ele>280.2</ele>
        <time>2021-06-21T11:16:45Z</time>
      </trkpt>
      <trkpt lat="47.18985" lon="5.87351">
        <ele>280.6</ele>
        <time>2021-06-21T11:16:48Z</time>
      </trkpt>
      <trkpt lat="47.18982" lon="5.87355">
        <ele>280.8</ele>
        <time>2021-06-21T11:16:49Z</time>
      </trkpt>
      <trkpt lat="47.18975" lon="5.87375">
        <ele>281</ele>
        <time>2021-06-21T11:16:53Z</time>
      </trkpt>
      <trkpt lat="47.18966" lon="5.87412">
        <ele>281</ele>
        <time>2021-06-21T11:16:59Z</time>
      </trkpt>
      <trkpt lat="47.18963" lon="5.87421">
        <ele>281</ele>
        <time>2021-06-21T11:17:01Z</time>
      </trkpt>
      <trkpt lat="47.18961" lon="5.87426">
        <ele>281</ele>
        <time>2021-06-21T11:17:02Z</time>
      </trkpt>
      <trkpt lat="47.18958" lon="5.8743">
        <ele>281</ele>
        <time>2021-06-21T11:17:03Z</time>
      </trkpt>
      <trkpt lat="47.18956" lon="5.87434">
        <ele>281.2</ele>
        <time>2021-06-21T11:17:04Z</time>
      </trkpt>
      <trkpt lat="47.18939" lon="5.87458">
        <ele>281.6</ele>
        <time>2021-06-21T11:17:10Z</time>
      </trkpt>
      <trkpt lat="47.18929" lon="5.87471">
        <ele>281.8</ele>
        <time>2021-06-21T11:17:13Z</time>
      </trkpt>
      <trkpt lat="47.1891" lon="5.87495">
        <ele>281.8</ele>
        <time>2021-06-21T11:17:18Z</time>
      </trkpt>
      <trkpt lat="47.18906" lon="5.875">
        <ele>281.8</ele>
        <time>2021-06-21T11:17:19Z</time>
      </trkpt>
      <trkpt lat="47.18902" lon="5.87505">
        <ele>281.8</ele>
        <time>2021-06-21T11:17:20Z</time>
      </trkpt>
      <trkpt lat="47.18899" lon="5.87509">
        <ele>281.6</ele>
        <time>2021-06-21T11:17:21Z</time>
      </trkpt>
      <trkpt lat="47.18881" lon="5.87525">
        <ele>280.8</ele>
        <time>2021-06-21T11:17:25Z</time>
      </trkpt>
      <trkpt lat="47.18876" lon="5.87529">
        <ele>280.6</ele>
        <time>2021-06-21T11:17:26Z</time>
      </trkpt>
      <trkpt lat="47.18857" lon="5.87538">
        <ele>280.2</ele>
        <time>2021-06-21T11:17:30Z</time>
      </trkpt>
      <trkpt lat="47.18835" lon="5.87546">
        <ele>279.8</ele>
        <time>2021-06-21T11:17:34Z</time>
      </trkpt>
      <trkpt lat="47.18803" lon="5.87559">
        <ele>278.8</ele>
        <time>2021-06-21T11:17:39Z</time>
      </trkpt>
      <trkpt lat="47.18781" lon="5.87574">
        <ele>277.6</ele>
        <time>2021-06-21T11:17:42Z</time>
      </trkpt>
      <trkpt lat="47.18774" lon="5.87579">
        <ele>277.2</ele>
        <time>2021-06-21T11:17:43Z</time>
      </trkpt>
      <trkpt lat="47.18769" lon="5.87584">
        <ele>276.2</ele>
        <time>2021-06-21T11:17:44Z</time>
      </trkpt>
      <trkpt lat="47.18762" lon="5.87589">
        <ele>276</ele>
        <time>2021-06-21T11:17:45Z</time>
      </trkpt>
      <trkpt lat="47.18746" lon="5.87598">
        <ele>275.2</ele>
        <time>2021-06-21T11:17:47Z</time>
      </trkpt>
      <trkpt lat="47.18725" lon="5.87604">
        <ele>274.2</ele>
        <time>2021-06-21T11:17:50Z</time>
      </trkpt>
      <trkpt lat="47.18716" lon="5.87606">
        <ele>273.8</ele>
        <time>2021-06-21T11:17:51Z</time>
      </trkpt>
      <trkpt lat="47.18702" lon="5.87608">
        <ele>273.2</ele>
        <time>2021-06-21T11:17:53Z</time>
      </trkpt>
      <trkpt lat="47.18697" lon="5.87609">
        <ele>272.8</ele>
        <time>2021-06-21T11:17:54Z</time>
      </trkpt>
      <trkpt lat="47.18691" lon="5.87611">
        <ele>272.6</ele>
        <time>2021-06-21T11:17:55Z</time>
      </trkpt>
      <trkpt lat="47.18683" lon="5.87613">
        <ele>272.4</ele>
        <time>2021-06-21T11:17:56Z</time>
      </trkpt>
      <trkpt lat="47.18678" lon="5.87614">
        <ele>272.4</ele>
        <time>2021-06-21T11:17:57Z</time>
      </trkpt>
      <trkpt lat="47.18659" lon="5.8762">
        <ele>272.2</ele>
        <time>2021-06-21T11:18:00Z</time>
      </trkpt>
      <trkpt lat="47.18646" lon="5.87625">
        <ele>272</ele>
        <time>2021-06-21T11:18:02Z</time>
      </trkpt>
      <trkpt lat="47.1864" lon="5.87628">
        <ele>271.8</ele>
        <time>2021-06-21T11:18:03Z</time>
      </trkpt>
      <trkpt lat="47.18636" lon="5.8763">
        <ele>271.8</ele>
        <time>2021-06-21T11:18:04Z</time>
      </trkpt>
      <trkpt lat="47.18598" lon="5.8765">
        <ele>270.8</ele>
        <time>2021-06-21T11:18:10Z</time>
      </trkpt>
      <trkpt lat="47.18592" lon="5.87654">
        <ele>270.6</ele>
        <time>2021-06-21T11:18:11Z</time>
      </trkpt>
      <trkpt lat="47.18566" lon="5.87677">
        <ele>269.8</ele>
        <time>2021-06-21T11:18:15Z</time>
      </trkpt>
      <trkpt lat="47.1856" lon="5.87684">
        <ele>269.6</ele>
        <time>2021-06-21T11:18:16Z</time>
      </trkpt>
      <trkpt lat="47.18548" lon="5.87699">
        <ele>268.6</ele>
        <time>2021-06-21T11:18:18Z</time>
      </trkpt>
      <trkpt lat="47.18542" lon="5.87706">
        <ele>268.2</ele>
        <time>2021-06-21T11:18:19Z</time>
      </trkpt>
      <trkpt lat="47.18524" lon="5.87727">
        <ele>267</ele>
        <time>2021-06-21T11:18:22Z</time>
      </trkpt>
      <trkpt lat="47.18518" lon="5.87735">
        <ele>267</ele>
        <time>2021-06-21T11:18:23Z</time>
      </trkpt>
      <trkpt lat="47.18501" lon="5.87758">
        <ele>266.2</ele>
        <time>2021-06-21T11:18:26Z</time>
      </trkpt>
      <trkpt lat="47.18496" lon="5.87765">
        <ele>265.8</ele>
        <time>2021-06-21T11:18:27Z</time>
      </trkpt>
      <trkpt lat="47.18479" lon="5.87786">
        <ele>265</ele>
        <time>2021-06-21T11:18:30Z</time>
      </trkpt>
      <trkpt lat="47.18474" lon="5.87792">
        <ele>264.8</ele>
        <time>2021-06-21T11:18:31Z</time>
      </trkpt>
      <trkpt lat="47.18469" lon="5.87797">
        <ele>264.8</ele>
        <time>2021-06-21T11:18:32Z</time>
      </trkpt>
      <trkpt lat="47.18465" lon="5.878">
        <ele>264.6</ele>
        <time>2021-06-21T11:18:33Z</time>
      </trkpt>
      <trkpt lat="47.18461" lon="5.87799">
        <ele>264.4</ele>
        <time>2021-06-21T11:18:34Z</time>
      </trkpt>
      <trkpt lat="47.18457" lon="5.87795">
        <ele>264.4</ele>
        <time>2021-06-21T11:18:35Z</time>
      </trkpt>
      <trkpt lat="47.18454" lon="5.8779">
        <ele>264.2</ele>
        <time>2021-06-21T11:18:36Z</time>
      </trkpt>
      <trkpt lat="47.18451" lon="5.87784">
        <ele>264.2</ele>
        <time>2021-06-21T11:18:37Z</time>
      </trkpt>
      <trkpt lat="47.18443" lon="5.87767">
        <ele>264</ele>
        <time>2021-06-21T11:18:40Z</time>
      </trkpt>
      <trkpt lat="47.18436" lon="5.87755">
        <ele>264</ele>
        <time>2021-06-21T11:18:42Z</time>
      </trkpt>
      <trkpt lat="47.18416" lon="5.87714">
        <ele>263.2</ele>
        <time>2021-06-21T11:18:48Z</time>
      </trkpt>
      <trkpt lat="47.18387" lon="5.87657">
        <ele>262.8</ele>
        <time>2021-06-21T11:18:56Z</time>
      </trkpt>
      <trkpt lat="47.1838" lon="5.87643">
        <ele>262.6</ele>
        <time>2021-06-21T11:18:58Z</time>
      </trkpt>
      <trkpt lat="47.18372" lon="5.87628">
        <ele>262.6</ele>
        <time>2021-06-21T11:19:00Z</time>
      </trkpt>
      <trkpt lat="47.18354" lon="5.87592">
        <ele>262.6</ele>
        <time>2021-06-21T11:19:05Z</time>
      </trkpt>
      <trkpt lat="47.18319" lon="5.8753">
        <ele>262.2</ele>
        <time>2021-06-21T11:19:14Z</time>
      </trkpt>
      <trkpt lat="47.18302" lon="5.87504">
        <ele>261.8</ele>
        <time>2021-06-21T11:19:18Z</time>
      </trkpt>
      <trkpt lat="47.18266" lon="5.87454">
        <ele>261.6</ele>
        <time>2021-06-21T11:19:26Z</time>
      </trkpt>
      <trkpt lat="47.18245" lon="5.87423">
        <ele>261.2</ele>
        <time>2021-06-21T11:19:31Z</time>
      </trkpt>
      <trkpt lat="47.18241" lon="5.87417">
        <ele>261.2</ele>
        <time>2021-06-21T11:19:32Z</time>
      </trkpt>
      <trkpt lat="47.18237" lon="5.87412">
        <ele>261.2</ele>
        <time>2021-06-21T11:19:33Z</time>
      </trkpt>
      <trkpt lat="47.18233" lon="5.87406">
        <ele>261.2</ele>
        <time>2021-06-21T11:19:34Z</time>
      </trkpt>
      <trkpt lat="47.18229" lon="5.87401">
        <ele>261.2</ele>
        <time>2021-06-21T11:19:35Z</time>
      </trkpt>
      <trkpt lat="47.18226" lon="5.87396">
        <ele>261.2</ele>
        <time>2021-06-21T11:19:36Z</time>
      </trkpt>
      <trkpt lat="47.18222" lon="5.87391">
        <ele>261.2</ele>
        <time>2021-06-21T11:19:37Z</time>
      </trkpt>
      <trkpt lat="47.18219" lon="5.87386">
        <ele>261.2</ele>
        <time>2021-06-21T11:19:38Z</time>
      </trkpt>
      <trkpt lat="47.18216" lon="5.87382">
        <ele>261.2</ele>
        <time>2021-06-21T11:19:39Z</time>
      </trkpt>
      <trkpt lat="47.18213" lon="5.87378">
        <ele>261.2</ele>
        <time>2021-06-21T11:19:40Z</time>
      </trkpt>
      <trkpt lat="47.18206" lon="5.87368">
        <ele>261</ele>
        <time>2021-06-21T11:19:42Z</time>
      </trkpt>
      <trkpt lat="47.18198" lon="5.87361">
        <ele>261</ele>
        <time>2021-06-21T11:19:44Z</time>
      </trkpt>
      <trkpt lat="47.18193" lon="5.8736">
        <ele>261</ele>
        <time>2021-06-21T11:19:45Z</time>
      </trkpt>
      <trkpt lat="47.18188" lon="5.87359">
        <ele>261</ele>
        <time>2021-06-21T11:19:46Z</time>
      </trkpt>
      <trkpt lat="47.18183" lon="5.87359">
        <ele>261</ele>
        <time>2021-06-21T11:19:47Z</time>
      </trkpt>
      <trkpt lat="47.18178" lon="5.87359">
        <ele>261.2</ele>
        <time>2021-06-21T11:19:48Z</time>
      </trkpt>
      <trkpt lat="47.18174" lon="5.87359">
        <ele>261.2</ele>
        <time>2021-06-21T11:19:49Z</time>
      </trkpt>
      <trkpt lat="47.18162" lon="5.8736">
        <ele>261.2</ele>
        <time>2021-06-21T11:19:52Z</time>
      </trkpt>
      <trkpt lat="47.18158" lon="5.87361">
        <ele>261.4</ele>
        <time>2021-06-21T11:19:53Z</time>
      </trkpt>
      <trkpt lat="47.18154" lon="5.87361">
        <ele>261.4</ele>
        <time>2021-06-21T11:19:54Z</time>
      </trkpt>
      <trkpt lat="47.1815" lon="5.87362">
        <ele>261.4</ele>
        <time>2021-06-21T11:19:55Z</time>
      </trkpt>
      <trkpt lat="47.18147" lon="5.87363">
        <ele>261.6</ele>
        <time>2021-06-21T11:19:56Z</time>
      </trkpt>
      <trkpt lat="47.18143" lon="5.87365">
        <ele>261.6</ele>
        <time>2021-06-21T11:19:57Z</time>
      </trkpt>
      <trkpt lat="47.1814" lon="5.87366">
        <ele>261.8</ele>
        <time>2021-06-21T11:19:58Z</time>
      </trkpt>
      <trkpt lat="47.18128" lon="5.87374">
        <ele>262.4</ele>
        <time>2021-06-21T11:20:01Z</time>
      </trkpt>
      <trkpt lat="47.18125" lon="5.87377">
        <ele>262.6</ele>
        <time>2021-06-21T11:20:02Z</time>
      </trkpt>
      <trkpt lat="47.18122" lon="5.8738">
        <ele>262.8</ele>
        <time>2021-06-21T11:20:03Z</time>
      </trkpt>
      <trkpt lat="47.18119" lon="5.87384">
        <ele>263</ele>
        <time>2021-06-21T11:20:04Z</time>
      </trkpt>
      <trkpt lat="47.18117" lon="5.87387">
        <ele>263.2</ele>
        <time>2021-06-21T11:20:05Z</time>
      </trkpt>
      <trkpt lat="47.18111" lon="5.87393">
        <ele>263.4</ele>
        <time>2021-06-21T11:20:07Z</time>
      </trkpt>
      <trkpt lat="47.18109" lon="5.87396">
        <ele>263.6</ele>
        <time>2021-06-21T11:20:08Z</time>
      </trkpt>
      <trkpt lat="47.18106" lon="5.87399">
        <ele>263.6</ele>
        <time>2021-06-21T11:20:09Z</time>
      </trkpt>
      <trkpt lat="47.18104" lon="5.87403">
        <ele>263.8</ele>
        <time>2021-06-21T11:20:10Z</time>
      </trkpt>
      <trkpt lat="47.18102" lon="5.87407">
        <ele>264</ele>
        <time>2021-06-21T11:20:11Z</time>
      </trkpt>
      <trkpt lat="47.18099" lon="5.87411">
        <ele>264.2</ele>
        <time>2021-06-21T11:20:12Z</time>
      </trkpt>
      <trkpt lat="47.18093" lon="5.87418">
        <ele>264.2</ele>
        <time>2021-06-21T11:20:14Z</time>
      </trkpt>
      <trkpt lat="47.1809" lon="5.87421">
        <ele>264.2</ele>
        <time>2021-06-21T11:20:15Z</time>
      </trkpt>
      <trkpt lat="47.18087" lon="5.87425">
        <ele>264.2</ele>
        <time>2021-06-21T11:20:16Z</time>
      </trkpt>
      <trkpt lat="47.18084" lon="5.87428">
        <ele>264.2</ele>
        <time>2021-06-21T11:20:17Z</time>
      </trkpt>
      <trkpt lat="47.18081" lon="5.87431">
        <ele>264.2</ele>
        <time>2021-06-21T11:20:18Z</time>
      </trkpt>
      <trkpt lat="47.18078" lon="5.87434">
        <ele>264.2</ele>
        <time>2021-06-21T11:20:19Z</time>
      </trkpt>
      <trkpt lat="47.18075" lon="5.87437">
        <ele>264.2</ele>
        <time>2021-06-21T11:20:20Z</time>
      </trkpt>
      <trkpt lat="47.18072" lon="5.8744">
        <ele>264</ele>
        <time>2021-06-21T11:20:21Z</time>
      </trkpt>
      <trkpt lat="47.18069" lon="5.87443">
        <ele>263.8</ele>
        <time>2021-06-21T11:20:22Z</time>
      </trkpt>
      <trkpt lat="47.18054" lon="5.87451">
        <ele>263.6</ele>
        <time>2021-06-21T11:20:26Z</time>
      </trkpt>
      <trkpt lat="47.18045" lon="5.8745">
        <ele>263.6</ele>
        <time>2021-06-21T11:20:28Z</time>
      </trkpt>
      <trkpt lat="47.1804" lon="5.87447">
        <ele>263.4</ele>
        <time>2021-06-21T11:20:29Z</time>
      </trkpt>
      <trkpt lat="47.18036" lon="5.87442">
        <ele>263.2</ele>
        <time>2021-06-21T11:20:30Z</time>
      </trkpt>
      <trkpt lat="47.18033" lon="5.87436">
        <ele>263.2</ele>
        <time>2021-06-21T11:20:31Z</time>
      </trkpt>
      <trkpt lat="47.1803" lon="5.87432">
        <ele>263</ele>
        <time>2021-06-21T11:20:32Z</time>
      </trkpt>
      <trkpt lat="47.18026" lon="5.87426">
        <ele>262.8</ele>
        <time>2021-06-21T11:20:33Z</time>
      </trkpt>
      <trkpt lat="47.18022" lon="5.87419">
        <ele>262.6</ele>
        <time>2021-06-21T11:20:34Z</time>
      </trkpt>
      <trkpt lat="47.18015" lon="5.87406">
        <ele>262</ele>
        <time>2021-06-21T11:20:36Z</time>
      </trkpt>
      <trkpt lat="47.18008" lon="5.87395">
        <ele>261.6</ele>
        <time>2021-06-21T11:20:38Z</time>
      </trkpt>
      <trkpt lat="47.18004" lon="5.87392">
        <ele>261.4</ele>
        <time>2021-06-21T11:20:39Z</time>
      </trkpt>
      <trkpt lat="47.18" lon="5.87391">
        <ele>261.4</ele>
        <time>2021-06-21T11:20:40Z</time>
      </trkpt>
      <trkpt lat="47.17996" lon="5.87394">
        <ele>261.2</ele>
        <time>2021-06-21T11:20:41Z</time>
      </trkpt>
      <trkpt lat="47.17993" lon="5.87398">
        <ele>261</ele>
        <time>2021-06-21T11:20:42Z</time>
      </trkpt>
      <trkpt lat="47.1799" lon="5.87403">
        <ele>261</ele>
        <time>2021-06-21T11:20:43Z</time>
      </trkpt>
      <trkpt lat="47.17987" lon="5.87409">
        <ele>261</ele>
        <time>2021-06-21T11:20:44Z</time>
      </trkpt>
      <trkpt lat="47.17985" lon="5.87414">
        <ele>260.8</ele>
        <time>2021-06-21T11:20:45Z</time>
      </trkpt>
      <trkpt lat="47.17972" lon="5.87435">
        <ele>260.8</ele>
        <time>2021-06-21T11:20:49Z</time>
      </trkpt>
      <trkpt lat="47.17957" lon="5.87456">
        <ele>261</ele>
        <time>2021-06-21T11:20:54Z</time>
      </trkpt>
      <trkpt lat="47.17954" lon="5.8746">
        <ele>261</ele>
        <time>2021-06-21T11:20:55Z</time>
      </trkpt>
      <trkpt lat="47.1795" lon="5.87463">
        <ele>261</ele>
        <time>2021-06-21T11:20:56Z</time>
      </trkpt>
      <trkpt lat="47.17946" lon="5.87465">
        <ele>261</ele>
        <time>2021-06-21T11:20:57Z</time>
      </trkpt>
      <trkpt lat="47.17943" lon="5.87467">
        <ele>261.2</ele>
        <time>2021-06-21T11:20:58Z</time>
      </trkpt>
      <trkpt lat="47.17939" lon="5.87468">
        <ele>261.2</ele>
        <time>2021-06-21T11:20:59Z</time>
      </trkpt>
      <trkpt lat="47.17921" lon="5.87476">
        <ele>261.2</ele>
        <time>2021-06-21T11:21:03Z</time>
      </trkpt>
      <trkpt lat="47.17917" lon="5.87479">
        <ele>261.2</ele>
        <time>2021-06-21T11:21:04Z</time>
      </trkpt>
      <trkpt lat="47.17912" lon="5.87482">
        <ele>261.2</ele>
        <time>2021-06-21T11:21:05Z</time>
      </trkpt>
      <trkpt lat="47.17905" lon="5.87489">
        <ele>261.2</ele>
        <time>2021-06-21T11:21:07Z</time>
      </trkpt>
      <trkpt lat="47.17902" lon="5.87492">
        <ele>261.2</ele>
        <time>2021-06-21T11:21:08Z</time>
      </trkpt>
      <trkpt lat="47.179" lon="5.87496">
        <ele>261.2</ele>
        <time>2021-06-21T11:21:09Z</time>
      </trkpt>
      <trkpt lat="47.17898" lon="5.875">
        <ele>261.4</ele>
        <time>2021-06-21T11:21:10Z</time>
      </trkpt>
      <trkpt lat="47.17896" lon="5.87503">
        <ele>261.4</ele>
        <time>2021-06-21T11:21:11Z</time>
      </trkpt>
      <trkpt lat="47.17895" lon="5.87506">
        <ele>261.4</ele>
        <time>2021-06-21T11:21:12Z</time>
      </trkpt>
      <trkpt lat="47.17894" lon="5.87508">
        <ele>261.4</ele>
        <time>2021-06-21T11:21:13Z</time>
      </trkpt>
      <trkpt lat="47.17893" lon="5.87511">
        <ele>261.6</ele>
        <time>2021-06-21T11:21:14Z</time>
      </trkpt>
      <trkpt lat="47.17891" lon="5.87513">
        <ele>261.6</ele>
        <time>2021-06-21T11:21:15Z</time>
      </trkpt>
      <trkpt lat="47.1789" lon="5.87514">
        <ele>261.8</ele>
        <time>2021-06-21T11:21:16Z</time>
      </trkpt>
      <trkpt lat="47.17887" lon="5.87518">
        <ele>262.2</ele>
        <time>2021-06-21T11:21:18Z</time>
      </trkpt>
      <trkpt lat="47.17883" lon="5.87523">
        <ele>262.6</ele>
        <time>2021-06-21T11:21:20Z</time>
      </trkpt>
      <trkpt lat="47.17881" lon="5.87525">
        <ele>263</ele>
        <time>2021-06-21T11:21:21Z</time>
      </trkpt>
      <trkpt lat="47.17881" lon="5.87528">
        <ele>263.2</ele>
        <time>2021-06-21T11:21:22Z</time>
      </trkpt>
      <trkpt lat="47.1788" lon="5.8753">
        <ele>263.2</ele>
        <time>2021-06-21T11:21:23Z</time>
      </trkpt>
      <trkpt lat="47.17879" lon="5.87533">
        <ele>263.4</ele>
        <time>2021-06-21T11:21:24Z</time>
      </trkpt>
      <trkpt lat="47.17877" lon="5.87535">
        <ele>263.4</ele>
        <time>2021-06-21T11:21:25Z</time>
      </trkpt>
      <trkpt lat="47.17875" lon="5.87538">
        <ele>263.6</ele>
        <time>2021-06-21T11:21:26Z</time>
      </trkpt>
      <trkpt lat="47.17873" lon="5.8754">
        <ele>263.6</ele>
        <time>2021-06-21T11:21:27Z</time>
      </trkpt>
      <trkpt lat="47.17869" lon="5.87546">
        <ele>264</ele>
        <time>2021-06-21T11:21:29Z</time>
      </trkpt>
      <trkpt lat="47.17867" lon="5.87549">
        <ele>264.2</ele>
        <time>2021-06-21T11:21:30Z</time>
      </trkpt>
      <trkpt lat="47.17866" lon="5.87552">
        <ele>264.2</ele>
        <time>2021-06-21T11:21:31Z</time>
      </trkpt>
      <trkpt lat="47.17864" lon="5.87557">
        <ele>264.4</ele>
        <time>2021-06-21T11:21:32Z</time>
      </trkpt>
      <trkpt lat="47.17861" lon="5.87561">
        <ele>264.8</ele>
        <time>2021-06-21T11:21:33Z</time>
      </trkpt>
      <trkpt lat="47.17859" lon="5.87565">
        <ele>264.8</ele>
        <time>2021-06-21T11:21:34Z</time>
      </trkpt>
      <trkpt lat="47.17857" lon="5.87571">
        <ele>265</ele>
        <time>2021-06-21T11:21:35Z</time>
      </trkpt>
      <trkpt lat="47.17855" lon="5.87575">
        <ele>265.2</ele>
        <time>2021-06-21T11:21:36Z</time>
      </trkpt>
      <trkpt lat="47.17853" lon="5.87581">
        <ele>265.4</ele>
        <time>2021-06-21T11:21:37Z</time>
      </trkpt>
      <trkpt lat="47.17852" lon="5.87583">
        <ele>265.4</ele>
        <time>2021-06-21T11:21:38Z</time>
      </trkpt>
      <trkpt lat="47.17851" lon="5.87585">
        <ele>265.6</ele>
        <time>2021-06-21T11:21:39Z</time>
      </trkpt>
      <trkpt lat="47.17851" lon="5.87589">
        <ele>265.8</ele>
        <time>2021-06-21T11:21:40Z</time>
      </trkpt>
      <trkpt lat="47.17849" lon="5.87592">
        <ele>266</ele>
        <time>2021-06-21T11:21:41Z</time>
      </trkpt>
      <trkpt lat="47.17847" lon="5.87597">
        <ele>266</ele>
        <time>2021-06-21T11:21:42Z</time>
      </trkpt>
      <trkpt lat="47.17845" lon="5.87601">
        <ele>266.2</ele>
        <time>2021-06-21T11:21:43Z</time>
      </trkpt>
      <trkpt lat="47.17844" lon="5.87603">
        <ele>266.4</ele>
        <time>2021-06-21T11:21:44Z</time>
      </trkpt>
      <trkpt lat="47.17842" lon="5.87604">
        <ele>266.4</ele>
        <time>2021-06-21T11:21:45Z</time>
      </trkpt>
      <trkpt lat="47.17841" lon="5.87605">
        <ele>266.8</ele>
        <time>2021-06-21T11:21:46Z</time>
      </trkpt>
      <trkpt lat="47.17839" lon="5.87608">
        <ele>267</ele>
        <time>2021-06-21T11:21:47Z</time>
      </trkpt>
      <trkpt lat="47.17838" lon="5.8761">
        <ele>267.2</ele>
        <time>2021-06-21T11:21:48Z</time>
      </trkpt>
      <trkpt lat="47.17836" lon="5.87614">
        <ele>267.4</ele>
        <time>2021-06-21T11:21:49Z</time>
      </trkpt>
      <trkpt lat="47.17835" lon="5.87616">
        <ele>267.6</ele>
        <time>2021-06-21T11:21:50Z</time>
      </trkpt>
      <trkpt lat="47.17833" lon="5.87618">
        <ele>267.8</ele>
        <time>2021-06-21T11:21:51Z</time>
      </trkpt>
      <trkpt lat="47.17833" lon="5.87621">
        <ele>268</ele>
        <time>2021-06-21T11:21:52Z</time>
      </trkpt>
      <trkpt lat="47.17832" lon="5.87624">
        <ele>268</ele>
        <time>2021-06-21T11:21:53Z</time>
      </trkpt>
      <trkpt lat="47.1783" lon="5.87626">
        <ele>268.2</ele>
        <time>2021-06-21T11:21:54Z</time>
      </trkpt>
      <trkpt lat="47.17829" lon="5.87627">
        <ele>268.4</ele>
        <time>2021-06-21T11:21:55Z</time>
      </trkpt>
      <trkpt lat="47.17825" lon="5.8763">
        <ele>268.4</ele>
        <time>2021-06-21T11:21:56Z</time>
      </trkpt>
      <trkpt lat="47.17823" lon="5.87632">
        <ele>268.6</ele>
        <time>2021-06-21T11:21:57Z</time>
      </trkpt>
      <trkpt lat="47.17821" lon="5.87636">
        <ele>268.8</ele>
        <time>2021-06-21T11:21:58Z</time>
      </trkpt>
      <trkpt lat="47.17819" lon="5.87639">
        <ele>269</ele>
        <time>2021-06-21T11:21:59Z</time>
      </trkpt>
      <trkpt lat="47.17818" lon="5.87641">
        <ele>269.2</ele>
        <time>2021-06-21T11:22:00Z</time>
      </trkpt>
      <trkpt lat="47.17817" lon="5.87645">
        <ele>269.2</ele>
        <time>2021-06-21T11:22:01Z</time>
      </trkpt>
      <trkpt lat="47.17815" lon="5.87648">
        <ele>269.4</ele>
        <time>2021-06-21T11:22:02Z</time>
      </trkpt>
      <trkpt lat="47.17813" lon="5.87652">
        <ele>269.6</ele>
        <time>2021-06-21T11:22:03Z</time>
      </trkpt>
      <trkpt lat="47.1781" lon="5.87656">
        <ele>269.6</ele>
        <time>2021-06-21T11:22:04Z</time>
      </trkpt>
      <trkpt lat="47.17808" lon="5.87657">
        <ele>269.8</ele>
        <time>2021-06-21T11:22:05Z</time>
      </trkpt>
      <trkpt lat="47.17806" lon="5.87658">
        <ele>270</ele>
        <time>2021-06-21T11:22:06Z</time>
      </trkpt>
      <trkpt lat="47.17806" lon="5.8766">
        <ele>270.2</ele>
        <time>2021-06-21T11:22:07Z</time>
      </trkpt>
      <trkpt lat="47.17806" lon="5.87662">
        <ele>270.4</ele>
        <time>2021-06-21T11:22:08Z</time>
      </trkpt>
      <trkpt lat="47.17805" lon="5.87663">
        <ele>270.6</ele>
        <time>2021-06-21T11:22:09Z</time>
      </trkpt>
      <trkpt lat="47.17804" lon="5.87663">
        <ele>270.8</ele>
        <time>2021-06-21T11:22:10Z</time>
      </trkpt>
      <trkpt lat="47.17802" lon="5.87665">
        <ele>271</ele>
        <time>2021-06-21T11:22:11Z</time>
      </trkpt>
      <trkpt lat="47.178" lon="5.87667">
        <ele>271.2</ele>
        <time>2021-06-21T11:22:12Z</time>
      </trkpt>
      <trkpt lat="47.17799" lon="5.87668">
        <ele>271.4</ele>
        <time>2021-06-21T11:22:13Z</time>
      </trkpt>
      <trkpt lat="47.17796" lon="5.87668">
        <ele>271.6</ele>
        <time>2021-06-21T11:22:14Z</time>
      </trkpt>
      <trkpt lat="47.17794" lon="5.87668">
        <ele>271.8</ele>
        <time>2021-06-21T11:22:15Z</time>
      </trkpt>
      <trkpt lat="47.17791" lon="5.87668">
        <ele>272</ele>
        <time>2021-06-21T11:22:16Z</time>
      </trkpt>
      <trkpt lat="47.1779" lon="5.87669">
        <ele>272</ele>
        <time>2021-06-21T11:22:17Z</time>
      </trkpt>
      <trkpt lat="47.17788" lon="5.8767">
        <ele>272.2</ele>
        <time>2021-06-21T11:22:18Z</time>
      </trkpt>
      <trkpt lat="47.17787" lon="5.87671">
        <ele>272.4</ele>
        <time>2021-06-21T11:22:19Z</time>
      </trkpt>
      <trkpt lat="47.17785" lon="5.87672">
        <ele>272.6</ele>
        <time>2021-06-21T11:22:20Z</time>
      </trkpt>
      <trkpt lat="47.17784" lon="5.87673">
        <ele>272.6</ele>
        <time>2021-06-21T11:22:21Z</time>
      </trkpt>
      <trkpt lat="47.17783" lon="5.87673">
        <ele>272.8</ele>
        <time>2021-06-21T11:22:22Z</time>
      </trkpt>
      <trkpt lat="47.17782" lon="5.87674">
        <ele>273</ele>
        <time>2021-06-21T11:22:23Z</time>
      </trkpt>
      <trkpt lat="47.1778" lon="5.87675">
        <ele>273.4</ele>
        <time>2021-06-21T11:22:24Z</time>
      </trkpt>
      <trkpt lat="47.17779" lon="5.87675">
        <ele>273.6</ele>
        <time>2021-06-21T11:22:25Z</time>
      </trkpt>
      <trkpt lat="47.17778" lon="5.87676">
        <ele>273.6</ele>
        <time>2021-06-21T11:22:26Z</time>
      </trkpt>
      <trkpt lat="47.17776" lon="5.87676">
        <ele>273.8</ele>
        <time>2021-06-21T11:22:27Z</time>
      </trkpt>
      <trkpt lat="47.17775" lon="5.87676">
        <ele>274</ele>
        <time>2021-06-21T11:22:28Z</time>
      </trkpt>
      <trkpt lat="47.17774" lon="5.87676">
        <ele>274</ele>
        <time>2021-06-21T11:22:29Z</time>
      </trkpt>
      <trkpt lat="47.17773" lon="5.87676">
        <ele>274.2</ele>
        <time>2021-06-21T11:22:30Z</time>
      </trkpt>
      <trkpt lat="47.17772" lon="5.87677">
        <ele>274.2</ele>
        <time>2021-06-21T11:22:31Z</time>
      </trkpt>
      <trkpt lat="47.17771" lon="5.87677">
        <ele>274.4</ele>
        <time>2021-06-21T11:22:32Z</time>
      </trkpt>
      <trkpt lat="47.17769" lon="5.87677">
        <ele>274.4</ele>
        <time>2021-06-21T11:22:33Z</time>
      </trkpt>
      <trkpt lat="47.17767" lon="5.87678">
        <ele>274.6</ele>
        <time>2021-06-21T11:22:34Z</time>
      </trkpt>
      <trkpt lat="47.17766" lon="5.87678">
        <ele>274.8</ele>
        <time>2021-06-21T11:22:35Z</time>
      </trkpt>
      <trkpt lat="47.17764" lon="5.87679">
        <ele>274.8</ele>
        <time>2021-06-21T11:22:36Z</time>
      </trkpt>
      <trkpt lat="47.17763" lon="5.87679">
        <ele>275</ele>
        <time>2021-06-21T11:22:37Z</time>
      </trkpt>
      <trkpt lat="47.17761" lon="5.8768">
        <ele>275.2</ele>
        <time>2021-06-21T11:22:38Z</time>
      </trkpt>
      <trkpt lat="47.1776" lon="5.87681">
        <ele>275.4</ele>
        <time>2021-06-21T11:22:39Z</time>
      </trkpt>
      <trkpt lat="47.17758" lon="5.87681">
        <ele>275.6</ele>
        <time>2021-06-21T11:22:40Z</time>
      </trkpt>
      <trkpt lat="47.17756" lon="5.87681">
        <ele>275.8</ele>
        <time>2021-06-21T11:22:41Z</time>
      </trkpt>
      <trkpt lat="47.17754" lon="5.87681">
        <ele>275.8</ele>
        <time>2021-06-21T11:22:42Z</time>
      </trkpt>
      <trkpt lat="47.17753" lon="5.8768">
        <ele>275.8</ele>
        <time>2021-06-21T11:22:43Z</time>
      </trkpt>
      <trkpt lat="47.17751" lon="5.8768">
        <ele>275.8</ele>
        <time>2021-06-21T11:22:44Z</time>
      </trkpt>
      <trkpt lat="47.1775" lon="5.8768">
        <ele>276</ele>
        <time>2021-06-21T11:22:45Z</time>
      </trkpt>
      <trkpt lat="47.17749" lon="5.87679">
        <ele>276.2</ele>
        <time>2021-06-21T11:22:46Z</time>
      </trkpt>
      <trkpt lat="47.17748" lon="5.87679">
        <ele>276.2</ele>
        <time>2021-06-21T11:22:47Z</time>
      </trkpt>
      <trkpt lat="47.17747" lon="5.87679">
        <ele>276.4</ele>
        <time>2021-06-21T11:22:48Z</time>
      </trkpt>
      <trkpt lat="47.17746" lon="5.87678">
        <ele>276.4</ele>
        <time>2021-06-21T11:22:49Z</time>
      </trkpt>
      <trkpt lat="47.17745" lon="5.87678">
        <ele>276.6</ele>
        <time>2021-06-21T11:22:50Z</time>
      </trkpt>
      <trkpt lat="47.17744" lon="5.87678">
        <ele>276.8</ele>
        <time>2021-06-21T11:22:51Z</time>
      </trkpt>
      <trkpt lat="47.17743" lon="5.87677">
        <ele>276.8</ele>
        <time>2021-06-21T11:22:52Z</time>
      </trkpt>
      <trkpt lat="47.17741" lon="5.87676">
        <ele>277.2</ele>
        <time>2021-06-21T11:22:53Z</time>
      </trkpt>
      <trkpt lat="47.1774" lon="5.87676">
        <ele>277.4</ele>
        <time>2021-06-21T11:22:54Z</time>
      </trkpt>
      <trkpt lat="47.17739" lon="5.87675">
        <ele>277.8</ele>
        <time>2021-06-21T11:22:55Z</time>
      </trkpt>
      <trkpt lat="47.17738" lon="5.87675">
        <ele>278</ele>
        <time>2021-06-21T11:22:56Z</time>
      </trkpt>
      <trkpt lat="47.17736" lon="5.87674">
        <ele>278.4</ele>
        <time>2021-06-21T11:22:57Z</time>
      </trkpt>
      <trkpt lat="47.17734" lon="5.87674">
        <ele>278.6</ele>
        <time>2021-06-21T11:22:58Z</time>
      </trkpt>
      <trkpt lat="47.17733" lon="5.87673">
        <ele>278.6</ele>
        <time>2021-06-21T11:22:59Z</time>
      </trkpt>
      <trkpt lat="47.17732" lon="5.87672">
        <ele>278.8</ele>
        <time>2021-06-21T11:23:00Z</time>
      </trkpt>
      <trkpt lat="47.17732" lon="5.87672">
        <ele>279</ele>
        <time>2021-06-21T11:23:01Z</time>
      </trkpt>
      <trkpt lat="47.1773" lon="5.87671">
        <ele>279.2</ele>
        <time>2021-06-21T11:23:02Z</time>
      </trkpt>
      <trkpt lat="47.17729" lon="5.87671">
        <ele>279.2</ele>
        <time>2021-06-21T11:23:03Z</time>
      </trkpt>
      <trkpt lat="47.17729" lon="5.87671">
        <ele>279.4</ele>
        <time>2021-06-21T11:23:04Z</time>
      </trkpt>
      <trkpt lat="47.17727" lon="5.8767">
        <ele>279.6</ele>
        <time>2021-06-21T11:23:05Z</time>
      </trkpt>
      <trkpt lat="47.17725" lon="5.87669">
        <ele>279.6</ele>
        <time>2021-06-21T11:23:06Z</time>
      </trkpt>
      <trkpt lat="47.17723" lon="5.87668">
        <ele>279.8</ele>
        <time>2021-06-21T11:23:07Z</time>
      </trkpt>
      <trkpt lat="47.17722" lon="5.87667">
        <ele>279.8</ele>
        <time>2021-06-21T11:23:08Z</time>
      </trkpt>
      <trkpt lat="47.1772" lon="5.87666">
        <ele>280</ele>
        <time>2021-06-21T11:23:09Z</time>
      </trkpt>
      <trkpt lat="47.17719" lon="5.87664">
        <ele>280</ele>
        <time>2021-06-21T11:23:10Z</time>
      </trkpt>
      <trkpt lat="47.17717" lon="5.87664">
        <ele>280</ele>
        <time>2021-06-21T11:23:11Z</time>
      </trkpt>
      <trkpt lat="47.17715" lon="5.87662">
        <ele>280.2</ele>
        <time>2021-06-21T11:23:12Z</time>
      </trkpt>
      <trkpt lat="47.17713" lon="5.87661">
        <ele>280.2</ele>
        <time>2021-06-21T11:23:13Z</time>
      </trkpt>
      <trkpt lat="47.17712" lon="5.87659">
        <ele>280.4</ele>
        <time>2021-06-21T11:23:14Z</time>
      </trkpt>
      <trkpt lat="47.17709" lon="5.87657">
        <ele>280.6</ele>
        <time>2021-06-21T11:23:15Z</time>
      </trkpt>
      <trkpt lat="47.17707" lon="5.87655">
        <ele>280.8</ele>
        <time>2021-06-21T11:23:16Z</time>
      </trkpt>
      <trkpt lat="47.17706" lon="5.87654">
        <ele>280.8</ele>
        <time>2021-06-21T11:23:17Z</time>
      </trkpt>
      <trkpt lat="47.17705" lon="5.87653">
        <ele>281</ele>
        <time>2021-06-21T11:23:18Z</time>
      </trkpt>
      <trkpt lat="47.17703" lon="5.87653">
        <ele>281</ele>
        <time>2021-06-21T11:23:19Z</time>
      </trkpt>
      <trkpt lat="47.17702" lon="5.87651">
        <ele>281.2</ele>
        <time>2021-06-21T11:23:20Z</time>
      </trkpt>
      <trkpt lat="47.17701" lon="5.87651">
        <ele>281.2</ele>
        <time>2021-06-21T11:23:21Z</time>
      </trkpt>
      <trkpt lat="47.17698" lon="5.87649">
        <ele>281.2</ele>
        <time>2021-06-21T11:23:22Z</time>
      </trkpt>
      <trkpt lat="47.17697" lon="5.87647">
        <ele>281.6</ele>
        <time>2021-06-21T11:23:23Z</time>
      </trkpt>
      <trkpt lat="47.17696" lon="5.87647">
        <ele>281.8</ele>
        <time>2021-06-21T11:23:24Z</time>
      </trkpt>
      <trkpt lat="47.17696" lon="5.87647">
        <ele>281.8</ele>
        <time>2021-06-21T11:23:25Z</time>
      </trkpt>
      <trkpt lat="47.17695" lon="5.87645">
        <ele>282</ele>
        <time>2021-06-21T11:23:26Z</time>
      </trkpt>
      <trkpt lat="47.17693" lon="5.87643">
        <ele>282.2</ele>
        <time>2021-06-21T11:23:27Z</time>
      </trkpt>
      <trkpt lat="47.17692" lon="5.87641">
        <ele>282.6</ele>
        <time>2021-06-21T11:23:28Z</time>
      </trkpt>
      <trkpt lat="47.17691" lon="5.8764">
        <ele>282.6</ele>
        <time>2021-06-21T11:23:29Z</time>
      </trkpt>
      <trkpt lat="47.17689" lon="5.87638">
        <ele>282.8</ele>
        <time>2021-06-21T11:23:30Z</time>
      </trkpt>
      <trkpt lat="47.17688" lon="5.87637">
        <ele>282.8</ele>
        <time>2021-06-21T11:23:31Z</time>
      </trkpt>
      <trkpt lat="47.17687" lon="5.87636">
        <ele>283</ele>
        <time>2021-06-21T11:23:32Z</time>
      </trkpt>
      <trkpt lat="47.17686" lon="5.87635">
        <ele>283.2</ele>
        <time>2021-06-21T11:23:33Z</time>
      </trkpt>
      <trkpt lat="47.17685" lon="5.87634">
        <ele>283.2</ele>
        <time>2021-06-21T11:23:34Z</time>
      </trkpt>
      <trkpt lat="47.17684" lon="5.87633">
        <ele>283.2</ele>
        <time>2021-06-21T11:23:35Z</time>
      </trkpt>
      <trkpt lat="47.17683" lon="5.87632">
        <ele>283.4</ele>
        <time>2021-06-21T11:23:36Z</time>
      </trkpt>
      <trkpt lat="47.17681" lon="5.8763">
        <ele>283.8</ele>
        <time>2021-06-21T11:23:37Z</time>
      </trkpt>
      <trkpt lat="47.1768" lon="5.87629">
        <ele>284</ele>
        <time>2021-06-21T11:23:38Z</time>
      </trkpt>
      <trkpt lat="47.1768" lon="5.87628">
        <ele>284.2</ele>
        <time>2021-06-21T11:23:39Z</time>
      </trkpt>
      <trkpt lat="47.17678" lon="5.87627">
        <ele>284.4</ele>
        <time>2021-06-21T11:23:40Z</time>
      </trkpt>
      <trkpt lat="47.17677" lon="5.87626">
        <ele>284.6</ele>
        <time>2021-06-21T11:23:41Z</time>
      </trkpt>
      <trkpt lat="47.17676" lon="5.87624">
        <ele>284.8</ele>
        <time>2021-06-21T11:23:42Z</time>
      </trkpt>
      <trkpt lat="47.17675" lon="5.87622">
        <ele>284.8</ele>
        <time>2021-06-21T11:23:43Z</time>
      </trkpt>
      <trkpt lat="47.17674" lon="5.87621">
        <ele>285</ele>
        <time>2021-06-21T11:23:44Z</time>
      </trkpt>
      <trkpt lat="47.17672" lon="5.87619">
        <ele>285.2</ele>
        <time>2021-06-21T11:23:45Z</time>
      </trkpt>
      <trkpt lat="47.17671" lon="5.87618">
        <ele>285.2</ele>
        <time>2021-06-21T11:23:46Z</time>
      </trkpt>
      <trkpt lat="47.1767" lon="5.87617">
        <ele>285.6</ele>
        <time>2021-06-21T11:23:47Z</time>
      </trkpt>
      <trkpt lat="47.17668" lon="5.87616">
        <ele>285.6</ele>
        <time>2021-06-21T11:23:48Z</time>
      </trkpt>
      <trkpt lat="47.17667" lon="5.87614">
        <ele>286</ele>
        <time>2021-06-21T11:23:49Z</time>
      </trkpt>
      <trkpt lat="47.17666" lon="5.87613">
        <ele>286</ele>
        <time>2021-06-21T11:23:50Z</time>
      </trkpt>
      <trkpt lat="47.17664" lon="5.87611">
        <ele>286</ele>
        <time>2021-06-21T11:23:51Z</time>
      </trkpt>
      <trkpt lat="47.17662" lon="5.8761">
        <ele>286.4</ele>
        <time>2021-06-21T11:23:52Z</time>
      </trkpt>
      <trkpt lat="47.17659" lon="5.87608">
        <ele>286.2</ele>
        <time>2021-06-21T11:23:53Z</time>
      </trkpt>
      <trkpt lat="47.17657" lon="5.87607">
        <ele>286.4</ele>
        <time>2021-06-21T11:23:54Z</time>
      </trkpt>
      <trkpt lat="47.17656" lon="5.87604">
        <ele>286.4</ele>
        <time>2021-06-21T11:23:55Z</time>
      </trkpt>
      <trkpt lat="47.17654" lon="5.87603">
        <ele>286.6</ele>
        <time>2021-06-21T11:23:56Z</time>
      </trkpt>
      <trkpt lat="47.17653" lon="5.87601">
        <ele>286.6</ele>
        <time>2021-06-21T11:23:57Z</time>
      </trkpt>
      <trkpt lat="47.17652" lon="5.876">
        <ele>286.8</ele>
        <time>2021-06-21T11:23:58Z</time>
      </trkpt>
      <trkpt lat="47.17652" lon="5.87598">
        <ele>287.2</ele>
        <time>2021-06-21T11:23:59Z</time>
      </trkpt>
      <trkpt lat="47.1765" lon="5.87598">
        <ele>287.2</ele>
        <time>2021-06-21T11:24:00Z</time>
      </trkpt>
      <trkpt lat="47.17647" lon="5.87596">
        <ele>287.2</ele>
        <time>2021-06-21T11:24:01Z</time>
      </trkpt>
      <trkpt lat="47.17644" lon="5.87594">
        <ele>287.2</ele>
        <time>2021-06-21T11:24:02Z</time>
      </trkpt>
      <trkpt lat="47.17641" lon="5.87591">
        <ele>287.2</ele>
        <time>2021-06-21T11:24:03Z</time>
      </trkpt>
      <trkpt lat="47.1764" lon="5.87588">
        <ele>287.2</ele>
        <time>2021-06-21T11:24:04Z</time>
      </trkpt>
      <trkpt lat="47.17638" lon="5.87587">
        <ele>287.4</ele>
        <time>2021-06-21T11:24:05Z</time>
      </trkpt>
      <trkpt lat="47.17633" lon="5.87583">
        <ele>287.4</ele>
        <time>2021-06-21T11:24:06Z</time>
      </trkpt>
      <trkpt lat="47.17631" lon="5.87582">
        <ele>287.8</ele>
        <time>2021-06-21T11:24:07Z</time>
      </trkpt>
      <trkpt lat="47.17629" lon="5.87581">
        <ele>287.8</ele>
        <time>2021-06-21T11:24:08Z</time>
      </trkpt>
      <trkpt lat="47.17628" lon="5.87579">
        <ele>287.8</ele>
        <time>2021-06-21T11:24:09Z</time>
      </trkpt>
      <trkpt lat="47.17627" lon="5.87578">
        <ele>288</ele>
        <time>2021-06-21T11:24:10Z</time>
      </trkpt>
      <trkpt lat="47.17624" lon="5.87577">
        <ele>288.4</ele>
        <time>2021-06-21T11:24:11Z</time>
      </trkpt>
      <trkpt lat="47.17623" lon="5.87577">
        <ele>288.6</ele>
        <time>2021-06-21T11:24:12Z</time>
      </trkpt>
      <trkpt lat="47.17622" lon="5.87575">
        <ele>288.6</ele>
        <time>2021-06-21T11:24:13Z</time>
      </trkpt>
      <trkpt lat="47.17621" lon="5.87574">
        <ele>288.6</ele>
        <time>2021-06-21T11:24:14Z</time>
      </trkpt>
      <trkpt lat="47.17619" lon="5.87572">
        <ele>289</ele>
        <time>2021-06-21T11:24:15Z</time>
      </trkpt>
      <trkpt lat="47.17616" lon="5.87571">
        <ele>289</ele>
        <time>2021-06-21T11:24:16Z</time>
      </trkpt>
      <trkpt lat="47.17614" lon="5.8757">
        <ele>289</ele>
        <time>2021-06-21T11:24:17Z</time>
      </trkpt>
      <trkpt lat="47.17611" lon="5.87569">
        <ele>289.2</ele>
        <time>2021-06-21T11:24:18Z</time>
      </trkpt>
      <trkpt lat="47.17608" lon="5.87568">
        <ele>289.2</ele>
        <time>2021-06-21T11:24:19Z</time>
      </trkpt>
      <trkpt lat="47.17604" lon="5.87567">
        <ele>289.4</ele>
        <time>2021-06-21T11:24:20Z</time>
      </trkpt>
      <trkpt lat="47.17603" lon="5.87568">
        <ele>289.6</ele>
        <time>2021-06-21T11:24:21Z</time>
      </trkpt>
      <trkpt lat="47.17602" lon="5.87569">
        <ele>289.8</ele>
        <time>2021-06-21T11:24:22Z</time>
      </trkpt>
      <trkpt lat="47.176" lon="5.87569">
        <ele>289.8</ele>
        <time>2021-06-21T11:24:23Z</time>
      </trkpt>
      <trkpt lat="47.17598" lon="5.87569">
        <ele>290</ele>
        <time>2021-06-21T11:24:24Z</time>
      </trkpt>
      <trkpt lat="47.17595" lon="5.8757">
        <ele>290.2</ele>
        <time>2021-06-21T11:24:25Z</time>
      </trkpt>
      <trkpt lat="47.17593" lon="5.87572">
        <ele>290.2</ele>
        <time>2021-06-21T11:24:26Z</time>
      </trkpt>
      <trkpt lat="47.17592" lon="5.87573">
        <ele>290.4</ele>
        <time>2021-06-21T11:24:27Z</time>
      </trkpt>
      <trkpt lat="47.17591" lon="5.87574">
        <ele>290.6</ele>
        <time>2021-06-21T11:24:28Z</time>
      </trkpt>
      <trkpt lat="47.1759" lon="5.87578">
        <ele>290.8</ele>
        <time>2021-06-21T11:24:29Z</time>
      </trkpt>
      <trkpt lat="47.17587" lon="5.87582">
        <ele>291</ele>
        <time>2021-06-21T11:24:30Z</time>
      </trkpt>
      <trkpt lat="47.17586" lon="5.87583">
        <ele>291</ele>
        <time>2021-06-21T11:24:31Z</time>
      </trkpt>
      <trkpt lat="47.17584" lon="5.87584">
        <ele>291.2</ele>
        <time>2021-06-21T11:24:32Z</time>
      </trkpt>
      <trkpt lat="47.17584" lon="5.87585">
        <ele>291.2</ele>
        <time>2021-06-21T11:24:33Z</time>
      </trkpt>
      <trkpt lat="47.17582" lon="5.87587">
        <ele>291.6</ele>
        <time>2021-06-21T11:24:34Z</time>
      </trkpt>
      <trkpt lat="47.17581" lon="5.87589">
        <ele>291.6</ele>
        <time>2021-06-21T11:24:35Z</time>
      </trkpt>
      <trkpt lat="47.1758" lon="5.87592">
        <ele>291.8</ele>
        <time>2021-06-21T11:24:36Z</time>
      </trkpt>
      <trkpt lat="47.17579" lon="5.87595">
        <ele>291.8</ele>
        <time>2021-06-21T11:24:37Z</time>
      </trkpt>
      <trkpt lat="47.17578" lon="5.87599">
        <ele>291.8</ele>
        <time>2021-06-21T11:24:38Z</time>
      </trkpt>
      <trkpt lat="47.17577" lon="5.87604">
        <ele>292</ele>
        <time>2021-06-21T11:24:39Z</time>
      </trkpt>
      <trkpt lat="47.17576" lon="5.87608">
        <ele>292</ele>
        <time>2021-06-21T11:24:40Z</time>
      </trkpt>
      <trkpt lat="47.17575" lon="5.87612">
        <ele>292</ele>
        <time>2021-06-21T11:24:41Z</time>
      </trkpt>
      <trkpt lat="47.17574" lon="5.87615">
        <ele>292</ele>
        <time>2021-06-21T11:24:42Z</time>
      </trkpt>
      <trkpt lat="47.17574" lon="5.87619">
        <ele>292</ele>
        <time>2021-06-21T11:24:43Z</time>
      </trkpt>
      <trkpt lat="47.17573" lon="5.87624">
        <ele>292.2</ele>
        <time>2021-06-21T11:24:44Z</time>
      </trkpt>
      <trkpt lat="47.17572" lon="5.87629">
        <ele>292.2</ele>
        <time>2021-06-21T11:24:45Z</time>
      </trkpt>
      <trkpt lat="47.17571" lon="5.87632">
        <ele>292.2</ele>
        <time>2021-06-21T11:24:46Z</time>
      </trkpt>
      <trkpt lat="47.17571" lon="5.87635">
        <ele>292.2</ele>
        <time>2021-06-21T11:24:47Z</time>
      </trkpt>
      <trkpt lat="47.17571" lon="5.87639">
        <ele>292.4</ele>
        <time>2021-06-21T11:24:48Z</time>
      </trkpt>
      <trkpt lat="47.1757" lon="5.87641">
        <ele>292.4</ele>
        <time>2021-06-21T11:24:49Z</time>
      </trkpt>
      <trkpt lat="47.1757" lon="5.87644">
        <ele>292.4</ele>
        <time>2021-06-21T11:24:50Z</time>
      </trkpt>
      <trkpt lat="47.1757" lon="5.87648">
        <ele>292.6</ele>
        <time>2021-06-21T11:24:51Z</time>
      </trkpt>
      <trkpt lat="47.17569" lon="5.87652">
        <ele>292.6</ele>
        <time>2021-06-21T11:24:52Z</time>
      </trkpt>
      <trkpt lat="47.17569" lon="5.87656">
        <ele>292.6</ele>
        <time>2021-06-21T11:24:53Z</time>
      </trkpt>
      <trkpt lat="47.17569" lon="5.8766">
        <ele>292.6</ele>
        <time>2021-06-21T11:24:54Z</time>
      </trkpt>
      <trkpt lat="47.1757" lon="5.87663">
        <ele>292.8</ele>
        <time>2021-06-21T11:24:55Z</time>
      </trkpt>
      <trkpt lat="47.1757" lon="5.87685">
        <ele>293</ele>
        <time>2021-06-21T11:24:59Z</time>
      </trkpt>
      <trkpt lat="47.1757" lon="5.8769">
        <ele>293.4</ele>
        <time>2021-06-21T11:25:00Z</time>
      </trkpt>
      <trkpt lat="47.17572" lon="5.87698">
        <ele>293.6</ele>
        <time>2021-06-21T11:25:02Z</time>
      </trkpt>
      <trkpt lat="47.17572" lon="5.87709">
        <ele>294.2</ele>
        <time>2021-06-21T11:25:05Z</time>
      </trkpt>
      <trkpt lat="47.17572" lon="5.87713">
        <ele>294.4</ele>
        <time>2021-06-21T11:25:06Z</time>
      </trkpt>
      <trkpt lat="47.17572" lon="5.87718">
        <ele>294.4</ele>
        <time>2021-06-21T11:25:07Z</time>
      </trkpt>
      <trkpt lat="47.17572" lon="5.87727">
        <ele>294.6</ele>
        <time>2021-06-21T11:25:09Z</time>
      </trkpt>
      <trkpt lat="47.17574" lon="5.87731">
        <ele>294.8</ele>
        <time>2021-06-21T11:25:10Z</time>
      </trkpt>
      <trkpt lat="47.17574" lon="5.87735">
        <ele>294.8</ele>
        <time>2021-06-21T11:25:11Z</time>
      </trkpt>
      <trkpt lat="47.17575" lon="5.87741">
        <ele>295</ele>
        <time>2021-06-21T11:25:12Z</time>
      </trkpt>
      <trkpt lat="47.17575" lon="5.87746">
        <ele>295</ele>
        <time>2021-06-21T11:25:13Z</time>
      </trkpt>
      <trkpt lat="47.17576" lon="5.87751">
        <ele>295.2</ele>
        <time>2021-06-21T11:25:14Z</time>
      </trkpt>
      <trkpt lat="47.17577" lon="5.87757">
        <ele>295.2</ele>
        <time>2021-06-21T11:25:15Z</time>
      </trkpt>
      <trkpt lat="47.17577" lon="5.87761">
        <ele>295.4</ele>
        <time>2021-06-21T11:25:16Z</time>
      </trkpt>
      <trkpt lat="47.17577" lon="5.87765">
        <ele>295.4</ele>
        <time>2021-06-21T11:25:17Z</time>
      </trkpt>
      <trkpt lat="47.17578" lon="5.87771">
        <ele>295.6</ele>
        <time>2021-06-21T11:25:18Z</time>
      </trkpt>
      <trkpt lat="47.17579" lon="5.87776">
        <ele>295.8</ele>
        <time>2021-06-21T11:25:19Z</time>
      </trkpt>
      <trkpt lat="47.17578" lon="5.8778">
        <ele>295.8</ele>
        <time>2021-06-21T11:25:20Z</time>
      </trkpt>
      <trkpt lat="47.17578" lon="5.87784">
        <ele>296</ele>
        <time>2021-06-21T11:25:21Z</time>
      </trkpt>
      <trkpt lat="47.17576" lon="5.87789">
        <ele>296</ele>
        <time>2021-06-21T11:25:22Z</time>
      </trkpt>
      <trkpt lat="47.17577" lon="5.87792">
        <ele>296.2</ele>
        <time>2021-06-21T11:25:23Z</time>
      </trkpt>
      <trkpt lat="47.17578" lon="5.87797">
        <ele>296.4</ele>
        <time>2021-06-21T11:25:24Z</time>
      </trkpt>
      <trkpt lat="47.17579" lon="5.87802">
        <ele>296.4</ele>
        <time>2021-06-21T11:25:25Z</time>
      </trkpt>
      <trkpt lat="47.17581" lon="5.87807">
        <ele>296.4</ele>
        <time>2021-06-21T11:25:26Z</time>
      </trkpt>
      <trkpt lat="47.17582" lon="5.87812">
        <ele>296.6</ele>
        <time>2021-06-21T11:25:27Z</time>
      </trkpt>
      <trkpt lat="47.17583" lon="5.87816">
        <ele>296.6</ele>
        <time>2021-06-21T11:25:28Z</time>
      </trkpt>
      <trkpt lat="47.1758" lon="5.8782">
        <ele>296.8</ele>
        <time>2021-06-21T11:25:29Z</time>
      </trkpt>
      <trkpt lat="47.17579" lon="5.87826">
        <ele>296.6</ele>
        <time>2021-06-21T11:25:30Z</time>
      </trkpt>
      <trkpt lat="47.17579" lon="5.87833">
        <ele>296.6</ele>
        <time>2021-06-21T11:25:31Z</time>
      </trkpt>
      <trkpt lat="47.1758" lon="5.87842">
        <ele>296.6</ele>
        <time>2021-06-21T11:25:32Z</time>
      </trkpt>
      <trkpt lat="47.17581" lon="5.8785">
        <ele>296.6</ele>
        <time>2021-06-21T11:25:33Z</time>
      </trkpt>
      <trkpt lat="47.17584" lon="5.8786">
        <ele>296.6</ele>
        <time>2021-06-21T11:25:34Z</time>
      </trkpt>
      <trkpt lat="47.17586" lon="5.8787">
        <ele>296.6</ele>
        <time>2021-06-21T11:25:35Z</time>
      </trkpt>
      <trkpt lat="47.17589" lon="5.8788">
        <ele>296.6</ele>
        <time>2021-06-21T11:25:36Z</time>
      </trkpt>
      <trkpt lat="47.1759" lon="5.87889">
        <ele>296.6</ele>
        <time>2021-06-21T11:25:37Z</time>
      </trkpt>
      <trkpt lat="47.17593" lon="5.87922">
        <ele>296.4</ele>
        <time>2021-06-21T11:25:40Z</time>
      </trkpt>
      <trkpt lat="47.17592" lon="5.87944">
        <ele>295.8</ele>
        <time>2021-06-21T11:25:42Z</time>
      </trkpt>
      <trkpt lat="47.17589" lon="5.87971">
        <ele>294.8</ele>
        <time>2021-06-21T11:25:44Z</time>
      </trkpt>
      <trkpt lat="47.17585" lon="5.88005">
        <ele>293.4</ele>
        <time>2021-06-21T11:25:47Z</time>
      </trkpt>
      <trkpt lat="47.17582" lon="5.88029">
        <ele>293</ele>
        <time>2021-06-21T11:25:49Z</time>
      </trkpt>
      <trkpt lat="47.17576" lon="5.88062">
        <ele>292</ele>
        <time>2021-06-21T11:25:52Z</time>
      </trkpt>
      <trkpt lat="47.1757" lon="5.88093">
        <ele>290.8</ele>
        <time>2021-06-21T11:25:55Z</time>
      </trkpt>
      <trkpt lat="47.17567" lon="5.88105">
        <ele>289.8</ele>
        <time>2021-06-21T11:25:56Z</time>
      </trkpt>
      <trkpt lat="47.17564" lon="5.88113">
        <ele>289.4</ele>
        <time>2021-06-21T11:25:57Z</time>
      </trkpt>
      <trkpt lat="47.17561" lon="5.88122">
        <ele>289.2</ele>
        <time>2021-06-21T11:25:58Z</time>
      </trkpt>
      <trkpt lat="47.17558" lon="5.88132">
        <ele>289</ele>
        <time>2021-06-21T11:25:59Z</time>
      </trkpt>
      <trkpt lat="47.17553" lon="5.88142">
        <ele>288.8</ele>
        <time>2021-06-21T11:26:00Z</time>
      </trkpt>
      <trkpt lat="47.17547" lon="5.88149">
        <ele>288.4</ele>
        <time>2021-06-21T11:26:01Z</time>
      </trkpt>
      <trkpt lat="47.17542" lon="5.88153">
        <ele>288.2</ele>
        <time>2021-06-21T11:26:02Z</time>
      </trkpt>
      <trkpt lat="47.17536" lon="5.88157">
        <ele>288</ele>
        <time>2021-06-21T11:26:03Z</time>
      </trkpt>
      <trkpt lat="47.17529" lon="5.8816">
        <ele>287.6</ele>
        <time>2021-06-21T11:26:04Z</time>
      </trkpt>
      <trkpt lat="47.1752" lon="5.88163">
        <ele>287.4</ele>
        <time>2021-06-21T11:26:05Z</time>
      </trkpt>
      <trkpt lat="47.17514" lon="5.88166">
        <ele>287.2</ele>
        <time>2021-06-21T11:26:06Z</time>
      </trkpt>
      <trkpt lat="47.17507" lon="5.8817">
        <ele>287.2</ele>
        <time>2021-06-21T11:26:07Z</time>
      </trkpt>
      <trkpt lat="47.17495" lon="5.88178">
        <ele>287</ele>
        <time>2021-06-21T11:26:09Z</time>
      </trkpt>
      <trkpt lat="47.17483" lon="5.88193">
        <ele>286.6</ele>
        <time>2021-06-21T11:26:11Z</time>
      </trkpt>
      <trkpt lat="47.17477" lon="5.882">
        <ele>286.4</ele>
        <time>2021-06-21T11:26:12Z</time>
      </trkpt>
      <trkpt lat="47.17446" lon="5.88246">
        <ele>285.6</ele>
        <time>2021-06-21T11:26:18Z</time>
      </trkpt>
      <trkpt lat="47.17436" lon="5.8826">
        <ele>285.6</ele>
        <time>2021-06-21T11:26:20Z</time>
      </trkpt>
      <trkpt lat="47.17426" lon="5.88274">
        <ele>285.4</ele>
        <time>2021-06-21T11:26:22Z</time>
      </trkpt>
      <trkpt lat="47.17422" lon="5.88281">
        <ele>285.4</ele>
        <time>2021-06-21T11:26:23Z</time>
      </trkpt>
      <trkpt lat="47.17417" lon="5.88288">
        <ele>285.4</ele>
        <time>2021-06-21T11:26:24Z</time>
      </trkpt>
      <trkpt lat="47.17413" lon="5.88294">
        <ele>285.4</ele>
        <time>2021-06-21T11:26:25Z</time>
      </trkpt>
      <trkpt lat="47.17409" lon="5.883">
        <ele>285.4</ele>
        <time>2021-06-21T11:26:26Z</time>
      </trkpt>
      <trkpt lat="47.17405" lon="5.88306">
        <ele>285.6</ele>
        <time>2021-06-21T11:26:27Z</time>
      </trkpt>
      <trkpt lat="47.17401" lon="5.88312">
        <ele>285.6</ele>
        <time>2021-06-21T11:26:28Z</time>
      </trkpt>
      <trkpt lat="47.17397" lon="5.88317">
        <ele>285.8</ele>
        <time>2021-06-21T11:26:29Z</time>
      </trkpt>
      <trkpt lat="47.17394" lon="5.88322">
        <ele>286</ele>
        <time>2021-06-21T11:26:30Z</time>
      </trkpt>
      <trkpt lat="47.1739" lon="5.88327">
        <ele>286.2</ele>
        <time>2021-06-21T11:26:31Z</time>
      </trkpt>
      <trkpt lat="47.17388" lon="5.88331">
        <ele>286.2</ele>
        <time>2021-06-21T11:26:32Z</time>
      </trkpt>
      <trkpt lat="47.17385" lon="5.88335">
        <ele>286.4</ele>
        <time>2021-06-21T11:26:33Z</time>
      </trkpt>
      <trkpt lat="47.17383" lon="5.88339">
        <ele>286.8</ele>
        <time>2021-06-21T11:26:34Z</time>
      </trkpt>
      <trkpt lat="47.1738" lon="5.88341">
        <ele>287</ele>
        <time>2021-06-21T11:26:35Z</time>
      </trkpt>
      <trkpt lat="47.17378" lon="5.88344">
        <ele>287.2</ele>
        <time>2021-06-21T11:26:36Z</time>
      </trkpt>
      <trkpt lat="47.17377" lon="5.88346">
        <ele>287.4</ele>
        <time>2021-06-21T11:26:37Z</time>
      </trkpt>
      <trkpt lat="47.17375" lon="5.88348">
        <ele>287.6</ele>
        <time>2021-06-21T11:26:38Z</time>
      </trkpt>
      <trkpt lat="47.17373" lon="5.8835">
        <ele>288</ele>
        <time>2021-06-21T11:26:39Z</time>
      </trkpt>
      <trkpt lat="47.1737" lon="5.88354">
        <ele>288.6</ele>
        <time>2021-06-21T11:26:41Z</time>
      </trkpt>
      <trkpt lat="47.17365" lon="5.88362">
        <ele>289.2</ele>
        <time>2021-06-21T11:26:44Z</time>
      </trkpt>
      <trkpt lat="47.17363" lon="5.88364">
        <ele>289.4</ele>
        <time>2021-06-21T11:26:45Z</time>
      </trkpt>
      <trkpt lat="47.17361" lon="5.88367">
        <ele>289.6</ele>
        <time>2021-06-21T11:26:46Z</time>
      </trkpt>
      <trkpt lat="47.17359" lon="5.88369">
        <ele>289.6</ele>
        <time>2021-06-21T11:26:47Z</time>
      </trkpt>
      <trkpt lat="47.17356" lon="5.88372">
        <ele>290</ele>
        <time>2021-06-21T11:26:48Z</time>
      </trkpt>
      <trkpt lat="47.17354" lon="5.88374">
        <ele>290.2</ele>
        <time>2021-06-21T11:26:49Z</time>
      </trkpt>
      <trkpt lat="47.17352" lon="5.88376">
        <ele>290.4</ele>
        <time>2021-06-21T11:26:50Z</time>
      </trkpt>
      <trkpt lat="47.1735" lon="5.88379">
        <ele>290.8</ele>
        <time>2021-06-21T11:26:51Z</time>
      </trkpt>
      <trkpt lat="47.17349" lon="5.88382">
        <ele>290.8</ele>
        <time>2021-06-21T11:26:52Z</time>
      </trkpt>
      <trkpt lat="47.17347" lon="5.88384">
        <ele>291.2</ele>
        <time>2021-06-21T11:26:53Z</time>
      </trkpt>
      <trkpt lat="47.17345" lon="5.88386">
        <ele>291.4</ele>
        <time>2021-06-21T11:26:54Z</time>
      </trkpt>
      <trkpt lat="47.17344" lon="5.88388">
        <ele>291.6</ele>
        <time>2021-06-21T11:26:55Z</time>
      </trkpt>
      <trkpt lat="47.17343" lon="5.88391">
        <ele>291.8</ele>
        <time>2021-06-21T11:26:56Z</time>
      </trkpt>
      <trkpt lat="47.17341" lon="5.88393">
        <ele>292</ele>
        <time>2021-06-21T11:26:57Z</time>
      </trkpt>
      <trkpt lat="47.1734" lon="5.88395">
        <ele>292</ele>
        <time>2021-06-21T11:26:58Z</time>
      </trkpt>
      <trkpt lat="47.17338" lon="5.88396">
        <ele>292</ele>
        <time>2021-06-21T11:26:59Z</time>
      </trkpt>
      <trkpt lat="47.17336" lon="5.88397">
        <ele>292.2</ele>
        <time>2021-06-21T11:27:00Z</time>
      </trkpt>
      <trkpt lat="47.17334" lon="5.88399">
        <ele>292.4</ele>
        <time>2021-06-21T11:27:01Z</time>
      </trkpt>
      <trkpt lat="47.17333" lon="5.88402">
        <ele>292.6</ele>
        <time>2021-06-21T11:27:02Z</time>
      </trkpt>
      <trkpt lat="47.17331" lon="5.88404">
        <ele>292.8</ele>
        <time>2021-06-21T11:27:03Z</time>
      </trkpt>
      <trkpt lat="47.17329" lon="5.88407">
        <ele>292.8</ele>
        <time>2021-06-21T11:27:04Z</time>
      </trkpt>
      <trkpt lat="47.17327" lon="5.8841">
        <ele>293.2</ele>
        <time>2021-06-21T11:27:05Z</time>
      </trkpt>
      <trkpt lat="47.17325" lon="5.88413">
        <ele>293.2</ele>
        <time>2021-06-21T11:27:06Z</time>
      </trkpt>
      <trkpt lat="47.17323" lon="5.88416">
        <ele>293.4</ele>
        <time>2021-06-21T11:27:07Z</time>
      </trkpt>
      <trkpt lat="47.17322" lon="5.88419">
        <ele>293.4</ele>
        <time>2021-06-21T11:27:08Z</time>
      </trkpt>
      <trkpt lat="47.1732" lon="5.88422">
        <ele>293.6</ele>
        <time>2021-06-21T11:27:09Z</time>
      </trkpt>
      <trkpt lat="47.17318" lon="5.88424">
        <ele>293.8</ele>
        <time>2021-06-21T11:27:10Z</time>
      </trkpt>
      <trkpt lat="47.17317" lon="5.88426">
        <ele>293.8</ele>
        <time>2021-06-21T11:27:11Z</time>
      </trkpt>
      <trkpt lat="47.17315" lon="5.88428">
        <ele>294</ele>
        <time>2021-06-21T11:27:12Z</time>
      </trkpt>
      <trkpt lat="47.17313" lon="5.8843">
        <ele>294</ele>
        <time>2021-06-21T11:27:13Z</time>
      </trkpt>
      <trkpt lat="47.17311" lon="5.88433">
        <ele>294</ele>
        <time>2021-06-21T11:27:14Z</time>
      </trkpt>
      <trkpt lat="47.17309" lon="5.88437">
        <ele>294.2</ele>
        <time>2021-06-21T11:27:15Z</time>
      </trkpt>
      <trkpt lat="47.17307" lon="5.8844">
        <ele>294.2</ele>
        <time>2021-06-21T11:27:16Z</time>
      </trkpt>
      <trkpt lat="47.17305" lon="5.88443">
        <ele>294.2</ele>
        <time>2021-06-21T11:27:17Z</time>
      </trkpt>
      <trkpt lat="47.17303" lon="5.88446">
        <ele>294.2</ele>
        <time>2021-06-21T11:27:18Z</time>
      </trkpt>
      <trkpt lat="47.17301" lon="5.88448">
        <ele>294.4</ele>
        <time>2021-06-21T11:27:19Z</time>
      </trkpt>
      <trkpt lat="47.173" lon="5.88451">
        <ele>294.4</ele>
        <time>2021-06-21T11:27:20Z</time>
      </trkpt>
      <trkpt lat="47.17298" lon="5.88454">
        <ele>294.4</ele>
        <time>2021-06-21T11:27:21Z</time>
      </trkpt>
      <trkpt lat="47.17295" lon="5.88457">
        <ele>294.4</ele>
        <time>2021-06-21T11:27:22Z</time>
      </trkpt>
      <trkpt lat="47.17293" lon="5.88461">
        <ele>294.4</ele>
        <time>2021-06-21T11:27:23Z</time>
      </trkpt>
      <trkpt lat="47.17291" lon="5.88463">
        <ele>294.4</ele>
        <time>2021-06-21T11:27:24Z</time>
      </trkpt>
      <trkpt lat="47.17288" lon="5.88467">
        <ele>294.4</ele>
        <time>2021-06-21T11:27:25Z</time>
      </trkpt>
      <trkpt lat="47.17284" lon="5.88471">
        <ele>294.2</ele>
        <time>2021-06-21T11:27:26Z</time>
      </trkpt>
      <trkpt lat="47.17281" lon="5.88475">
        <ele>294.2</ele>
        <time>2021-06-21T11:27:27Z</time>
      </trkpt>
      <trkpt lat="47.17275" lon="5.88485">
        <ele>294</ele>
        <time>2021-06-21T11:27:29Z</time>
      </trkpt>
      <trkpt lat="47.17268" lon="5.88495">
        <ele>293.4</ele>
        <time>2021-06-21T11:27:31Z</time>
      </trkpt>
      <trkpt lat="47.1726" lon="5.88509">
        <ele>292.8</ele>
        <time>2021-06-21T11:27:33Z</time>
      </trkpt>
      <trkpt lat="47.17255" lon="5.88517">
        <ele>292.8</ele>
        <time>2021-06-21T11:27:34Z</time>
      </trkpt>
      <trkpt lat="47.1725" lon="5.88526">
        <ele>292.6</ele>
        <time>2021-06-21T11:27:35Z</time>
      </trkpt>
      <trkpt lat="47.1724" lon="5.88544">
        <ele>292.2</ele>
        <time>2021-06-21T11:27:37Z</time>
      </trkpt>
      <trkpt lat="47.17231" lon="5.8856">
        <ele>291.4</ele>
        <time>2021-06-21T11:27:39Z</time>
      </trkpt>
      <trkpt lat="47.17226" lon="5.88568">
        <ele>291</ele>
        <time>2021-06-21T11:27:40Z</time>
      </trkpt>
      <trkpt lat="47.17217" lon="5.88583">
        <ele>290.4</ele>
        <time>2021-06-21T11:27:42Z</time>
      </trkpt>
      <trkpt lat="47.17213" lon="5.88591">
        <ele>290.2</ele>
        <time>2021-06-21T11:27:43Z</time>
      </trkpt>
      <trkpt lat="47.17209" lon="5.88598">
        <ele>290.2</ele>
        <time>2021-06-21T11:27:44Z</time>
      </trkpt>
      <trkpt lat="47.17205" lon="5.88605">
        <ele>290</ele>
        <time>2021-06-21T11:27:45Z</time>
      </trkpt>
      <trkpt lat="47.17201" lon="5.88612">
        <ele>290</ele>
        <time>2021-06-21T11:27:46Z</time>
      </trkpt>
      <trkpt lat="47.17197" lon="5.88617">
        <ele>290</ele>
        <time>2021-06-21T11:27:47Z</time>
      </trkpt>
      <trkpt lat="47.17193" lon="5.88622">
        <ele>289.8</ele>
        <time>2021-06-21T11:27:48Z</time>
      </trkpt>
      <trkpt lat="47.17174" lon="5.88657">
        <ele>289.6</ele>
        <time>2021-06-21T11:27:53Z</time>
      </trkpt>
      <trkpt lat="47.17168" lon="5.88661">
        <ele>289.4</ele>
        <time>2021-06-21T11:27:54Z</time>
      </trkpt>
      <trkpt lat="47.17162" lon="5.88663">
        <ele>289.2</ele>
        <time>2021-06-21T11:27:55Z</time>
      </trkpt>
      <trkpt lat="47.17155" lon="5.88667">
        <ele>289</ele>
        <time>2021-06-21T11:27:56Z</time>
      </trkpt>
      <trkpt lat="47.17148" lon="5.88672">
        <ele>288.8</ele>
        <time>2021-06-21T11:27:57Z</time>
      </trkpt>
      <trkpt lat="47.17141" lon="5.88674">
        <ele>288.6</ele>
        <time>2021-06-21T11:27:58Z</time>
      </trkpt>
      <trkpt lat="47.17133" lon="5.88675">
        <ele>288.2</ele>
        <time>2021-06-21T11:27:59Z</time>
      </trkpt>
      <trkpt lat="47.171" lon="5.88686">
        <ele>286.4</ele>
        <time>2021-06-21T11:28:03Z</time>
      </trkpt>
      <trkpt lat="47.17081" lon="5.88693">
        <ele>285</ele>
        <time>2021-06-21T11:28:05Z</time>
      </trkpt>
      <trkpt lat="47.17072" lon="5.88697">
        <ele>284</ele>
        <time>2021-06-21T11:28:06Z</time>
      </trkpt>
      <trkpt lat="47.17053" lon="5.88704">
        <ele>282.6</ele>
        <time>2021-06-21T11:28:08Z</time>
      </trkpt>
      <trkpt lat="47.17045" lon="5.88707">
        <ele>281.8</ele>
        <time>2021-06-21T11:28:09Z</time>
      </trkpt>
      <trkpt lat="47.17038" lon="5.8871">
        <ele>281</ele>
        <time>2021-06-21T11:28:10Z</time>
      </trkpt>
      <trkpt lat="47.17031" lon="5.88713">
        <ele>280.2</ele>
        <time>2021-06-21T11:28:11Z</time>
      </trkpt>
      <trkpt lat="47.17025" lon="5.88716">
        <ele>280</ele>
        <time>2021-06-21T11:28:12Z</time>
      </trkpt>
      <trkpt lat="47.1702" lon="5.88719">
        <ele>279.4</ele>
        <time>2021-06-21T11:28:13Z</time>
      </trkpt>
      <trkpt lat="47.17016" lon="5.88722">
        <ele>278.6</ele>
        <time>2021-06-21T11:28:14Z</time>
      </trkpt>
      <trkpt lat="47.17013" lon="5.88724">
        <ele>277.8</ele>
        <time>2021-06-21T11:28:15Z</time>
      </trkpt>
      <trkpt lat="47.1701" lon="5.88725">
        <ele>277.4</ele>
        <time>2021-06-21T11:28:16Z</time>
      </trkpt>
      <trkpt lat="47.17008" lon="5.88726">
        <ele>277</ele>
        <time>2021-06-21T11:28:17Z</time>
      </trkpt>
      <trkpt lat="47.17007" lon="5.88728">
        <ele>276.6</ele>
        <time>2021-06-21T11:28:18Z</time>
      </trkpt>
      <trkpt lat="47.17005" lon="5.8873">
        <ele>276.4</ele>
        <time>2021-06-21T11:28:19Z</time>
      </trkpt>
      <trkpt lat="47.17004" lon="5.88733">
        <ele>276</ele>
        <time>2021-06-21T11:28:20Z</time>
      </trkpt>
      <trkpt lat="47.17003" lon="5.88737">
        <ele>275.8</ele>
        <time>2021-06-21T11:28:21Z</time>
      </trkpt>
      <trkpt lat="47.17002" lon="5.88741">
        <ele>275.8</ele>
        <time>2021-06-21T11:28:22Z</time>
      </trkpt>
      <trkpt lat="47.17002" lon="5.88745">
        <ele>275.6</ele>
        <time>2021-06-21T11:28:23Z</time>
      </trkpt>
      <trkpt lat="47.17002" lon="5.88748">
        <ele>275.4</ele>
        <time>2021-06-21T11:28:24Z</time>
      </trkpt>
      <trkpt lat="47.17002" lon="5.88752">
        <ele>275</ele>
        <time>2021-06-21T11:28:25Z</time>
      </trkpt>
      <trkpt lat="47.17002" lon="5.88756">
        <ele>274.8</ele>
        <time>2021-06-21T11:28:26Z</time>
      </trkpt>
      <trkpt lat="47.17002" lon="5.8876">
        <ele>274.6</ele>
        <time>2021-06-21T11:28:27Z</time>
      </trkpt>
      <trkpt lat="47.17001" lon="5.88763">
        <ele>274.4</ele>
        <time>2021-06-21T11:28:28Z</time>
      </trkpt>
      <trkpt lat="47.16999" lon="5.88765">
        <ele>273.8</ele>
        <time>2021-06-21T11:28:29Z</time>
      </trkpt>
      <trkpt lat="47.16997" lon="5.88767">
        <ele>273.2</ele>
        <time>2021-06-21T11:28:30Z</time>
      </trkpt>
      <trkpt lat="47.16996" lon="5.8877">
        <ele>273</ele>
        <time>2021-06-21T11:28:31Z</time>
      </trkpt>
      <trkpt lat="47.16994" lon="5.88774">
        <ele>272.6</ele>
        <time>2021-06-21T11:28:32Z</time>
      </trkpt>
      <trkpt lat="47.16993" lon="5.88777">
        <ele>272.6</ele>
        <time>2021-06-21T11:28:33Z</time>
      </trkpt>
      <trkpt lat="47.16992" lon="5.8878">
        <ele>272.4</ele>
        <time>2021-06-21T11:28:34Z</time>
      </trkpt>
      <trkpt lat="47.1699" lon="5.88782">
        <ele>272.2</ele>
        <time>2021-06-21T11:28:35Z</time>
      </trkpt>
      <trkpt lat="47.16989" lon="5.88784">
        <ele>272</ele>
        <time>2021-06-21T11:28:36Z</time>
      </trkpt>
      <trkpt lat="47.16988" lon="5.88787">
        <ele>271.8</ele>
        <time>2021-06-21T11:28:37Z</time>
      </trkpt>
      <trkpt lat="47.16987" lon="5.8879">
        <ele>271.8</ele>
        <time>2021-06-21T11:28:38Z</time>
      </trkpt>
      <trkpt lat="47.16986" lon="5.88793">
        <ele>271.6</ele>
        <time>2021-06-21T11:28:39Z</time>
      </trkpt>
      <trkpt lat="47.16985" lon="5.88795">
        <ele>271.6</ele>
        <time>2021-06-21T11:28:40Z</time>
      </trkpt>
      <trkpt lat="47.16985" lon="5.88796">
        <ele>271.6</ele>
        <time>2021-06-21T11:28:41Z</time>
      </trkpt>
      <trkpt lat="47.16984" lon="5.88798">
        <ele>271.4</ele>
        <time>2021-06-21T11:28:42Z</time>
      </trkpt>
      <trkpt lat="47.16983" lon="5.888">
        <ele>271.2</ele>
        <time>2021-06-21T11:28:43Z</time>
      </trkpt>
      <trkpt lat="47.16981" lon="5.88802">
        <ele>271</ele>
        <time>2021-06-21T11:28:44Z</time>
      </trkpt>
      <trkpt lat="47.16977" lon="5.88804">
        <ele>270.6</ele>
        <time>2021-06-21T11:28:46Z</time>
      </trkpt>
      <trkpt lat="47.16975" lon="5.88805">
        <ele>270.6</ele>
        <time>2021-06-21T11:28:47Z</time>
      </trkpt>
      <trkpt lat="47.16972" lon="5.88805">
        <ele>270.4</ele>
        <time>2021-06-21T11:28:48Z</time>
      </trkpt>
      <trkpt lat="47.1697" lon="5.88807">
        <ele>270.4</ele>
        <time>2021-06-21T11:28:49Z</time>
      </trkpt>
      <trkpt lat="47.16968" lon="5.8881">
        <ele>270.2</ele>
        <time>2021-06-21T11:28:50Z</time>
      </trkpt>
      <trkpt lat="47.16967" lon="5.88813">
        <ele>270.2</ele>
        <time>2021-06-21T11:28:51Z</time>
      </trkpt>
      <trkpt lat="47.16965" lon="5.88817">
        <ele>270</ele>
        <time>2021-06-21T11:28:52Z</time>
      </trkpt>
      <trkpt lat="47.16963" lon="5.88821">
        <ele>270</ele>
        <time>2021-06-21T11:28:53Z</time>
      </trkpt>
      <trkpt lat="47.16961" lon="5.88825">
        <ele>269.8</ele>
        <time>2021-06-21T11:28:54Z</time>
      </trkpt>
      <trkpt lat="47.16955" lon="5.88831">
        <ele>269.6</ele>
        <time>2021-06-21T11:28:57Z</time>
      </trkpt>
      <trkpt lat="47.16946" lon="5.88822">
        <ele>269.6</ele>
        <time>2021-06-21T11:29:01Z</time>
      </trkpt>
      <trkpt lat="47.16933" lon="5.88805">
        <ele>269.4</ele>
        <time>2021-06-21T11:29:07Z</time>
      </trkpt>
      <trkpt lat="47.16931" lon="5.88804">
        <ele>269.4</ele>
        <time>2021-06-21T11:29:08Z</time>
      </trkpt>
      <trkpt lat="47.16928" lon="5.88804">
        <ele>269.4</ele>
        <time>2021-06-21T11:29:09Z</time>
      </trkpt>
      <trkpt lat="47.16924" lon="5.88806">
        <ele>269.2</ele>
        <time>2021-06-21T11:29:11Z</time>
      </trkpt>
      <trkpt lat="47.16923" lon="5.88809">
        <ele>269</ele>
        <time>2021-06-21T11:29:12Z</time>
      </trkpt>
      <trkpt lat="47.16922" lon="5.88814">
        <ele>268.8</ele>
        <time>2021-06-21T11:29:14Z</time>
      </trkpt>
      <trkpt lat="47.16921" lon="5.88817">
        <ele>268.6</ele>
        <time>2021-06-21T11:29:15Z</time>
      </trkpt>
      <trkpt lat="47.16921" lon="5.8882">
        <ele>268.6</ele>
        <time>2021-06-21T11:29:16Z</time>
      </trkpt>
      <trkpt lat="47.16921" lon="5.88822">
        <ele>268.2</ele>
        <time>2021-06-21T11:29:17Z</time>
      </trkpt>
      <trkpt lat="47.16922" lon="5.88824">
        <ele>268.2</ele>
        <time>2021-06-21T11:29:18Z</time>
      </trkpt>
      <trkpt lat="47.16922" lon="5.88825">
        <ele>268</ele>
        <time>2021-06-21T11:29:19Z</time>
      </trkpt>
      <trkpt lat="47.16922" lon="5.88825">
        <ele>268</ele>
        <time>2021-06-21T11:29:21Z</time>
      </trkpt>
      <trkpt lat="47.16922" lon="5.88825">
        <ele>268.2</ele>
        <time>2021-06-21T11:29:40Z</time>
      </trkpt>
      <trkpt lat="47.16921" lon="5.88825">
        <ele>268.2</ele>
        <time>2021-06-21T11:29:54Z</time>
      </trkpt>
      <trkpt lat="47.16918" lon="5.88823">
        <ele>268.2</ele>
        <time>2021-06-21T11:29:57Z</time>
      </trkpt>
      <trkpt lat="47.16916" lon="5.88823">
        <ele>268</ele>
        <time>2021-06-21T11:29:58Z</time>
      </trkpt>
      <trkpt lat="47.16914" lon="5.88824">
        <ele>268</ele>
        <time>2021-06-21T11:29:59Z</time>
      </trkpt>
      <trkpt lat="47.16911" lon="5.8883">
        <ele>268</ele>
        <time>2021-06-21T11:30:01Z</time>
      </trkpt>
      <trkpt lat="47.16911" lon="5.88837">
        <ele>267.6</ele>
        <time>2021-06-21T11:30:03Z</time>
      </trkpt>
      <trkpt lat="47.16912" lon="5.88839">
        <ele>267.4</ele>
        <time>2021-06-21T11:30:04Z</time>
      </trkpt>
      <trkpt lat="47.16914" lon="5.88841">
        <ele>267.4</ele>
        <time>2021-06-21T11:30:05Z</time>
      </trkpt>
      <trkpt lat="47.16915" lon="5.88842">
        <ele>267.2</ele>
        <time>2021-06-21T11:30:06Z</time>
      </trkpt>
      <trkpt lat="47.16917" lon="5.88844">
        <ele>267.2</ele>
        <time>2021-06-21T11:30:07Z</time>
      </trkpt>
      <trkpt lat="47.16917" lon="5.88846">
        <ele>267.2</ele>
        <time>2021-06-21T11:30:08Z</time>
      </trkpt>
      <trkpt lat="47.16917" lon="5.88849">
        <ele>267</ele>
        <time>2021-06-21T11:30:09Z</time>
      </trkpt>
      <trkpt lat="47.16917" lon="5.88853">
        <ele>267</ele>
        <time>2021-06-21T11:30:10Z</time>
      </trkpt>
      <trkpt lat="47.16918" lon="5.88856">
        <ele>267</ele>
        <time>2021-06-21T11:30:11Z</time>
      </trkpt>
      <trkpt lat="47.16917" lon="5.8886">
        <ele>267</ele>
        <time>2021-06-21T11:30:12Z</time>
      </trkpt>
      <trkpt lat="47.16916" lon="5.88864">
        <ele>267</ele>
        <time>2021-06-21T11:30:13Z</time>
      </trkpt>
      <trkpt lat="47.16915" lon="5.88867">
        <ele>267</ele>
        <time>2021-06-21T11:30:14Z</time>
      </trkpt>
      <trkpt lat="47.16912" lon="5.88872">
        <ele>267</ele>
        <time>2021-06-21T11:30:15Z</time>
      </trkpt>
      <trkpt lat="47.16909" lon="5.88875">
        <ele>267</ele>
        <time>2021-06-21T11:30:16Z</time>
      </trkpt>
      <trkpt lat="47.16905" lon="5.88879">
        <ele>266.8</ele>
        <time>2021-06-21T11:30:17Z</time>
      </trkpt>
      <trkpt lat="47.169" lon="5.88881">
        <ele>266.8</ele>
        <time>2021-06-21T11:30:18Z</time>
      </trkpt>
      <trkpt lat="47.16895" lon="5.88883">
        <ele>266.6</ele>
        <time>2021-06-21T11:30:19Z</time>
      </trkpt>
      <trkpt lat="47.1689" lon="5.88884">
        <ele>266</ele>
        <time>2021-06-21T11:30:20Z</time>
      </trkpt>
      <trkpt lat="47.16884" lon="5.88886">
        <ele>265.8</ele>
        <time>2021-06-21T11:30:21Z</time>
      </trkpt>
      <trkpt lat="47.16874" lon="5.88893">
        <ele>265</ele>
        <time>2021-06-21T11:30:23Z</time>
      </trkpt>
      <trkpt lat="47.16868" lon="5.88899">
        <ele>265</ele>
        <time>2021-06-21T11:30:24Z</time>
      </trkpt>
      <trkpt lat="47.16864" lon="5.88905">
        <ele>264.6</ele>
        <time>2021-06-21T11:30:25Z</time>
      </trkpt>
      <trkpt lat="47.16859" lon="5.88912">
        <ele>264.6</ele>
        <time>2021-06-21T11:30:26Z</time>
      </trkpt>
      <trkpt lat="47.16856" lon="5.88919">
        <ele>264.2</ele>
        <time>2021-06-21T11:30:27Z</time>
      </trkpt>
      <trkpt lat="47.16853" lon="5.88927">
        <ele>264.2</ele>
        <time>2021-06-21T11:30:28Z</time>
      </trkpt>
      <trkpt lat="47.16851" lon="5.88935">
        <ele>263.6</ele>
        <time>2021-06-21T11:30:29Z</time>
      </trkpt>
      <trkpt lat="47.16848" lon="5.8895">
        <ele>263.2</ele>
        <time>2021-06-21T11:30:31Z</time>
      </trkpt>
      <trkpt lat="47.16847" lon="5.88957">
        <ele>263.2</ele>
        <time>2021-06-21T11:30:32Z</time>
      </trkpt>
      <trkpt lat="47.16846" lon="5.88964">
        <ele>263.2</ele>
        <time>2021-06-21T11:30:33Z</time>
      </trkpt>
      <trkpt lat="47.16845" lon="5.8897">
        <ele>263.2</ele>
        <time>2021-06-21T11:30:34Z</time>
      </trkpt>
      <trkpt lat="47.16844" lon="5.88976">
        <ele>263.2</ele>
        <time>2021-06-21T11:30:35Z</time>
      </trkpt>
      <trkpt lat="47.16843" lon="5.88981">
        <ele>263.2</ele>
        <time>2021-06-21T11:30:36Z</time>
      </trkpt>
      <trkpt lat="47.16843" lon="5.88986">
        <ele>263.2</ele>
        <time>2021-06-21T11:30:37Z</time>
      </trkpt>
      <trkpt lat="47.16842" lon="5.8899">
        <ele>263.2</ele>
        <time>2021-06-21T11:30:38Z</time>
      </trkpt>
      <trkpt lat="47.16841" lon="5.88995">
        <ele>263.4</ele>
        <time>2021-06-21T11:30:39Z</time>
      </trkpt>
      <trkpt lat="47.1684" lon="5.89">
        <ele>263.6</ele>
        <time>2021-06-21T11:30:40Z</time>
      </trkpt>
      <trkpt lat="47.16839" lon="5.89005">
        <ele>263.6</ele>
        <time>2021-06-21T11:30:41Z</time>
      </trkpt>
      <trkpt lat="47.16837" lon="5.89019">
        <ele>263.8</ele>
        <time>2021-06-21T11:30:44Z</time>
      </trkpt>
      <trkpt lat="47.16837" lon="5.89024">
        <ele>264</ele>
        <time>2021-06-21T11:30:45Z</time>
      </trkpt>
      <trkpt lat="47.16836" lon="5.89029">
        <ele>264.4</ele>
        <time>2021-06-21T11:30:46Z</time>
      </trkpt>
      <trkpt lat="47.16836" lon="5.89034">
        <ele>264.4</ele>
        <time>2021-06-21T11:30:47Z</time>
      </trkpt>
      <trkpt lat="47.16836" lon="5.89038">
        <ele>264.8</ele>
        <time>2021-06-21T11:30:48Z</time>
      </trkpt>
      <trkpt lat="47.16835" lon="5.89043">
        <ele>265</ele>
        <time>2021-06-21T11:30:49Z</time>
      </trkpt>
      <trkpt lat="47.16835" lon="5.89047">
        <ele>265.2</ele>
        <time>2021-06-21T11:30:50Z</time>
      </trkpt>
      <trkpt lat="47.16834" lon="5.89052">
        <ele>265.2</ele>
        <time>2021-06-21T11:30:51Z</time>
      </trkpt>
      <trkpt lat="47.16834" lon="5.89057">
        <ele>265.4</ele>
        <time>2021-06-21T11:30:52Z</time>
      </trkpt>
      <trkpt lat="47.16834" lon="5.89061">
        <ele>265.6</ele>
        <time>2021-06-21T11:30:53Z</time>
      </trkpt>
      <trkpt lat="47.16834" lon="5.89066">
        <ele>265.6</ele>
        <time>2021-06-21T11:30:54Z</time>
      </trkpt>
      <trkpt lat="47.16833" lon="5.89071">
        <ele>265.8</ele>
        <time>2021-06-21T11:30:55Z</time>
      </trkpt>
      <trkpt lat="47.16833" lon="5.8908">
        <ele>266.2</ele>
        <time>2021-06-21T11:30:57Z</time>
      </trkpt>
      <trkpt lat="47.16832" lon="5.89099">
        <ele>267.2</ele>
        <time>2021-06-21T11:31:01Z</time>
      </trkpt>
      <trkpt lat="47.16832" lon="5.89104">
        <ele>267.4</ele>
        <time>2021-06-21T11:31:02Z</time>
      </trkpt>
      <trkpt lat="47.16832" lon="5.89108">
        <ele>267.6</ele>
        <time>2021-06-21T11:31:03Z</time>
      </trkpt>
      <trkpt lat="47.16832" lon="5.89112">
        <ele>267.8</ele>
        <time>2021-06-21T11:31:04Z</time>
      </trkpt>
      <trkpt lat="47.16833" lon="5.89116">
        <ele>268.2</ele>
        <time>2021-06-21T11:31:05Z</time>
      </trkpt>
      <trkpt lat="47.16835" lon="5.89119">
        <ele>268.2</ele>
        <time>2021-06-21T11:31:06Z</time>
      </trkpt>
      <trkpt lat="47.16836" lon="5.89123">
        <ele>268.6</ele>
        <time>2021-06-21T11:31:07Z</time>
      </trkpt>
      <trkpt lat="47.16838" lon="5.89127">
        <ele>268.6</ele>
        <time>2021-06-21T11:31:08Z</time>
      </trkpt>
      <trkpt lat="47.16839" lon="5.89131">
        <ele>268.8</ele>
        <time>2021-06-21T11:31:09Z</time>
      </trkpt>
      <trkpt lat="47.16841" lon="5.89136">
        <ele>268.8</ele>
        <time>2021-06-21T11:31:10Z</time>
      </trkpt>
      <trkpt lat="47.16843" lon="5.89142">
        <ele>268.8</ele>
        <time>2021-06-21T11:31:11Z</time>
      </trkpt>
      <trkpt lat="47.16844" lon="5.89148">
        <ele>268.8</ele>
        <time>2021-06-21T11:31:12Z</time>
      </trkpt>
      <trkpt lat="47.16845" lon="5.89156">
        <ele>268.8</ele>
        <time>2021-06-21T11:31:13Z</time>
      </trkpt>
      <trkpt lat="47.16845" lon="5.89164">
        <ele>268.6</ele>
        <time>2021-06-21T11:31:14Z</time>
      </trkpt>
      <trkpt lat="47.16843" lon="5.89173">
        <ele>268.6</ele>
        <time>2021-06-21T11:31:15Z</time>
      </trkpt>
      <trkpt lat="47.16839" lon="5.89182">
        <ele>268.2</ele>
        <time>2021-06-21T11:31:16Z</time>
      </trkpt>
      <trkpt lat="47.16834" lon="5.8919">
        <ele>268</ele>
        <time>2021-06-21T11:31:17Z</time>
      </trkpt>
      <trkpt lat="47.16827" lon="5.89197">
        <ele>267.8</ele>
        <time>2021-06-21T11:31:18Z</time>
      </trkpt>
      <trkpt lat="47.1682" lon="5.89201">
        <ele>267.2</ele>
        <time>2021-06-21T11:31:19Z</time>
      </trkpt>
      <trkpt lat="47.16813" lon="5.89203">
        <ele>266.8</ele>
        <time>2021-06-21T11:31:20Z</time>
      </trkpt>
      <trkpt lat="47.16803" lon="5.89206">
        <ele>266</ele>
        <time>2021-06-21T11:31:21Z</time>
      </trkpt>
      <trkpt lat="47.16795" lon="5.89208">
        <ele>265.6</ele>
        <time>2021-06-21T11:31:22Z</time>
      </trkpt>
      <trkpt lat="47.16787" lon="5.8921">
        <ele>264.8</ele>
        <time>2021-06-21T11:31:23Z</time>
      </trkpt>
      <trkpt lat="47.1676" lon="5.89216">
        <ele>263.4</ele>
        <time>2021-06-21T11:31:26Z</time>
      </trkpt>
      <trkpt lat="47.16751" lon="5.89217">
        <ele>263</ele>
        <time>2021-06-21T11:31:27Z</time>
      </trkpt>
      <trkpt lat="47.16732" lon="5.89217">
        <ele>262</ele>
        <time>2021-06-21T11:31:29Z</time>
      </trkpt>
      <trkpt lat="47.16723" lon="5.89215">
        <ele>261.4</ele>
        <time>2021-06-21T11:31:30Z</time>
      </trkpt>
      <trkpt lat="47.16714" lon="5.89212">
        <ele>261</ele>
        <time>2021-06-21T11:31:31Z</time>
      </trkpt>
      <trkpt lat="47.16704" lon="5.89208">
        <ele>260.8</ele>
        <time>2021-06-21T11:31:32Z</time>
      </trkpt>
      <trkpt lat="47.16689" lon="5.89198">
        <ele>259.8</ele>
        <time>2021-06-21T11:31:34Z</time>
      </trkpt>
      <trkpt lat="47.1667" lon="5.89183">
        <ele>258.4</ele>
        <time>2021-06-21T11:31:36Z</time>
      </trkpt>
      <trkpt lat="47.16646" lon="5.89164">
        <ele>257.2</ele>
        <time>2021-06-21T11:31:39Z</time>
      </trkpt>
      <trkpt lat="47.16618" lon="5.8914">
        <ele>255.8</ele>
        <time>2021-06-21T11:31:42Z</time>
      </trkpt>
      <trkpt lat="47.16612" lon="5.89134">
        <ele>255.4</ele>
        <time>2021-06-21T11:31:43Z</time>
      </trkpt>
      <trkpt lat="47.16593" lon="5.89115">
        <ele>254.4</ele>
        <time>2021-06-21T11:31:45Z</time>
      </trkpt>
      <trkpt lat="47.16576" lon="5.89099">
        <ele>253.4</ele>
        <time>2021-06-21T11:31:47Z</time>
      </trkpt>
      <trkpt lat="47.16567" lon="5.89091">
        <ele>253</ele>
        <time>2021-06-21T11:31:48Z</time>
      </trkpt>
      <trkpt lat="47.16549" lon="5.89076">
        <ele>251.6</ele>
        <time>2021-06-21T11:31:50Z</time>
      </trkpt>
      <trkpt lat="47.16531" lon="5.89061">
        <ele>250.4</ele>
        <time>2021-06-21T11:31:52Z</time>
      </trkpt>
      <trkpt lat="47.16505" lon="5.89038">
        <ele>248.8</ele>
        <time>2021-06-21T11:31:55Z</time>
      </trkpt>
      <trkpt lat="47.16497" lon="5.89029">
        <ele>248.4</ele>
        <time>2021-06-21T11:31:56Z</time>
      </trkpt>
      <trkpt lat="47.16483" lon="5.89012">
        <ele>247.6</ele>
        <time>2021-06-21T11:31:58Z</time>
      </trkpt>
      <trkpt lat="47.16466" lon="5.88988">
        <ele>246</ele>
        <time>2021-06-21T11:32:00Z</time>
      </trkpt>
      <trkpt lat="47.16459" lon="5.88976">
        <ele>245.2</ele>
        <time>2021-06-21T11:32:01Z</time>
      </trkpt>
      <trkpt lat="47.16453" lon="5.88964">
        <ele>244.6</ele>
        <time>2021-06-21T11:32:02Z</time>
      </trkpt>
      <trkpt lat="47.16437" lon="5.88925">
        <ele>243.4</ele>
        <time>2021-06-21T11:32:05Z</time>
      </trkpt>
      <trkpt lat="47.1643" lon="5.889">
        <ele>242</ele>
        <time>2021-06-21T11:32:07Z</time>
      </trkpt>
      <trkpt lat="47.16422" lon="5.88873">
        <ele>240.6</ele>
        <time>2021-06-21T11:32:09Z</time>
      </trkpt>
      <trkpt lat="47.16418" lon="5.8886">
        <ele>240.2</ele>
        <time>2021-06-21T11:32:10Z</time>
      </trkpt>
      <trkpt lat="47.16415" lon="5.88847">
        <ele>239.6</ele>
        <time>2021-06-21T11:32:11Z</time>
      </trkpt>
      <trkpt lat="47.16411" lon="5.88834">
        <ele>239.2</ele>
        <time>2021-06-21T11:32:12Z</time>
      </trkpt>
      <trkpt lat="47.16407" lon="5.88822">
        <ele>238.8</ele>
        <time>2021-06-21T11:32:13Z</time>
      </trkpt>
      <trkpt lat="47.16404" lon="5.8881">
        <ele>238.6</ele>
        <time>2021-06-21T11:32:14Z</time>
      </trkpt>
      <trkpt lat="47.164" lon="5.88798">
        <ele>238.6</ele>
        <time>2021-06-21T11:32:15Z</time>
      </trkpt>
      <trkpt lat="47.16397" lon="5.88787">
        <ele>238.4</ele>
        <time>2021-06-21T11:32:16Z</time>
      </trkpt>
      <trkpt lat="47.16392" lon="5.88774">
        <ele>238.4</ele>
        <time>2021-06-21T11:32:17Z</time>
      </trkpt>
      <trkpt lat="47.16389" lon="5.88765">
        <ele>238.4</ele>
        <time>2021-06-21T11:32:18Z</time>
      </trkpt>
      <trkpt lat="47.16384" lon="5.88757">
        <ele>238.6</ele>
        <time>2021-06-21T11:32:19Z</time>
      </trkpt>
      <trkpt lat="47.1638" lon="5.8875">
        <ele>238.6</ele>
        <time>2021-06-21T11:32:20Z</time>
      </trkpt>
      <trkpt lat="47.16375" lon="5.88745">
        <ele>239</ele>
        <time>2021-06-21T11:32:21Z</time>
      </trkpt>
      <trkpt lat="47.16371" lon="5.88742">
        <ele>239</ele>
        <time>2021-06-21T11:32:22Z</time>
      </trkpt>
      <trkpt lat="47.16366" lon="5.88736">
        <ele>239.2</ele>
        <time>2021-06-21T11:32:23Z</time>
      </trkpt>
      <trkpt lat="47.16361" lon="5.8873">
        <ele>239.2</ele>
        <time>2021-06-21T11:32:24Z</time>
      </trkpt>
      <trkpt lat="47.16357" lon="5.88722">
        <ele>239.2</ele>
        <time>2021-06-21T11:32:25Z</time>
      </trkpt>
      <trkpt lat="47.16355" lon="5.88712">
        <ele>239.2</ele>
        <time>2021-06-21T11:32:26Z</time>
      </trkpt>
      <trkpt lat="47.16354" lon="5.88702">
        <ele>239.2</ele>
        <time>2021-06-21T11:32:27Z</time>
      </trkpt>
      <trkpt lat="47.16353" lon="5.88692">
        <ele>239.2</ele>
        <time>2021-06-21T11:32:28Z</time>
      </trkpt>
      <trkpt lat="47.16352" lon="5.88682">
        <ele>239</ele>
        <time>2021-06-21T11:32:29Z</time>
      </trkpt>
      <trkpt lat="47.16351" lon="5.88673">
        <ele>238.8</ele>
        <time>2021-06-21T11:32:30Z</time>
      </trkpt>
      <trkpt lat="47.1635" lon="5.88664">
        <ele>238.8</ele>
        <time>2021-06-21T11:32:31Z</time>
      </trkpt>
      <trkpt lat="47.16347" lon="5.88645">
        <ele>238.4</ele>
        <time>2021-06-21T11:32:33Z</time>
      </trkpt>
      <trkpt lat="47.16346" lon="5.88637">
        <ele>238.4</ele>
        <time>2021-06-21T11:32:34Z</time>
      </trkpt>
      <trkpt lat="47.16344" lon="5.88629">
        <ele>238.4</ele>
        <time>2021-06-21T11:32:35Z</time>
      </trkpt>
      <trkpt lat="47.16343" lon="5.88622">
        <ele>238.4</ele>
        <time>2021-06-21T11:32:36Z</time>
      </trkpt>
      <trkpt lat="47.16341" lon="5.88615">
        <ele>238.2</ele>
        <time>2021-06-21T11:32:37Z</time>
      </trkpt>
      <trkpt lat="47.16339" lon="5.88608">
        <ele>238.2</ele>
        <time>2021-06-21T11:32:38Z</time>
      </trkpt>
      <trkpt lat="47.16329" lon="5.88582">
        <ele>238.2</ele>
        <time>2021-06-21T11:32:42Z</time>
      </trkpt>
      <trkpt lat="47.16326" lon="5.88577">
        <ele>238.2</ele>
        <time>2021-06-21T11:32:43Z</time>
      </trkpt>
      <trkpt lat="47.16323" lon="5.88571">
        <ele>238.2</ele>
        <time>2021-06-21T11:32:44Z</time>
      </trkpt>
      <trkpt lat="47.16319" lon="5.88564">
        <ele>238.2</ele>
        <time>2021-06-21T11:32:45Z</time>
      </trkpt>
      <trkpt lat="47.16315" lon="5.8856">
        <ele>238</ele>
        <time>2021-06-21T11:32:46Z</time>
      </trkpt>
      <trkpt lat="47.1631" lon="5.88557">
        <ele>238</ele>
        <time>2021-06-21T11:32:47Z</time>
      </trkpt>
      <trkpt lat="47.16305" lon="5.88556">
        <ele>238</ele>
        <time>2021-06-21T11:32:48Z</time>
      </trkpt>
      <trkpt lat="47.163" lon="5.88557">
        <ele>237.8</ele>
        <time>2021-06-21T11:32:49Z</time>
      </trkpt>
      <trkpt lat="47.16296" lon="5.88557">
        <ele>237.8</ele>
        <time>2021-06-21T11:32:50Z</time>
      </trkpt>
      <trkpt lat="47.16292" lon="5.88559">
        <ele>237.8</ele>
        <time>2021-06-21T11:32:51Z</time>
      </trkpt>
      <trkpt lat="47.16288" lon="5.88561">
        <ele>237.8</ele>
        <time>2021-06-21T11:32:52Z</time>
      </trkpt>
      <trkpt lat="47.16284" lon="5.88563">
        <ele>237.6</ele>
        <time>2021-06-21T11:32:53Z</time>
      </trkpt>
      <trkpt lat="47.16281" lon="5.88565">
        <ele>237.6</ele>
        <time>2021-06-21T11:32:54Z</time>
      </trkpt>
      <trkpt lat="47.16277" lon="5.88566">
        <ele>237.6</ele>
        <time>2021-06-21T11:32:55Z</time>
      </trkpt>
      <trkpt lat="47.16271" lon="5.8857">
        <ele>237.8</ele>
        <time>2021-06-21T11:32:57Z</time>
      </trkpt>
      <trkpt lat="47.16268" lon="5.88571">
        <ele>237.8</ele>
        <time>2021-06-21T11:32:58Z</time>
      </trkpt>
      <trkpt lat="47.16266" lon="5.88573">
        <ele>237.8</ele>
        <time>2021-06-21T11:32:59Z</time>
      </trkpt>
      <trkpt lat="47.16263" lon="5.88575">
        <ele>237.8</ele>
        <time>2021-06-21T11:33:00Z</time>
      </trkpt>
      <trkpt lat="47.16261" lon="5.88576">
        <ele>237.8</ele>
        <time>2021-06-21T11:33:01Z</time>
      </trkpt>
      <trkpt lat="47.16253" lon="5.88581">
        <ele>237.8</ele>
        <time>2021-06-21T11:33:04Z</time>
      </trkpt>
      <trkpt lat="47.1625" lon="5.88583">
        <ele>237.8</ele>
        <time>2021-06-21T11:33:05Z</time>
      </trkpt>
      <trkpt lat="47.16247" lon="5.88584">
        <ele>237.8</ele>
        <time>2021-06-21T11:33:06Z</time>
      </trkpt>
      <trkpt lat="47.16245" lon="5.88585">
        <ele>237.8</ele>
        <time>2021-06-21T11:33:07Z</time>
      </trkpt>
      <trkpt lat="47.16242" lon="5.88587">
        <ele>237.8</ele>
        <time>2021-06-21T11:33:08Z</time>
      </trkpt>
      <trkpt lat="47.1624" lon="5.88588">
        <ele>237.8</ele>
        <time>2021-06-21T11:33:09Z</time>
      </trkpt>
      <trkpt lat="47.16237" lon="5.8859">
        <ele>237.8</ele>
        <time>2021-06-21T11:33:10Z</time>
      </trkpt>
      <trkpt lat="47.16235" lon="5.88591">
        <ele>238</ele>
        <time>2021-06-21T11:33:11Z</time>
      </trkpt>
      <trkpt lat="47.16232" lon="5.88592">
        <ele>238</ele>
        <time>2021-06-21T11:33:12Z</time>
      </trkpt>
      <trkpt lat="47.1623" lon="5.88594">
        <ele>238</ele>
        <time>2021-06-21T11:33:13Z</time>
      </trkpt>
      <trkpt lat="47.16227" lon="5.88595">
        <ele>238</ele>
        <time>2021-06-21T11:33:14Z</time>
      </trkpt>
      <trkpt lat="47.16225" lon="5.88597">
        <ele>238</ele>
        <time>2021-06-21T11:33:15Z</time>
      </trkpt>
      <trkpt lat="47.16223" lon="5.88598">
        <ele>238.2</ele>
        <time>2021-06-21T11:33:16Z</time>
      </trkpt>
      <trkpt lat="47.16221" lon="5.88599">
        <ele>238.4</ele>
        <time>2021-06-21T11:33:17Z</time>
      </trkpt>
      <trkpt lat="47.16219" lon="5.886">
        <ele>238.4</ele>
        <time>2021-06-21T11:33:18Z</time>
      </trkpt>
      <trkpt lat="47.16217" lon="5.88601">
        <ele>238.6</ele>
        <time>2021-06-21T11:33:19Z</time>
      </trkpt>
      <trkpt lat="47.16215" lon="5.88602">
        <ele>238.6</ele>
        <time>2021-06-21T11:33:20Z</time>
      </trkpt>
      <trkpt lat="47.16213" lon="5.88603">
        <ele>238.8</ele>
        <time>2021-06-21T11:33:21Z</time>
      </trkpt>
      <trkpt lat="47.16211" lon="5.88604">
        <ele>238.8</ele>
        <time>2021-06-21T11:33:22Z</time>
      </trkpt>
      <trkpt lat="47.1621" lon="5.88604">
        <ele>238.8</ele>
        <time>2021-06-21T11:33:23Z</time>
      </trkpt>
      <trkpt lat="47.16208" lon="5.88605">
        <ele>239</ele>
        <time>2021-06-21T11:33:24Z</time>
      </trkpt>
      <trkpt lat="47.16206" lon="5.88606">
        <ele>239</ele>
        <time>2021-06-21T11:33:25Z</time>
      </trkpt>
      <trkpt lat="47.16204" lon="5.88607">
        <ele>239</ele>
        <time>2021-06-21T11:33:26Z</time>
      </trkpt>
      <trkpt lat="47.16203" lon="5.88608">
        <ele>239</ele>
        <time>2021-06-21T11:33:27Z</time>
      </trkpt>
      <trkpt lat="47.16201" lon="5.88609">
        <ele>239.2</ele>
        <time>2021-06-21T11:33:28Z</time>
      </trkpt>
      <trkpt lat="47.16199" lon="5.88609">
        <ele>239.2</ele>
        <time>2021-06-21T11:33:29Z</time>
      </trkpt>
      <trkpt lat="47.16197" lon="5.88611">
        <ele>239.2</ele>
        <time>2021-06-21T11:33:30Z</time>
      </trkpt>
      <trkpt lat="47.16195" lon="5.88612">
        <ele>239.2</ele>
        <time>2021-06-21T11:33:31Z</time>
      </trkpt>
      <trkpt lat="47.16193" lon="5.88613">
        <ele>239.2</ele>
        <time>2021-06-21T11:33:32Z</time>
      </trkpt>
      <trkpt lat="47.16191" lon="5.88614">
        <ele>239.4</ele>
        <time>2021-06-21T11:33:33Z</time>
      </trkpt>
      <trkpt lat="47.1619" lon="5.88614">
        <ele>239.4</ele>
        <time>2021-06-21T11:33:34Z</time>
      </trkpt>
      <trkpt lat="47.16181" lon="5.88621">
        <ele>239.6</ele>
        <time>2021-06-21T11:33:38Z</time>
      </trkpt>
      <trkpt lat="47.16177" lon="5.88624">
        <ele>239.8</ele>
        <time>2021-06-21T11:33:40Z</time>
      </trkpt>
      <trkpt lat="47.16175" lon="5.88625">
        <ele>239.8</ele>
        <time>2021-06-21T11:33:41Z</time>
      </trkpt>
      <trkpt lat="47.16173" lon="5.88626">
        <ele>240</ele>
        <time>2021-06-21T11:33:42Z</time>
      </trkpt>
      <trkpt lat="47.16171" lon="5.88627">
        <ele>240.4</ele>
        <time>2021-06-21T11:33:43Z</time>
      </trkpt>
      <trkpt lat="47.16169" lon="5.88629">
        <ele>240.4</ele>
        <time>2021-06-21T11:33:44Z</time>
      </trkpt>
      <trkpt lat="47.16167" lon="5.8863">
        <ele>240.6</ele>
        <time>2021-06-21T11:33:45Z</time>
      </trkpt>
      <trkpt lat="47.1615" lon="5.88639">
        <ele>241.4</ele>
        <time>2021-06-21T11:33:52Z</time>
      </trkpt>
      <trkpt lat="47.16136" lon="5.88647">
        <ele>241.8</ele>
        <time>2021-06-21T11:33:57Z</time>
      </trkpt>
      <trkpt lat="47.1612" lon="5.88655">
        <ele>242</ele>
        <time>2021-06-21T11:34:02Z</time>
      </trkpt>
      <trkpt lat="47.16088" lon="5.88674">
        <ele>242.6</ele>
        <time>2021-06-21T11:34:12Z</time>
      </trkpt>
      <trkpt lat="47.16067" lon="5.88686">
        <ele>242.4</ele>
        <time>2021-06-21T11:34:18Z</time>
      </trkpt>
      <trkpt lat="47.1606" lon="5.8869">
        <ele>242.4</ele>
        <time>2021-06-21T11:34:20Z</time>
      </trkpt>
      <trkpt lat="47.1605" lon="5.88696">
        <ele>242.4</ele>
        <time>2021-06-21T11:34:23Z</time>
      </trkpt>
      <trkpt lat="47.16042" lon="5.88699">
        <ele>242.4</ele>
        <time>2021-06-21T11:34:25Z</time>
      </trkpt>
      <trkpt lat="47.16026" lon="5.88707">
        <ele>241.8</ele>
        <time>2021-06-21T11:34:28Z</time>
      </trkpt>
      <trkpt lat="47.16002" lon="5.88722">
        <ele>240.8</ele>
        <time>2021-06-21T11:34:32Z</time>
      </trkpt>
      <trkpt lat="47.1599" lon="5.88732">
        <ele>240</ele>
        <time>2021-06-21T11:34:34Z</time>
      </trkpt>
      <trkpt lat="47.15985" lon="5.88737">
        <ele>239.6</ele>
        <time>2021-06-21T11:34:35Z</time>
      </trkpt>
      <trkpt lat="47.1598" lon="5.88742">
        <ele>239.6</ele>
        <time>2021-06-21T11:34:36Z</time>
      </trkpt>
      <trkpt lat="47.15972" lon="5.88754">
        <ele>239</ele>
        <time>2021-06-21T11:34:38Z</time>
      </trkpt>
      <trkpt lat="47.15968" lon="5.8876">
        <ele>239</ele>
        <time>2021-06-21T11:34:39Z</time>
      </trkpt>
      <trkpt lat="47.15966" lon="5.88766">
        <ele>238.8</ele>
        <time>2021-06-21T11:34:40Z</time>
      </trkpt>
      <trkpt lat="47.15965" lon="5.88772">
        <ele>238.8</ele>
        <time>2021-06-21T11:34:41Z</time>
      </trkpt>
      <trkpt lat="47.15967" lon="5.88779">
        <ele>238.6</ele>
        <time>2021-06-21T11:34:42Z</time>
      </trkpt>
      <trkpt lat="47.15978" lon="5.88797">
        <ele>238.2</ele>
        <time>2021-06-21T11:34:45Z</time>
      </trkpt>
      <trkpt lat="47.15982" lon="5.88802">
        <ele>238.2</ele>
        <time>2021-06-21T11:34:46Z</time>
      </trkpt>
      <trkpt lat="47.15986" lon="5.88806">
        <ele>238</ele>
        <time>2021-06-21T11:34:47Z</time>
      </trkpt>
      <trkpt lat="47.1599" lon="5.88811">
        <ele>238</ele>
        <time>2021-06-21T11:34:48Z</time>
      </trkpt>
      <trkpt lat="47.15994" lon="5.88816">
        <ele>238</ele>
        <time>2021-06-21T11:34:49Z</time>
      </trkpt>
      <trkpt lat="47.16009" lon="5.88833">
        <ele>237.6</ele>
        <time>2021-06-21T11:34:53Z</time>
      </trkpt>
      <trkpt lat="47.16012" lon="5.88837">
        <ele>237.6</ele>
        <time>2021-06-21T11:34:54Z</time>
      </trkpt>
      <trkpt lat="47.16015" lon="5.88841">
        <ele>237.6</ele>
        <time>2021-06-21T11:34:55Z</time>
      </trkpt>
      <trkpt lat="47.16018" lon="5.88845">
        <ele>237.6</ele>
        <time>2021-06-21T11:34:56Z</time>
      </trkpt>
      <trkpt lat="47.16031" lon="5.88861">
        <ele>237.4</ele>
        <time>2021-06-21T11:35:00Z</time>
      </trkpt>
      <trkpt lat="47.1607" lon="5.889">
        <ele>237.2</ele>
        <time>2021-06-21T11:35:10Z</time>
      </trkpt>
      <trkpt lat="47.16085" lon="5.88918">
        <ele>237.4</ele>
        <time>2021-06-21T11:35:14Z</time>
      </trkpt>
      <trkpt lat="47.16091" lon="5.8893">
        <ele>237.4</ele>
        <time>2021-06-21T11:35:16Z</time>
      </trkpt>
      <trkpt lat="47.16108" lon="5.8896">
        <ele>237.2</ele>
        <time>2021-06-21T11:35:21Z</time>
      </trkpt>
      <trkpt lat="47.16111" lon="5.88966">
        <ele>237.2</ele>
        <time>2021-06-21T11:35:22Z</time>
      </trkpt>
      <trkpt lat="47.16131" lon="5.88999">
        <ele>237</ele>
        <time>2021-06-21T11:35:28Z</time>
      </trkpt>
      <trkpt lat="47.16134" lon="5.89004">
        <ele>237</ele>
        <time>2021-06-21T11:35:29Z</time>
      </trkpt>
      <trkpt lat="47.16137" lon="5.89009">
        <ele>237.2</ele>
        <time>2021-06-21T11:35:30Z</time>
      </trkpt>
      <trkpt lat="47.16138" lon="5.89014">
        <ele>237.2</ele>
        <time>2021-06-21T11:35:31Z</time>
      </trkpt>
      <trkpt lat="47.1614" lon="5.8902">
        <ele>237.2</ele>
        <time>2021-06-21T11:35:32Z</time>
      </trkpt>
      <trkpt lat="47.16141" lon="5.89025">
        <ele>237.2</ele>
        <time>2021-06-21T11:35:33Z</time>
      </trkpt>
      <trkpt lat="47.1614" lon="5.8903">
        <ele>237.4</ele>
        <time>2021-06-21T11:35:34Z</time>
      </trkpt>
      <trkpt lat="47.16139" lon="5.89035">
        <ele>237.6</ele>
        <time>2021-06-21T11:35:35Z</time>
      </trkpt>
      <trkpt lat="47.16139" lon="5.89039">
        <ele>237.6</ele>
        <time>2021-06-21T11:35:36Z</time>
      </trkpt>
      <trkpt lat="47.16138" lon="5.89044">
        <ele>237.6</ele>
        <time>2021-06-21T11:35:37Z</time>
      </trkpt>
      <trkpt lat="47.16136" lon="5.89048">
        <ele>237.8</ele>
        <time>2021-06-21T11:35:38Z</time>
      </trkpt>
      <trkpt lat="47.16134" lon="5.8907">
        <ele>237.8</ele>
        <time>2021-06-21T11:35:42Z</time>
      </trkpt>
      <trkpt lat="47.16129" lon="5.89089">
        <ele>238</ele>
        <time>2021-06-21T11:35:46Z</time>
      </trkpt>
      <trkpt lat="47.16127" lon="5.89092">
        <ele>238.2</ele>
        <time>2021-06-21T11:35:47Z</time>
      </trkpt>
      <trkpt lat="47.16126" lon="5.89095">
        <ele>238.2</ele>
        <time>2021-06-21T11:35:48Z</time>
      </trkpt>
      <trkpt lat="47.16125" lon="5.89098">
        <ele>238.4</ele>
        <time>2021-06-21T11:35:49Z</time>
      </trkpt>
      <trkpt lat="47.16125" lon="5.891">
        <ele>238.6</ele>
        <time>2021-06-21T11:35:50Z</time>
      </trkpt>
      <trkpt lat="47.16127" lon="5.89102">
        <ele>238.6</ele>
        <time>2021-06-21T11:35:51Z</time>
      </trkpt>
      <trkpt lat="47.16129" lon="5.89103">
        <ele>238.8</ele>
        <time>2021-06-21T11:35:52Z</time>
      </trkpt>
      <trkpt lat="47.16133" lon="5.89107">
        <ele>238.8</ele>
        <time>2021-06-21T11:35:54Z</time>
      </trkpt>
      <trkpt lat="47.16134" lon="5.89111">
        <ele>238.8</ele>
        <time>2021-06-21T11:35:55Z</time>
      </trkpt>
      <trkpt lat="47.16133" lon="5.89121">
        <ele>238.8</ele>
        <time>2021-06-21T11:35:57Z</time>
      </trkpt>
      <trkpt lat="47.16135" lon="5.89126">
        <ele>238.8</ele>
        <time>2021-06-21T11:35:58Z</time>
      </trkpt>
      <trkpt lat="47.16138" lon="5.89131">
        <ele>238.8</ele>
        <time>2021-06-21T11:35:59Z</time>
      </trkpt>
      <trkpt lat="47.1614" lon="5.89135">
        <ele>238.8</ele>
        <time>2021-06-21T11:36:00Z</time>
      </trkpt>
      <trkpt lat="47.16144" lon="5.89141">
        <ele>238.8</ele>
        <time>2021-06-21T11:36:01Z</time>
      </trkpt>
      <trkpt lat="47.16155" lon="5.89162">
        <ele>238.6</ele>
        <time>2021-06-21T11:36:05Z</time>
      </trkpt>
      <trkpt lat="47.16174" lon="5.89214">
        <ele>238.8</ele>
        <time>2021-06-21T11:36:13Z</time>
      </trkpt>
      <trkpt lat="47.16182" lon="5.89239">
        <ele>239</ele>
        <time>2021-06-21T11:36:17Z</time>
      </trkpt>
      <trkpt lat="47.16186" lon="5.89252">
        <ele>239.2</ele>
        <time>2021-06-21T11:36:19Z</time>
      </trkpt>
      <trkpt lat="47.16188" lon="5.89259">
        <ele>239.4</ele>
        <time>2021-06-21T11:36:20Z</time>
      </trkpt>
      <trkpt lat="47.16189" lon="5.89265">
        <ele>239.4</ele>
        <time>2021-06-21T11:36:21Z</time>
      </trkpt>
      <trkpt lat="47.16192" lon="5.89272">
        <ele>239.4</ele>
        <time>2021-06-21T11:36:22Z</time>
      </trkpt>
      <trkpt lat="47.16196" lon="5.89284">
        <ele>239.6</ele>
        <time>2021-06-21T11:36:24Z</time>
      </trkpt>
      <trkpt lat="47.16198" lon="5.89292">
        <ele>239.6</ele>
        <time>2021-06-21T11:36:25Z</time>
      </trkpt>
      <trkpt lat="47.16207" lon="5.89326">
        <ele>239.8</ele>
        <time>2021-06-21T11:36:30Z</time>
      </trkpt>
      <trkpt lat="47.16211" lon="5.89346">
        <ele>239.8</ele>
        <time>2021-06-21T11:36:33Z</time>
      </trkpt>
      <trkpt lat="47.1622" lon="5.89391">
        <ele>240</ele>
        <time>2021-06-21T11:36:38Z</time>
      </trkpt>
      <trkpt lat="47.16225" lon="5.89416">
        <ele>240.2</ele>
        <time>2021-06-21T11:36:43Z</time>
      </trkpt>
      <trkpt lat="47.16226" lon="5.89424">
        <ele>240.2</ele>
        <time>2021-06-21T11:36:44Z</time>
      </trkpt>
      <trkpt lat="47.16229" lon="5.89445">
        <ele>240.2</ele>
        <time>2021-06-21T11:36:47Z</time>
      </trkpt>
      <trkpt lat="47.1623" lon="5.89452">
        <ele>240.4</ele>
        <time>2021-06-21T11:36:48Z</time>
      </trkpt>
      <trkpt lat="47.16231" lon="5.8946">
        <ele>240.4</ele>
        <time>2021-06-21T11:36:49Z</time>
      </trkpt>
      <trkpt lat="47.16233" lon="5.89467">
        <ele>240.4</ele>
        <time>2021-06-21T11:36:50Z</time>
      </trkpt>
      <trkpt lat="47.16237" lon="5.89487">
        <ele>240.8</ele>
        <time>2021-06-21T11:36:53Z</time>
      </trkpt>
      <trkpt lat="47.16239" lon="5.89496">
        <ele>240.8</ele>
        <time>2021-06-21T11:36:54Z</time>
      </trkpt>
      <trkpt lat="47.16241" lon="5.89503">
        <ele>241</ele>
        <time>2021-06-21T11:36:55Z</time>
      </trkpt>
      <trkpt lat="47.16244" lon="5.89518">
        <ele>241</ele>
        <time>2021-06-21T11:36:57Z</time>
      </trkpt>
      <trkpt lat="47.16245" lon="5.89526">
        <ele>241</ele>
        <time>2021-06-21T11:36:58Z</time>
      </trkpt>
      <trkpt lat="47.16248" lon="5.89541">
        <ele>241.2</ele>
        <time>2021-06-21T11:37:00Z</time>
      </trkpt>
      <trkpt lat="47.16251" lon="5.89558">
        <ele>241.2</ele>
        <time>2021-06-21T11:37:02Z</time>
      </trkpt>
      <trkpt lat="47.16255" lon="5.89573">
        <ele>241.4</ele>
        <time>2021-06-21T11:37:04Z</time>
      </trkpt>
      <trkpt lat="47.16261" lon="5.89603">
        <ele>241.6</ele>
        <time>2021-06-21T11:37:07Z</time>
      </trkpt>
      <trkpt lat="47.16264" lon="5.89612">
        <ele>241.6</ele>
        <time>2021-06-21T11:37:09Z</time>
      </trkpt>
      <trkpt lat="47.16266" lon="5.89618">
        <ele>241.8</ele>
        <time>2021-06-21T11:37:10Z</time>
      </trkpt>
      <trkpt lat="47.16272" lon="5.8964">
        <ele>241.8</ele>
        <time>2021-06-21T11:37:12Z</time>
      </trkpt>
      <trkpt lat="47.16275" lon="5.89657">
        <ele>241.8</ele>
        <time>2021-06-21T11:37:14Z</time>
      </trkpt>
      <trkpt lat="47.16278" lon="5.89671">
        <ele>242</ele>
        <time>2021-06-21T11:37:16Z</time>
      </trkpt>
      <trkpt lat="47.16293" lon="5.89719">
        <ele>242</ele>
        <time>2021-06-21T11:37:23Z</time>
      </trkpt>
      <trkpt lat="47.16298" lon="5.89734">
        <ele>242</ele>
        <time>2021-06-21T11:37:24Z</time>
      </trkpt>
      <trkpt lat="47.16301" lon="5.89748">
        <ele>242</ele>
        <time>2021-06-21T11:37:26Z</time>
      </trkpt>
      <trkpt lat="47.16302" lon="5.89754">
        <ele>242</ele>
        <time>2021-06-21T11:37:27Z</time>
      </trkpt>
      <trkpt lat="47.16302" lon="5.89754">
        <ele>242</ele>
        <time>2021-06-21T11:37:28Z</time>
      </trkpt>
      <trkpt lat="47.16304" lon="5.89771">
        <ele>242</ele>
        <time>2021-06-21T11:37:29Z</time>
      </trkpt>
      <trkpt lat="47.16306" lon="5.89778">
        <ele>242</ele>
        <time>2021-06-21T11:37:30Z</time>
      </trkpt>
      <trkpt lat="47.16307" lon="5.89784">
        <ele>242</ele>
        <time>2021-06-21T11:37:31Z</time>
      </trkpt>
      <trkpt lat="47.16308" lon="5.89791">
        <ele>242</ele>
        <time>2021-06-21T11:37:32Z</time>
      </trkpt>
      <trkpt lat="47.16308" lon="5.89791">
        <ele>242</ele>
        <time>2021-06-21T11:37:33Z</time>
      </trkpt>
      <trkpt lat="47.16309" lon="5.898">
        <ele>242.4</ele>
        <time>2021-06-21T11:37:34Z</time>
      </trkpt>
      <trkpt lat="47.16312" lon="5.89815">
        <ele>242.4</ele>
        <time>2021-06-21T11:37:35Z</time>
      </trkpt>
      <trkpt lat="47.16316" lon="5.89827">
        <ele>242.4</ele>
        <time>2021-06-21T11:37:37Z</time>
      </trkpt>
      <trkpt lat="47.16318" lon="5.89835">
        <ele>242.2</ele>
        <time>2021-06-21T11:37:39Z</time>
      </trkpt>
      <trkpt lat="47.1633" lon="5.89871">
        <ele>242.6</ele>
        <time>2021-06-21T11:37:44Z</time>
      </trkpt>
      <trkpt lat="47.16344" lon="5.89916">
        <ele>242.6</ele>
        <time>2021-06-21T11:37:50Z</time>
      </trkpt>
      <trkpt lat="47.16349" lon="5.89931">
        <ele>242.6</ele>
        <time>2021-06-21T11:37:52Z</time>
      </trkpt>
      <trkpt lat="47.16366" lon="5.89982">
        <ele>242.6</ele>
        <time>2021-06-21T11:37:58Z</time>
      </trkpt>
      <trkpt lat="47.16366" lon="5.89982">
        <ele>242.6</ele>
        <time>2021-06-21T11:37:59Z</time>
      </trkpt>
      <trkpt lat="47.1638" lon="5.90018">
        <ele>242.8</ele>
        <time>2021-06-21T11:38:03Z</time>
      </trkpt>
      <trkpt lat="47.16384" lon="5.90025">
        <ele>242.8</ele>
        <time>2021-06-21T11:38:05Z</time>
      </trkpt>
      <trkpt lat="47.16392" lon="5.90046">
        <ele>242.8</ele>
        <time>2021-06-21T11:38:07Z</time>
      </trkpt>
      <trkpt lat="47.16407" lon="5.90086">
        <ele>242.6</ele>
        <time>2021-06-21T11:38:13Z</time>
      </trkpt>
      <trkpt lat="47.16407" lon="5.90086">
        <ele>242.6</ele>
        <time>2021-06-21T11:38:14Z</time>
      </trkpt>
      <trkpt lat="47.16413" lon="5.90101">
        <ele>242.6</ele>
        <time>2021-06-21T11:38:15Z</time>
      </trkpt>
      <trkpt lat="47.16423" lon="5.90126">
        <ele>242.4</ele>
        <time>2021-06-21T11:38:19Z</time>
      </trkpt>
      <trkpt lat="47.16431" lon="5.90139">
        <ele>242.4</ele>
        <time>2021-06-21T11:38:21Z</time>
      </trkpt>
      <trkpt lat="47.16449" lon="5.90173">
        <ele>242.4</ele>
        <time>2021-06-21T11:38:27Z</time>
      </trkpt>
      <trkpt lat="47.16453" lon="5.9018">
        <ele>242.4</ele>
        <time>2021-06-21T11:38:28Z</time>
      </trkpt>
      <trkpt lat="47.16457" lon="5.90186">
        <ele>242.4</ele>
        <time>2021-06-21T11:38:29Z</time>
      </trkpt>
      <trkpt lat="47.1646" lon="5.90192">
        <ele>242.4</ele>
        <time>2021-06-21T11:38:31Z</time>
      </trkpt>
      <trkpt lat="47.16465" lon="5.90199">
        <ele>242.6</ele>
        <time>2021-06-21T11:38:32Z</time>
      </trkpt>
      <trkpt lat="47.16468" lon="5.90204">
        <ele>242.6</ele>
        <time>2021-06-21T11:38:33Z</time>
      </trkpt>
      <trkpt lat="47.16471" lon="5.90209">
        <ele>242.8</ele>
        <time>2021-06-21T11:38:34Z</time>
      </trkpt>
      <trkpt lat="47.16471" lon="5.90209">
        <ele>242.8</ele>
        <time>2021-06-21T11:38:35Z</time>
      </trkpt>
      <trkpt lat="47.1648" lon="5.90224">
        <ele>243</ele>
        <time>2021-06-21T11:38:37Z</time>
      </trkpt>
      <trkpt lat="47.16487" lon="5.90234">
        <ele>243</ele>
        <time>2021-06-21T11:38:39Z</time>
      </trkpt>
      <trkpt lat="47.1649" lon="5.9024">
        <ele>243</ele>
        <time>2021-06-21T11:38:40Z</time>
      </trkpt>
      <trkpt lat="47.16494" lon="5.90245">
        <ele>243</ele>
        <time>2021-06-21T11:38:41Z</time>
      </trkpt>
      <trkpt lat="47.16502" lon="5.90255">
        <ele>242.8</ele>
        <time>2021-06-21T11:38:44Z</time>
      </trkpt>
      <trkpt lat="47.16522" lon="5.90278">
        <ele>242.2</ele>
        <time>2021-06-21T11:38:48Z</time>
      </trkpt>
      <trkpt lat="47.16528" lon="5.90284">
        <ele>242</ele>
        <time>2021-06-21T11:38:49Z</time>
      </trkpt>
      <trkpt lat="47.16563" lon="5.90317">
        <ele>241.6</ele>
        <time>2021-06-21T11:38:56Z</time>
      </trkpt>
      <trkpt lat="47.16576" lon="5.90323">
        <ele>241.4</ele>
        <time>2021-06-21T11:38:58Z</time>
      </trkpt>
      <trkpt lat="47.16597" lon="5.90327">
        <ele>240.4</ele>
        <time>2021-06-21T11:39:01Z</time>
      </trkpt>
      <trkpt lat="47.16603" lon="5.90329">
        <ele>239.8</ele>
        <time>2021-06-21T11:39:02Z</time>
      </trkpt>
      <trkpt lat="47.16616" lon="5.90334">
        <ele>238.8</ele>
        <time>2021-06-21T11:39:04Z</time>
      </trkpt>
      <trkpt lat="47.16622" lon="5.90336">
        <ele>238.2</ele>
        <time>2021-06-21T11:39:05Z</time>
      </trkpt>
      <trkpt lat="47.16622" lon="5.90336">
        <ele>238.2</ele>
        <time>2021-06-21T11:39:06Z</time>
      </trkpt>
      <trkpt lat="47.16634" lon="5.90338">
        <ele>238</ele>
        <time>2021-06-21T11:39:07Z</time>
      </trkpt>
      <trkpt lat="47.16634" lon="5.90338">
        <ele>237.8</ele>
        <time>2021-06-21T11:39:08Z</time>
      </trkpt>
      <trkpt lat="47.16645" lon="5.90336">
        <ele>237.8</ele>
        <time>2021-06-21T11:39:09Z</time>
      </trkpt>
      <trkpt lat="47.1665" lon="5.90335">
        <ele>237.6</ele>
        <time>2021-06-21T11:39:10Z</time>
      </trkpt>
      <trkpt lat="47.16655" lon="5.90334">
        <ele>237.6</ele>
        <time>2021-06-21T11:39:11Z</time>
      </trkpt>
      <trkpt lat="47.16655" lon="5.90334">
        <ele>237.6</ele>
        <time>2021-06-21T11:39:12Z</time>
      </trkpt>
      <trkpt lat="47.16666" lon="5.90333">
        <ele>237.6</ele>
        <time>2021-06-21T11:39:13Z</time>
      </trkpt>
      <trkpt lat="47.16684" lon="5.90329">
        <ele>237.4</ele>
        <time>2021-06-21T11:39:17Z</time>
      </trkpt>
      <trkpt lat="47.16689" lon="5.90328">
        <ele>237.4</ele>
        <time>2021-06-21T11:39:18Z</time>
      </trkpt>
      <trkpt lat="47.16693" lon="5.90327">
        <ele>237.4</ele>
        <time>2021-06-21T11:39:19Z</time>
      </trkpt>
      <trkpt lat="47.16693" lon="5.90327">
        <ele>237.4</ele>
        <time>2021-06-21T11:39:20Z</time>
      </trkpt>
      <trkpt lat="47.16698" lon="5.90326">
        <ele>237.4</ele>
        <time>2021-06-21T11:39:21Z</time>
      </trkpt>
      <trkpt lat="47.16707" lon="5.90324">
        <ele>237.4</ele>
        <time>2021-06-21T11:39:22Z</time>
      </trkpt>
      <trkpt lat="47.16711" lon="5.90322">
        <ele>237.4</ele>
        <time>2021-06-21T11:39:23Z</time>
      </trkpt>
      <trkpt lat="47.16716" lon="5.90322">
        <ele>237.4</ele>
        <time>2021-06-21T11:39:24Z</time>
      </trkpt>
      <trkpt lat="47.1672" lon="5.90322">
        <ele>237.4</ele>
        <time>2021-06-21T11:39:25Z</time>
      </trkpt>
      <trkpt lat="47.16731" lon="5.90321">
        <ele>237.6</ele>
        <time>2021-06-21T11:39:28Z</time>
      </trkpt>
      <trkpt lat="47.16734" lon="5.90321">
        <ele>237.6</ele>
        <time>2021-06-21T11:39:29Z</time>
      </trkpt>
      <trkpt lat="47.16738" lon="5.90321">
        <ele>238</ele>
        <time>2021-06-21T11:39:30Z</time>
      </trkpt>
      <trkpt lat="47.16741" lon="5.90321">
        <ele>238</ele>
        <time>2021-06-21T11:39:31Z</time>
      </trkpt>
      <trkpt lat="47.16744" lon="5.90321">
        <ele>238.2</ele>
        <time>2021-06-21T11:39:32Z</time>
      </trkpt>
      <trkpt lat="47.16748" lon="5.90321">
        <ele>238.6</ele>
        <time>2021-06-21T11:39:33Z</time>
      </trkpt>
      <trkpt lat="47.16754" lon="5.90321">
        <ele>239.2</ele>
        <time>2021-06-21T11:39:35Z</time>
      </trkpt>
      <trkpt lat="47.16757" lon="5.90319">
        <ele>239.4</ele>
        <time>2021-06-21T11:39:36Z</time>
      </trkpt>
      <trkpt lat="47.16759" lon="5.90316">
        <ele>239.6</ele>
        <time>2021-06-21T11:39:37Z</time>
      </trkpt>
      <trkpt lat="47.16759" lon="5.90316">
        <ele>239.6</ele>
        <time>2021-06-21T11:39:38Z</time>
      </trkpt>
      <trkpt lat="47.16762" lon="5.90311">
        <ele>240</ele>
        <time>2021-06-21T11:39:39Z</time>
      </trkpt>
      <trkpt lat="47.16762" lon="5.90311">
        <ele>240</ele>
        <time>2021-06-21T11:39:40Z</time>
      </trkpt>
      <trkpt lat="47.16763" lon="5.90309">
        <ele>240.2</ele>
        <time>2021-06-21T11:39:41Z</time>
      </trkpt>
      <trkpt lat="47.16766" lon="5.90303">
        <ele>240.6</ele>
        <time>2021-06-21T11:39:42Z</time>
      </trkpt>
      <trkpt lat="47.16777" lon="5.90291">
        <ele>240.8</ele>
        <time>2021-06-21T11:39:45Z</time>
      </trkpt>
      <trkpt lat="47.16777" lon="5.90291">
        <ele>240.8</ele>
        <time>2021-06-21T11:39:46Z</time>
      </trkpt>
      <trkpt lat="47.16781" lon="5.90286">
        <ele>240.8</ele>
        <time>2021-06-21T11:39:47Z</time>
      </trkpt>
      <trkpt lat="47.16792" lon="5.90274">
        <ele>240.6</ele>
        <time>2021-06-21T11:39:48Z</time>
      </trkpt>
      <trkpt lat="47.16796" lon="5.90269">
        <ele>240.4</ele>
        <time>2021-06-21T11:39:49Z</time>
      </trkpt>
      <trkpt lat="47.168" lon="5.90265">
        <ele>240.2</ele>
        <time>2021-06-21T11:39:50Z</time>
      </trkpt>
      <trkpt lat="47.16805" lon="5.9026">
        <ele>239.6</ele>
        <time>2021-06-21T11:39:51Z</time>
      </trkpt>
      <trkpt lat="47.1681" lon="5.90254">
        <ele>238.8</ele>
        <time>2021-06-21T11:39:52Z</time>
      </trkpt>
      <trkpt lat="47.16818" lon="5.90247">
        <ele>238.4</ele>
        <time>2021-06-21T11:39:54Z</time>
      </trkpt>
      <trkpt lat="47.16821" lon="5.90243">
        <ele>238.4</ele>
        <time>2021-06-21T11:39:55Z</time>
      </trkpt>
      <trkpt lat="47.16824" lon="5.90238">
        <ele>238.4</ele>
        <time>2021-06-21T11:39:56Z</time>
      </trkpt>
      <trkpt lat="47.16828" lon="5.90234">
        <ele>238.4</ele>
        <time>2021-06-21T11:39:57Z</time>
      </trkpt>
      <trkpt lat="47.16828" lon="5.90234">
        <ele>238.2</ele>
        <time>2021-06-21T11:39:58Z</time>
      </trkpt>
      <trkpt lat="47.16833" lon="5.90225">
        <ele>238.4</ele>
        <time>2021-06-21T11:39:59Z</time>
      </trkpt>
      <trkpt lat="47.16845" lon="5.90206">
        <ele>238.8</ele>
        <time>2021-06-21T11:40:03Z</time>
      </trkpt>
      <trkpt lat="47.16848" lon="5.90201">
        <ele>238.8</ele>
        <time>2021-06-21T11:40:04Z</time>
      </trkpt>
      <trkpt lat="47.16851" lon="5.90195">
        <ele>238.8</ele>
        <time>2021-06-21T11:40:05Z</time>
      </trkpt>
      <trkpt lat="47.16854" lon="5.9019">
        <ele>239</ele>
        <time>2021-06-21T11:40:06Z</time>
      </trkpt>
      <trkpt lat="47.16858" lon="5.90185">
        <ele>239</ele>
        <time>2021-06-21T11:40:08Z</time>
      </trkpt>
      <trkpt lat="47.16866" lon="5.90175">
        <ele>239</ele>
        <time>2021-06-21T11:40:09Z</time>
      </trkpt>
      <trkpt lat="47.16894" lon="5.90136">
        <ele>238.8</ele>
        <time>2021-06-21T11:40:17Z</time>
      </trkpt>
      <trkpt lat="47.16897" lon="5.90131">
        <ele>238.8</ele>
        <time>2021-06-21T11:40:18Z</time>
      </trkpt>
      <trkpt lat="47.16901" lon="5.90126">
        <ele>238.8</ele>
        <time>2021-06-21T11:40:19Z</time>
      </trkpt>
      <trkpt lat="47.16905" lon="5.90121">
        <ele>238.8</ele>
        <time>2021-06-21T11:40:20Z</time>
      </trkpt>
      <trkpt lat="47.16909" lon="5.90117">
        <ele>238.8</ele>
        <time>2021-06-21T11:40:21Z</time>
      </trkpt>
      <trkpt lat="47.16923" lon="5.90098">
        <ele>238.6</ele>
        <time>2021-06-21T11:40:25Z</time>
      </trkpt>
      <trkpt lat="47.16939" lon="5.90073">
        <ele>238.6</ele>
        <time>2021-06-21T11:40:30Z</time>
      </trkpt>
      <trkpt lat="47.16945" lon="5.90064">
        <ele>238.6</ele>
        <time>2021-06-21T11:40:32Z</time>
      </trkpt>
      <trkpt lat="47.16948" lon="5.90059">
        <ele>238.4</ele>
        <time>2021-06-21T11:40:33Z</time>
      </trkpt>
      <trkpt lat="47.1695" lon="5.90054">
        <ele>238.6</ele>
        <time>2021-06-21T11:40:34Z</time>
      </trkpt>
      <trkpt lat="47.16952" lon="5.90048">
        <ele>238.6</ele>
        <time>2021-06-21T11:40:35Z</time>
      </trkpt>
      <trkpt lat="47.16961" lon="5.90027">
        <ele>238.4</ele>
        <time>2021-06-21T11:40:39Z</time>
      </trkpt>
      <trkpt lat="47.16963" lon="5.90023">
        <ele>238.8</ele>
        <time>2021-06-21T11:40:40Z</time>
      </trkpt>
      <trkpt lat="47.16964" lon="5.90019">
        <ele>238.8</ele>
        <time>2021-06-21T11:40:41Z</time>
      </trkpt>
      <trkpt lat="47.16966" lon="5.90015">
        <ele>239</ele>
        <time>2021-06-21T11:40:42Z</time>
      </trkpt>
      <trkpt lat="47.16966" lon="5.90015">
        <ele>239.2</ele>
        <time>2021-06-21T11:40:43Z</time>
      </trkpt>
      <trkpt lat="47.16968" lon="5.90012">
        <ele>239.2</ele>
        <time>2021-06-21T11:40:44Z</time>
      </trkpt>
      <trkpt lat="47.16971" lon="5.90005">
        <ele>239.2</ele>
        <time>2021-06-21T11:40:45Z</time>
      </trkpt>
      <trkpt lat="47.16974" lon="5.90001">
        <ele>239.2</ele>
        <time>2021-06-21T11:40:47Z</time>
      </trkpt>
      <trkpt lat="47.16974" lon="5.90001">
        <ele>239.2</ele>
        <time>2021-06-21T11:40:48Z</time>
      </trkpt>
      <trkpt lat="47.16976" lon="5.89998">
        <ele>239.2</ele>
        <time>2021-06-21T11:40:49Z</time>
      </trkpt>
      <trkpt lat="47.16978" lon="5.89995">
        <ele>239.2</ele>
        <time>2021-06-21T11:40:50Z</time>
      </trkpt>
      <trkpt lat="47.16983" lon="5.89984">
        <ele>239.2</ele>
        <time>2021-06-21T11:40:53Z</time>
      </trkpt>
      <trkpt lat="47.16983" lon="5.89984">
        <ele>239.2</ele>
        <time>2021-06-21T11:40:54Z</time>
      </trkpt>
      <trkpt lat="47.16993" lon="5.89967">
        <ele>239</ele>
        <time>2021-06-21T11:40:57Z</time>
      </trkpt>
      <trkpt lat="47.17006" lon="5.8994">
        <ele>239</ele>
        <time>2021-06-21T11:41:02Z</time>
      </trkpt>
      <trkpt lat="47.17008" lon="5.89935">
        <ele>239</ele>
        <time>2021-06-21T11:41:03Z</time>
      </trkpt>
      <trkpt lat="47.17008" lon="5.89935">
        <ele>238.8</ele>
        <time>2021-06-21T11:41:04Z</time>
      </trkpt>
      <trkpt lat="47.17012" lon="5.89924">
        <ele>238.8</ele>
        <time>2021-06-21T11:41:05Z</time>
      </trkpt>
      <trkpt lat="47.17017" lon="5.899">
        <ele>238.4</ele>
        <time>2021-06-21T11:41:09Z</time>
      </trkpt>
      <trkpt lat="47.17018" lon="5.89893">
        <ele>238.4</ele>
        <time>2021-06-21T11:41:10Z</time>
      </trkpt>
      <trkpt lat="47.17018" lon="5.89875">
        <ele>238</ele>
        <time>2021-06-21T11:41:13Z</time>
      </trkpt>
      <trkpt lat="47.17018" lon="5.89868">
        <ele>238</ele>
        <time>2021-06-21T11:41:14Z</time>
      </trkpt>
      <trkpt lat="47.1702" lon="5.89865">
        <ele>237.8</ele>
        <time>2021-06-21T11:41:15Z</time>
      </trkpt>
      <trkpt lat="47.17021" lon="5.8986">
        <ele>237.6</ele>
        <time>2021-06-21T11:41:16Z</time>
      </trkpt>
      <trkpt lat="47.17023" lon="5.89856">
        <ele>237.6</ele>
        <time>2021-06-21T11:41:17Z</time>
      </trkpt>
      <trkpt lat="47.17025" lon="5.89851">
        <ele>237.6</ele>
        <time>2021-06-21T11:41:18Z</time>
      </trkpt>
      <trkpt lat="47.17027" lon="5.89847">
        <ele>237.6</ele>
        <time>2021-06-21T11:41:20Z</time>
      </trkpt>
      <trkpt lat="47.17031" lon="5.8984">
        <ele>237.6</ele>
        <time>2021-06-21T11:41:21Z</time>
      </trkpt>
      <trkpt lat="47.17031" lon="5.8984">
        <ele>237.6</ele>
        <time>2021-06-21T11:41:22Z</time>
      </trkpt>
      <trkpt lat="47.17051" lon="5.89809">
        <ele>237.8</ele>
        <time>2021-06-21T11:41:29Z</time>
      </trkpt>
      <trkpt lat="47.17059" lon="5.89795">
        <ele>238</ele>
        <time>2021-06-21T11:41:32Z</time>
      </trkpt>
      <trkpt lat="47.1706" lon="5.89789">
        <ele>238</ele>
        <time>2021-06-21T11:41:33Z</time>
      </trkpt>
      <trkpt lat="47.1706" lon="5.89789">
        <ele>238</ele>
        <time>2021-06-21T11:41:34Z</time>
      </trkpt>
      <trkpt lat="47.17069" lon="5.89756">
        <ele>238.2</ele>
        <time>2021-06-21T11:41:40Z</time>
      </trkpt>
      <trkpt lat="47.17076" lon="5.8973">
        <ele>238.4</ele>
        <time>2021-06-21T11:41:44Z</time>
      </trkpt>
      <trkpt lat="47.17078" lon="5.89726">
        <ele>238.4</ele>
        <time>2021-06-21T11:41:45Z</time>
      </trkpt>
      <trkpt lat="47.17079" lon="5.89722">
        <ele>238.4</ele>
        <time>2021-06-21T11:41:46Z</time>
      </trkpt>
      <trkpt lat="47.1708" lon="5.89719">
        <ele>238.4</ele>
        <time>2021-06-21T11:41:47Z</time>
      </trkpt>
      <trkpt lat="47.1708" lon="5.89719">
        <ele>238.4</ele>
        <time>2021-06-21T11:41:48Z</time>
      </trkpt>
      <trkpt lat="47.17081" lon="5.89712">
        <ele>238.4</ele>
        <time>2021-06-21T11:41:49Z</time>
      </trkpt>
      <trkpt lat="47.17083" lon="5.89706">
        <ele>238.4</ele>
        <time>2021-06-21T11:41:50Z</time>
      </trkpt>
      <trkpt lat="47.17087" lon="5.89698">
        <ele>238.8</ele>
        <time>2021-06-21T11:41:53Z</time>
      </trkpt>
      <trkpt lat="47.17091" lon="5.89691">
        <ele>238.8</ele>
        <time>2021-06-21T11:41:54Z</time>
      </trkpt>
      <trkpt lat="47.17093" lon="5.89688">
        <ele>238.8</ele>
        <time>2021-06-21T11:41:55Z</time>
      </trkpt>
      <trkpt lat="47.17097" lon="5.89682">
        <ele>238.8</ele>
        <time>2021-06-21T11:41:57Z</time>
      </trkpt>
      <trkpt lat="47.17097" lon="5.89682">
        <ele>238.8</ele>
        <time>2021-06-21T11:41:58Z</time>
      </trkpt>
      <trkpt lat="47.17101" lon="5.89675">
        <ele>239</ele>
        <time>2021-06-21T11:42:00Z</time>
      </trkpt>
      <trkpt lat="47.17101" lon="5.89675">
        <ele>239</ele>
        <time>2021-06-21T11:42:01Z</time>
      </trkpt>
      <trkpt lat="47.17104" lon="5.89671">
        <ele>239</ele>
        <time>2021-06-21T11:42:02Z</time>
      </trkpt>
      <trkpt lat="47.17108" lon="5.89667">
        <ele>239</ele>
        <time>2021-06-21T11:42:04Z</time>
      </trkpt>
      <trkpt lat="47.17111" lon="5.89663">
        <ele>239.2</ele>
        <time>2021-06-21T11:42:05Z</time>
      </trkpt>
      <trkpt lat="47.17113" lon="5.8966">
        <ele>239.2</ele>
        <time>2021-06-21T11:42:06Z</time>
      </trkpt>
      <trkpt lat="47.17116" lon="5.89656">
        <ele>239.2</ele>
        <time>2021-06-21T11:42:08Z</time>
      </trkpt>
      <trkpt lat="47.17119" lon="5.8965">
        <ele>239.2</ele>
        <time>2021-06-21T11:42:09Z</time>
      </trkpt>
      <trkpt lat="47.17121" lon="5.89647">
        <ele>239.2</ele>
        <time>2021-06-21T11:42:10Z</time>
      </trkpt>
      <trkpt lat="47.17138" lon="5.89617">
        <ele>239</ele>
        <time>2021-06-21T11:42:16Z</time>
      </trkpt>
      <trkpt lat="47.17153" lon="5.89591">
        <ele>239</ele>
        <time>2021-06-21T11:42:21Z</time>
      </trkpt>
      <trkpt lat="47.17158" lon="5.89578">
        <ele>239</ele>
        <time>2021-06-21T11:42:23Z</time>
      </trkpt>
      <trkpt lat="47.17167" lon="5.89564">
        <ele>239</ele>
        <time>2021-06-21T11:42:26Z</time>
      </trkpt>
      <trkpt lat="47.17167" lon="5.89564">
        <ele>239</ele>
        <time>2021-06-21T11:42:27Z</time>
      </trkpt>
      <trkpt lat="47.17174" lon="5.89558">
        <ele>239</ele>
        <time>2021-06-21T11:42:28Z</time>
      </trkpt>
      <trkpt lat="47.17182" lon="5.89555">
        <ele>238.8</ele>
        <time>2021-06-21T11:42:30Z</time>
      </trkpt>
      <trkpt lat="47.17185" lon="5.89548">
        <ele>238.8</ele>
        <time>2021-06-21T11:42:31Z</time>
      </trkpt>
      <trkpt lat="47.17185" lon="5.89548">
        <ele>238.8</ele>
        <time>2021-06-21T11:42:32Z</time>
      </trkpt>
      <trkpt lat="47.17204" lon="5.89526">
        <ele>238.6</ele>
        <time>2021-06-21T11:42:37Z</time>
      </trkpt>
      <trkpt lat="47.1722" lon="5.89511">
        <ele>238.6</ele>
        <time>2021-06-21T11:42:40Z</time>
      </trkpt>
      <trkpt lat="47.17223" lon="5.89506">
        <ele>238.8</ele>
        <time>2021-06-21T11:42:41Z</time>
      </trkpt>
      <trkpt lat="47.1723" lon="5.89496">
        <ele>238.8</ele>
        <time>2021-06-21T11:42:43Z</time>
      </trkpt>
      <trkpt lat="47.17252" lon="5.89458">
        <ele>238.8</ele>
        <time>2021-06-21T11:42:51Z</time>
      </trkpt>
      <trkpt lat="47.17255" lon="5.89455">
        <ele>238.6</ele>
        <time>2021-06-21T11:42:52Z</time>
      </trkpt>
      <trkpt lat="47.17258" lon="5.89451">
        <ele>238.6</ele>
        <time>2021-06-21T11:42:53Z</time>
      </trkpt>
      <trkpt lat="47.17284" lon="5.8941">
        <ele>238.8</ele>
        <time>2021-06-21T11:43:02Z</time>
      </trkpt>
      <trkpt lat="47.17284" lon="5.8941">
        <ele>239</ele>
        <time>2021-06-21T11:43:03Z</time>
      </trkpt>
      <trkpt lat="47.17292" lon="5.89396">
        <ele>239</ele>
        <time>2021-06-21T11:43:05Z</time>
      </trkpt>
      <trkpt lat="47.17304" lon="5.89381">
        <ele>238.8</ele>
        <time>2021-06-21T11:43:09Z</time>
      </trkpt>
      <trkpt lat="47.17308" lon="5.89378">
        <ele>238.8</ele>
        <time>2021-06-21T11:43:10Z</time>
      </trkpt>
      <trkpt lat="47.17311" lon="5.89374">
        <ele>238.8</ele>
        <time>2021-06-21T11:43:11Z</time>
      </trkpt>
      <trkpt lat="47.17314" lon="5.89371">
        <ele>238.6</ele>
        <time>2021-06-21T11:43:12Z</time>
      </trkpt>
      <trkpt lat="47.17318" lon="5.89368">
        <ele>238.6</ele>
        <time>2021-06-21T11:43:13Z</time>
      </trkpt>
      <trkpt lat="47.17321" lon="5.89364">
        <ele>238.6</ele>
        <time>2021-06-21T11:43:14Z</time>
      </trkpt>
      <trkpt lat="47.17321" lon="5.89364">
        <ele>238.6</ele>
        <time>2021-06-21T11:43:15Z</time>
      </trkpt>
      <trkpt lat="47.17334" lon="5.89352">
        <ele>238.6</ele>
        <time>2021-06-21T11:43:18Z</time>
      </trkpt>
      <trkpt lat="47.17341" lon="5.89346">
        <ele>238.6</ele>
        <time>2021-06-21T11:43:20Z</time>
      </trkpt>
      <trkpt lat="47.17344" lon="5.89343">
        <ele>238.6</ele>
        <time>2021-06-21T11:43:21Z</time>
      </trkpt>
      <trkpt lat="47.17347" lon="5.89341">
        <ele>238.8</ele>
        <time>2021-06-21T11:43:22Z</time>
      </trkpt>
      <trkpt lat="47.17351" lon="5.89338">
        <ele>238.8</ele>
        <time>2021-06-21T11:43:23Z</time>
      </trkpt>
      <trkpt lat="47.17351" lon="5.89338">
        <ele>238.8</ele>
        <time>2021-06-21T11:43:24Z</time>
      </trkpt>
      <trkpt lat="47.17357" lon="5.89332">
        <ele>239</ele>
        <time>2021-06-21T11:43:25Z</time>
      </trkpt>
      <trkpt lat="47.1736" lon="5.89329">
        <ele>239</ele>
        <time>2021-06-21T11:43:26Z</time>
      </trkpt>
      <trkpt lat="47.17363" lon="5.89326">
        <ele>239</ele>
        <time>2021-06-21T11:43:27Z</time>
      </trkpt>
      <trkpt lat="47.17366" lon="5.89322">
        <ele>239</ele>
        <time>2021-06-21T11:43:28Z</time>
      </trkpt>
      <trkpt lat="47.17366" lon="5.89322">
        <ele>239</ele>
        <time>2021-06-21T11:43:29Z</time>
      </trkpt>
      <trkpt lat="47.1737" lon="5.89315">
        <ele>239</ele>
        <time>2021-06-21T11:43:30Z</time>
      </trkpt>
      <trkpt lat="47.17371" lon="5.89311">
        <ele>239</ele>
        <time>2021-06-21T11:43:31Z</time>
      </trkpt>
      <trkpt lat="47.17373" lon="5.89308">
        <ele>239</ele>
        <time>2021-06-21T11:43:32Z</time>
      </trkpt>
      <trkpt lat="47.17373" lon="5.89305">
        <ele>239</ele>
        <time>2021-06-21T11:43:33Z</time>
      </trkpt>
      <trkpt lat="47.17373" lon="5.89305">
        <ele>239</ele>
        <time>2021-06-21T11:43:34Z</time>
      </trkpt>
      <trkpt lat="47.17373" lon="5.89298">
        <ele>239</ele>
        <time>2021-06-21T11:43:35Z</time>
      </trkpt>
      <trkpt lat="47.17373" lon="5.89288">
        <ele>239</ele>
        <time>2021-06-21T11:43:37Z</time>
      </trkpt>
      <trkpt lat="47.17373" lon="5.89282">
        <ele>239</ele>
        <time>2021-06-21T11:43:38Z</time>
      </trkpt>
      <trkpt lat="47.17374" lon="5.89272">
        <ele>238.8</ele>
        <time>2021-06-21T11:43:40Z</time>
      </trkpt>
      <trkpt lat="47.17375" lon="5.89266">
        <ele>238.4</ele>
        <time>2021-06-21T11:43:41Z</time>
      </trkpt>
      <trkpt lat="47.17378" lon="5.89257">
        <ele>238.2</ele>
        <time>2021-06-21T11:43:43Z</time>
      </trkpt>
      <trkpt lat="47.1738" lon="5.89254">
        <ele>238.2</ele>
        <time>2021-06-21T11:43:44Z</time>
      </trkpt>
      <trkpt lat="47.17382" lon="5.8925">
        <ele>238.2</ele>
        <time>2021-06-21T11:43:45Z</time>
      </trkpt>
      <trkpt lat="47.17383" lon="5.89247">
        <ele>238</ele>
        <time>2021-06-21T11:43:46Z</time>
      </trkpt>
      <trkpt lat="47.17384" lon="5.89244">
        <ele>238</ele>
        <time>2021-06-21T11:43:47Z</time>
      </trkpt>
      <trkpt lat="47.17386" lon="5.89241">
        <ele>238</ele>
        <time>2021-06-21T11:43:48Z</time>
      </trkpt>
      <trkpt lat="47.17388" lon="5.89238">
        <ele>238.2</ele>
        <time>2021-06-21T11:43:49Z</time>
      </trkpt>
      <trkpt lat="47.1739" lon="5.89232">
        <ele>238.2</ele>
        <time>2021-06-21T11:43:51Z</time>
      </trkpt>
      <trkpt lat="47.17391" lon="5.89229">
        <ele>238.2</ele>
        <time>2021-06-21T11:43:52Z</time>
      </trkpt>
      <trkpt lat="47.17392" lon="5.89225">
        <ele>238.2</ele>
        <time>2021-06-21T11:43:53Z</time>
      </trkpt>
      <trkpt lat="47.17392" lon="5.89221">
        <ele>238.4</ele>
        <time>2021-06-21T11:43:54Z</time>
      </trkpt>
      <trkpt lat="47.17392" lon="5.89221">
        <ele>238.4</ele>
        <time>2021-06-21T11:43:55Z</time>
      </trkpt>
      <trkpt lat="47.17395" lon="5.89192">
        <ele>238.6</ele>
        <time>2021-06-21T11:44:00Z</time>
      </trkpt>
      <trkpt lat="47.17394" lon="5.89188">
        <ele>238.6</ele>
        <time>2021-06-21T11:44:01Z</time>
      </trkpt>
      <trkpt lat="47.17394" lon="5.89182">
        <ele>238.6</ele>
        <time>2021-06-21T11:44:02Z</time>
      </trkpt>
      <trkpt lat="47.17396" lon="5.89174">
        <ele>238.8</ele>
        <time>2021-06-21T11:44:04Z</time>
      </trkpt>
      <trkpt lat="47.17402" lon="5.89171">
        <ele>238.8</ele>
        <time>2021-06-21T11:44:07Z</time>
      </trkpt>
      <trkpt lat="47.17402" lon="5.89171">
        <ele>238.8</ele>
        <time>2021-06-21T11:44:08Z</time>
      </trkpt>
      <trkpt lat="47.17409" lon="5.89166">
        <ele>239</ele>
        <time>2021-06-21T11:44:10Z</time>
      </trkpt>
      <trkpt lat="47.17428" lon="5.89155">
        <ele>239.2</ele>
        <time>2021-06-21T11:44:16Z</time>
      </trkpt>
      <trkpt lat="47.17432" lon="5.89148">
        <ele>239.2</ele>
        <time>2021-06-21T11:44:18Z</time>
      </trkpt>
      <trkpt lat="47.17435" lon="5.89142">
        <ele>239</ele>
        <time>2021-06-21T11:44:20Z</time>
      </trkpt>
      <trkpt lat="47.17439" lon="5.89137">
        <ele>238.8</ele>
        <time>2021-06-21T11:44:23Z</time>
      </trkpt>
      <trkpt lat="47.17444" lon="5.89134">
        <ele>238.6</ele>
        <time>2021-06-21T11:44:24Z</time>
      </trkpt>
      <trkpt lat="47.17447" lon="5.89133">
        <ele>238.6</ele>
        <time>2021-06-21T11:44:25Z</time>
      </trkpt>
      <trkpt lat="47.17447" lon="5.89133">
        <ele>238.4</ele>
        <time>2021-06-21T11:44:26Z</time>
      </trkpt>
      <trkpt lat="47.17453" lon="5.89133">
        <ele>238.2</ele>
        <time>2021-06-21T11:44:27Z</time>
      </trkpt>
      <trkpt lat="47.17455" lon="5.89132">
        <ele>238.2</ele>
        <time>2021-06-21T11:44:28Z</time>
      </trkpt>
      <trkpt lat="47.17458" lon="5.89131">
        <ele>238.2</ele>
        <time>2021-06-21T11:44:29Z</time>
      </trkpt>
      <trkpt lat="47.17484" lon="5.89125">
        <ele>238.8</ele>
        <time>2021-06-21T11:44:38Z</time>
      </trkpt>
      <trkpt lat="47.17486" lon="5.89124">
        <ele>238.8</ele>
        <time>2021-06-21T11:44:39Z</time>
      </trkpt>
      <trkpt lat="47.17489" lon="5.89123">
        <ele>238.8</ele>
        <time>2021-06-21T11:44:40Z</time>
      </trkpt>
      <trkpt lat="47.17505" lon="5.89116">
        <ele>239</ele>
        <time>2021-06-21T11:44:45Z</time>
      </trkpt>
      <trkpt lat="47.17517" lon="5.89112">
        <ele>239.2</ele>
        <time>2021-06-21T11:44:49Z</time>
      </trkpt>
      <trkpt lat="47.1752" lon="5.89111">
        <ele>239.2</ele>
        <time>2021-06-21T11:44:50Z</time>
      </trkpt>
      <trkpt lat="47.17523" lon="5.89109">
        <ele>239.2</ele>
        <time>2021-06-21T11:44:51Z</time>
      </trkpt>
      <trkpt lat="47.17538" lon="5.89103">
        <ele>239.2</ele>
        <time>2021-06-21T11:44:56Z</time>
      </trkpt>
      <trkpt lat="47.17549" lon="5.89098">
        <ele>239.4</ele>
        <time>2021-06-21T11:45:00Z</time>
      </trkpt>
      <trkpt lat="47.17571" lon="5.89092">
        <ele>238.8</ele>
        <time>2021-06-21T11:45:06Z</time>
      </trkpt>
      <trkpt lat="47.17574" lon="5.89091">
        <ele>238.8</ele>
        <time>2021-06-21T11:45:07Z</time>
      </trkpt>
      <trkpt lat="47.17578" lon="5.8909">
        <ele>239</ele>
        <time>2021-06-21T11:45:08Z</time>
      </trkpt>
      <trkpt lat="47.17606" lon="5.89082">
        <ele>239.2</ele>
        <time>2021-06-21T11:45:16Z</time>
      </trkpt>
      <trkpt lat="47.17619" lon="5.8908">
        <ele>239</ele>
        <time>2021-06-21T11:45:20Z</time>
      </trkpt>
      <trkpt lat="47.17622" lon="5.89079">
        <ele>239</ele>
        <time>2021-06-21T11:45:21Z</time>
      </trkpt>
      <trkpt lat="47.17625" lon="5.89078">
        <ele>238.8</ele>
        <time>2021-06-21T11:45:22Z</time>
      </trkpt>
      <trkpt lat="47.17664" lon="5.89069">
        <ele>238.8</ele>
        <time>2021-06-21T11:45:34Z</time>
      </trkpt>
      <trkpt lat="47.17671" lon="5.89068">
        <ele>238.8</ele>
        <time>2021-06-21T11:45:36Z</time>
      </trkpt>
      <trkpt lat="47.17674" lon="5.89067">
        <ele>238.8</ele>
        <time>2021-06-21T11:45:37Z</time>
      </trkpt>
      <trkpt lat="47.17677" lon="5.89067">
        <ele>238.8</ele>
        <time>2021-06-21T11:45:38Z</time>
      </trkpt>
      <trkpt lat="47.1768" lon="5.89066">
        <ele>238.8</ele>
        <time>2021-06-21T11:45:39Z</time>
      </trkpt>
      <trkpt lat="47.1768" lon="5.89066">
        <ele>238.8</ele>
        <time>2021-06-21T11:45:40Z</time>
      </trkpt>
      <trkpt lat="47.17685" lon="5.89065">
        <ele>238.8</ele>
        <time>2021-06-21T11:45:41Z</time>
      </trkpt>
      <trkpt lat="47.17688" lon="5.89064">
        <ele>238.8</ele>
        <time>2021-06-21T11:45:42Z</time>
      </trkpt>
      <trkpt lat="47.17694" lon="5.89062">
        <ele>238.8</ele>
        <time>2021-06-21T11:45:44Z</time>
      </trkpt>
      <trkpt lat="47.17697" lon="5.89061">
        <ele>238.8</ele>
        <time>2021-06-21T11:45:45Z</time>
      </trkpt>
      <trkpt lat="47.177" lon="5.89061">
        <ele>238.8</ele>
        <time>2021-06-21T11:45:46Z</time>
      </trkpt>
      <trkpt lat="47.17704" lon="5.89059">
        <ele>238.8</ele>
        <time>2021-06-21T11:45:47Z</time>
      </trkpt>
      <trkpt lat="47.17707" lon="5.89059">
        <ele>238.8</ele>
        <time>2021-06-21T11:45:48Z</time>
      </trkpt>
      <trkpt lat="47.1771" lon="5.89058">
        <ele>239</ele>
        <time>2021-06-21T11:45:49Z</time>
      </trkpt>
      <trkpt lat="47.17733" lon="5.89052">
        <ele>239</ele>
        <time>2021-06-21T11:45:57Z</time>
      </trkpt>
      <trkpt lat="47.17736" lon="5.89051">
        <ele>239</ele>
        <time>2021-06-21T11:45:58Z</time>
      </trkpt>
      <trkpt lat="47.17739" lon="5.89051">
        <ele>239</ele>
        <time>2021-06-21T11:45:59Z</time>
      </trkpt>
      <trkpt lat="47.17742" lon="5.8905">
        <ele>238.8</ele>
        <time>2021-06-21T11:46:00Z</time>
      </trkpt>
      <trkpt lat="47.17745" lon="5.89049">
        <ele>238.8</ele>
        <time>2021-06-21T11:46:01Z</time>
      </trkpt>
      <trkpt lat="47.17761" lon="5.89048">
        <ele>238.8</ele>
        <time>2021-06-21T11:46:06Z</time>
      </trkpt>
      <trkpt lat="47.17764" lon="5.89048">
        <ele>238.8</ele>
        <time>2021-06-21T11:46:07Z</time>
      </trkpt>
      <trkpt lat="47.178" lon="5.89048">
        <ele>239</ele>
        <time>2021-06-21T11:46:17Z</time>
      </trkpt>
      <trkpt lat="47.17838" lon="5.89048">
        <ele>239</ele>
        <time>2021-06-21T11:46:27Z</time>
      </trkpt>
      <trkpt lat="47.17876" lon="5.89048">
        <ele>239.4</ele>
        <time>2021-06-21T11:46:37Z</time>
      </trkpt>
      <trkpt lat="47.17879" lon="5.89048">
        <ele>239.4</ele>
        <time>2021-06-21T11:46:38Z</time>
      </trkpt>
      <trkpt lat="47.17879" lon="5.89048">
        <ele>239.4</ele>
        <time>2021-06-21T11:46:39Z</time>
      </trkpt>
      <trkpt lat="47.17885" lon="5.89048">
        <ele>239.4</ele>
        <time>2021-06-21T11:46:40Z</time>
      </trkpt>
      <trkpt lat="47.17888" lon="5.89047">
        <ele>239.6</ele>
        <time>2021-06-21T11:46:41Z</time>
      </trkpt>
      <trkpt lat="47.17906" lon="5.89046">
        <ele>239.6</ele>
        <time>2021-06-21T11:46:46Z</time>
      </trkpt>
      <trkpt lat="47.17946" lon="5.89047">
        <ele>239.4</ele>
        <time>2021-06-21T11:46:57Z</time>
      </trkpt>
      <trkpt lat="47.17955" lon="5.89048">
        <ele>239.4</ele>
        <time>2021-06-21T11:47:00Z</time>
      </trkpt>
      <trkpt lat="47.17958" lon="5.89048">
        <ele>239.4</ele>
        <time>2021-06-21T11:47:01Z</time>
      </trkpt>
      <trkpt lat="47.17961" lon="5.89048">
        <ele>239.4</ele>
        <time>2021-06-21T11:47:02Z</time>
      </trkpt>
      <trkpt lat="47.17964" lon="5.89048">
        <ele>239.4</ele>
        <time>2021-06-21T11:47:03Z</time>
      </trkpt>
      <trkpt lat="47.17964" lon="5.89048">
        <ele>239.4</ele>
        <time>2021-06-21T11:47:04Z</time>
      </trkpt>
      <trkpt lat="47.17968" lon="5.89049">
        <ele>239.4</ele>
        <time>2021-06-21T11:47:05Z</time>
      </trkpt>
      <trkpt lat="47.17971" lon="5.89049">
        <ele>239.4</ele>
        <time>2021-06-21T11:47:06Z</time>
      </trkpt>
      <trkpt lat="47.17973" lon="5.89049">
        <ele>239.4</ele>
        <time>2021-06-21T11:47:07Z</time>
      </trkpt>
      <trkpt lat="47.17981" lon="5.89049">
        <ele>239.2</ele>
        <time>2021-06-21T11:47:10Z</time>
      </trkpt>
      <trkpt lat="47.17997" lon="5.89047">
        <ele>239</ele>
        <time>2021-06-21T11:47:15Z</time>
      </trkpt>
      <trkpt lat="47.17999" lon="5.89047">
        <ele>239.2</ele>
        <time>2021-06-21T11:47:16Z</time>
      </trkpt>
      <trkpt lat="47.18002" lon="5.89046">
        <ele>239.4</ele>
        <time>2021-06-21T11:47:17Z</time>
      </trkpt>
      <trkpt lat="47.18005" lon="5.89045">
        <ele>239.4</ele>
        <time>2021-06-21T11:47:18Z</time>
      </trkpt>
      <trkpt lat="47.18012" lon="5.89041">
        <ele>239.4</ele>
        <time>2021-06-21T11:47:21Z</time>
      </trkpt>
      <trkpt lat="47.18014" lon="5.8904">
        <ele>239.4</ele>
        <time>2021-06-21T11:47:22Z</time>
      </trkpt>
      <trkpt lat="47.18016" lon="5.8904">
        <ele>239.2</ele>
        <time>2021-06-21T11:47:23Z</time>
      </trkpt>
      <trkpt lat="47.18019" lon="5.89041">
        <ele>239.2</ele>
        <time>2021-06-21T11:47:24Z</time>
      </trkpt>
      <trkpt lat="47.1802" lon="5.89041">
        <ele>239.4</ele>
        <time>2021-06-21T11:47:25Z</time>
      </trkpt>
      <trkpt lat="47.18022" lon="5.89042">
        <ele>239.4</ele>
        <time>2021-06-21T11:47:26Z</time>
      </trkpt>
      <trkpt lat="47.18024" lon="5.89042">
        <ele>239.4</ele>
        <time>2021-06-21T11:47:27Z</time>
      </trkpt>
      <trkpt lat="47.18032" lon="5.89041">
        <ele>239</ele>
        <time>2021-06-21T11:47:30Z</time>
      </trkpt>
      <trkpt lat="47.18037" lon="5.89043">
        <ele>239</ele>
        <time>2021-06-21T11:47:32Z</time>
      </trkpt>
      <trkpt lat="47.18049" lon="5.89044">
        <ele>239</ele>
        <time>2021-06-21T11:47:36Z</time>
      </trkpt>
      <trkpt lat="47.18052" lon="5.89044">
        <ele>239</ele>
        <time>2021-06-21T11:47:37Z</time>
      </trkpt>
      <trkpt lat="47.18066" lon="5.89045">
        <ele>239</ele>
        <time>2021-06-21T11:47:42Z</time>
      </trkpt>
      <trkpt lat="47.18068" lon="5.89045">
        <ele>239</ele>
        <time>2021-06-21T11:47:43Z</time>
      </trkpt>
      <trkpt lat="47.18071" lon="5.89045">
        <ele>239</ele>
        <time>2021-06-21T11:47:44Z</time>
      </trkpt>
      <trkpt lat="47.18075" lon="5.89044">
        <ele>239</ele>
        <time>2021-06-21T11:47:45Z</time>
      </trkpt>
      <trkpt lat="47.18079" lon="5.89043">
        <ele>239</ele>
        <time>2021-06-21T11:47:46Z</time>
      </trkpt>
      <trkpt lat="47.18093" lon="5.89048">
        <ele>238.8</ele>
        <time>2021-06-21T11:47:49Z</time>
      </trkpt>
      <trkpt lat="47.18096" lon="5.89047">
        <ele>238.8</ele>
        <time>2021-06-21T11:47:50Z</time>
      </trkpt>
      <trkpt lat="47.18099" lon="5.89046">
        <ele>238.8</ele>
        <time>2021-06-21T11:47:51Z</time>
      </trkpt>
      <trkpt lat="47.18105" lon="5.89047">
        <ele>238.8</ele>
        <time>2021-06-21T11:47:52Z</time>
      </trkpt>
      <trkpt lat="47.1811" lon="5.89047">
        <ele>238.8</ele>
        <time>2021-06-21T11:47:53Z</time>
      </trkpt>
      <trkpt lat="47.18113" lon="5.89046">
        <ele>238.8</ele>
        <time>2021-06-21T11:47:55Z</time>
      </trkpt>
      <trkpt lat="47.18113" lon="5.89046">
        <ele>238.8</ele>
        <time>2021-06-21T11:47:56Z</time>
      </trkpt>
      <trkpt lat="47.18114" lon="5.89046">
        <ele>238.8</ele>
        <time>2021-06-21T11:48:05Z</time>
      </trkpt>
      <trkpt lat="47.18116" lon="5.89047">
        <ele>238.8</ele>
        <time>2021-06-21T11:48:07Z</time>
      </trkpt>
      <trkpt lat="47.18118" lon="5.89048">
        <ele>238.6</ele>
        <time>2021-06-21T11:48:10Z</time>
      </trkpt>
      <trkpt lat="47.18119" lon="5.89049">
        <ele>238.6</ele>
        <time>2021-06-21T11:48:11Z</time>
      </trkpt>
      <trkpt lat="47.1812" lon="5.89049">
        <ele>238.6</ele>
        <time>2021-06-21T11:48:12Z</time>
      </trkpt>
      <trkpt lat="47.18123" lon="5.89052">
        <ele>238.6</ele>
        <time>2021-06-21T11:48:14Z</time>
      </trkpt>
      <trkpt lat="47.18125" lon="5.89053">
        <ele>238.6</ele>
        <time>2021-06-21T11:48:15Z</time>
      </trkpt>
      <trkpt lat="47.18125" lon="5.89054">
        <ele>238.6</ele>
        <time>2021-06-21T11:48:16Z</time>
      </trkpt>
      <trkpt lat="47.18126" lon="5.89054">
        <ele>238.6</ele>
        <time>2021-06-21T11:48:17Z</time>
      </trkpt>
      <trkpt lat="47.18126" lon="5.89054">
        <ele>238.6</ele>
        <time>2021-06-21T11:48:18Z</time>
      </trkpt>
      <trkpt lat="47.1813" lon="5.89054">
        <ele>238.8</ele>
        <time>2021-06-21T11:48:19Z</time>
      </trkpt>
      <trkpt lat="47.18133" lon="5.89054">
        <ele>238.8</ele>
        <time>2021-06-21T11:48:20Z</time>
      </trkpt>
      <trkpt lat="47.18139" lon="5.89052">
        <ele>238.8</ele>
        <time>2021-06-21T11:48:22Z</time>
      </trkpt>
      <trkpt lat="47.18154" lon="5.89051">
        <ele>239</ele>
        <time>2021-06-21T11:48:26Z</time>
      </trkpt>
      <trkpt lat="47.18158" lon="5.89053">
        <ele>238.8</ele>
        <time>2021-06-21T11:48:27Z</time>
      </trkpt>
      <trkpt lat="47.18161" lon="5.89055">
        <ele>238.8</ele>
        <time>2021-06-21T11:48:28Z</time>
      </trkpt>
      <trkpt lat="47.18163" lon="5.89057">
        <ele>238.8</ele>
        <time>2021-06-21T11:48:29Z</time>
      </trkpt>
      <trkpt lat="47.18165" lon="5.89058">
        <ele>238.6</ele>
        <time>2021-06-21T11:48:30Z</time>
      </trkpt>
      <trkpt lat="47.18168" lon="5.89057">
        <ele>238.6</ele>
        <time>2021-06-21T11:48:31Z</time>
      </trkpt>
      <trkpt lat="47.18171" lon="5.89057">
        <ele>238.6</ele>
        <time>2021-06-21T11:48:32Z</time>
      </trkpt>
      <trkpt lat="47.18175" lon="5.89058">
        <ele>238.6</ele>
        <time>2021-06-21T11:48:33Z</time>
      </trkpt>
      <trkpt lat="47.18179" lon="5.89059">
        <ele>238.6</ele>
        <time>2021-06-21T11:48:34Z</time>
      </trkpt>
      <trkpt lat="47.1819" lon="5.89063">
        <ele>238.6</ele>
        <time>2021-06-21T11:48:37Z</time>
      </trkpt>
      <trkpt lat="47.182" lon="5.89065">
        <ele>238.6</ele>
        <time>2021-06-21T11:48:41Z</time>
      </trkpt>
      <trkpt lat="47.18202" lon="5.89069">
        <ele>238.6</ele>
        <time>2021-06-21T11:48:43Z</time>
      </trkpt>
      <trkpt lat="47.18202" lon="5.89074">
        <ele>238.6</ele>
        <time>2021-06-21T11:48:44Z</time>
      </trkpt>
      <trkpt lat="47.18203" lon="5.89075">
        <ele>238.6</ele>
        <time>2021-06-21T11:48:45Z</time>
      </trkpt>
      <trkpt lat="47.18204" lon="5.89076">
        <ele>238.6</ele>
        <time>2021-06-21T11:48:46Z</time>
      </trkpt>
      <trkpt lat="47.18205" lon="5.89077">
        <ele>238.8</ele>
        <time>2021-06-21T11:48:47Z</time>
      </trkpt>
      <trkpt lat="47.18206" lon="5.89077">
        <ele>239.2</ele>
        <time>2021-06-21T11:48:48Z</time>
      </trkpt>
      <trkpt lat="47.18206" lon="5.89077">
        <ele>239.4</ele>
        <time>2021-06-21T11:48:49Z</time>
      </trkpt>
      <trkpt lat="47.18207" lon="5.89078">
        <ele>239.4</ele>
        <time>2021-06-21T11:48:50Z</time>
      </trkpt>
      <trkpt lat="47.18208" lon="5.89079">
        <ele>239.4</ele>
        <time>2021-06-21T11:48:51Z</time>
      </trkpt>
      <trkpt lat="47.18214" lon="5.89082">
        <ele>239.6</ele>
        <time>2021-06-21T11:48:54Z</time>
      </trkpt>
      <trkpt lat="47.18221" lon="5.89082">
        <ele>239.6</ele>
        <time>2021-06-21T11:48:57Z</time>
      </trkpt>
      <trkpt lat="47.18221" lon="5.89082">
        <ele>239.6</ele>
        <time>2021-06-21T11:48:58Z</time>
      </trkpt>
      <trkpt lat="47.1823" lon="5.89079">
        <ele>239.4</ele>
        <time>2021-06-21T11:49:01Z</time>
      </trkpt>
      <trkpt lat="47.1825" lon="5.89083">
        <ele>239.2</ele>
        <time>2021-06-21T11:49:09Z</time>
      </trkpt>
      <trkpt lat="47.18259" lon="5.89086">
        <ele>239.2</ele>
        <time>2021-06-21T11:49:13Z</time>
      </trkpt>
      <trkpt lat="47.18261" lon="5.89087">
        <ele>239.2</ele>
        <time>2021-06-21T11:49:14Z</time>
      </trkpt>
      <trkpt lat="47.18263" lon="5.89086">
        <ele>239.2</ele>
        <time>2021-06-21T11:49:15Z</time>
      </trkpt>
      <trkpt lat="47.18265" lon="5.89086">
        <ele>239.2</ele>
        <time>2021-06-21T11:49:16Z</time>
      </trkpt>
      <trkpt lat="47.18267" lon="5.89087">
        <ele>239.2</ele>
        <time>2021-06-21T11:49:17Z</time>
      </trkpt>
      <trkpt lat="47.18269" lon="5.89089">
        <ele>239</ele>
        <time>2021-06-21T11:49:18Z</time>
      </trkpt>
      <trkpt lat="47.18271" lon="5.8909">
        <ele>239</ele>
        <time>2021-06-21T11:49:19Z</time>
      </trkpt>
      <trkpt lat="47.18274" lon="5.89091">
        <ele>239</ele>
        <time>2021-06-21T11:49:20Z</time>
      </trkpt>
      <trkpt lat="47.18276" lon="5.89092">
        <ele>239</ele>
        <time>2021-06-21T11:49:21Z</time>
      </trkpt>
      <trkpt lat="47.18278" lon="5.89092">
        <ele>239</ele>
        <time>2021-06-21T11:49:22Z</time>
      </trkpt>
      <trkpt lat="47.1828" lon="5.89092">
        <ele>239</ele>
        <time>2021-06-21T11:49:23Z</time>
      </trkpt>
      <trkpt lat="47.18283" lon="5.89092">
        <ele>239</ele>
        <time>2021-06-21T11:49:24Z</time>
      </trkpt>
      <trkpt lat="47.18292" lon="5.89091">
        <ele>239</ele>
        <time>2021-06-21T11:49:27Z</time>
      </trkpt>
      <trkpt lat="47.18298" lon="5.89092">
        <ele>239</ele>
        <time>2021-06-21T11:49:29Z</time>
      </trkpt>
      <trkpt lat="47.1831" lon="5.89094">
        <ele>238.6</ele>
        <time>2021-06-21T11:49:34Z</time>
      </trkpt>
      <trkpt lat="47.18311" lon="5.89095">
        <ele>238.4</ele>
        <time>2021-06-21T11:49:35Z</time>
      </trkpt>
      <trkpt lat="47.18312" lon="5.89095">
        <ele>238.4</ele>
        <time>2021-06-21T11:49:36Z</time>
      </trkpt>
      <trkpt lat="47.18314" lon="5.89096">
        <ele>238.2</ele>
        <time>2021-06-21T11:49:37Z</time>
      </trkpt>
      <trkpt lat="47.18324" lon="5.89101">
        <ele>238.2</ele>
        <time>2021-06-21T11:49:42Z</time>
      </trkpt>
      <trkpt lat="47.18326" lon="5.89101">
        <ele>238.2</ele>
        <time>2021-06-21T11:49:43Z</time>
      </trkpt>
      <trkpt lat="47.18328" lon="5.89102">
        <ele>238.2</ele>
        <time>2021-06-21T11:49:44Z</time>
      </trkpt>
      <trkpt lat="47.18338" lon="5.89109">
        <ele>238.2</ele>
        <time>2021-06-21T11:49:48Z</time>
      </trkpt>
      <trkpt lat="47.18354" lon="5.89114">
        <ele>238.2</ele>
        <time>2021-06-21T11:49:55Z</time>
      </trkpt>
      <trkpt lat="47.18357" lon="5.89116">
        <ele>238.2</ele>
        <time>2021-06-21T11:49:56Z</time>
      </trkpt>
      <trkpt lat="47.18363" lon="5.89122">
        <ele>238.2</ele>
        <time>2021-06-21T11:49:59Z</time>
      </trkpt>
      <trkpt lat="47.18364" lon="5.89124">
        <ele>238.2</ele>
        <time>2021-06-21T11:50:00Z</time>
      </trkpt>
      <trkpt lat="47.18366" lon="5.89127">
        <ele>238.2</ele>
        <time>2021-06-21T11:50:01Z</time>
      </trkpt>
      <trkpt lat="47.18367" lon="5.8913">
        <ele>238.2</ele>
        <time>2021-06-21T11:50:02Z</time>
      </trkpt>
      <trkpt lat="47.18369" lon="5.89133">
        <ele>238.2</ele>
        <time>2021-06-21T11:50:03Z</time>
      </trkpt>
      <trkpt lat="47.1837" lon="5.89135">
        <ele>238.2</ele>
        <time>2021-06-21T11:50:04Z</time>
      </trkpt>
      <trkpt lat="47.18376" lon="5.8914">
        <ele>238.2</ele>
        <time>2021-06-21T11:50:07Z</time>
      </trkpt>
      <trkpt lat="47.18378" lon="5.89141">
        <ele>238.2</ele>
        <time>2021-06-21T11:50:08Z</time>
      </trkpt>
      <trkpt lat="47.1838" lon="5.89142">
        <ele>238.2</ele>
        <time>2021-06-21T11:50:09Z</time>
      </trkpt>
      <trkpt lat="47.18382" lon="5.89143">
        <ele>238.2</ele>
        <time>2021-06-21T11:50:10Z</time>
      </trkpt>
      <trkpt lat="47.18384" lon="5.89145">
        <ele>238.2</ele>
        <time>2021-06-21T11:50:11Z</time>
      </trkpt>
      <trkpt lat="47.18385" lon="5.89147">
        <ele>238.2</ele>
        <time>2021-06-21T11:50:12Z</time>
      </trkpt>
      <trkpt lat="47.18387" lon="5.89148">
        <ele>238.2</ele>
        <time>2021-06-21T11:50:13Z</time>
      </trkpt>
      <trkpt lat="47.18389" lon="5.8915">
        <ele>238.2</ele>
        <time>2021-06-21T11:50:14Z</time>
      </trkpt>
      <trkpt lat="47.18391" lon="5.89151">
        <ele>238.2</ele>
        <time>2021-06-21T11:50:15Z</time>
      </trkpt>
      <trkpt lat="47.18394" lon="5.89153">
        <ele>238.4</ele>
        <time>2021-06-21T11:50:16Z</time>
      </trkpt>
      <trkpt lat="47.18405" lon="5.89164">
        <ele>238.8</ele>
        <time>2021-06-21T11:50:21Z</time>
      </trkpt>
      <trkpt lat="47.1842" lon="5.89184">
        <ele>238.8</ele>
        <time>2021-06-21T11:50:28Z</time>
      </trkpt>
      <trkpt lat="47.18421" lon="5.8919">
        <ele>238.6</ele>
        <time>2021-06-21T11:50:30Z</time>
      </trkpt>
      <trkpt lat="47.18422" lon="5.89192">
        <ele>238.6</ele>
        <time>2021-06-21T11:50:31Z</time>
      </trkpt>
      <trkpt lat="47.18422" lon="5.89195">
        <ele>238.6</ele>
        <time>2021-06-21T11:50:32Z</time>
      </trkpt>
      <trkpt lat="47.18423" lon="5.89198">
        <ele>238.6</ele>
        <time>2021-06-21T11:50:33Z</time>
      </trkpt>
      <trkpt lat="47.18427" lon="5.89206">
        <ele>238.4</ele>
        <time>2021-06-21T11:50:35Z</time>
      </trkpt>
      <trkpt lat="47.18427" lon="5.89209">
        <ele>238.4</ele>
        <time>2021-06-21T11:50:36Z</time>
      </trkpt>
      <trkpt lat="47.18428" lon="5.89215">
        <ele>238.4</ele>
        <time>2021-06-21T11:50:38Z</time>
      </trkpt>
      <trkpt lat="47.18429" lon="5.89217">
        <ele>238.4</ele>
        <time>2021-06-21T11:50:39Z</time>
      </trkpt>
      <trkpt lat="47.1843" lon="5.89221">
        <ele>238.6</ele>
        <time>2021-06-21T11:50:40Z</time>
      </trkpt>
      <trkpt lat="47.1843" lon="5.89224">
        <ele>238.6</ele>
        <time>2021-06-21T11:50:41Z</time>
      </trkpt>
      <trkpt lat="47.1843" lon="5.89226">
        <ele>238.8</ele>
        <time>2021-06-21T11:50:42Z</time>
      </trkpt>
      <trkpt lat="47.18431" lon="5.89229">
        <ele>238.8</ele>
        <time>2021-06-21T11:50:43Z</time>
      </trkpt>
      <trkpt lat="47.18432" lon="5.89232">
        <ele>238.8</ele>
        <time>2021-06-21T11:50:44Z</time>
      </trkpt>
      <trkpt lat="47.18432" lon="5.89233">
        <ele>239.4</ele>
        <time>2021-06-21T11:50:45Z</time>
      </trkpt>
      <trkpt lat="47.18432" lon="5.89233">
        <ele>239.4</ele>
        <time>2021-06-21T11:50:46Z</time>
      </trkpt>
      <trkpt lat="47.18432" lon="5.89233">
        <ele>239.6</ele>
        <time>2021-06-21T11:50:47Z</time>
      </trkpt>
      <trkpt lat="47.18433" lon="5.89236">
        <ele>239.8</ele>
        <time>2021-06-21T11:50:54Z</time>
      </trkpt>
      <trkpt lat="47.18434" lon="5.89238">
        <ele>239.6</ele>
        <time>2021-06-21T11:50:55Z</time>
      </trkpt>
      <trkpt lat="47.18439" lon="5.89258">
        <ele>239.4</ele>
        <time>2021-06-21T11:51:01Z</time>
      </trkpt>
      <trkpt lat="47.18442" lon="5.89279">
        <ele>239.4</ele>
        <time>2021-06-21T11:51:05Z</time>
      </trkpt>
      <trkpt lat="47.18441" lon="5.89302">
        <ele>239.4</ele>
        <time>2021-06-21T11:51:09Z</time>
      </trkpt>
      <trkpt lat="47.1844" lon="5.89314">
        <ele>239.4</ele>
        <time>2021-06-21T11:51:11Z</time>
      </trkpt>
      <trkpt lat="47.18439" lon="5.89319">
        <ele>239.4</ele>
        <time>2021-06-21T11:51:12Z</time>
      </trkpt>
      <trkpt lat="47.18438" lon="5.89324">
        <ele>239.4</ele>
        <time>2021-06-21T11:51:13Z</time>
      </trkpt>
      <trkpt lat="47.18437" lon="5.89328">
        <ele>239.6</ele>
        <time>2021-06-21T11:51:14Z</time>
      </trkpt>
      <trkpt lat="47.18436" lon="5.89332">
        <ele>239.6</ele>
        <time>2021-06-21T11:51:15Z</time>
      </trkpt>
      <trkpt lat="47.18435" lon="5.89336">
        <ele>239.6</ele>
        <time>2021-06-21T11:51:16Z</time>
      </trkpt>
      <trkpt lat="47.18434" lon="5.8934">
        <ele>239.8</ele>
        <time>2021-06-21T11:51:17Z</time>
      </trkpt>
      <trkpt lat="47.18433" lon="5.89346">
        <ele>239.8</ele>
        <time>2021-06-21T11:51:18Z</time>
      </trkpt>
      <trkpt lat="47.18429" lon="5.89358">
        <ele>239.8</ele>
        <time>2021-06-21T11:51:21Z</time>
      </trkpt>
      <trkpt lat="47.18428" lon="5.89363">
        <ele>239.8</ele>
        <time>2021-06-21T11:51:22Z</time>
      </trkpt>
      <trkpt lat="47.18423" lon="5.89388">
        <ele>239.8</ele>
        <time>2021-06-21T11:51:26Z</time>
      </trkpt>
      <trkpt lat="47.18418" lon="5.89397">
        <ele>239.8</ele>
        <time>2021-06-21T11:51:28Z</time>
      </trkpt>
      <trkpt lat="47.18415" lon="5.89402">
        <ele>239.8</ele>
        <time>2021-06-21T11:51:29Z</time>
      </trkpt>
      <trkpt lat="47.18415" lon="5.89402">
        <ele>240</ele>
        <time>2021-06-21T11:51:30Z</time>
      </trkpt>
      <trkpt lat="47.18411" lon="5.89412">
        <ele>239.8</ele>
        <time>2021-06-21T11:51:31Z</time>
      </trkpt>
      <trkpt lat="47.18409" lon="5.89417">
        <ele>240</ele>
        <time>2021-06-21T11:51:32Z</time>
      </trkpt>
      <trkpt lat="47.18393" lon="5.89441">
        <ele>240.2</ele>
        <time>2021-06-21T11:51:38Z</time>
      </trkpt>
      <trkpt lat="47.18384" lon="5.89451">
        <ele>240.4</ele>
        <time>2021-06-21T11:51:41Z</time>
      </trkpt>
      <trkpt lat="47.18382" lon="5.89454">
        <ele>240.4</ele>
        <time>2021-06-21T11:51:42Z</time>
      </trkpt>
      <trkpt lat="47.18379" lon="5.89457">
        <ele>240.4</ele>
        <time>2021-06-21T11:51:43Z</time>
      </trkpt>
      <trkpt lat="47.18375" lon="5.89461">
        <ele>240.4</ele>
        <time>2021-06-21T11:51:44Z</time>
      </trkpt>
      <trkpt lat="47.18357" lon="5.89481">
        <ele>240.8</ele>
        <time>2021-06-21T11:51:50Z</time>
      </trkpt>
      <trkpt lat="47.18354" lon="5.89485">
        <ele>241</ele>
        <time>2021-06-21T11:51:51Z</time>
      </trkpt>
      <trkpt lat="47.1835" lon="5.89488">
        <ele>241</ele>
        <time>2021-06-21T11:51:52Z</time>
      </trkpt>
      <trkpt lat="47.18348" lon="5.89491">
        <ele>241</ele>
        <time>2021-06-21T11:51:53Z</time>
      </trkpt>
      <trkpt lat="47.18345" lon="5.89495">
        <ele>241.2</ele>
        <time>2021-06-21T11:51:54Z</time>
      </trkpt>
      <trkpt lat="47.18338" lon="5.89504">
        <ele>241.2</ele>
        <time>2021-06-21T11:51:56Z</time>
      </trkpt>
      <trkpt lat="47.18324" lon="5.89521">
        <ele>241.4</ele>
        <time>2021-06-21T11:52:00Z</time>
      </trkpt>
      <trkpt lat="47.1832" lon="5.89525">
        <ele>241.2</ele>
        <time>2021-06-21T11:52:01Z</time>
      </trkpt>
      <trkpt lat="47.18316" lon="5.89529">
        <ele>241.2</ele>
        <time>2021-06-21T11:52:02Z</time>
      </trkpt>
      <trkpt lat="47.18312" lon="5.89534">
        <ele>241.2</ele>
        <time>2021-06-21T11:52:03Z</time>
      </trkpt>
      <trkpt lat="47.1829" lon="5.89561">
        <ele>240.8</ele>
        <time>2021-06-21T11:52:08Z</time>
      </trkpt>
      <trkpt lat="47.18286" lon="5.89566">
        <ele>240.8</ele>
        <time>2021-06-21T11:52:09Z</time>
      </trkpt>
      <trkpt lat="47.18283" lon="5.89572">
        <ele>240.8</ele>
        <time>2021-06-21T11:52:10Z</time>
      </trkpt>
      <trkpt lat="47.18281" lon="5.89577">
        <ele>240.8</ele>
        <time>2021-06-21T11:52:11Z</time>
      </trkpt>
      <trkpt lat="47.1828" lon="5.89582">
        <ele>240.6</ele>
        <time>2021-06-21T11:52:12Z</time>
      </trkpt>
      <trkpt lat="47.18278" lon="5.89586">
        <ele>240.6</ele>
        <time>2021-06-21T11:52:13Z</time>
      </trkpt>
      <trkpt lat="47.18277" lon="5.89591">
        <ele>240.6</ele>
        <time>2021-06-21T11:52:14Z</time>
      </trkpt>
      <trkpt lat="47.18275" lon="5.89596">
        <ele>240.6</ele>
        <time>2021-06-21T11:52:15Z</time>
      </trkpt>
      <trkpt lat="47.18267" lon="5.89614">
        <ele>240.6</ele>
        <time>2021-06-21T11:52:19Z</time>
      </trkpt>
      <trkpt lat="47.18265" lon="5.89617">
        <ele>240.6</ele>
        <time>2021-06-21T11:52:20Z</time>
      </trkpt>
      <trkpt lat="47.18262" lon="5.8962">
        <ele>240.6</ele>
        <time>2021-06-21T11:52:21Z</time>
      </trkpt>
      <trkpt lat="47.18259" lon="5.89624">
        <ele>240.6</ele>
        <time>2021-06-21T11:52:22Z</time>
      </trkpt>
      <trkpt lat="47.18256" lon="5.89629">
        <ele>240.6</ele>
        <time>2021-06-21T11:52:23Z</time>
      </trkpt>
      <trkpt lat="47.18252" lon="5.89633">
        <ele>240.6</ele>
        <time>2021-06-21T11:52:24Z</time>
      </trkpt>
      <trkpt lat="47.18244" lon="5.89644">
        <ele>240.8</ele>
        <time>2021-06-21T11:52:27Z</time>
      </trkpt>
      <trkpt lat="47.18241" lon="5.89648">
        <ele>240.8</ele>
        <time>2021-06-21T11:52:28Z</time>
      </trkpt>
      <trkpt lat="47.18239" lon="5.89651">
        <ele>241</ele>
        <time>2021-06-21T11:52:29Z</time>
      </trkpt>
      <trkpt lat="47.18235" lon="5.89657">
        <ele>241</ele>
        <time>2021-06-21T11:52:31Z</time>
      </trkpt>
      <trkpt lat="47.18233" lon="5.89658">
        <ele>241</ele>
        <time>2021-06-21T11:52:32Z</time>
      </trkpt>
      <trkpt lat="47.18232" lon="5.89661">
        <ele>241</ele>
        <time>2021-06-21T11:52:33Z</time>
      </trkpt>
      <trkpt lat="47.1823" lon="5.89665">
        <ele>241</ele>
        <time>2021-06-21T11:52:34Z</time>
      </trkpt>
      <trkpt lat="47.18228" lon="5.89667">
        <ele>241</ele>
        <time>2021-06-21T11:52:35Z</time>
      </trkpt>
      <trkpt lat="47.18227" lon="5.89668">
        <ele>241.2</ele>
        <time>2021-06-21T11:52:36Z</time>
      </trkpt>
      <trkpt lat="47.18227" lon="5.89669">
        <ele>241.2</ele>
        <time>2021-06-21T11:52:37Z</time>
      </trkpt>
      <trkpt lat="47.18226" lon="5.89671">
        <ele>241.2</ele>
        <time>2021-06-21T11:52:38Z</time>
      </trkpt>
      <trkpt lat="47.18224" lon="5.89673">
        <ele>241.2</ele>
        <time>2021-06-21T11:52:39Z</time>
      </trkpt>
      <trkpt lat="47.18223" lon="5.89675">
        <ele>241.2</ele>
        <time>2021-06-21T11:52:40Z</time>
      </trkpt>
      <trkpt lat="47.18216" lon="5.89682">
        <ele>241.4</ele>
        <time>2021-06-21T11:52:44Z</time>
      </trkpt>
      <trkpt lat="47.18214" lon="5.89684">
        <ele>241.4</ele>
        <time>2021-06-21T11:52:45Z</time>
      </trkpt>
      <trkpt lat="47.18213" lon="5.89686">
        <ele>241.4</ele>
        <time>2021-06-21T11:52:46Z</time>
      </trkpt>
      <trkpt lat="47.18211" lon="5.89688">
        <ele>241.4</ele>
        <time>2021-06-21T11:52:47Z</time>
      </trkpt>
      <trkpt lat="47.18205" lon="5.89696">
        <ele>241.4</ele>
        <time>2021-06-21T11:52:52Z</time>
      </trkpt>
      <trkpt lat="47.18205" lon="5.89696">
        <ele>241.4</ele>
        <time>2021-06-21T11:52:53Z</time>
      </trkpt>
      <trkpt lat="47.18205" lon="5.89699">
        <ele>241.2</ele>
        <time>2021-06-21T11:52:56Z</time>
      </trkpt>
      <trkpt lat="47.18201" lon="5.89707">
        <ele>241.2</ele>
        <time>2021-06-21T11:52:59Z</time>
      </trkpt>
      <trkpt lat="47.18201" lon="5.89707">
        <ele>241.2</ele>
        <time>2021-06-21T11:53:00Z</time>
      </trkpt>
      <trkpt lat="47.18198" lon="5.89712">
        <ele>241.2</ele>
        <time>2021-06-21T11:53:01Z</time>
      </trkpt>
      <trkpt lat="47.18189" lon="5.89721">
        <ele>241.2</ele>
        <time>2021-06-21T11:53:05Z</time>
      </trkpt>
      <trkpt lat="47.18189" lon="5.89723">
        <ele>241.2</ele>
        <time>2021-06-21T11:53:06Z</time>
      </trkpt>
      <trkpt lat="47.18188" lon="5.89726">
        <ele>241.2</ele>
        <time>2021-06-21T11:53:07Z</time>
      </trkpt>
      <trkpt lat="47.18188" lon="5.8973">
        <ele>241.2</ele>
        <time>2021-06-21T11:53:08Z</time>
      </trkpt>
      <trkpt lat="47.18187" lon="5.89733">
        <ele>241</ele>
        <time>2021-06-21T11:53:09Z</time>
      </trkpt>
      <trkpt lat="47.18186" lon="5.89736">
        <ele>241</ele>
        <time>2021-06-21T11:53:10Z</time>
      </trkpt>
      <trkpt lat="47.18184" lon="5.89738">
        <ele>241</ele>
        <time>2021-06-21T11:53:11Z</time>
      </trkpt>
      <trkpt lat="47.18181" lon="5.89742">
        <ele>240.8</ele>
        <time>2021-06-21T11:53:12Z</time>
      </trkpt>
      <trkpt lat="47.18178" lon="5.89746">
        <ele>240.8</ele>
        <time>2021-06-21T11:53:13Z</time>
      </trkpt>
      <trkpt lat="47.18175" lon="5.8975">
        <ele>240.4</ele>
        <time>2021-06-21T11:53:14Z</time>
      </trkpt>
      <trkpt lat="47.18172" lon="5.89755">
        <ele>240.2</ele>
        <time>2021-06-21T11:53:15Z</time>
      </trkpt>
      <trkpt lat="47.18159" lon="5.8977">
        <ele>239.8</ele>
        <time>2021-06-21T11:53:19Z</time>
      </trkpt>
      <trkpt lat="47.18155" lon="5.89771">
        <ele>239.8</ele>
        <time>2021-06-21T11:53:20Z</time>
      </trkpt>
      <trkpt lat="47.18149" lon="5.89771">
        <ele>239.6</ele>
        <time>2021-06-21T11:53:21Z</time>
      </trkpt>
      <trkpt lat="47.18145" lon="5.89772">
        <ele>239.6</ele>
        <time>2021-06-21T11:53:22Z</time>
      </trkpt>
      <trkpt lat="47.18141" lon="5.89774">
        <ele>239.4</ele>
        <time>2021-06-21T11:53:23Z</time>
      </trkpt>
      <trkpt lat="47.18138" lon="5.89778">
        <ele>239.4</ele>
        <time>2021-06-21T11:53:24Z</time>
      </trkpt>
      <trkpt lat="47.18136" lon="5.89781">
        <ele>239.4</ele>
        <time>2021-06-21T11:53:25Z</time>
      </trkpt>
      <trkpt lat="47.18134" lon="5.89784">
        <ele>239.4</ele>
        <time>2021-06-21T11:53:26Z</time>
      </trkpt>
      <trkpt lat="47.18132" lon="5.89787">
        <ele>239.4</ele>
        <time>2021-06-21T11:53:27Z</time>
      </trkpt>
      <trkpt lat="47.18132" lon="5.89791">
        <ele>239.4</ele>
        <time>2021-06-21T11:53:28Z</time>
      </trkpt>
      <trkpt lat="47.18132" lon="5.89795">
        <ele>239.4</ele>
        <time>2021-06-21T11:53:29Z</time>
      </trkpt>
      <trkpt lat="47.18131" lon="5.89801">
        <ele>239.4</ele>
        <time>2021-06-21T11:53:30Z</time>
      </trkpt>
      <trkpt lat="47.18131" lon="5.89806">
        <ele>239.4</ele>
        <time>2021-06-21T11:53:31Z</time>
      </trkpt>
      <trkpt lat="47.1813" lon="5.89811">
        <ele>239.4</ele>
        <time>2021-06-21T11:53:32Z</time>
      </trkpt>
      <trkpt lat="47.18129" lon="5.89817">
        <ele>239.4</ele>
        <time>2021-06-21T11:53:33Z</time>
      </trkpt>
      <trkpt lat="47.18127" lon="5.89822">
        <ele>239.4</ele>
        <time>2021-06-21T11:53:34Z</time>
      </trkpt>
      <trkpt lat="47.18114" lon="5.89847">
        <ele>239.6</ele>
        <time>2021-06-21T11:53:39Z</time>
      </trkpt>
      <trkpt lat="47.18103" lon="5.89868">
        <ele>239.8</ele>
        <time>2021-06-21T11:53:43Z</time>
      </trkpt>
      <trkpt lat="47.18095" lon="5.89884">
        <ele>239.6</ele>
        <time>2021-06-21T11:53:46Z</time>
      </trkpt>
      <trkpt lat="47.18074" lon="5.89925">
        <ele>239.8</ele>
        <time>2021-06-21T11:53:54Z</time>
      </trkpt>
      <trkpt lat="47.18072" lon="5.89929">
        <ele>239.8</ele>
        <time>2021-06-21T11:53:55Z</time>
      </trkpt>
      <trkpt lat="47.18069" lon="5.89933">
        <ele>239.8</ele>
        <time>2021-06-21T11:53:56Z</time>
      </trkpt>
      <trkpt lat="47.18067" lon="5.89937">
        <ele>239.8</ele>
        <time>2021-06-21T11:53:57Z</time>
      </trkpt>
      <trkpt lat="47.18065" lon="5.89941">
        <ele>239.8</ele>
        <time>2021-06-21T11:53:58Z</time>
      </trkpt>
      <trkpt lat="47.18063" lon="5.89945">
        <ele>239.8</ele>
        <time>2021-06-21T11:53:59Z</time>
      </trkpt>
      <trkpt lat="47.18061" lon="5.89948">
        <ele>239.8</ele>
        <time>2021-06-21T11:54:00Z</time>
      </trkpt>
      <trkpt lat="47.18059" lon="5.89951">
        <ele>239.8</ele>
        <time>2021-06-21T11:54:01Z</time>
      </trkpt>
      <trkpt lat="47.18057" lon="5.89954">
        <ele>239.8</ele>
        <time>2021-06-21T11:54:02Z</time>
      </trkpt>
      <trkpt lat="47.18055" lon="5.89957">
        <ele>239.8</ele>
        <time>2021-06-21T11:54:03Z</time>
      </trkpt>
      <trkpt lat="47.1805" lon="5.89965">
        <ele>239.8</ele>
        <time>2021-06-21T11:54:06Z</time>
      </trkpt>
      <trkpt lat="47.18048" lon="5.89967">
        <ele>239.8</ele>
        <time>2021-06-21T11:54:07Z</time>
      </trkpt>
      <trkpt lat="47.18047" lon="5.89969">
        <ele>239.8</ele>
        <time>2021-06-21T11:54:08Z</time>
      </trkpt>
      <trkpt lat="47.18045" lon="5.89972">
        <ele>239.8</ele>
        <time>2021-06-21T11:54:09Z</time>
      </trkpt>
      <trkpt lat="47.18043" lon="5.89975">
        <ele>239.8</ele>
        <time>2021-06-21T11:54:10Z</time>
      </trkpt>
      <trkpt lat="47.18037" lon="5.89981">
        <ele>239.8</ele>
        <time>2021-06-21T11:54:12Z</time>
      </trkpt>
      <trkpt lat="47.1802" lon="5.89993">
        <ele>240</ele>
        <time>2021-06-21T11:54:17Z</time>
      </trkpt>
      <trkpt lat="47.18015" lon="5.90003">
        <ele>240</ele>
        <time>2021-06-21T11:54:19Z</time>
      </trkpt>
      <trkpt lat="47.18013" lon="5.90008">
        <ele>240</ele>
        <time>2021-06-21T11:54:20Z</time>
      </trkpt>
      <trkpt lat="47.18011" lon="5.90014">
        <ele>240</ele>
        <time>2021-06-21T11:54:21Z</time>
      </trkpt>
      <trkpt lat="47.18009" lon="5.9002">
        <ele>240</ele>
        <time>2021-06-21T11:54:22Z</time>
      </trkpt>
      <trkpt lat="47.17991" lon="5.90064">
        <ele>240.2</ele>
        <time>2021-06-21T11:54:29Z</time>
      </trkpt>
      <trkpt lat="47.17966" lon="5.901">
        <ele>240.4</ele>
        <time>2021-06-21T11:54:36Z</time>
      </trkpt>
      <trkpt lat="47.17944" lon="5.90131">
        <ele>240.2</ele>
        <time>2021-06-21T11:54:42Z</time>
      </trkpt>
      <trkpt lat="47.17941" lon="5.90137">
        <ele>240.2</ele>
        <time>2021-06-21T11:54:44Z</time>
      </trkpt>
      <trkpt lat="47.17922" lon="5.90191">
        <ele>240.2</ele>
        <time>2021-06-21T11:54:52Z</time>
      </trkpt>
      <trkpt lat="47.1792" lon="5.90196">
        <ele>240.2</ele>
        <time>2021-06-21T11:54:53Z</time>
      </trkpt>
      <trkpt lat="47.17917" lon="5.902">
        <ele>240.4</ele>
        <time>2021-06-21T11:54:54Z</time>
      </trkpt>
      <trkpt lat="47.17914" lon="5.90206">
        <ele>240.4</ele>
        <time>2021-06-21T11:54:55Z</time>
      </trkpt>
      <trkpt lat="47.17911" lon="5.90211">
        <ele>240.4</ele>
        <time>2021-06-21T11:54:56Z</time>
      </trkpt>
      <trkpt lat="47.17904" lon="5.90221">
        <ele>240.4</ele>
        <time>2021-06-21T11:54:58Z</time>
      </trkpt>
      <trkpt lat="47.179" lon="5.90224">
        <ele>240.4</ele>
        <time>2021-06-21T11:54:59Z</time>
      </trkpt>
      <trkpt lat="47.17897" lon="5.90226">
        <ele>240.4</ele>
        <time>2021-06-21T11:55:00Z</time>
      </trkpt>
      <trkpt lat="47.17894" lon="5.90226">
        <ele>240.6</ele>
        <time>2021-06-21T11:55:01Z</time>
      </trkpt>
      <trkpt lat="47.17891" lon="5.90225">
        <ele>240.6</ele>
        <time>2021-06-21T11:55:02Z</time>
      </trkpt>
      <trkpt lat="47.17889" lon="5.90224">
        <ele>240.6</ele>
        <time>2021-06-21T11:55:03Z</time>
      </trkpt>
      <trkpt lat="47.17888" lon="5.90224">
        <ele>240.6</ele>
        <time>2021-06-21T11:55:04Z</time>
      </trkpt>
      <trkpt lat="47.17886" lon="5.90224">
        <ele>240.8</ele>
        <time>2021-06-21T11:55:05Z</time>
      </trkpt>
      <trkpt lat="47.17883" lon="5.90225">
        <ele>241</ele>
        <time>2021-06-21T11:55:06Z</time>
      </trkpt>
      <trkpt lat="47.17881" lon="5.90227">
        <ele>241</ele>
        <time>2021-06-21T11:55:07Z</time>
      </trkpt>
      <trkpt lat="47.17879" lon="5.90229">
        <ele>241.2</ele>
        <time>2021-06-21T11:55:08Z</time>
      </trkpt>
      <trkpt lat="47.17877" lon="5.90231">
        <ele>241.4</ele>
        <time>2021-06-21T11:55:09Z</time>
      </trkpt>
      <trkpt lat="47.17875" lon="5.90234">
        <ele>241.4</ele>
        <time>2021-06-21T11:55:10Z</time>
      </trkpt>
      <trkpt lat="47.17873" lon="5.90238">
        <ele>241.4</ele>
        <time>2021-06-21T11:55:11Z</time>
      </trkpt>
      <trkpt lat="47.17871" lon="5.90243">
        <ele>241.6</ele>
        <time>2021-06-21T11:55:12Z</time>
      </trkpt>
      <trkpt lat="47.17869" lon="5.90247">
        <ele>241.6</ele>
        <time>2021-06-21T11:55:13Z</time>
      </trkpt>
      <trkpt lat="47.17867" lon="5.90252">
        <ele>241.6</ele>
        <time>2021-06-21T11:55:14Z</time>
      </trkpt>
      <trkpt lat="47.17857" lon="5.90272">
        <ele>241.6</ele>
        <time>2021-06-21T11:55:19Z</time>
      </trkpt>
      <trkpt lat="47.17857" lon="5.90272">
        <ele>241.6</ele>
        <time>2021-06-21T11:55:20Z</time>
      </trkpt>
      <trkpt lat="47.17854" lon="5.9028">
        <ele>241.6</ele>
        <time>2021-06-21T11:55:21Z</time>
      </trkpt>
      <trkpt lat="47.17852" lon="5.90284">
        <ele>241.8</ele>
        <time>2021-06-21T11:55:22Z</time>
      </trkpt>
      <trkpt lat="47.1785" lon="5.90287">
        <ele>241.8</ele>
        <time>2021-06-21T11:55:23Z</time>
      </trkpt>
      <trkpt lat="47.17848" lon="5.90289">
        <ele>241.6</ele>
        <time>2021-06-21T11:55:24Z</time>
      </trkpt>
      <trkpt lat="47.17847" lon="5.90292">
        <ele>241.6</ele>
        <time>2021-06-21T11:55:25Z</time>
      </trkpt>
      <trkpt lat="47.17845" lon="5.90295">
        <ele>241.8</ele>
        <time>2021-06-21T11:55:26Z</time>
      </trkpt>
      <trkpt lat="47.17843" lon="5.90296">
        <ele>241.8</ele>
        <time>2021-06-21T11:55:27Z</time>
      </trkpt>
      <trkpt lat="47.17842" lon="5.90297">
        <ele>241.8</ele>
        <time>2021-06-21T11:55:28Z</time>
      </trkpt>
      <trkpt lat="47.17842" lon="5.90297">
        <ele>241.8</ele>
        <time>2021-06-21T11:55:29Z</time>
      </trkpt>
      <trkpt lat="47.17842" lon="5.90297">
        <ele>241.8</ele>
        <time>2021-06-21T11:55:30Z</time>
      </trkpt>
      <trkpt lat="47.17842" lon="5.90297">
        <ele>241.8</ele>
        <time>2021-06-21T11:55:31Z</time>
      </trkpt>
      <trkpt lat="47.17842" lon="5.90297">
        <ele>241.8</ele>
        <time>2021-06-21T11:55:32Z</time>
      </trkpt>
    </trkseg>
  </trk>
</gpx>